<?xml version="1.0" encoding="UTF-8" standalone="no" ?>
<gpx xmlns="http://www.topografix.com/GPX/1/1" xmlns:xsi="http://www.w3.org/2001/XMLSchema-instance" xsi:schemaLocation="http://www.topografix.com/GPX/1/1 http://www.topografix.com/GPX/1/1/gpx.xsd" version="1.1" creator="VisuGPX - https://www.visugpx.com">
  <metadata>
    <name>Balade en voie verte</name>
    <desc><![CDATA[gpx récupéré]]></desc>
  </metadata>
  <trk>
    <name><![CDATA[2022 11 06 Balade en voie verte]]></name>
    <desc><![CDATA[gpx récupéré]]></desc>
    <trkseg>
      <trkpt lat="46.12143" lon="4.71576">
        <ele>242.30383</ele>
        <time>2022-11-06T13:20:39.000Z</time>
      </trkpt>
      <trkpt lat="46.12145" lon="4.7157">
        <ele>242.94373</ele>
        <time>2022-11-06T13:20:40.000Z</time>
      </trkpt>
      <trkpt lat="46.12147" lon="4.71564">
        <ele>243.15521</ele>
        <time>2022-11-06T13:20:41.000Z</time>
      </trkpt>
      <trkpt lat="46.12148" lon="4.71556">
        <ele>243.25493</ele>
        <time>2022-11-06T13:20:42.000Z</time>
      </trkpt>
      <trkpt lat="46.1215" lon="4.7155">
        <ele>243.36426</ele>
        <time>2022-11-06T13:20:43.000Z</time>
      </trkpt>
      <trkpt lat="46.12151" lon="4.71543">
        <ele>243.15942</ele>
        <time>2022-11-06T13:20:44.000Z</time>
      </trkpt>
      <trkpt lat="46.12153" lon="4.71537">
        <ele>243.03566</ele>
        <time>2022-11-06T13:20:45.000Z</time>
      </trkpt>
      <trkpt lat="46.12155" lon="4.7153">
        <ele>243.14938</ele>
        <time>2022-11-06T13:20:46.000Z</time>
      </trkpt>
      <trkpt lat="46.12156" lon="4.71524">
        <ele>243.23323</ele>
        <time>2022-11-06T13:20:47.000Z</time>
      </trkpt>
      <trkpt lat="46.12158" lon="4.71517">
        <ele>242.84888</ele>
        <time>2022-11-06T13:20:48.000Z</time>
      </trkpt>
      <trkpt lat="46.12159" lon="4.71511">
        <ele>242.56081</ele>
        <time>2022-11-06T13:20:49.000Z</time>
      </trkpt>
      <trkpt lat="46.12162" lon="4.71506">
        <ele>242.3011</ele>
        <time>2022-11-06T13:20:50.000Z</time>
      </trkpt>
      <trkpt lat="46.12164" lon="4.71501">
        <ele>242.09373</ele>
        <time>2022-11-06T13:20:51.000Z</time>
      </trkpt>
      <trkpt lat="46.12166" lon="4.71494">
        <ele>241.89513</ele>
        <time>2022-11-06T13:20:52.000Z</time>
      </trkpt>
      <trkpt lat="46.12168" lon="4.71488">
        <ele>241.71852</ele>
        <time>2022-11-06T13:20:53.000Z</time>
      </trkpt>
      <trkpt lat="46.1217" lon="4.71483">
        <ele>241.7822</ele>
        <time>2022-11-06T13:20:54.000Z</time>
      </trkpt>
      <trkpt lat="46.12171" lon="4.71477">
        <ele>241.84607</ele>
        <time>2022-11-06T13:20:55.000Z</time>
      </trkpt>
      <trkpt lat="46.12172" lon="4.71471">
        <ele>241.88699</ele>
        <time>2022-11-06T13:20:56.000Z</time>
      </trkpt>
      <trkpt lat="46.12174" lon="4.71465">
        <ele>241.98662</ele>
        <time>2022-11-06T13:20:57.000Z</time>
      </trkpt>
      <trkpt lat="46.12175" lon="4.71459">
        <ele>242.05664</ele>
        <time>2022-11-06T13:20:58.000Z</time>
      </trkpt>
      <trkpt lat="46.12175" lon="4.71454">
        <ele>242.10751</ele>
        <time>2022-11-06T13:20:59.000Z</time>
      </trkpt>
      <trkpt lat="46.12177" lon="4.71449">
        <ele>242.10432</ele>
        <time>2022-11-06T13:21:00.000Z</time>
      </trkpt>
      <trkpt lat="46.12179" lon="4.71446">
        <ele>242.10703</ele>
        <time>2022-11-06T13:21:01.000Z</time>
      </trkpt>
      <trkpt lat="46.1218" lon="4.71442">
        <ele>242.12691</ele>
        <time>2022-11-06T13:21:02.000Z</time>
      </trkpt>
      <trkpt lat="46.12181" lon="4.7144">
        <ele>242.13525</ele>
        <time>2022-11-06T13:21:03.000Z</time>
      </trkpt>
      <trkpt lat="46.12182" lon="4.71438">
        <ele>242.20886</ele>
        <time>2022-11-06T13:21:04.000Z</time>
      </trkpt>
      <trkpt lat="46.12184" lon="4.71435">
        <ele>242.29146</ele>
        <time>2022-11-06T13:21:05.000Z</time>
      </trkpt>
      <trkpt lat="46.12186" lon="4.71433">
        <ele>242.30118</ele>
        <time>2022-11-06T13:21:06.000Z</time>
      </trkpt>
      <trkpt lat="46.12189" lon="4.71429">
        <ele>242.32437</ele>
        <time>2022-11-06T13:21:07.000Z</time>
      </trkpt>
      <trkpt lat="46.1219" lon="4.71426">
        <ele>242.57141</ele>
        <time>2022-11-06T13:21:08.000Z</time>
      </trkpt>
      <trkpt lat="46.12192" lon="4.71421">
        <ele>242.80586</ele>
        <time>2022-11-06T13:21:09.000Z</time>
      </trkpt>
      <trkpt lat="46.12193" lon="4.71417">
        <ele>243.07065</ele>
        <time>2022-11-06T13:21:10.000Z</time>
      </trkpt>
      <trkpt lat="46.12194" lon="4.71412">
        <ele>243.33476</ele>
        <time>2022-11-06T13:21:11.000Z</time>
      </trkpt>
      <trkpt lat="46.12195" lon="4.71407">
        <ele>243.62154</ele>
        <time>2022-11-06T13:21:12.000Z</time>
      </trkpt>
      <trkpt lat="46.12196" lon="4.71402">
        <ele>243.89214</ele>
        <time>2022-11-06T13:21:13.000Z</time>
      </trkpt>
      <trkpt lat="46.12198" lon="4.71397">
        <ele>243.99527</ele>
        <time>2022-11-06T13:21:14.000Z</time>
      </trkpt>
      <trkpt lat="46.12199" lon="4.71392">
        <ele>244.1066</ele>
        <time>2022-11-06T13:21:15.000Z</time>
      </trkpt>
      <trkpt lat="46.12201" lon="4.71387">
        <ele>244.19382</ele>
        <time>2022-11-06T13:21:16.000Z</time>
      </trkpt>
      <trkpt lat="46.12202" lon="4.71382">
        <ele>244.22153</ele>
        <time>2022-11-06T13:21:17.000Z</time>
      </trkpt>
      <trkpt lat="46.12204" lon="4.71378">
        <ele>244.23848</ele>
        <time>2022-11-06T13:21:18.000Z</time>
      </trkpt>
      <trkpt lat="46.12205" lon="4.71372">
        <ele>244.32968</ele>
        <time>2022-11-06T13:21:19.000Z</time>
      </trkpt>
      <trkpt lat="46.12207" lon="4.71367">
        <ele>244.38797</ele>
        <time>2022-11-06T13:21:20.000Z</time>
      </trkpt>
      <trkpt lat="46.12208" lon="4.71362">
        <ele>244.43811</ele>
        <time>2022-11-06T13:21:21.000Z</time>
      </trkpt>
      <trkpt lat="46.1221" lon="4.71357">
        <ele>244.47327</ele>
        <time>2022-11-06T13:21:22.000Z</time>
      </trkpt>
      <trkpt lat="46.12211" lon="4.71351">
        <ele>244.51248</ele>
        <time>2022-11-06T13:21:23.000Z</time>
      </trkpt>
      <trkpt lat="46.12213" lon="4.71345">
        <ele>244.56607</ele>
        <time>2022-11-06T13:21:24.000Z</time>
      </trkpt>
      <trkpt lat="46.12214" lon="4.7134">
        <ele>244.59505</ele>
        <time>2022-11-06T13:21:25.000Z</time>
      </trkpt>
      <trkpt lat="46.12215" lon="4.71334">
        <ele>244.61563</ele>
        <time>2022-11-06T13:21:26.000Z</time>
      </trkpt>
      <trkpt lat="46.12217" lon="4.71329">
        <ele>244.6246</ele>
        <time>2022-11-06T13:21:27.000Z</time>
      </trkpt>
      <trkpt lat="46.12219" lon="4.71323">
        <ele>244.6283</ele>
        <time>2022-11-06T13:21:28.000Z</time>
      </trkpt>
      <trkpt lat="46.1222" lon="4.71318">
        <ele>244.62602</ele>
        <time>2022-11-06T13:21:29.000Z</time>
      </trkpt>
      <trkpt lat="46.12221" lon="4.71312">
        <ele>244.61496</ele>
        <time>2022-11-06T13:21:30.000Z</time>
      </trkpt>
      <trkpt lat="46.12223" lon="4.71306">
        <ele>244.59839</ele>
        <time>2022-11-06T13:21:31.000Z</time>
      </trkpt>
      <trkpt lat="46.12224" lon="4.713">
        <ele>244.56567</ele>
        <time>2022-11-06T13:21:32.000Z</time>
      </trkpt>
      <trkpt lat="46.12226" lon="4.71295">
        <ele>244.54936</ele>
        <time>2022-11-06T13:21:33.000Z</time>
      </trkpt>
      <trkpt lat="46.12227" lon="4.71289">
        <ele>244.52351</ele>
        <time>2022-11-06T13:21:34.000Z</time>
      </trkpt>
      <trkpt lat="46.12229" lon="4.71284">
        <ele>244.4814</ele>
        <time>2022-11-06T13:21:35.000Z</time>
      </trkpt>
      <trkpt lat="46.1223" lon="4.71278">
        <ele>244.45125</ele>
        <time>2022-11-06T13:21:36.000Z</time>
      </trkpt>
      <trkpt lat="46.12231" lon="4.71272">
        <ele>244.422</ele>
        <time>2022-11-06T13:21:37.000Z</time>
      </trkpt>
      <trkpt lat="46.12233" lon="4.71266">
        <ele>244.44687</ele>
        <time>2022-11-06T13:21:38.000Z</time>
      </trkpt>
      <trkpt lat="46.12235" lon="4.7126">
        <ele>244.40231</ele>
        <time>2022-11-06T13:21:39.000Z</time>
      </trkpt>
      <trkpt lat="46.12236" lon="4.71254">
        <ele>244.396</ele>
        <time>2022-11-06T13:21:40.000Z</time>
      </trkpt>
      <trkpt lat="46.12237" lon="4.71248">
        <ele>244.40019</ele>
        <time>2022-11-06T13:21:41.000Z</time>
      </trkpt>
      <trkpt lat="46.12239" lon="4.71242">
        <ele>244.40564</ele>
        <time>2022-11-06T13:21:42.000Z</time>
      </trkpt>
      <trkpt lat="46.12241" lon="4.71236">
        <ele>244.40689</ele>
        <time>2022-11-06T13:21:43.000Z</time>
      </trkpt>
      <trkpt lat="46.12243" lon="4.7123">
        <ele>244.42302</ele>
        <time>2022-11-06T13:21:44.000Z</time>
      </trkpt>
      <trkpt lat="46.12245" lon="4.71224">
        <ele>244.42599</ele>
        <time>2022-11-06T13:21:45.000Z</time>
      </trkpt>
      <trkpt lat="46.12246" lon="4.71217">
        <ele>244.43745</ele>
        <time>2022-11-06T13:21:46.000Z</time>
      </trkpt>
      <trkpt lat="46.12248" lon="4.71211">
        <ele>244.45818</ele>
        <time>2022-11-06T13:21:47.000Z</time>
      </trkpt>
      <trkpt lat="46.12249" lon="4.71205">
        <ele>244.45322</ele>
        <time>2022-11-06T13:21:48.000Z</time>
      </trkpt>
      <trkpt lat="46.12251" lon="4.71199">
        <ele>244.46489</ele>
        <time>2022-11-06T13:21:49.000Z</time>
      </trkpt>
      <trkpt lat="46.12252" lon="4.71193">
        <ele>244.43452</ele>
        <time>2022-11-06T13:21:50.000Z</time>
      </trkpt>
      <trkpt lat="46.12254" lon="4.71187">
        <ele>244.4064</ele>
        <time>2022-11-06T13:21:51.000Z</time>
      </trkpt>
      <trkpt lat="46.12256" lon="4.71181">
        <ele>244.47119</ele>
        <time>2022-11-06T13:21:52.000Z</time>
      </trkpt>
      <trkpt lat="46.12258" lon="4.71175">
        <ele>244.51138</ele>
        <time>2022-11-06T13:21:53.000Z</time>
      </trkpt>
      <trkpt lat="46.12259" lon="4.71169">
        <ele>244.55545</ele>
        <time>2022-11-06T13:21:54.000Z</time>
      </trkpt>
      <trkpt lat="46.1226" lon="4.71162">
        <ele>244.60196</ele>
        <time>2022-11-06T13:21:55.000Z</time>
      </trkpt>
      <trkpt lat="46.12261" lon="4.71156">
        <ele>244.65927</ele>
        <time>2022-11-06T13:21:56.000Z</time>
      </trkpt>
      <trkpt lat="46.1226" lon="4.7115">
        <ele>244.70972</ele>
        <time>2022-11-06T13:21:57.000Z</time>
      </trkpt>
      <trkpt lat="46.1226" lon="4.71144">
        <ele>244.72038</ele>
        <time>2022-11-06T13:21:58.000Z</time>
      </trkpt>
      <trkpt lat="46.12261" lon="4.71138">
        <ele>244.75407</ele>
        <time>2022-11-06T13:21:59.000Z</time>
      </trkpt>
      <trkpt lat="46.12263" lon="4.71131">
        <ele>244.76465</ele>
        <time>2022-11-06T13:22:00.000Z</time>
      </trkpt>
      <trkpt lat="46.12265" lon="4.71126">
        <ele>244.76816</ele>
        <time>2022-11-06T13:22:01.000Z</time>
      </trkpt>
      <trkpt lat="46.12267" lon="4.7112">
        <ele>244.75833</ele>
        <time>2022-11-06T13:22:02.000Z</time>
      </trkpt>
      <trkpt lat="46.12268" lon="4.71114">
        <ele>244.75552</ele>
        <time>2022-11-06T13:22:03.000Z</time>
      </trkpt>
      <trkpt lat="46.1227" lon="4.71107">
        <ele>244.76045</ele>
        <time>2022-11-06T13:22:04.000Z</time>
      </trkpt>
      <trkpt lat="46.12271" lon="4.71101">
        <ele>244.78426</ele>
        <time>2022-11-06T13:22:05.000Z</time>
      </trkpt>
      <trkpt lat="46.12273" lon="4.71095">
        <ele>244.80112</ele>
        <time>2022-11-06T13:22:06.000Z</time>
      </trkpt>
      <trkpt lat="46.12274" lon="4.71088">
        <ele>244.81055</ele>
        <time>2022-11-06T13:22:07.000Z</time>
      </trkpt>
      <trkpt lat="46.12276" lon="4.71081">
        <ele>244.85823</ele>
        <time>2022-11-06T13:22:08.000Z</time>
      </trkpt>
      <trkpt lat="46.12277" lon="4.71075">
        <ele>244.90579</ele>
        <time>2022-11-06T13:22:09.000Z</time>
      </trkpt>
      <trkpt lat="46.12279" lon="4.71069">
        <ele>244.98882</ele>
        <time>2022-11-06T13:22:10.000Z</time>
      </trkpt>
      <trkpt lat="46.1228" lon="4.71063">
        <ele>245.04697</ele>
        <time>2022-11-06T13:22:11.000Z</time>
      </trkpt>
      <trkpt lat="46.12282" lon="4.71057">
        <ele>245.01575</ele>
        <time>2022-11-06T13:22:12.000Z</time>
      </trkpt>
      <trkpt lat="46.12283" lon="4.71051">
        <ele>245.01472</ele>
        <time>2022-11-06T13:22:13.000Z</time>
      </trkpt>
      <trkpt lat="46.12284" lon="4.71045">
        <ele>244.9803</ele>
        <time>2022-11-06T13:22:14.000Z</time>
      </trkpt>
      <trkpt lat="46.12285" lon="4.71038">
        <ele>244.93234</ele>
        <time>2022-11-06T13:22:15.000Z</time>
      </trkpt>
      <trkpt lat="46.12287" lon="4.71032">
        <ele>244.87122</ele>
        <time>2022-11-06T13:22:16.000Z</time>
      </trkpt>
      <trkpt lat="46.12288" lon="4.71024">
        <ele>244.87271</ele>
        <time>2022-11-06T13:22:17.000Z</time>
      </trkpt>
      <trkpt lat="46.12291" lon="4.71018">
        <ele>244.85872</ele>
        <time>2022-11-06T13:22:18.000Z</time>
      </trkpt>
      <trkpt lat="46.12293" lon="4.71012">
        <ele>244.83289</ele>
        <time>2022-11-06T13:22:19.000Z</time>
      </trkpt>
      <trkpt lat="46.12295" lon="4.71005">
        <ele>244.79684</ele>
        <time>2022-11-06T13:22:20.000Z</time>
      </trkpt>
      <trkpt lat="46.12297" lon="4.70999">
        <ele>244.76022</ele>
        <time>2022-11-06T13:22:21.000Z</time>
      </trkpt>
      <trkpt lat="46.12299" lon="4.70991">
        <ele>244.72932</ele>
        <time>2022-11-06T13:22:22.000Z</time>
      </trkpt>
      <trkpt lat="46.12301" lon="4.70985">
        <ele>244.67654</ele>
        <time>2022-11-06T13:22:23.000Z</time>
      </trkpt>
      <trkpt lat="46.12303" lon="4.70978">
        <ele>244.60239</ele>
        <time>2022-11-06T13:22:24.000Z</time>
      </trkpt>
      <trkpt lat="46.12304" lon="4.70971">
        <ele>244.53975</ele>
        <time>2022-11-06T13:22:25.000Z</time>
      </trkpt>
      <trkpt lat="46.12306" lon="4.70964">
        <ele>244.48306</ele>
        <time>2022-11-06T13:22:26.000Z</time>
      </trkpt>
      <trkpt lat="46.12308" lon="4.70956">
        <ele>244.43826</ele>
        <time>2022-11-06T13:22:27.000Z</time>
      </trkpt>
      <trkpt lat="46.1231" lon="4.70949">
        <ele>244.40262</ele>
        <time>2022-11-06T13:22:28.000Z</time>
      </trkpt>
      <trkpt lat="46.12311" lon="4.70943">
        <ele>244.34953</ele>
        <time>2022-11-06T13:22:29.000Z</time>
      </trkpt>
      <trkpt lat="46.12313" lon="4.70935">
        <ele>244.29019</ele>
        <time>2022-11-06T13:22:30.000Z</time>
      </trkpt>
      <trkpt lat="46.12315" lon="4.70929">
        <ele>244.25391</ele>
        <time>2022-11-06T13:22:31.000Z</time>
      </trkpt>
      <trkpt lat="46.12317" lon="4.70922">
        <ele>244.23311</ele>
        <time>2022-11-06T13:22:32.000Z</time>
      </trkpt>
      <trkpt lat="46.12318" lon="4.70914">
        <ele>244.2227</ele>
        <time>2022-11-06T13:22:33.000Z</time>
      </trkpt>
      <trkpt lat="46.1232" lon="4.70907">
        <ele>244.24875</ele>
        <time>2022-11-06T13:22:34.000Z</time>
      </trkpt>
      <trkpt lat="46.12321" lon="4.709">
        <ele>244.29163</ele>
        <time>2022-11-06T13:22:35.000Z</time>
      </trkpt>
      <trkpt lat="46.12323" lon="4.70893">
        <ele>244.35657</ele>
        <time>2022-11-06T13:22:36.000Z</time>
      </trkpt>
      <trkpt lat="46.12325" lon="4.70886">
        <ele>244.35086</ele>
        <time>2022-11-06T13:22:37.000Z</time>
      </trkpt>
      <trkpt lat="46.12327" lon="4.70879">
        <ele>244.37793</ele>
        <time>2022-11-06T13:22:38.000Z</time>
      </trkpt>
      <trkpt lat="46.12329" lon="4.70873">
        <ele>244.40474</ele>
        <time>2022-11-06T13:22:39.000Z</time>
      </trkpt>
      <trkpt lat="46.1233" lon="4.70867">
        <ele>244.4687</ele>
        <time>2022-11-06T13:22:40.000Z</time>
      </trkpt>
      <trkpt lat="46.12331" lon="4.70858">
        <ele>244.545</ele>
        <time>2022-11-06T13:22:41.000Z</time>
      </trkpt>
      <trkpt lat="46.12332" lon="4.7085">
        <ele>244.62617</ele>
        <time>2022-11-06T13:22:42.000Z</time>
      </trkpt>
      <trkpt lat="46.12335" lon="4.70843">
        <ele>244.71985</ele>
        <time>2022-11-06T13:22:43.000Z</time>
      </trkpt>
      <trkpt lat="46.12337" lon="4.70836">
        <ele>244.84793</ele>
        <time>2022-11-06T13:22:44.000Z</time>
      </trkpt>
      <trkpt lat="46.12339" lon="4.7083">
        <ele>244.97066</ele>
        <time>2022-11-06T13:22:45.000Z</time>
      </trkpt>
      <trkpt lat="46.12339" lon="4.70822">
        <ele>245.07632</ele>
        <time>2022-11-06T13:22:46.000Z</time>
      </trkpt>
      <trkpt lat="46.12341" lon="4.70814">
        <ele>245.16568</ele>
        <time>2022-11-06T13:22:47.000Z</time>
      </trkpt>
      <trkpt lat="46.12342" lon="4.70808">
        <ele>245.21152</ele>
        <time>2022-11-06T13:22:48.000Z</time>
      </trkpt>
      <trkpt lat="46.12344" lon="4.70801">
        <ele>245.2607</ele>
        <time>2022-11-06T13:22:49.000Z</time>
      </trkpt>
      <trkpt lat="46.12346" lon="4.70795">
        <ele>245.31807</ele>
        <time>2022-11-06T13:22:50.000Z</time>
      </trkpt>
      <trkpt lat="46.12348" lon="4.70791">
        <ele>245.3709</ele>
        <time>2022-11-06T13:22:51.000Z</time>
      </trkpt>
      <trkpt lat="46.1235" lon="4.70782">
        <ele>245.40103</ele>
        <time>2022-11-06T13:22:52.000Z</time>
      </trkpt>
      <trkpt lat="46.12352" lon="4.70777">
        <ele>245.47966</ele>
        <time>2022-11-06T13:22:53.000Z</time>
      </trkpt>
      <trkpt lat="46.12353" lon="4.7077">
        <ele>245.53096</ele>
        <time>2022-11-06T13:22:54.000Z</time>
      </trkpt>
      <trkpt lat="46.12356" lon="4.70765">
        <ele>245.55264</ele>
        <time>2022-11-06T13:22:55.000Z</time>
      </trkpt>
      <trkpt lat="46.12358" lon="4.70758">
        <ele>245.58194</ele>
        <time>2022-11-06T13:22:56.000Z</time>
      </trkpt>
      <trkpt lat="46.1236" lon="4.70753">
        <ele>245.59778</ele>
        <time>2022-11-06T13:22:57.000Z</time>
      </trkpt>
      <trkpt lat="46.12362" lon="4.70746">
        <ele>245.61789</ele>
        <time>2022-11-06T13:22:58.000Z</time>
      </trkpt>
      <trkpt lat="46.12364" lon="4.70738">
        <ele>245.62268</ele>
        <time>2022-11-06T13:22:59.000Z</time>
      </trkpt>
      <trkpt lat="46.12366" lon="4.70731">
        <ele>245.60225</ele>
        <time>2022-11-06T13:23:00.000Z</time>
      </trkpt>
      <trkpt lat="46.12368" lon="4.70725">
        <ele>245.56747</ele>
        <time>2022-11-06T13:23:01.000Z</time>
      </trkpt>
      <trkpt lat="46.12369" lon="4.70719">
        <ele>245.53842</ele>
        <time>2022-11-06T13:23:02.000Z</time>
      </trkpt>
      <trkpt lat="46.12371" lon="4.70712">
        <ele>245.50729</ele>
        <time>2022-11-06T13:23:03.000Z</time>
      </trkpt>
      <trkpt lat="46.12373" lon="4.70708">
        <ele>245.448</ele>
        <time>2022-11-06T13:23:04.000Z</time>
      </trkpt>
      <trkpt lat="46.12374" lon="4.70703">
        <ele>245.37773</ele>
        <time>2022-11-06T13:23:05.000Z</time>
      </trkpt>
      <trkpt lat="46.12375" lon="4.70698">
        <ele>245.32227</ele>
        <time>2022-11-06T13:23:06.000Z</time>
      </trkpt>
      <trkpt lat="46.12376" lon="4.70695">
        <ele>245.25674</ele>
        <time>2022-11-06T13:23:07.000Z</time>
      </trkpt>
      <trkpt lat="46.12377" lon="4.7069">
        <ele>245.20898</ele>
        <time>2022-11-06T13:23:08.000Z</time>
      </trkpt>
      <trkpt lat="46.12378" lon="4.70687">
        <ele>245.24741</ele>
        <time>2022-11-06T13:23:09.000Z</time>
      </trkpt>
      <trkpt lat="46.1238" lon="4.70685">
        <ele>245.26836</ele>
        <time>2022-11-06T13:23:10.000Z</time>
      </trkpt>
      <trkpt lat="46.1238" lon="4.70682">
        <ele>245.29874</ele>
        <time>2022-11-06T13:23:11.000Z</time>
      </trkpt>
      <trkpt lat="46.12382" lon="4.70678">
        <ele>245.33224</ele>
        <time>2022-11-06T13:23:13.000Z</time>
      </trkpt>
      <trkpt lat="46.12381" lon="4.70674">
        <ele>245.32022</ele>
        <time>2022-11-06T13:24:43.000Z</time>
      </trkpt>
      <trkpt lat="46.12381" lon="4.7067">
        <ele>245.32764</ele>
        <time>2022-11-06T13:24:45.000Z</time>
      </trkpt>
      <trkpt lat="46.12382" lon="4.70667">
        <ele>245.34952</ele>
        <time>2022-11-06T13:24:46.000Z</time>
      </trkpt>
      <trkpt lat="46.12384" lon="4.70664">
        <ele>245.37195</ele>
        <time>2022-11-06T13:24:47.000Z</time>
      </trkpt>
      <trkpt lat="46.12385" lon="4.70662">
        <ele>245.41052</ele>
        <time>2022-11-06T13:24:48.000Z</time>
      </trkpt>
      <trkpt lat="46.12386" lon="4.70659">
        <ele>245.39563</ele>
        <time>2022-11-06T13:24:49.000Z</time>
      </trkpt>
      <trkpt lat="46.12387" lon="4.70655">
        <ele>245.3997</ele>
        <time>2022-11-06T13:24:50.000Z</time>
      </trkpt>
      <trkpt lat="46.12388" lon="4.70651">
        <ele>245.39722</ele>
        <time>2022-11-06T13:24:51.000Z</time>
      </trkpt>
      <trkpt lat="46.12389" lon="4.70648">
        <ele>245.38631</ele>
        <time>2022-11-06T13:24:52.000Z</time>
      </trkpt>
      <trkpt lat="46.1239" lon="4.70644">
        <ele>245.34868</ele>
        <time>2022-11-06T13:24:53.000Z</time>
      </trkpt>
      <trkpt lat="46.12391" lon="4.7064">
        <ele>245.37749</ele>
        <time>2022-11-06T13:24:54.000Z</time>
      </trkpt>
      <trkpt lat="46.12392" lon="4.70636">
        <ele>245.37192</ele>
        <time>2022-11-06T13:24:55.000Z</time>
      </trkpt>
      <trkpt lat="46.12393" lon="4.70632">
        <ele>245.37881</ele>
        <time>2022-11-06T13:24:56.000Z</time>
      </trkpt>
      <trkpt lat="46.12395" lon="4.70627">
        <ele>245.38115</ele>
        <time>2022-11-06T13:24:57.000Z</time>
      </trkpt>
      <trkpt lat="46.12396" lon="4.70623">
        <ele>245.3981</ele>
        <time>2022-11-06T13:24:58.000Z</time>
      </trkpt>
      <trkpt lat="46.12397" lon="4.70619">
        <ele>245.44113</ele>
        <time>2022-11-06T13:24:59.000Z</time>
      </trkpt>
      <trkpt lat="46.12397" lon="4.70614">
        <ele>245.38272</ele>
        <time>2022-11-06T13:25:00.000Z</time>
      </trkpt>
      <trkpt lat="46.12398" lon="4.70609">
        <ele>245.35474</ele>
        <time>2022-11-06T13:25:01.000Z</time>
      </trkpt>
      <trkpt lat="46.12399" lon="4.70604">
        <ele>245.31682</ele>
        <time>2022-11-06T13:25:02.000Z</time>
      </trkpt>
      <trkpt lat="46.124" lon="4.706">
        <ele>245.27397</ele>
        <time>2022-11-06T13:25:03.000Z</time>
      </trkpt>
      <trkpt lat="46.12401" lon="4.70596">
        <ele>245.19528</ele>
        <time>2022-11-06T13:25:04.000Z</time>
      </trkpt>
      <trkpt lat="46.12402" lon="4.70591">
        <ele>245.13301</ele>
        <time>2022-11-06T13:25:05.000Z</time>
      </trkpt>
      <trkpt lat="46.12403" lon="4.70586">
        <ele>245.08218</ele>
        <time>2022-11-06T13:25:06.000Z</time>
      </trkpt>
      <trkpt lat="46.12405" lon="4.70581">
        <ele>245.0219</ele>
        <time>2022-11-06T13:25:07.000Z</time>
      </trkpt>
      <trkpt lat="46.12406" lon="4.70577">
        <ele>244.96004</ele>
        <time>2022-11-06T13:25:08.000Z</time>
      </trkpt>
      <trkpt lat="46.12408" lon="4.70572">
        <ele>244.92538</ele>
        <time>2022-11-06T13:25:09.000Z</time>
      </trkpt>
      <trkpt lat="46.12409" lon="4.70568">
        <ele>244.87039</ele>
        <time>2022-11-06T13:25:10.000Z</time>
      </trkpt>
      <trkpt lat="46.12411" lon="4.70563">
        <ele>244.81738</ele>
        <time>2022-11-06T13:25:11.000Z</time>
      </trkpt>
      <trkpt lat="46.12412" lon="4.70558">
        <ele>244.80118</ele>
        <time>2022-11-06T13:25:12.000Z</time>
      </trkpt>
      <trkpt lat="46.12414" lon="4.70552">
        <ele>244.8096</ele>
        <time>2022-11-06T13:25:13.000Z</time>
      </trkpt>
      <trkpt lat="46.12415" lon="4.70547">
        <ele>244.76404</ele>
        <time>2022-11-06T13:25:14.000Z</time>
      </trkpt>
      <trkpt lat="46.12416" lon="4.70541">
        <ele>244.74495</ele>
        <time>2022-11-06T13:25:15.000Z</time>
      </trkpt>
      <trkpt lat="46.12417" lon="4.70536">
        <ele>244.74597</ele>
        <time>2022-11-06T13:25:16.000Z</time>
      </trkpt>
      <trkpt lat="46.12418" lon="4.70531">
        <ele>244.74161</ele>
        <time>2022-11-06T13:25:17.000Z</time>
      </trkpt>
      <trkpt lat="46.1242" lon="4.70525">
        <ele>244.75615</ele>
        <time>2022-11-06T13:25:18.000Z</time>
      </trkpt>
      <trkpt lat="46.12421" lon="4.70519">
        <ele>244.77744</ele>
        <time>2022-11-06T13:25:19.000Z</time>
      </trkpt>
      <trkpt lat="46.12422" lon="4.70513">
        <ele>244.82198</ele>
        <time>2022-11-06T13:25:20.000Z</time>
      </trkpt>
      <trkpt lat="46.12424" lon="4.70508">
        <ele>244.82852</ele>
        <time>2022-11-06T13:25:21.000Z</time>
      </trkpt>
      <trkpt lat="46.12425" lon="4.70502">
        <ele>244.84305</ele>
        <time>2022-11-06T13:25:22.000Z</time>
      </trkpt>
      <trkpt lat="46.12426" lon="4.70496">
        <ele>244.89873</ele>
        <time>2022-11-06T13:25:23.000Z</time>
      </trkpt>
      <trkpt lat="46.12428" lon="4.70491">
        <ele>244.97282</ele>
        <time>2022-11-06T13:25:24.000Z</time>
      </trkpt>
      <trkpt lat="46.12429" lon="4.70485">
        <ele>245.01596</ele>
        <time>2022-11-06T13:25:25.000Z</time>
      </trkpt>
      <trkpt lat="46.12431" lon="4.70479">
        <ele>245.09326</ele>
        <time>2022-11-06T13:25:26.000Z</time>
      </trkpt>
      <trkpt lat="46.12433" lon="4.70472">
        <ele>245.18832</ele>
        <time>2022-11-06T13:25:27.000Z</time>
      </trkpt>
      <trkpt lat="46.12434" lon="4.70466">
        <ele>245.28223</ele>
        <time>2022-11-06T13:25:28.000Z</time>
      </trkpt>
      <trkpt lat="46.12435" lon="4.7046">
        <ele>245.3866</ele>
        <time>2022-11-06T13:25:29.000Z</time>
      </trkpt>
      <trkpt lat="46.12436" lon="4.70454">
        <ele>245.47575</ele>
        <time>2022-11-06T13:25:30.000Z</time>
      </trkpt>
      <trkpt lat="46.12437" lon="4.70446">
        <ele>245.5907</ele>
        <time>2022-11-06T13:25:31.000Z</time>
      </trkpt>
      <trkpt lat="46.12438" lon="4.70439">
        <ele>245.70584</ele>
        <time>2022-11-06T13:25:32.000Z</time>
      </trkpt>
      <trkpt lat="46.1244" lon="4.70433">
        <ele>245.81035</ele>
        <time>2022-11-06T13:25:33.000Z</time>
      </trkpt>
      <trkpt lat="46.12442" lon="4.70427">
        <ele>245.92461</ele>
        <time>2022-11-06T13:25:34.000Z</time>
      </trkpt>
      <trkpt lat="46.12443" lon="4.7042">
        <ele>246.06783</ele>
        <time>2022-11-06T13:25:35.000Z</time>
      </trkpt>
      <trkpt lat="46.12444" lon="4.70414">
        <ele>246.16721</ele>
        <time>2022-11-06T13:25:36.000Z</time>
      </trkpt>
      <trkpt lat="46.12446" lon="4.70408">
        <ele>246.27344</ele>
        <time>2022-11-06T13:25:37.000Z</time>
      </trkpt>
      <trkpt lat="46.12448" lon="4.70403">
        <ele>246.35596</ele>
        <time>2022-11-06T13:25:38.000Z</time>
      </trkpt>
      <trkpt lat="46.12449" lon="4.70397">
        <ele>246.44785</ele>
        <time>2022-11-06T13:25:39.000Z</time>
      </trkpt>
      <trkpt lat="46.12451" lon="4.70392">
        <ele>246.52744</ele>
        <time>2022-11-06T13:25:40.000Z</time>
      </trkpt>
      <trkpt lat="46.12452" lon="4.70387">
        <ele>246.61723</ele>
        <time>2022-11-06T13:25:41.000Z</time>
      </trkpt>
      <trkpt lat="46.12454" lon="4.70381">
        <ele>246.69099</ele>
        <time>2022-11-06T13:25:42.000Z</time>
      </trkpt>
      <trkpt lat="46.12456" lon="4.70376">
        <ele>246.77408</ele>
        <time>2022-11-06T13:25:43.000Z</time>
      </trkpt>
      <trkpt lat="46.12459" lon="4.7037">
        <ele>246.87761</ele>
        <time>2022-11-06T13:25:44.000Z</time>
      </trkpt>
      <trkpt lat="46.12461" lon="4.70364">
        <ele>247.10002</ele>
        <time>2022-11-06T13:25:45.000Z</time>
      </trkpt>
      <trkpt lat="46.12462" lon="4.70359">
        <ele>247.27539</ele>
        <time>2022-11-06T13:25:46.000Z</time>
      </trkpt>
      <trkpt lat="46.12464" lon="4.70352">
        <ele>247.43234</ele>
        <time>2022-11-06T13:25:47.000Z</time>
      </trkpt>
      <trkpt lat="46.12465" lon="4.70347">
        <ele>247.60184</ele>
        <time>2022-11-06T13:25:48.000Z</time>
      </trkpt>
      <trkpt lat="46.12467" lon="4.70341">
        <ele>247.82065</ele>
        <time>2022-11-06T13:25:49.000Z</time>
      </trkpt>
      <trkpt lat="46.12468" lon="4.70335">
        <ele>248.0314</ele>
        <time>2022-11-06T13:25:50.000Z</time>
      </trkpt>
      <trkpt lat="46.12469" lon="4.70328">
        <ele>248.24405</ele>
        <time>2022-11-06T13:25:51.000Z</time>
      </trkpt>
      <trkpt lat="46.12471" lon="4.70322">
        <ele>248.46225</ele>
        <time>2022-11-06T13:25:52.000Z</time>
      </trkpt>
      <trkpt lat="46.12473" lon="4.70317">
        <ele>248.66911</ele>
        <time>2022-11-06T13:25:53.000Z</time>
      </trkpt>
      <trkpt lat="46.12476" lon="4.70313">
        <ele>248.85806</ele>
        <time>2022-11-06T13:25:54.000Z</time>
      </trkpt>
      <trkpt lat="46.12477" lon="4.70307">
        <ele>249.02856</ele>
        <time>2022-11-06T13:25:55.000Z</time>
      </trkpt>
      <trkpt lat="46.12478" lon="4.70302">
        <ele>249.19551</ele>
        <time>2022-11-06T13:25:56.000Z</time>
      </trkpt>
      <trkpt lat="46.1248" lon="4.70295">
        <ele>249.36421</ele>
        <time>2022-11-06T13:25:57.000Z</time>
      </trkpt>
      <trkpt lat="46.12481" lon="4.70288">
        <ele>249.55249</ele>
        <time>2022-11-06T13:25:58.000Z</time>
      </trkpt>
      <trkpt lat="46.12483" lon="4.70282">
        <ele>249.73471</ele>
        <time>2022-11-06T13:25:59.000Z</time>
      </trkpt>
      <trkpt lat="46.12484" lon="4.70276">
        <ele>249.92476</ele>
        <time>2022-11-06T13:26:00.000Z</time>
      </trkpt>
      <trkpt lat="46.12485" lon="4.70269">
        <ele>250.12195</ele>
        <time>2022-11-06T13:26:01.000Z</time>
      </trkpt>
      <trkpt lat="46.12485" lon="4.70262">
        <ele>250.32285</ele>
        <time>2022-11-06T13:26:02.000Z</time>
      </trkpt>
      <trkpt lat="46.12486" lon="4.70254">
        <ele>250.47665</ele>
        <time>2022-11-06T13:26:03.000Z</time>
      </trkpt>
      <trkpt lat="46.12488" lon="4.70247">
        <ele>250.60452</ele>
        <time>2022-11-06T13:26:04.000Z</time>
      </trkpt>
      <trkpt lat="46.1249" lon="4.7024">
        <ele>250.6425</ele>
        <time>2022-11-06T13:26:05.000Z</time>
      </trkpt>
      <trkpt lat="46.12493" lon="4.70234">
        <ele>250.68723</ele>
        <time>2022-11-06T13:26:06.000Z</time>
      </trkpt>
      <trkpt lat="46.12495" lon="4.70228">
        <ele>250.74353</ele>
        <time>2022-11-06T13:26:07.000Z</time>
      </trkpt>
      <trkpt lat="46.12496" lon="4.70222">
        <ele>250.80611</ele>
        <time>2022-11-06T13:26:08.000Z</time>
      </trkpt>
      <trkpt lat="46.12498" lon="4.70216">
        <ele>250.81975</ele>
        <time>2022-11-06T13:26:09.000Z</time>
      </trkpt>
      <trkpt lat="46.12499" lon="4.7021">
        <ele>250.85074</ele>
        <time>2022-11-06T13:26:10.000Z</time>
      </trkpt>
      <trkpt lat="46.12501" lon="4.70204">
        <ele>250.86633</ele>
        <time>2022-11-06T13:26:11.000Z</time>
      </trkpt>
      <trkpt lat="46.12503" lon="4.70197">
        <ele>250.85172</ele>
        <time>2022-11-06T13:26:12.000Z</time>
      </trkpt>
      <trkpt lat="46.12504" lon="4.70192">
        <ele>250.86284</ele>
        <time>2022-11-06T13:26:13.000Z</time>
      </trkpt>
      <trkpt lat="46.12505" lon="4.70187">
        <ele>250.84543</ele>
        <time>2022-11-06T13:26:14.000Z</time>
      </trkpt>
      <trkpt lat="46.12507" lon="4.70181">
        <ele>250.82431</ele>
        <time>2022-11-06T13:26:15.000Z</time>
      </trkpt>
      <trkpt lat="46.12509" lon="4.70174">
        <ele>250.8313</ele>
        <time>2022-11-06T13:26:16.000Z</time>
      </trkpt>
      <trkpt lat="46.12511" lon="4.70168">
        <ele>250.84274</ele>
        <time>2022-11-06T13:26:17.000Z</time>
      </trkpt>
      <trkpt lat="46.12513" lon="4.70162">
        <ele>250.83328</ele>
        <time>2022-11-06T13:26:18.000Z</time>
      </trkpt>
      <trkpt lat="46.12515" lon="4.70156">
        <ele>250.79037</ele>
        <time>2022-11-06T13:26:19.000Z</time>
      </trkpt>
      <trkpt lat="46.12517" lon="4.70149">
        <ele>250.51685</ele>
        <time>2022-11-06T13:26:20.000Z</time>
      </trkpt>
      <trkpt lat="46.12519" lon="4.70144">
        <ele>250.35857</ele>
        <time>2022-11-06T13:26:21.000Z</time>
      </trkpt>
      <trkpt lat="46.1252" lon="4.70138">
        <ele>250.16223</ele>
        <time>2022-11-06T13:26:22.000Z</time>
      </trkpt>
      <trkpt lat="46.12521" lon="4.70132">
        <ele>249.97115</ele>
        <time>2022-11-06T13:26:23.000Z</time>
      </trkpt>
      <trkpt lat="46.12524" lon="4.70125">
        <ele>249.77063</ele>
        <time>2022-11-06T13:26:24.000Z</time>
      </trkpt>
      <trkpt lat="46.12526" lon="4.70121">
        <ele>249.62292</ele>
        <time>2022-11-06T13:26:25.000Z</time>
      </trkpt>
      <trkpt lat="46.12527" lon="4.70113">
        <ele>249.49602</ele>
        <time>2022-11-06T13:26:26.000Z</time>
      </trkpt>
      <trkpt lat="46.12528" lon="4.70108">
        <ele>249.39038</ele>
        <time>2022-11-06T13:26:27.000Z</time>
      </trkpt>
      <trkpt lat="46.12529" lon="4.70101">
        <ele>249.29623</ele>
        <time>2022-11-06T13:26:28.000Z</time>
      </trkpt>
      <trkpt lat="46.1253" lon="4.70093">
        <ele>249.21904</ele>
        <time>2022-11-06T13:26:29.000Z</time>
      </trkpt>
      <trkpt lat="46.12532" lon="4.70086">
        <ele>249.15952</ele>
        <time>2022-11-06T13:26:30.000Z</time>
      </trkpt>
      <trkpt lat="46.12534" lon="4.70079">
        <ele>249.07056</ele>
        <time>2022-11-06T13:26:31.000Z</time>
      </trkpt>
      <trkpt lat="46.12535" lon="4.70073">
        <ele>249.00114</ele>
        <time>2022-11-06T13:26:32.000Z</time>
      </trkpt>
      <trkpt lat="46.12536" lon="4.70066">
        <ele>248.91446</ele>
        <time>2022-11-06T13:26:33.000Z</time>
      </trkpt>
      <trkpt lat="46.12536" lon="4.70059">
        <ele>248.85361</ele>
        <time>2022-11-06T13:26:34.000Z</time>
      </trkpt>
      <trkpt lat="46.12537" lon="4.70055">
        <ele>248.75418</ele>
        <time>2022-11-06T13:26:35.000Z</time>
      </trkpt>
      <trkpt lat="46.12537" lon="4.70048">
        <ele>248.63802</ele>
        <time>2022-11-06T13:26:36.000Z</time>
      </trkpt>
      <trkpt lat="46.12538" lon="4.70041">
        <ele>248.4937</ele>
        <time>2022-11-06T13:26:37.000Z</time>
      </trkpt>
      <trkpt lat="46.12539" lon="4.70033">
        <ele>248.34338</ele>
        <time>2022-11-06T13:26:38.000Z</time>
      </trkpt>
      <trkpt lat="46.12539" lon="4.70027">
        <ele>248.19107</ele>
        <time>2022-11-06T13:26:39.000Z</time>
      </trkpt>
      <trkpt lat="46.1254" lon="4.7002">
        <ele>248.28568</ele>
        <time>2022-11-06T13:26:40.000Z</time>
      </trkpt>
      <trkpt lat="46.12542" lon="4.70013">
        <ele>248.25415</ele>
        <time>2022-11-06T13:26:41.000Z</time>
      </trkpt>
      <trkpt lat="46.12542" lon="4.70006">
        <ele>248.26775</ele>
        <time>2022-11-06T13:26:42.000Z</time>
      </trkpt>
      <trkpt lat="46.12543" lon="4.70001">
        <ele>248.29985</ele>
        <time>2022-11-06T13:26:43.000Z</time>
      </trkpt>
      <trkpt lat="46.12543" lon="4.69993">
        <ele>248.3149</ele>
        <time>2022-11-06T13:26:44.000Z</time>
      </trkpt>
      <trkpt lat="46.12544" lon="4.69985">
        <ele>248.24287</ele>
        <time>2022-11-06T13:26:45.000Z</time>
      </trkpt>
      <trkpt lat="46.12545" lon="4.69977">
        <ele>248.14507</ele>
        <time>2022-11-06T13:26:46.000Z</time>
      </trkpt>
      <trkpt lat="46.12545" lon="4.69971">
        <ele>247.99768</ele>
        <time>2022-11-06T13:26:47.000Z</time>
      </trkpt>
      <trkpt lat="46.12546" lon="4.69964">
        <ele>247.80212</ele>
        <time>2022-11-06T13:26:48.000Z</time>
      </trkpt>
      <trkpt lat="46.12546" lon="4.69958">
        <ele>247.62395</ele>
        <time>2022-11-06T13:26:49.000Z</time>
      </trkpt>
      <trkpt lat="46.12546" lon="4.69951">
        <ele>247.41492</ele>
        <time>2022-11-06T13:26:50.000Z</time>
      </trkpt>
      <trkpt lat="46.12544" lon="4.69944">
        <ele>247.25992</ele>
        <time>2022-11-06T13:26:51.000Z</time>
      </trkpt>
      <trkpt lat="46.12544" lon="4.69937">
        <ele>247.08398</ele>
        <time>2022-11-06T13:26:52.000Z</time>
      </trkpt>
      <trkpt lat="46.12544" lon="4.6993">
        <ele>246.91731</ele>
        <time>2022-11-06T13:26:53.000Z</time>
      </trkpt>
      <trkpt lat="46.12544" lon="4.69924">
        <ele>246.69669</ele>
        <time>2022-11-06T13:26:54.000Z</time>
      </trkpt>
      <trkpt lat="46.12544" lon="4.69918">
        <ele>246.52866</ele>
        <time>2022-11-06T13:26:55.000Z</time>
      </trkpt>
      <trkpt lat="46.12544" lon="4.69914">
        <ele>246.33255</ele>
        <time>2022-11-06T13:26:56.000Z</time>
      </trkpt>
      <trkpt lat="46.12545" lon="4.69907">
        <ele>246.20064</ele>
        <time>2022-11-06T13:26:57.000Z</time>
      </trkpt>
      <trkpt lat="46.12544" lon="4.699">
        <ele>246.08163</ele>
        <time>2022-11-06T13:26:58.000Z</time>
      </trkpt>
      <trkpt lat="46.12544" lon="4.69893">
        <ele>245.98833</ele>
        <time>2022-11-06T13:26:59.000Z</time>
      </trkpt>
      <trkpt lat="46.12545" lon="4.69886">
        <ele>245.88872</ele>
        <time>2022-11-06T13:27:00.000Z</time>
      </trkpt>
      <trkpt lat="46.12543" lon="4.69879">
        <ele>245.80835</ele>
        <time>2022-11-06T13:27:01.000Z</time>
      </trkpt>
      <trkpt lat="46.12543" lon="4.69873">
        <ele>245.69926</ele>
        <time>2022-11-06T13:27:02.000Z</time>
      </trkpt>
      <trkpt lat="46.12542" lon="4.69866">
        <ele>245.58635</ele>
        <time>2022-11-06T13:27:03.000Z</time>
      </trkpt>
      <trkpt lat="46.12543" lon="4.69859">
        <ele>245.54114</ele>
        <time>2022-11-06T13:27:04.000Z</time>
      </trkpt>
      <trkpt lat="46.12544" lon="4.69851">
        <ele>245.48877</ele>
        <time>2022-11-06T13:27:05.000Z</time>
      </trkpt>
      <trkpt lat="46.12542" lon="4.69845">
        <ele>245.45639</ele>
        <time>2022-11-06T13:27:06.000Z</time>
      </trkpt>
      <trkpt lat="46.12542" lon="4.69838">
        <ele>245.46085</ele>
        <time>2022-11-06T13:27:07.000Z</time>
      </trkpt>
      <trkpt lat="46.1254" lon="4.69831">
        <ele>245.50037</ele>
        <time>2022-11-06T13:27:08.000Z</time>
      </trkpt>
      <trkpt lat="46.1254" lon="4.69824">
        <ele>245.53708</ele>
        <time>2022-11-06T13:27:09.000Z</time>
      </trkpt>
      <trkpt lat="46.12539" lon="4.69816">
        <ele>245.60701</ele>
        <time>2022-11-06T13:27:10.000Z</time>
      </trkpt>
      <trkpt lat="46.12539" lon="4.6981">
        <ele>245.66165</ele>
        <time>2022-11-06T13:27:11.000Z</time>
      </trkpt>
      <trkpt lat="46.12539" lon="4.69803">
        <ele>245.73682</ele>
        <time>2022-11-06T13:27:12.000Z</time>
      </trkpt>
      <trkpt lat="46.12537" lon="4.69796">
        <ele>245.82109</ele>
        <time>2022-11-06T13:27:13.000Z</time>
      </trkpt>
      <trkpt lat="46.12537" lon="4.69789">
        <ele>245.96758</ele>
        <time>2022-11-06T13:27:14.000Z</time>
      </trkpt>
      <trkpt lat="46.12535" lon="4.69782">
        <ele>246.11328</ele>
        <time>2022-11-06T13:27:15.000Z</time>
      </trkpt>
      <trkpt lat="46.12534" lon="4.69776">
        <ele>246.28865</ele>
        <time>2022-11-06T13:27:16.000Z</time>
      </trkpt>
      <trkpt lat="46.12534" lon="4.69769">
        <ele>246.41919</ele>
        <time>2022-11-06T13:27:17.000Z</time>
      </trkpt>
      <trkpt lat="46.12532" lon="4.69763">
        <ele>246.55042</ele>
        <time>2022-11-06T13:27:18.000Z</time>
      </trkpt>
      <trkpt lat="46.12531" lon="4.69757">
        <ele>246.67119</ele>
        <time>2022-11-06T13:27:19.000Z</time>
      </trkpt>
      <trkpt lat="46.1253" lon="4.69751">
        <ele>246.77068</ele>
        <time>2022-11-06T13:27:20.000Z</time>
      </trkpt>
      <trkpt lat="46.12529" lon="4.69744">
        <ele>246.8822</ele>
        <time>2022-11-06T13:27:21.000Z</time>
      </trkpt>
      <trkpt lat="46.12528" lon="4.69738">
        <ele>246.98555</ele>
        <time>2022-11-06T13:27:22.000Z</time>
      </trkpt>
      <trkpt lat="46.12526" lon="4.69731">
        <ele>247.05087</ele>
        <time>2022-11-06T13:27:23.000Z</time>
      </trkpt>
      <trkpt lat="46.12524" lon="4.69723">
        <ele>247.0253</ele>
        <time>2022-11-06T13:27:24.000Z</time>
      </trkpt>
      <trkpt lat="46.12523" lon="4.69716">
        <ele>247.03181</ele>
        <time>2022-11-06T13:27:25.000Z</time>
      </trkpt>
      <trkpt lat="46.12521" lon="4.69709">
        <ele>247.04648</ele>
        <time>2022-11-06T13:27:26.000Z</time>
      </trkpt>
      <trkpt lat="46.1252" lon="4.69703">
        <ele>247.17911</ele>
        <time>2022-11-06T13:27:27.000Z</time>
      </trkpt>
      <trkpt lat="46.12518" lon="4.69696">
        <ele>247.2836</ele>
        <time>2022-11-06T13:27:28.000Z</time>
      </trkpt>
      <trkpt lat="46.12516" lon="4.6969">
        <ele>247.32715</ele>
        <time>2022-11-06T13:27:29.000Z</time>
      </trkpt>
      <trkpt lat="46.12514" lon="4.69684">
        <ele>247.33745</ele>
        <time>2022-11-06T13:27:30.000Z</time>
      </trkpt>
      <trkpt lat="46.12512" lon="4.69678">
        <ele>247.36809</ele>
        <time>2022-11-06T13:27:31.000Z</time>
      </trkpt>
      <trkpt lat="46.12511" lon="4.69672">
        <ele>247.4052</ele>
        <time>2022-11-06T13:27:32.000Z</time>
      </trkpt>
      <trkpt lat="46.1251" lon="4.69667">
        <ele>247.43977</ele>
        <time>2022-11-06T13:27:33.000Z</time>
      </trkpt>
      <trkpt lat="46.12508" lon="4.69661">
        <ele>247.47433</ele>
        <time>2022-11-06T13:27:34.000Z</time>
      </trkpt>
      <trkpt lat="46.12506" lon="4.69658">
        <ele>247.49174</ele>
        <time>2022-11-06T13:27:35.000Z</time>
      </trkpt>
      <trkpt lat="46.12505" lon="4.69654">
        <ele>247.4783</ele>
        <time>2022-11-06T13:27:36.000Z</time>
      </trkpt>
      <trkpt lat="46.12503" lon="4.6965">
        <ele>247.46762</ele>
        <time>2022-11-06T13:27:37.000Z</time>
      </trkpt>
      <trkpt lat="46.12503" lon="4.69646">
        <ele>247.44743</ele>
        <time>2022-11-06T13:27:38.000Z</time>
      </trkpt>
      <trkpt lat="46.12501" lon="4.69642">
        <ele>247.41663</ele>
        <time>2022-11-06T13:27:39.000Z</time>
      </trkpt>
      <trkpt lat="46.12499" lon="4.69638">
        <ele>247.39417</ele>
        <time>2022-11-06T13:27:40.000Z</time>
      </trkpt>
      <trkpt lat="46.12498" lon="4.69633">
        <ele>247.36084</ele>
        <time>2022-11-06T13:27:41.000Z</time>
      </trkpt>
      <trkpt lat="46.12496" lon="4.69628">
        <ele>247.37288</ele>
        <time>2022-11-06T13:27:42.000Z</time>
      </trkpt>
      <trkpt lat="46.12494" lon="4.69623">
        <ele>247.41826</ele>
        <time>2022-11-06T13:27:43.000Z</time>
      </trkpt>
      <trkpt lat="46.12492" lon="4.69618">
        <ele>247.55437</ele>
        <time>2022-11-06T13:27:44.000Z</time>
      </trkpt>
      <trkpt lat="46.1249" lon="4.69612">
        <ele>247.69463</ele>
        <time>2022-11-06T13:27:45.000Z</time>
      </trkpt>
      <trkpt lat="46.12488" lon="4.69607">
        <ele>247.81885</ele>
        <time>2022-11-06T13:27:46.000Z</time>
      </trkpt>
      <trkpt lat="46.12486" lon="4.69601">
        <ele>247.81291</ele>
        <time>2022-11-06T13:27:47.000Z</time>
      </trkpt>
      <trkpt lat="46.12484" lon="4.69596">
        <ele>247.84441</ele>
        <time>2022-11-06T13:27:48.000Z</time>
      </trkpt>
      <trkpt lat="46.12482" lon="4.6959">
        <ele>247.89548</ele>
        <time>2022-11-06T13:27:49.000Z</time>
      </trkpt>
      <trkpt lat="46.1248" lon="4.69584">
        <ele>247.97734</ele>
        <time>2022-11-06T13:27:50.000Z</time>
      </trkpt>
      <trkpt lat="46.12477" lon="4.69577">
        <ele>248.00684</ele>
        <time>2022-11-06T13:27:51.000Z</time>
      </trkpt>
      <trkpt lat="46.12475" lon="4.6957">
        <ele>248.00903</ele>
        <time>2022-11-06T13:27:52.000Z</time>
      </trkpt>
      <trkpt lat="46.12473" lon="4.69564">
        <ele>248.03801</ele>
        <time>2022-11-06T13:27:53.000Z</time>
      </trkpt>
      <trkpt lat="46.1247" lon="4.69557">
        <ele>248.04196</ele>
        <time>2022-11-06T13:27:54.000Z</time>
      </trkpt>
      <trkpt lat="46.12468" lon="4.6955">
        <ele>248.01118</ele>
        <time>2022-11-06T13:27:55.000Z</time>
      </trkpt>
      <trkpt lat="46.12466" lon="4.69545">
        <ele>247.98819</ele>
        <time>2022-11-06T13:27:56.000Z</time>
      </trkpt>
      <trkpt lat="46.12464" lon="4.6954">
        <ele>247.90881</ele>
        <time>2022-11-06T13:27:57.000Z</time>
      </trkpt>
      <trkpt lat="46.12463" lon="4.69535">
        <ele>247.9982</ele>
        <time>2022-11-06T13:27:58.000Z</time>
      </trkpt>
      <trkpt lat="46.1246" lon="4.6953">
        <ele>248.29448</ele>
        <time>2022-11-06T13:27:59.000Z</time>
      </trkpt>
      <trkpt lat="46.12459" lon="4.69523">
        <ele>248.58195</ele>
        <time>2022-11-06T13:28:00.000Z</time>
      </trkpt>
      <trkpt lat="46.12456" lon="4.69517">
        <ele>248.87906</ele>
        <time>2022-11-06T13:28:01.000Z</time>
      </trkpt>
      <trkpt lat="46.12454" lon="4.69511">
        <ele>249.16245</ele>
        <time>2022-11-06T13:28:02.000Z</time>
      </trkpt>
      <trkpt lat="46.12451" lon="4.69505">
        <ele>249.40703</ele>
        <time>2022-11-06T13:28:03.000Z</time>
      </trkpt>
      <trkpt lat="46.12449" lon="4.69499">
        <ele>249.65292</ele>
        <time>2022-11-06T13:28:04.000Z</time>
      </trkpt>
      <trkpt lat="46.12447" lon="4.69493">
        <ele>249.88399</ele>
        <time>2022-11-06T13:28:05.000Z</time>
      </trkpt>
      <trkpt lat="46.12445" lon="4.69485">
        <ele>250.09702</ele>
        <time>2022-11-06T13:28:06.000Z</time>
      </trkpt>
      <trkpt lat="46.12444" lon="4.69479">
        <ele>250.28401</ele>
        <time>2022-11-06T13:28:07.000Z</time>
      </trkpt>
      <trkpt lat="46.12441" lon="4.69472">
        <ele>250.48047</ele>
        <time>2022-11-06T13:28:08.000Z</time>
      </trkpt>
      <trkpt lat="46.12439" lon="4.69465">
        <ele>250.69096</ele>
        <time>2022-11-06T13:28:09.000Z</time>
      </trkpt>
      <trkpt lat="46.12437" lon="4.69459">
        <ele>250.85498</ele>
        <time>2022-11-06T13:28:10.000Z</time>
      </trkpt>
      <trkpt lat="46.12435" lon="4.69453">
        <ele>251.03183</ele>
        <time>2022-11-06T13:28:11.000Z</time>
      </trkpt>
      <trkpt lat="46.12432" lon="4.69447">
        <ele>251.18002</ele>
        <time>2022-11-06T13:28:12.000Z</time>
      </trkpt>
      <trkpt lat="46.1243" lon="4.69443">
        <ele>251.31523</ele>
        <time>2022-11-06T13:28:13.000Z</time>
      </trkpt>
      <trkpt lat="46.12428" lon="4.69436">
        <ele>251.46072</ele>
        <time>2022-11-06T13:28:14.000Z</time>
      </trkpt>
      <trkpt lat="46.12425" lon="4.6943">
        <ele>251.65068</ele>
        <time>2022-11-06T13:28:15.000Z</time>
      </trkpt>
      <trkpt lat="46.12422" lon="4.69422">
        <ele>251.896</ele>
        <time>2022-11-06T13:28:16.000Z</time>
      </trkpt>
      <trkpt lat="46.1242" lon="4.69416">
        <ele>252.19165</ele>
        <time>2022-11-06T13:28:17.000Z</time>
      </trkpt>
      <trkpt lat="46.12419" lon="4.6941">
        <ele>252.31392</ele>
        <time>2022-11-06T13:28:18.000Z</time>
      </trkpt>
      <trkpt lat="46.12416" lon="4.69404">
        <ele>252.23775</ele>
        <time>2022-11-06T13:28:19.000Z</time>
      </trkpt>
      <trkpt lat="46.12414" lon="4.69397">
        <ele>252.17984</ele>
        <time>2022-11-06T13:28:20.000Z</time>
      </trkpt>
      <trkpt lat="46.12412" lon="4.69392">
        <ele>252.12912</ele>
        <time>2022-11-06T13:28:21.000Z</time>
      </trkpt>
      <trkpt lat="46.1241" lon="4.69385">
        <ele>252.09233</ele>
        <time>2022-11-06T13:28:22.000Z</time>
      </trkpt>
      <trkpt lat="46.12408" lon="4.69378">
        <ele>252.09042</ele>
        <time>2022-11-06T13:28:23.000Z</time>
      </trkpt>
      <trkpt lat="46.12407" lon="4.69374">
        <ele>252.02731</ele>
        <time>2022-11-06T13:28:24.000Z</time>
      </trkpt>
      <trkpt lat="46.12405" lon="4.69367">
        <ele>251.98775</ele>
        <time>2022-11-06T13:28:25.000Z</time>
      </trkpt>
      <trkpt lat="46.12404" lon="4.6936">
        <ele>251.96802</ele>
        <time>2022-11-06T13:28:26.000Z</time>
      </trkpt>
      <trkpt lat="46.12401" lon="4.69353">
        <ele>251.97688</ele>
        <time>2022-11-06T13:28:27.000Z</time>
      </trkpt>
      <trkpt lat="46.12399" lon="4.69344">
        <ele>251.97412</ele>
        <time>2022-11-06T13:28:28.000Z</time>
      </trkpt>
      <trkpt lat="46.12397" lon="4.69337">
        <ele>251.95757</ele>
        <time>2022-11-06T13:28:29.000Z</time>
      </trkpt>
      <trkpt lat="46.12395" lon="4.69329">
        <ele>251.99223</ele>
        <time>2022-11-06T13:28:30.000Z</time>
      </trkpt>
      <trkpt lat="46.12393" lon="4.69322">
        <ele>252.07788</ele>
        <time>2022-11-06T13:28:31.000Z</time>
      </trkpt>
      <trkpt lat="46.12392" lon="4.69315">
        <ele>252.18909</ele>
        <time>2022-11-06T13:28:32.000Z</time>
      </trkpt>
      <trkpt lat="46.1239" lon="4.69307">
        <ele>252.30203</ele>
        <time>2022-11-06T13:28:33.000Z</time>
      </trkpt>
      <trkpt lat="46.12389" lon="4.69299">
        <ele>252.42065</ele>
        <time>2022-11-06T13:28:34.000Z</time>
      </trkpt>
      <trkpt lat="46.12387" lon="4.69292">
        <ele>252.51836</ele>
        <time>2022-11-06T13:28:35.000Z</time>
      </trkpt>
      <trkpt lat="46.12387" lon="4.69285">
        <ele>252.5872</ele>
        <time>2022-11-06T13:28:36.000Z</time>
      </trkpt>
      <trkpt lat="46.12385" lon="4.69278">
        <ele>252.65425</ele>
        <time>2022-11-06T13:28:37.000Z</time>
      </trkpt>
      <trkpt lat="46.12384" lon="4.6927">
        <ele>252.7598</ele>
        <time>2022-11-06T13:28:38.000Z</time>
      </trkpt>
      <trkpt lat="46.12383" lon="4.69263">
        <ele>252.87302</ele>
        <time>2022-11-06T13:28:39.000Z</time>
      </trkpt>
      <trkpt lat="46.12382" lon="4.69256">
        <ele>252.97128</ele>
        <time>2022-11-06T13:28:40.000Z</time>
      </trkpt>
      <trkpt lat="46.1238" lon="4.69248">
        <ele>253.06039</ele>
        <time>2022-11-06T13:28:41.000Z</time>
      </trkpt>
      <trkpt lat="46.1238" lon="4.69241">
        <ele>253.12752</ele>
        <time>2022-11-06T13:28:42.000Z</time>
      </trkpt>
      <trkpt lat="46.12379" lon="4.69233">
        <ele>253.18008</ele>
        <time>2022-11-06T13:28:43.000Z</time>
      </trkpt>
      <trkpt lat="46.12378" lon="4.69227">
        <ele>253.269</ele>
        <time>2022-11-06T13:28:44.000Z</time>
      </trkpt>
      <trkpt lat="46.12377" lon="4.69219">
        <ele>253.33936</ele>
        <time>2022-11-06T13:28:45.000Z</time>
      </trkpt>
      <trkpt lat="46.12377" lon="4.69212">
        <ele>253.40112</ele>
        <time>2022-11-06T13:28:46.000Z</time>
      </trkpt>
      <trkpt lat="46.12376" lon="4.69204">
        <ele>253.45987</ele>
        <time>2022-11-06T13:28:47.000Z</time>
      </trkpt>
      <trkpt lat="46.12376" lon="4.69197">
        <ele>253.52002</ele>
        <time>2022-11-06T13:28:48.000Z</time>
      </trkpt>
      <trkpt lat="46.12375" lon="4.6919">
        <ele>253.59683</ele>
        <time>2022-11-06T13:28:49.000Z</time>
      </trkpt>
      <trkpt lat="46.12374" lon="4.69183">
        <ele>253.65263</ele>
        <time>2022-11-06T13:28:50.000Z</time>
      </trkpt>
      <trkpt lat="46.12373" lon="4.69176">
        <ele>253.71284</ele>
        <time>2022-11-06T13:28:51.000Z</time>
      </trkpt>
      <trkpt lat="46.12373" lon="4.6917">
        <ele>253.79646</ele>
        <time>2022-11-06T13:28:52.000Z</time>
      </trkpt>
      <trkpt lat="46.12372" lon="4.69162">
        <ele>253.84966</ele>
        <time>2022-11-06T13:28:53.000Z</time>
      </trkpt>
      <trkpt lat="46.12373" lon="4.69156">
        <ele>253.90829</ele>
        <time>2022-11-06T13:28:54.000Z</time>
      </trkpt>
      <trkpt lat="46.12372" lon="4.69149">
        <ele>254.01392</ele>
        <time>2022-11-06T13:28:55.000Z</time>
      </trkpt>
      <trkpt lat="46.12373" lon="4.69141">
        <ele>254.07651</ele>
        <time>2022-11-06T13:28:56.000Z</time>
      </trkpt>
      <trkpt lat="46.12372" lon="4.69133">
        <ele>254.13773</ele>
        <time>2022-11-06T13:28:57.000Z</time>
      </trkpt>
      <trkpt lat="46.12373" lon="4.69125">
        <ele>254.16792</ele>
        <time>2022-11-06T13:28:58.000Z</time>
      </trkpt>
      <trkpt lat="46.12371" lon="4.69119">
        <ele>254.17798</ele>
        <time>2022-11-06T13:28:59.000Z</time>
      </trkpt>
      <trkpt lat="46.12372" lon="4.69112">
        <ele>254.17563</ele>
        <time>2022-11-06T13:29:00.000Z</time>
      </trkpt>
      <trkpt lat="46.12372" lon="4.69105">
        <ele>254.14224</ele>
        <time>2022-11-06T13:29:01.000Z</time>
      </trkpt>
      <trkpt lat="46.12371" lon="4.691">
        <ele>254.10017</ele>
        <time>2022-11-06T13:29:02.000Z</time>
      </trkpt>
      <trkpt lat="46.12371" lon="4.69092">
        <ele>254.08264</ele>
        <time>2022-11-06T13:29:03.000Z</time>
      </trkpt>
      <trkpt lat="46.12372" lon="4.69084">
        <ele>254.04025</ele>
        <time>2022-11-06T13:29:04.000Z</time>
      </trkpt>
      <trkpt lat="46.12371" lon="4.69077">
        <ele>254.00749</ele>
        <time>2022-11-06T13:29:05.000Z</time>
      </trkpt>
      <trkpt lat="46.1237" lon="4.69071">
        <ele>253.98999</ele>
        <time>2022-11-06T13:29:06.000Z</time>
      </trkpt>
      <trkpt lat="46.1237" lon="4.69065">
        <ele>254.01152</ele>
        <time>2022-11-06T13:29:07.000Z</time>
      </trkpt>
      <trkpt lat="46.1237" lon="4.6906">
        <ele>254.02112</ele>
        <time>2022-11-06T13:29:08.000Z</time>
      </trkpt>
      <trkpt lat="46.1237" lon="4.69052">
        <ele>254.04507</ele>
        <time>2022-11-06T13:29:09.000Z</time>
      </trkpt>
      <trkpt lat="46.12369" lon="4.69045">
        <ele>254.06917</ele>
        <time>2022-11-06T13:29:10.000Z</time>
      </trkpt>
      <trkpt lat="46.12369" lon="4.69037">
        <ele>254.05246</ele>
        <time>2022-11-06T13:29:11.000Z</time>
      </trkpt>
      <trkpt lat="46.1237" lon="4.6903">
        <ele>254.00581</ele>
        <time>2022-11-06T13:29:12.000Z</time>
      </trkpt>
      <trkpt lat="46.1237" lon="4.69023">
        <ele>253.95219</ele>
        <time>2022-11-06T13:29:13.000Z</time>
      </trkpt>
      <trkpt lat="46.12371" lon="4.69014">
        <ele>253.89249</ele>
        <time>2022-11-06T13:29:14.000Z</time>
      </trkpt>
      <trkpt lat="46.12372" lon="4.69006">
        <ele>253.81396</ele>
        <time>2022-11-06T13:29:15.000Z</time>
      </trkpt>
      <trkpt lat="46.12373" lon="4.68999">
        <ele>253.77921</ele>
        <time>2022-11-06T13:29:16.000Z</time>
      </trkpt>
      <trkpt lat="46.12373" lon="4.68992">
        <ele>253.76889</ele>
        <time>2022-11-06T13:29:17.000Z</time>
      </trkpt>
      <trkpt lat="46.12374" lon="4.68985">
        <ele>253.76059</ele>
        <time>2022-11-06T13:29:18.000Z</time>
      </trkpt>
      <trkpt lat="46.12374" lon="4.68978">
        <ele>253.75972</ele>
        <time>2022-11-06T13:29:19.000Z</time>
      </trkpt>
      <trkpt lat="46.12375" lon="4.68968">
        <ele>253.76753</ele>
        <time>2022-11-06T13:29:20.000Z</time>
      </trkpt>
      <trkpt lat="46.12374" lon="4.6896">
        <ele>253.76811</ele>
        <time>2022-11-06T13:29:21.000Z</time>
      </trkpt>
      <trkpt lat="46.12373" lon="4.68954">
        <ele>253.81821</ele>
        <time>2022-11-06T13:29:22.000Z</time>
      </trkpt>
      <trkpt lat="46.12372" lon="4.68948">
        <ele>253.84741</ele>
        <time>2022-11-06T13:29:23.000Z</time>
      </trkpt>
      <trkpt lat="46.12372" lon="4.68942">
        <ele>253.86667</ele>
        <time>2022-11-06T13:29:24.000Z</time>
      </trkpt>
      <trkpt lat="46.12373" lon="4.68935">
        <ele>253.87131</ele>
        <time>2022-11-06T13:29:25.000Z</time>
      </trkpt>
      <trkpt lat="46.12374" lon="4.68927">
        <ele>253.89922</ele>
        <time>2022-11-06T13:29:26.000Z</time>
      </trkpt>
      <trkpt lat="46.12374" lon="4.68919">
        <ele>253.90103</ele>
        <time>2022-11-06T13:29:27.000Z</time>
      </trkpt>
      <trkpt lat="46.12374" lon="4.6891">
        <ele>253.92416</ele>
        <time>2022-11-06T13:29:28.000Z</time>
      </trkpt>
      <trkpt lat="46.12374" lon="4.68902">
        <ele>253.97302</ele>
        <time>2022-11-06T13:29:29.000Z</time>
      </trkpt>
      <trkpt lat="46.12375" lon="4.68896">
        <ele>254.05026</ele>
        <time>2022-11-06T13:29:30.000Z</time>
      </trkpt>
      <trkpt lat="46.12375" lon="4.68887">
        <ele>254.11162</ele>
        <time>2022-11-06T13:29:31.000Z</time>
      </trkpt>
      <trkpt lat="46.12375" lon="4.68879">
        <ele>254.16484</ele>
        <time>2022-11-06T13:29:32.000Z</time>
      </trkpt>
      <trkpt lat="46.12377" lon="4.68872">
        <ele>254.2355</ele>
        <time>2022-11-06T13:29:33.000Z</time>
      </trkpt>
      <trkpt lat="46.12378" lon="4.68866">
        <ele>254.29395</ele>
        <time>2022-11-06T13:29:34.000Z</time>
      </trkpt>
      <trkpt lat="46.12378" lon="4.68859">
        <ele>254.33769</ele>
        <time>2022-11-06T13:29:35.000Z</time>
      </trkpt>
      <trkpt lat="46.12379" lon="4.6885">
        <ele>254.39279</ele>
        <time>2022-11-06T13:29:36.000Z</time>
      </trkpt>
      <trkpt lat="46.1238" lon="4.68844">
        <ele>254.4292</ele>
        <time>2022-11-06T13:29:37.000Z</time>
      </trkpt>
      <trkpt lat="46.12381" lon="4.68837">
        <ele>254.47078</ele>
        <time>2022-11-06T13:29:38.000Z</time>
      </trkpt>
      <trkpt lat="46.12381" lon="4.6883">
        <ele>254.49301</ele>
        <time>2022-11-06T13:29:39.000Z</time>
      </trkpt>
      <trkpt lat="46.12381" lon="4.68822">
        <ele>254.55063</ele>
        <time>2022-11-06T13:29:40.000Z</time>
      </trkpt>
      <trkpt lat="46.12381" lon="4.68814">
        <ele>254.64053</ele>
        <time>2022-11-06T13:29:41.000Z</time>
      </trkpt>
      <trkpt lat="46.12381" lon="4.68807">
        <ele>254.69092</ele>
        <time>2022-11-06T13:29:42.000Z</time>
      </trkpt>
      <trkpt lat="46.12382" lon="4.688">
        <ele>254.74426</ele>
        <time>2022-11-06T13:29:43.000Z</time>
      </trkpt>
      <trkpt lat="46.12383" lon="4.68793">
        <ele>254.82861</ele>
        <time>2022-11-06T13:29:44.000Z</time>
      </trkpt>
      <trkpt lat="46.12384" lon="4.68786">
        <ele>254.89961</ele>
        <time>2022-11-06T13:29:45.000Z</time>
      </trkpt>
      <trkpt lat="46.12385" lon="4.6878">
        <ele>254.967</ele>
        <time>2022-11-06T13:29:46.000Z</time>
      </trkpt>
      <trkpt lat="46.12384" lon="4.68773">
        <ele>255.02193</ele>
        <time>2022-11-06T13:29:47.000Z</time>
      </trkpt>
      <trkpt lat="46.12383" lon="4.68766">
        <ele>255.07344</ele>
        <time>2022-11-06T13:29:48.000Z</time>
      </trkpt>
      <trkpt lat="46.12384" lon="4.6876">
        <ele>255.08878</ele>
        <time>2022-11-06T13:29:49.000Z</time>
      </trkpt>
      <trkpt lat="46.12386" lon="4.68754">
        <ele>255.13591</ele>
        <time>2022-11-06T13:29:50.000Z</time>
      </trkpt>
      <trkpt lat="46.12387" lon="4.68747">
        <ele>255.20471</ele>
        <time>2022-11-06T13:29:51.000Z</time>
      </trkpt>
      <trkpt lat="46.12387" lon="4.68741">
        <ele>255.26176</ele>
        <time>2022-11-06T13:29:52.000Z</time>
      </trkpt>
      <trkpt lat="46.12385" lon="4.68735">
        <ele>255.33121</ele>
        <time>2022-11-06T13:29:53.000Z</time>
      </trkpt>
      <trkpt lat="46.12385" lon="4.6873">
        <ele>255.43721</ele>
        <time>2022-11-06T13:29:54.000Z</time>
      </trkpt>
      <trkpt lat="46.12383" lon="4.68722">
        <ele>255.55049</ele>
        <time>2022-11-06T13:29:55.000Z</time>
      </trkpt>
      <trkpt lat="46.12383" lon="4.68713">
        <ele>255.62305</ele>
        <time>2022-11-06T13:29:56.000Z</time>
      </trkpt>
      <trkpt lat="46.12382" lon="4.68703">
        <ele>255.68787</ele>
        <time>2022-11-06T13:29:57.000Z</time>
      </trkpt>
      <trkpt lat="46.12381" lon="4.68698">
        <ele>255.75391</ele>
        <time>2022-11-06T13:29:58.000Z</time>
      </trkpt>
      <trkpt lat="46.12382" lon="4.68688">
        <ele>255.84587</ele>
        <time>2022-11-06T13:29:59.000Z</time>
      </trkpt>
      <trkpt lat="46.12381" lon="4.68681">
        <ele>255.92618</ele>
        <time>2022-11-06T13:30:00.000Z</time>
      </trkpt>
      <trkpt lat="46.1238" lon="4.68672">
        <ele>255.99765</ele>
        <time>2022-11-06T13:30:01.000Z</time>
      </trkpt>
      <trkpt lat="46.12381" lon="4.68663">
        <ele>256.06958</ele>
        <time>2022-11-06T13:30:02.000Z</time>
      </trkpt>
      <trkpt lat="46.12381" lon="4.68657">
        <ele>256.13937</ele>
        <time>2022-11-06T13:30:03.000Z</time>
      </trkpt>
      <trkpt lat="46.1238" lon="4.6865">
        <ele>256.21539</ele>
        <time>2022-11-06T13:30:04.000Z</time>
      </trkpt>
      <trkpt lat="46.12378" lon="4.68642">
        <ele>256.28018</ele>
        <time>2022-11-06T13:30:05.000Z</time>
      </trkpt>
      <trkpt lat="46.12376" lon="4.68635">
        <ele>256.34073</ele>
        <time>2022-11-06T13:30:06.000Z</time>
      </trkpt>
      <trkpt lat="46.12377" lon="4.6863">
        <ele>256.42361</ele>
        <time>2022-11-06T13:30:07.000Z</time>
      </trkpt>
      <trkpt lat="46.12377" lon="4.68623">
        <ele>256.51773</ele>
        <time>2022-11-06T13:30:08.000Z</time>
      </trkpt>
      <trkpt lat="46.12376" lon="4.68616">
        <ele>256.60373</ele>
        <time>2022-11-06T13:30:09.000Z</time>
      </trkpt>
      <trkpt lat="46.12374" lon="4.68609">
        <ele>256.60663</ele>
        <time>2022-11-06T13:30:10.000Z</time>
      </trkpt>
      <trkpt lat="46.12374" lon="4.68602">
        <ele>256.62057</ele>
        <time>2022-11-06T13:30:11.000Z</time>
      </trkpt>
      <trkpt lat="46.12373" lon="4.68594">
        <ele>256.6546</ele>
        <time>2022-11-06T13:30:12.000Z</time>
      </trkpt>
      <trkpt lat="46.1237" lon="4.68585">
        <ele>256.66006</ele>
        <time>2022-11-06T13:30:13.000Z</time>
      </trkpt>
      <trkpt lat="46.12369" lon="4.6858">
        <ele>256.63852</ele>
        <time>2022-11-06T13:30:14.000Z</time>
      </trkpt>
      <trkpt lat="46.12368" lon="4.68574">
        <ele>256.58994</ele>
        <time>2022-11-06T13:30:15.000Z</time>
      </trkpt>
      <trkpt lat="46.12367" lon="4.68569">
        <ele>256.58325</ele>
        <time>2022-11-06T13:30:16.000Z</time>
      </trkpt>
      <trkpt lat="46.12366" lon="4.68565">
        <ele>256.51837</ele>
        <time>2022-11-06T13:30:17.000Z</time>
      </trkpt>
      <trkpt lat="46.12364" lon="4.68559">
        <ele>256.05795</ele>
        <time>2022-11-06T13:30:18.000Z</time>
      </trkpt>
      <trkpt lat="46.12364" lon="4.68545">
        <ele>255.60661</ele>
        <time>2022-11-06T13:30:19.000Z</time>
      </trkpt>
      <trkpt lat="46.12362" lon="4.68537">
        <ele>255.14079</ele>
        <time>2022-11-06T13:30:20.000Z</time>
      </trkpt>
      <trkpt lat="46.1236" lon="4.68528">
        <ele>254.60469</ele>
        <time>2022-11-06T13:30:21.000Z</time>
      </trkpt>
      <trkpt lat="46.1236" lon="4.68523">
        <ele>254.30254</ele>
        <time>2022-11-06T13:30:22.000Z</time>
      </trkpt>
      <trkpt lat="46.12358" lon="4.68515">
        <ele>254.01425</ele>
        <time>2022-11-06T13:30:23.000Z</time>
      </trkpt>
      <trkpt lat="46.12357" lon="4.6851">
        <ele>253.72176</ele>
        <time>2022-11-06T13:30:24.000Z</time>
      </trkpt>
      <trkpt lat="46.12356" lon="4.68501">
        <ele>253.46768</ele>
        <time>2022-11-06T13:30:25.000Z</time>
      </trkpt>
      <trkpt lat="46.12355" lon="4.68495">
        <ele>253.14639</ele>
        <time>2022-11-06T13:30:26.000Z</time>
      </trkpt>
      <trkpt lat="46.12355" lon="4.68488">
        <ele>252.73174</ele>
        <time>2022-11-06T13:30:27.000Z</time>
      </trkpt>
      <trkpt lat="46.12356" lon="4.68481">
        <ele>252.26704</ele>
        <time>2022-11-06T13:30:28.000Z</time>
      </trkpt>
      <trkpt lat="46.12353" lon="4.68468">
        <ele>251.83907</ele>
        <time>2022-11-06T13:30:29.000Z</time>
      </trkpt>
      <trkpt lat="46.12351" lon="4.68455">
        <ele>251.47079</ele>
        <time>2022-11-06T13:30:30.000Z</time>
      </trkpt>
      <trkpt lat="46.1235" lon="4.68449">
        <ele>251.12418</ele>
        <time>2022-11-06T13:30:31.000Z</time>
      </trkpt>
      <trkpt lat="46.12352" lon="4.68442">
        <ele>250.75586</ele>
        <time>2022-11-06T13:30:32.000Z</time>
      </trkpt>
      <trkpt lat="46.12353" lon="4.68434">
        <ele>250.32561</ele>
        <time>2022-11-06T13:30:33.000Z</time>
      </trkpt>
      <trkpt lat="46.12349" lon="4.68425">
        <ele>249.88896</ele>
        <time>2022-11-06T13:30:34.000Z</time>
      </trkpt>
      <trkpt lat="46.12348" lon="4.68418">
        <ele>249.44113</ele>
        <time>2022-11-06T13:30:35.000Z</time>
      </trkpt>
      <trkpt lat="46.12347" lon="4.68409">
        <ele>249.01111</ele>
        <time>2022-11-06T13:30:36.000Z</time>
      </trkpt>
      <trkpt lat="46.12347" lon="4.684">
        <ele>248.62077</ele>
        <time>2022-11-06T13:30:37.000Z</time>
      </trkpt>
      <trkpt lat="46.12345" lon="4.68391">
        <ele>248.5946</ele>
        <time>2022-11-06T13:30:38.000Z</time>
      </trkpt>
      <trkpt lat="46.12345" lon="4.68384">
        <ele>248.57222</ele>
        <time>2022-11-06T13:30:39.000Z</time>
      </trkpt>
      <trkpt lat="46.12343" lon="4.68376">
        <ele>248.57503</ele>
        <time>2022-11-06T13:30:40.000Z</time>
      </trkpt>
      <trkpt lat="46.1234" lon="4.6837">
        <ele>248.61826</ele>
        <time>2022-11-06T13:30:41.000Z</time>
      </trkpt>
      <trkpt lat="46.12338" lon="4.68364">
        <ele>248.44958</ele>
        <time>2022-11-06T13:30:42.000Z</time>
      </trkpt>
      <trkpt lat="46.12336" lon="4.68356">
        <ele>248.28357</ele>
        <time>2022-11-06T13:30:43.000Z</time>
      </trkpt>
      <trkpt lat="46.12334" lon="4.68349">
        <ele>248.14034</ele>
        <time>2022-11-06T13:30:44.000Z</time>
      </trkpt>
      <trkpt lat="46.12333" lon="4.68341">
        <ele>247.97131</ele>
        <time>2022-11-06T13:30:45.000Z</time>
      </trkpt>
      <trkpt lat="46.12332" lon="4.68332">
        <ele>247.92546</ele>
        <time>2022-11-06T13:30:46.000Z</time>
      </trkpt>
      <trkpt lat="46.1233" lon="4.68322">
        <ele>247.92371</ele>
        <time>2022-11-06T13:30:47.000Z</time>
      </trkpt>
      <trkpt lat="46.12329" lon="4.68314">
        <ele>247.98477</ele>
        <time>2022-11-06T13:30:48.000Z</time>
      </trkpt>
      <trkpt lat="46.12326" lon="4.68304">
        <ele>248.11674</ele>
        <time>2022-11-06T13:30:49.000Z</time>
      </trkpt>
      <trkpt lat="46.12324" lon="4.68295">
        <ele>248.26131</ele>
        <time>2022-11-06T13:30:50.000Z</time>
      </trkpt>
      <trkpt lat="46.12322" lon="4.68286">
        <ele>248.46399</ele>
        <time>2022-11-06T13:30:51.000Z</time>
      </trkpt>
      <trkpt lat="46.12321" lon="4.68278">
        <ele>248.72189</ele>
        <time>2022-11-06T13:30:52.000Z</time>
      </trkpt>
      <trkpt lat="46.1232" lon="4.6827">
        <ele>249.14212</ele>
        <time>2022-11-06T13:30:53.000Z</time>
      </trkpt>
      <trkpt lat="46.12319" lon="4.68261">
        <ele>249.65498</ele>
        <time>2022-11-06T13:30:54.000Z</time>
      </trkpt>
      <trkpt lat="46.12317" lon="4.68252">
        <ele>250.27754</ele>
        <time>2022-11-06T13:30:55.000Z</time>
      </trkpt>
      <trkpt lat="46.12316" lon="4.68244">
        <ele>250.76631</ele>
        <time>2022-11-06T13:30:56.000Z</time>
      </trkpt>
      <trkpt lat="46.12315" lon="4.68236">
        <ele>251.27103</ele>
        <time>2022-11-06T13:30:57.000Z</time>
      </trkpt>
      <trkpt lat="46.12314" lon="4.68226">
        <ele>251.78287</ele>
        <time>2022-11-06T13:30:58.000Z</time>
      </trkpt>
      <trkpt lat="46.12313" lon="4.68217">
        <ele>252.34697</ele>
        <time>2022-11-06T13:30:59.000Z</time>
      </trkpt>
      <trkpt lat="46.12312" lon="4.68209">
        <ele>252.91948</ele>
        <time>2022-11-06T13:31:00.000Z</time>
      </trkpt>
      <trkpt lat="46.12311" lon="4.682">
        <ele>253.51237</ele>
        <time>2022-11-06T13:31:01.000Z</time>
      </trkpt>
      <trkpt lat="46.1231" lon="4.68193">
        <ele>254.09567</ele>
        <time>2022-11-06T13:31:02.000Z</time>
      </trkpt>
      <trkpt lat="46.12308" lon="4.68185">
        <ele>254.6665</ele>
        <time>2022-11-06T13:31:03.000Z</time>
      </trkpt>
      <trkpt lat="46.12307" lon="4.68176">
        <ele>255.20901</ele>
        <time>2022-11-06T13:31:04.000Z</time>
      </trkpt>
      <trkpt lat="46.12306" lon="4.68168">
        <ele>255.77348</ele>
        <time>2022-11-06T13:31:05.000Z</time>
      </trkpt>
      <trkpt lat="46.12305" lon="4.6816">
        <ele>256.2691</ele>
        <time>2022-11-06T13:31:06.000Z</time>
      </trkpt>
      <trkpt lat="46.12302" lon="4.6815">
        <ele>256.80017</ele>
        <time>2022-11-06T13:31:07.000Z</time>
      </trkpt>
      <trkpt lat="46.12301" lon="4.68141">
        <ele>257.28085</ele>
        <time>2022-11-06T13:31:08.000Z</time>
      </trkpt>
      <trkpt lat="46.12299" lon="4.68133">
        <ele>257.68152</ele>
        <time>2022-11-06T13:31:09.000Z</time>
      </trkpt>
      <trkpt lat="46.12297" lon="4.68125">
        <ele>258.03387</ele>
        <time>2022-11-06T13:31:10.000Z</time>
      </trkpt>
      <trkpt lat="46.12296" lon="4.68118">
        <ele>258.27032</ele>
        <time>2022-11-06T13:31:11.000Z</time>
      </trkpt>
      <trkpt lat="46.12296" lon="4.6811">
        <ele>258.4577</ele>
        <time>2022-11-06T13:31:12.000Z</time>
      </trkpt>
      <trkpt lat="46.12296" lon="4.68102">
        <ele>258.54697</ele>
        <time>2022-11-06T13:31:13.000Z</time>
      </trkpt>
      <trkpt lat="46.12294" lon="4.68094">
        <ele>258.58206</ele>
        <time>2022-11-06T13:31:14.000Z</time>
      </trkpt>
      <trkpt lat="46.12292" lon="4.68087">
        <ele>258.52362</ele>
        <time>2022-11-06T13:31:15.000Z</time>
      </trkpt>
      <trkpt lat="46.1229" lon="4.68079">
        <ele>258.58698</ele>
        <time>2022-11-06T13:31:16.000Z</time>
      </trkpt>
      <trkpt lat="46.12289" lon="4.68072">
        <ele>258.65753</ele>
        <time>2022-11-06T13:31:17.000Z</time>
      </trkpt>
      <trkpt lat="46.12288" lon="4.68064">
        <ele>258.74817</ele>
        <time>2022-11-06T13:31:18.000Z</time>
      </trkpt>
      <trkpt lat="46.12287" lon="4.68057">
        <ele>258.76508</ele>
        <time>2022-11-06T13:31:19.000Z</time>
      </trkpt>
      <trkpt lat="46.12287" lon="4.68052">
        <ele>258.716</ele>
        <time>2022-11-06T13:31:20.000Z</time>
      </trkpt>
      <trkpt lat="46.12286" lon="4.68046">
        <ele>258.67691</ele>
        <time>2022-11-06T13:31:21.000Z</time>
      </trkpt>
      <trkpt lat="46.12285" lon="4.6804">
        <ele>258.61679</ele>
        <time>2022-11-06T13:31:22.000Z</time>
      </trkpt>
      <trkpt lat="46.12284" lon="4.68034">
        <ele>258.5639</ele>
        <time>2022-11-06T13:31:23.000Z</time>
      </trkpt>
      <trkpt lat="46.12284" lon="4.68029">
        <ele>258.50281</ele>
        <time>2022-11-06T13:31:24.000Z</time>
      </trkpt>
      <trkpt lat="46.12283" lon="4.68024">
        <ele>258.42126</ele>
        <time>2022-11-06T13:31:25.000Z</time>
      </trkpt>
      <trkpt lat="46.12282" lon="4.68018">
        <ele>258.32748</ele>
        <time>2022-11-06T13:31:26.000Z</time>
      </trkpt>
      <trkpt lat="46.12281" lon="4.68013">
        <ele>258.23294</ele>
        <time>2022-11-06T13:31:27.000Z</time>
      </trkpt>
      <trkpt lat="46.1228" lon="4.6801">
        <ele>258.14337</ele>
        <time>2022-11-06T13:31:28.000Z</time>
      </trkpt>
      <trkpt lat="46.1228" lon="4.68006">
        <ele>258.00684</ele>
        <time>2022-11-06T13:31:29.000Z</time>
      </trkpt>
      <trkpt lat="46.12279" lon="4.68001">
        <ele>257.88824</ele>
        <time>2022-11-06T13:31:30.000Z</time>
      </trkpt>
      <trkpt lat="46.12279" lon="4.67997">
        <ele>257.81183</ele>
        <time>2022-11-06T13:31:31.000Z</time>
      </trkpt>
      <trkpt lat="46.12278" lon="4.67993">
        <ele>257.76721</ele>
        <time>2022-11-06T13:31:32.000Z</time>
      </trkpt>
      <trkpt lat="46.12277" lon="4.6799">
        <ele>257.7326</ele>
        <time>2022-11-06T13:31:33.000Z</time>
      </trkpt>
      <trkpt lat="46.12276" lon="4.67986">
        <ele>257.67172</ele>
        <time>2022-11-06T13:31:34.000Z</time>
      </trkpt>
      <trkpt lat="46.12276" lon="4.67983">
        <ele>257.62357</ele>
        <time>2022-11-06T13:31:35.000Z</time>
      </trkpt>
      <trkpt lat="46.12275" lon="4.67979">
        <ele>257.55533</ele>
        <time>2022-11-06T13:31:36.000Z</time>
      </trkpt>
      <trkpt lat="46.12275" lon="4.67974">
        <ele>257.50394</ele>
        <time>2022-11-06T13:31:37.000Z</time>
      </trkpt>
      <trkpt lat="46.12275" lon="4.67969">
        <ele>257.42755</ele>
        <time>2022-11-06T13:31:38.000Z</time>
      </trkpt>
      <trkpt lat="46.12274" lon="4.67964">
        <ele>257.36359</ele>
        <time>2022-11-06T13:31:39.000Z</time>
      </trkpt>
      <trkpt lat="46.12274" lon="4.67959">
        <ele>257.34708</ele>
        <time>2022-11-06T13:31:40.000Z</time>
      </trkpt>
      <trkpt lat="46.12273" lon="4.67953">
        <ele>257.33429</ele>
        <time>2022-11-06T13:31:41.000Z</time>
      </trkpt>
      <trkpt lat="46.12272" lon="4.67948">
        <ele>257.34921</ele>
        <time>2022-11-06T13:31:42.000Z</time>
      </trkpt>
      <trkpt lat="46.12271" lon="4.67942">
        <ele>257.35089</ele>
        <time>2022-11-06T13:31:43.000Z</time>
      </trkpt>
      <trkpt lat="46.1227" lon="4.67936">
        <ele>257.41754</ele>
        <time>2022-11-06T13:31:44.000Z</time>
      </trkpt>
      <trkpt lat="46.12269" lon="4.6793">
        <ele>257.50076</ele>
        <time>2022-11-06T13:31:45.000Z</time>
      </trkpt>
      <trkpt lat="46.12268" lon="4.67924">
        <ele>257.5874</ele>
        <time>2022-11-06T13:31:46.000Z</time>
      </trkpt>
      <trkpt lat="46.12266" lon="4.67917">
        <ele>257.67276</ele>
        <time>2022-11-06T13:31:47.000Z</time>
      </trkpt>
      <trkpt lat="46.12265" lon="4.67911">
        <ele>257.77325</ele>
        <time>2022-11-06T13:31:48.000Z</time>
      </trkpt>
      <trkpt lat="46.12263" lon="4.67905">
        <ele>257.89676</ele>
        <time>2022-11-06T13:31:49.000Z</time>
      </trkpt>
      <trkpt lat="46.12262" lon="4.67898">
        <ele>258.00098</ele>
        <time>2022-11-06T13:31:50.000Z</time>
      </trkpt>
      <trkpt lat="46.12261" lon="4.67891">
        <ele>258.08319</ele>
        <time>2022-11-06T13:31:51.000Z</time>
      </trkpt>
      <trkpt lat="46.1226" lon="4.67884">
        <ele>258.18823</ele>
        <time>2022-11-06T13:31:52.000Z</time>
      </trkpt>
      <trkpt lat="46.12259" lon="4.67877">
        <ele>258.30414</ele>
        <time>2022-11-06T13:31:53.000Z</time>
      </trkpt>
      <trkpt lat="46.12258" lon="4.67871">
        <ele>258.4234</ele>
        <time>2022-11-06T13:31:54.000Z</time>
      </trkpt>
      <trkpt lat="46.12257" lon="4.67864">
        <ele>258.53571</ele>
        <time>2022-11-06T13:31:55.000Z</time>
      </trkpt>
      <trkpt lat="46.12256" lon="4.67858">
        <ele>258.63995</ele>
        <time>2022-11-06T13:31:56.000Z</time>
      </trkpt>
      <trkpt lat="46.12255" lon="4.67852">
        <ele>258.72394</ele>
        <time>2022-11-06T13:31:57.000Z</time>
      </trkpt>
      <trkpt lat="46.12254" lon="4.67846">
        <ele>258.82761</ele>
        <time>2022-11-06T13:31:58.000Z</time>
      </trkpt>
      <trkpt lat="46.12253" lon="4.67838">
        <ele>258.9549</ele>
        <time>2022-11-06T13:31:59.000Z</time>
      </trkpt>
      <trkpt lat="46.12252" lon="4.67831">
        <ele>259.07391</ele>
        <time>2022-11-06T13:32:00.000Z</time>
      </trkpt>
      <trkpt lat="46.12251" lon="4.67823">
        <ele>259.18542</ele>
        <time>2022-11-06T13:32:01.000Z</time>
      </trkpt>
      <trkpt lat="46.1225" lon="4.67817">
        <ele>259.30939</ele>
        <time>2022-11-06T13:32:02.000Z</time>
      </trkpt>
      <trkpt lat="46.12249" lon="4.67812">
        <ele>259.4483</ele>
        <time>2022-11-06T13:32:03.000Z</time>
      </trkpt>
      <trkpt lat="46.12247" lon="4.67805">
        <ele>259.5451</ele>
        <time>2022-11-06T13:32:04.000Z</time>
      </trkpt>
      <trkpt lat="46.12245" lon="4.67796">
        <ele>259.63803</ele>
        <time>2022-11-06T13:32:05.000Z</time>
      </trkpt>
      <trkpt lat="46.12244" lon="4.67788">
        <ele>259.57074</ele>
        <time>2022-11-06T13:32:06.000Z</time>
      </trkpt>
      <trkpt lat="46.12243" lon="4.67782">
        <ele>259.48273</ele>
        <time>2022-11-06T13:32:07.000Z</time>
      </trkpt>
      <trkpt lat="46.12242" lon="4.67775">
        <ele>259.57629</ele>
        <time>2022-11-06T13:32:08.000Z</time>
      </trkpt>
      <trkpt lat="46.1224" lon="4.67768">
        <ele>259.67715</ele>
        <time>2022-11-06T13:32:09.000Z</time>
      </trkpt>
      <trkpt lat="46.12239" lon="4.67761">
        <ele>259.79404</ele>
        <time>2022-11-06T13:32:10.000Z</time>
      </trkpt>
      <trkpt lat="46.12237" lon="4.67753">
        <ele>259.91125</ele>
        <time>2022-11-06T13:32:11.000Z</time>
      </trkpt>
      <trkpt lat="46.12236" lon="4.67745">
        <ele>259.98264</ele>
        <time>2022-11-06T13:32:12.000Z</time>
      </trkpt>
      <trkpt lat="46.12235" lon="4.67738">
        <ele>260.02469</ele>
        <time>2022-11-06T13:32:13.000Z</time>
      </trkpt>
      <trkpt lat="46.12234" lon="4.67731">
        <ele>260.04953</ele>
        <time>2022-11-06T13:32:14.000Z</time>
      </trkpt>
      <trkpt lat="46.12233" lon="4.67724">
        <ele>260.08054</ele>
        <time>2022-11-06T13:32:15.000Z</time>
      </trkpt>
      <trkpt lat="46.12232" lon="4.67716">
        <ele>260.10437</ele>
        <time>2022-11-06T13:32:16.000Z</time>
      </trkpt>
      <trkpt lat="46.12231" lon="4.67709">
        <ele>260.12445</ele>
        <time>2022-11-06T13:32:17.000Z</time>
      </trkpt>
      <trkpt lat="46.1223" lon="4.67702">
        <ele>260.1369</ele>
        <time>2022-11-06T13:32:18.000Z</time>
      </trkpt>
      <trkpt lat="46.12228" lon="4.67695">
        <ele>260.1333</ele>
        <time>2022-11-06T13:32:19.000Z</time>
      </trkpt>
      <trkpt lat="46.12226" lon="4.67688">
        <ele>260.14136</ele>
        <time>2022-11-06T13:32:20.000Z</time>
      </trkpt>
      <trkpt lat="46.12225" lon="4.67679">
        <ele>260.13654</ele>
        <time>2022-11-06T13:32:21.000Z</time>
      </trkpt>
      <trkpt lat="46.12225" lon="4.67671">
        <ele>260.10858</ele>
        <time>2022-11-06T13:32:22.000Z</time>
      </trkpt>
      <trkpt lat="46.12225" lon="4.67663">
        <ele>260.06439</ele>
        <time>2022-11-06T13:32:23.000Z</time>
      </trkpt>
      <trkpt lat="46.12224" lon="4.67655">
        <ele>260.01422</ele>
        <time>2022-11-06T13:32:24.000Z</time>
      </trkpt>
      <trkpt lat="46.12223" lon="4.67647">
        <ele>259.9621</ele>
        <time>2022-11-06T13:32:25.000Z</time>
      </trkpt>
      <trkpt lat="46.12222" lon="4.67639">
        <ele>260.05408</ele>
        <time>2022-11-06T13:32:26.000Z</time>
      </trkpt>
      <trkpt lat="46.1222" lon="4.67631">
        <ele>260.17789</ele>
        <time>2022-11-06T13:32:27.000Z</time>
      </trkpt>
      <trkpt lat="46.12219" lon="4.67623">
        <ele>260.10645</ele>
        <time>2022-11-06T13:32:28.000Z</time>
      </trkpt>
      <trkpt lat="46.12217" lon="4.67615">
        <ele>260.04373</ele>
        <time>2022-11-06T13:32:29.000Z</time>
      </trkpt>
      <trkpt lat="46.12216" lon="4.67607">
        <ele>259.92868</ele>
        <time>2022-11-06T13:32:30.000Z</time>
      </trkpt>
      <trkpt lat="46.12215" lon="4.67601">
        <ele>259.76166</ele>
        <time>2022-11-06T13:32:31.000Z</time>
      </trkpt>
      <trkpt lat="46.12213" lon="4.67592">
        <ele>259.65952</ele>
        <time>2022-11-06T13:32:32.000Z</time>
      </trkpt>
      <trkpt lat="46.12213" lon="4.67584">
        <ele>259.54779</ele>
        <time>2022-11-06T13:32:33.000Z</time>
      </trkpt>
      <trkpt lat="46.12211" lon="4.67577">
        <ele>259.42667</ele>
        <time>2022-11-06T13:32:34.000Z</time>
      </trkpt>
      <trkpt lat="46.1221" lon="4.67569">
        <ele>259.2908</ele>
        <time>2022-11-06T13:32:35.000Z</time>
      </trkpt>
      <trkpt lat="46.12209" lon="4.67562">
        <ele>259.17911</ele>
        <time>2022-11-06T13:32:36.000Z</time>
      </trkpt>
      <trkpt lat="46.12208" lon="4.67553">
        <ele>259.07397</ele>
        <time>2022-11-06T13:32:37.000Z</time>
      </trkpt>
      <trkpt lat="46.12206" lon="4.67545">
        <ele>258.99756</ele>
        <time>2022-11-06T13:32:38.000Z</time>
      </trkpt>
      <trkpt lat="46.12204" lon="4.67537">
        <ele>258.93716</ele>
        <time>2022-11-06T13:32:39.000Z</time>
      </trkpt>
      <trkpt lat="46.12203" lon="4.6753">
        <ele>258.84381</ele>
        <time>2022-11-06T13:32:40.000Z</time>
      </trkpt>
      <trkpt lat="46.12202" lon="4.67521">
        <ele>258.77899</ele>
        <time>2022-11-06T13:32:41.000Z</time>
      </trkpt>
      <trkpt lat="46.12201" lon="4.67511">
        <ele>258.70633</ele>
        <time>2022-11-06T13:32:42.000Z</time>
      </trkpt>
      <trkpt lat="46.122" lon="4.67503">
        <ele>258.63544</ele>
        <time>2022-11-06T13:32:43.000Z</time>
      </trkpt>
      <trkpt lat="46.12199" lon="4.67495">
        <ele>258.54684</ele>
        <time>2022-11-06T13:32:44.000Z</time>
      </trkpt>
      <trkpt lat="46.12198" lon="4.67487">
        <ele>258.45746</ele>
        <time>2022-11-06T13:32:45.000Z</time>
      </trkpt>
      <trkpt lat="46.12197" lon="4.67478">
        <ele>258.38971</ele>
        <time>2022-11-06T13:32:46.000Z</time>
      </trkpt>
      <trkpt lat="46.12195" lon="4.6747">
        <ele>258.32135</ele>
        <time>2022-11-06T13:32:47.000Z</time>
      </trkpt>
      <trkpt lat="46.12194" lon="4.67462">
        <ele>258.27539</ele>
        <time>2022-11-06T13:32:48.000Z</time>
      </trkpt>
      <trkpt lat="46.12193" lon="4.67454">
        <ele>258.1145</ele>
        <time>2022-11-06T13:32:49.000Z</time>
      </trkpt>
      <trkpt lat="46.12191" lon="4.67446">
        <ele>257.99042</ele>
        <time>2022-11-06T13:32:50.000Z</time>
      </trkpt>
      <trkpt lat="46.1219" lon="4.67438">
        <ele>257.91806</ele>
        <time>2022-11-06T13:32:51.000Z</time>
      </trkpt>
      <trkpt lat="46.12189" lon="4.6743">
        <ele>257.80258</ele>
        <time>2022-11-06T13:32:52.000Z</time>
      </trkpt>
      <trkpt lat="46.12188" lon="4.67422">
        <ele>257.63925</ele>
        <time>2022-11-06T13:32:53.000Z</time>
      </trkpt>
      <trkpt lat="46.12187" lon="4.67414">
        <ele>257.73438</ele>
        <time>2022-11-06T13:32:54.000Z</time>
      </trkpt>
      <trkpt lat="46.12186" lon="4.67406">
        <ele>257.82202</ele>
        <time>2022-11-06T13:32:55.000Z</time>
      </trkpt>
      <trkpt lat="46.12185" lon="4.67398">
        <ele>257.90591</ele>
        <time>2022-11-06T13:32:56.000Z</time>
      </trkpt>
      <trkpt lat="46.12184" lon="4.67391">
        <ele>257.99936</ele>
        <time>2022-11-06T13:32:57.000Z</time>
      </trkpt>
      <trkpt lat="46.12183" lon="4.67384">
        <ele>258.08002</ele>
        <time>2022-11-06T13:32:58.000Z</time>
      </trkpt>
      <trkpt lat="46.12182" lon="4.67378">
        <ele>258.12933</ele>
        <time>2022-11-06T13:32:59.000Z</time>
      </trkpt>
      <trkpt lat="46.12181" lon="4.67373">
        <ele>258.1994</ele>
        <time>2022-11-06T13:33:00.000Z</time>
      </trkpt>
      <trkpt lat="46.1218" lon="4.67368">
        <ele>258.23886</ele>
        <time>2022-11-06T13:33:01.000Z</time>
      </trkpt>
      <trkpt lat="46.12179" lon="4.67361">
        <ele>258.29504</ele>
        <time>2022-11-06T13:33:02.000Z</time>
      </trkpt>
      <trkpt lat="46.12177" lon="4.67354">
        <ele>258.36459</ele>
        <time>2022-11-06T13:33:03.000Z</time>
      </trkpt>
      <trkpt lat="46.12177" lon="4.67347">
        <ele>258.43326</ele>
        <time>2022-11-06T13:33:04.000Z</time>
      </trkpt>
      <trkpt lat="46.12175" lon="4.67339">
        <ele>258.41626</ele>
        <time>2022-11-06T13:33:05.000Z</time>
      </trkpt>
      <trkpt lat="46.12174" lon="4.67332">
        <ele>258.38501</ele>
        <time>2022-11-06T13:33:06.000Z</time>
      </trkpt>
      <trkpt lat="46.12173" lon="4.67326">
        <ele>258.23218</ele>
        <time>2022-11-06T13:33:07.000Z</time>
      </trkpt>
      <trkpt lat="46.12172" lon="4.67318">
        <ele>258.31079</ele>
        <time>2022-11-06T13:33:08.000Z</time>
      </trkpt>
      <trkpt lat="46.1217" lon="4.67311">
        <ele>258.44098</ele>
        <time>2022-11-06T13:33:09.000Z</time>
      </trkpt>
      <trkpt lat="46.12169" lon="4.67303">
        <ele>258.58368</ele>
        <time>2022-11-06T13:33:10.000Z</time>
      </trkpt>
      <trkpt lat="46.12168" lon="4.67296">
        <ele>258.71381</ele>
        <time>2022-11-06T13:33:11.000Z</time>
      </trkpt>
      <trkpt lat="46.12167" lon="4.67288">
        <ele>258.78143</ele>
        <time>2022-11-06T13:33:12.000Z</time>
      </trkpt>
      <trkpt lat="46.12165" lon="4.67283">
        <ele>258.86191</ele>
        <time>2022-11-06T13:33:13.000Z</time>
      </trkpt>
      <trkpt lat="46.12164" lon="4.67276">
        <ele>258.70911</ele>
        <time>2022-11-06T13:33:14.000Z</time>
      </trkpt>
      <trkpt lat="46.12164" lon="4.67267">
        <ele>258.62564</ele>
        <time>2022-11-06T13:33:15.000Z</time>
      </trkpt>
      <trkpt lat="46.12161" lon="4.67259">
        <ele>258.56989</ele>
        <time>2022-11-06T13:33:16.000Z</time>
      </trkpt>
      <trkpt lat="46.12159" lon="4.67251">
        <ele>258.39523</ele>
        <time>2022-11-06T13:33:17.000Z</time>
      </trkpt>
      <trkpt lat="46.12158" lon="4.67245">
        <ele>258.14932</ele>
        <time>2022-11-06T13:33:18.000Z</time>
      </trkpt>
      <trkpt lat="46.12157" lon="4.67237">
        <ele>257.96194</ele>
        <time>2022-11-06T13:33:19.000Z</time>
      </trkpt>
      <trkpt lat="46.12155" lon="4.6723">
        <ele>257.72061</ele>
        <time>2022-11-06T13:33:20.000Z</time>
      </trkpt>
      <trkpt lat="46.12154" lon="4.6722">
        <ele>257.52185</ele>
        <time>2022-11-06T13:33:21.000Z</time>
      </trkpt>
      <trkpt lat="46.12154" lon="4.67212">
        <ele>257.33771</ele>
        <time>2022-11-06T13:33:22.000Z</time>
      </trkpt>
      <trkpt lat="46.12152" lon="4.67204">
        <ele>257.16666</ele>
        <time>2022-11-06T13:33:23.000Z</time>
      </trkpt>
      <trkpt lat="46.1215" lon="4.67195">
        <ele>257.01251</ele>
        <time>2022-11-06T13:33:24.000Z</time>
      </trkpt>
      <trkpt lat="46.12149" lon="4.67187">
        <ele>256.88733</ele>
        <time>2022-11-06T13:33:25.000Z</time>
      </trkpt>
      <trkpt lat="46.12147" lon="4.67178">
        <ele>256.74384</ele>
        <time>2022-11-06T13:33:26.000Z</time>
      </trkpt>
      <trkpt lat="46.12145" lon="4.6717">
        <ele>256.69009</ele>
        <time>2022-11-06T13:33:27.000Z</time>
      </trkpt>
      <trkpt lat="46.12143" lon="4.67161">
        <ele>256.46234</ele>
        <time>2022-11-06T13:33:28.000Z</time>
      </trkpt>
      <trkpt lat="46.12141" lon="4.67153">
        <ele>256.25079</ele>
        <time>2022-11-06T13:33:29.000Z</time>
      </trkpt>
      <trkpt lat="46.1214" lon="4.67145">
        <ele>256.05963</ele>
        <time>2022-11-06T13:33:30.000Z</time>
      </trkpt>
      <trkpt lat="46.12138" lon="4.67138">
        <ele>255.90176</ele>
        <time>2022-11-06T13:33:31.000Z</time>
      </trkpt>
      <trkpt lat="46.12136" lon="4.6713">
        <ele>255.7616</ele>
        <time>2022-11-06T13:33:32.000Z</time>
      </trkpt>
      <trkpt lat="46.12134" lon="4.67121">
        <ele>255.69238</ele>
        <time>2022-11-06T13:33:33.000Z</time>
      </trkpt>
      <trkpt lat="46.12132" lon="4.67113">
        <ele>255.64677</ele>
        <time>2022-11-06T13:33:34.000Z</time>
      </trkpt>
      <trkpt lat="46.12131" lon="4.67104">
        <ele>255.55765</ele>
        <time>2022-11-06T13:33:35.000Z</time>
      </trkpt>
      <trkpt lat="46.12129" lon="4.67095">
        <ele>255.45609</ele>
        <time>2022-11-06T13:33:36.000Z</time>
      </trkpt>
      <trkpt lat="46.12127" lon="4.67087">
        <ele>255.44255</ele>
        <time>2022-11-06T13:33:37.000Z</time>
      </trkpt>
      <trkpt lat="46.12126" lon="4.6708">
        <ele>255.42114</ele>
        <time>2022-11-06T13:33:38.000Z</time>
      </trkpt>
      <trkpt lat="46.12125" lon="4.67072">
        <ele>255.54504</ele>
        <time>2022-11-06T13:33:39.000Z</time>
      </trkpt>
      <trkpt lat="46.12123" lon="4.67063">
        <ele>255.68254</ele>
        <time>2022-11-06T13:33:40.000Z</time>
      </trkpt>
      <trkpt lat="46.12122" lon="4.67054">
        <ele>255.79573</ele>
        <time>2022-11-06T13:33:41.000Z</time>
      </trkpt>
      <trkpt lat="46.1212" lon="4.67046">
        <ele>255.89505</ele>
        <time>2022-11-06T13:33:42.000Z</time>
      </trkpt>
      <trkpt lat="46.12119" lon="4.67038">
        <ele>255.98726</ele>
        <time>2022-11-06T13:33:43.000Z</time>
      </trkpt>
      <trkpt lat="46.12117" lon="4.6703">
        <ele>256.09219</ele>
        <time>2022-11-06T13:33:44.000Z</time>
      </trkpt>
      <trkpt lat="46.12115" lon="4.67023">
        <ele>256.25357</ele>
        <time>2022-11-06T13:33:45.000Z</time>
      </trkpt>
      <trkpt lat="46.12113" lon="4.67015">
        <ele>256.4502</ele>
        <time>2022-11-06T13:33:46.000Z</time>
      </trkpt>
      <trkpt lat="46.12111" lon="4.67007">
        <ele>256.67688</ele>
        <time>2022-11-06T13:33:47.000Z</time>
      </trkpt>
      <trkpt lat="46.12109" lon="4.67">
        <ele>256.83228</ele>
        <time>2022-11-06T13:33:48.000Z</time>
      </trkpt>
      <trkpt lat="46.12107" lon="4.66992">
        <ele>257.03983</ele>
        <time>2022-11-06T13:33:49.000Z</time>
      </trkpt>
      <trkpt lat="46.12105" lon="4.66985">
        <ele>257.22369</ele>
        <time>2022-11-06T13:33:50.000Z</time>
      </trkpt>
      <trkpt lat="46.12103" lon="4.66977">
        <ele>257.39325</ele>
        <time>2022-11-06T13:33:51.000Z</time>
      </trkpt>
      <trkpt lat="46.12101" lon="4.6697">
        <ele>257.62335</ele>
        <time>2022-11-06T13:33:52.000Z</time>
      </trkpt>
      <trkpt lat="46.12099" lon="4.66962">
        <ele>257.86395</ele>
        <time>2022-11-06T13:33:53.000Z</time>
      </trkpt>
      <trkpt lat="46.12097" lon="4.66954">
        <ele>258.05884</ele>
        <time>2022-11-06T13:33:54.000Z</time>
      </trkpt>
      <trkpt lat="46.12096" lon="4.66948">
        <ele>258.26779</ele>
        <time>2022-11-06T13:33:55.000Z</time>
      </trkpt>
      <trkpt lat="46.12095" lon="4.66943">
        <ele>258.4519</ele>
        <time>2022-11-06T13:33:56.000Z</time>
      </trkpt>
      <trkpt lat="46.12094" lon="4.66936">
        <ele>258.55353</ele>
        <time>2022-11-06T13:33:57.000Z</time>
      </trkpt>
      <trkpt lat="46.12093" lon="4.66929">
        <ele>258.72278</ele>
        <time>2022-11-06T13:33:58.000Z</time>
      </trkpt>
      <trkpt lat="46.12092" lon="4.66925">
        <ele>258.68115</ele>
        <time>2022-11-06T13:33:59.000Z</time>
      </trkpt>
      <trkpt lat="46.1209" lon="4.6692">
        <ele>258.68326</ele>
        <time>2022-11-06T13:34:00.000Z</time>
      </trkpt>
      <trkpt lat="46.12089" lon="4.66916">
        <ele>258.67084</ele>
        <time>2022-11-06T13:34:01.000Z</time>
      </trkpt>
      <trkpt lat="46.12088" lon="4.66912">
        <ele>258.65643</ele>
        <time>2022-11-06T13:34:02.000Z</time>
      </trkpt>
      <trkpt lat="46.12087" lon="4.66907">
        <ele>258.6507</ele>
        <time>2022-11-06T13:34:03.000Z</time>
      </trkpt>
      <trkpt lat="46.12087" lon="4.66905">
        <ele>258.63361</ele>
        <time>2022-11-06T13:34:04.000Z</time>
      </trkpt>
      <trkpt lat="46.12085" lon="4.66902">
        <ele>258.6283</ele>
        <time>2022-11-06T13:34:06.000Z</time>
      </trkpt>
      <trkpt lat="46.12083" lon="4.66897">
        <ele>258.6254</ele>
        <time>2022-11-06T13:34:08.000Z</time>
      </trkpt>
      <trkpt lat="46.12082" lon="4.66893">
        <ele>258.61786</ele>
        <time>2022-11-06T13:34:09.000Z</time>
      </trkpt>
      <trkpt lat="46.12081" lon="4.66889">
        <ele>258.58829</ele>
        <time>2022-11-06T13:34:10.000Z</time>
      </trkpt>
      <trkpt lat="46.1208" lon="4.66885">
        <ele>258.55511</ele>
        <time>2022-11-06T13:34:11.000Z</time>
      </trkpt>
      <trkpt lat="46.12079" lon="4.6688">
        <ele>258.49139</ele>
        <time>2022-11-06T13:34:12.000Z</time>
      </trkpt>
      <trkpt lat="46.12078" lon="4.66875">
        <ele>258.67371</ele>
        <time>2022-11-06T13:34:13.000Z</time>
      </trkpt>
      <trkpt lat="46.12077" lon="4.66869">
        <ele>258.76175</ele>
        <time>2022-11-06T13:34:14.000Z</time>
      </trkpt>
      <trkpt lat="46.12076" lon="4.66864">
        <ele>258.87793</ele>
        <time>2022-11-06T13:34:15.000Z</time>
      </trkpt>
      <trkpt lat="46.12074" lon="4.66858">
        <ele>259.01831</ele>
        <time>2022-11-06T13:34:16.000Z</time>
      </trkpt>
      <trkpt lat="46.12073" lon="4.66852">
        <ele>259.15503</ele>
        <time>2022-11-06T13:34:17.000Z</time>
      </trkpt>
      <trkpt lat="46.12072" lon="4.66847">
        <ele>259.29617</ele>
        <time>2022-11-06T13:34:18.000Z</time>
      </trkpt>
      <trkpt lat="46.12071" lon="4.66842">
        <ele>259.53641</ele>
        <time>2022-11-06T13:34:19.000Z</time>
      </trkpt>
      <trkpt lat="46.1207" lon="4.66834">
        <ele>259.78937</ele>
        <time>2022-11-06T13:34:20.000Z</time>
      </trkpt>
      <trkpt lat="46.12069" lon="4.66828">
        <ele>260.06097</ele>
        <time>2022-11-06T13:34:21.000Z</time>
      </trkpt>
      <trkpt lat="46.12067" lon="4.66821">
        <ele>260.34009</ele>
        <time>2022-11-06T13:34:22.000Z</time>
      </trkpt>
      <trkpt lat="46.12066" lon="4.66813">
        <ele>260.63678</ele>
        <time>2022-11-06T13:34:23.000Z</time>
      </trkpt>
      <trkpt lat="46.12066" lon="4.66807">
        <ele>260.94864</ele>
        <time>2022-11-06T13:34:24.000Z</time>
      </trkpt>
      <trkpt lat="46.12064" lon="4.668">
        <ele>261.24176</ele>
        <time>2022-11-06T13:34:25.000Z</time>
      </trkpt>
      <trkpt lat="46.12063" lon="4.66794">
        <ele>261.52664</ele>
        <time>2022-11-06T13:34:26.000Z</time>
      </trkpt>
      <trkpt lat="46.12061" lon="4.66787">
        <ele>261.79803</ele>
        <time>2022-11-06T13:34:27.000Z</time>
      </trkpt>
      <trkpt lat="46.12059" lon="4.6678">
        <ele>262.03369</ele>
        <time>2022-11-06T13:34:28.000Z</time>
      </trkpt>
      <trkpt lat="46.12058" lon="4.66773">
        <ele>262.12689</ele>
        <time>2022-11-06T13:34:29.000Z</time>
      </trkpt>
      <trkpt lat="46.12057" lon="4.66767">
        <ele>262.22614</ele>
        <time>2022-11-06T13:34:30.000Z</time>
      </trkpt>
      <trkpt lat="46.12055" lon="4.66761">
        <ele>262.2995</ele>
        <time>2022-11-06T13:34:31.000Z</time>
      </trkpt>
      <trkpt lat="46.12054" lon="4.66754">
        <ele>262.39374</ele>
        <time>2022-11-06T13:34:32.000Z</time>
      </trkpt>
      <trkpt lat="46.12052" lon="4.66747">
        <ele>262.22018</ele>
        <time>2022-11-06T13:34:33.000Z</time>
      </trkpt>
      <trkpt lat="46.12051" lon="4.6674">
        <ele>262.12933</ele>
        <time>2022-11-06T13:34:34.000Z</time>
      </trkpt>
      <trkpt lat="46.12051" lon="4.66733">
        <ele>262.01068</ele>
        <time>2022-11-06T13:34:35.000Z</time>
      </trkpt>
      <trkpt lat="46.1205" lon="4.66726">
        <ele>261.89288</ele>
        <time>2022-11-06T13:34:36.000Z</time>
      </trkpt>
      <trkpt lat="46.12048" lon="4.66718">
        <ele>261.74985</ele>
        <time>2022-11-06T13:34:37.000Z</time>
      </trkpt>
      <trkpt lat="46.12047" lon="4.66712">
        <ele>261.6012</ele>
        <time>2022-11-06T13:34:38.000Z</time>
      </trkpt>
      <trkpt lat="46.12045" lon="4.66706">
        <ele>261.44635</ele>
        <time>2022-11-06T13:34:39.000Z</time>
      </trkpt>
      <trkpt lat="46.12043" lon="4.66698">
        <ele>261.3046</ele>
        <time>2022-11-06T13:34:40.000Z</time>
      </trkpt>
      <trkpt lat="46.12041" lon="4.66691">
        <ele>261.14325</ele>
        <time>2022-11-06T13:34:41.000Z</time>
      </trkpt>
      <trkpt lat="46.1204" lon="4.66684">
        <ele>260.87558</ele>
        <time>2022-11-06T13:34:42.000Z</time>
      </trkpt>
      <trkpt lat="46.12037" lon="4.66678">
        <ele>260.59351</ele>
        <time>2022-11-06T13:34:43.000Z</time>
      </trkpt>
      <trkpt lat="46.12036" lon="4.66672">
        <ele>260.56705</ele>
        <time>2022-11-06T13:34:44.000Z</time>
      </trkpt>
      <trkpt lat="46.12034" lon="4.66664">
        <ele>260.50323</ele>
        <time>2022-11-06T13:34:45.000Z</time>
      </trkpt>
      <trkpt lat="46.12033" lon="4.66657">
        <ele>260.43311</ele>
        <time>2022-11-06T13:34:46.000Z</time>
      </trkpt>
      <trkpt lat="46.12032" lon="4.6665">
        <ele>260.37595</ele>
        <time>2022-11-06T13:34:47.000Z</time>
      </trkpt>
      <trkpt lat="46.1203" lon="4.66643">
        <ele>260.33105</ele>
        <time>2022-11-06T13:34:48.000Z</time>
      </trkpt>
      <trkpt lat="46.12028" lon="4.66635">
        <ele>260.4201</ele>
        <time>2022-11-06T13:34:49.000Z</time>
      </trkpt>
      <trkpt lat="46.12027" lon="4.66627">
        <ele>260.50342</ele>
        <time>2022-11-06T13:34:50.000Z</time>
      </trkpt>
      <trkpt lat="46.12025" lon="4.6662">
        <ele>260.5871</ele>
        <time>2022-11-06T13:34:51.000Z</time>
      </trkpt>
      <trkpt lat="46.12023" lon="4.66613">
        <ele>260.6745</ele>
        <time>2022-11-06T13:34:52.000Z</time>
      </trkpt>
      <trkpt lat="46.12021" lon="4.66607">
        <ele>260.74829</ele>
        <time>2022-11-06T13:34:53.000Z</time>
      </trkpt>
      <trkpt lat="46.1202" lon="4.66599">
        <ele>260.82452</ele>
        <time>2022-11-06T13:34:54.000Z</time>
      </trkpt>
      <trkpt lat="46.12019" lon="4.66594">
        <ele>260.8541</ele>
        <time>2022-11-06T13:34:55.000Z</time>
      </trkpt>
      <trkpt lat="46.12017" lon="4.66586">
        <ele>260.88556</ele>
        <time>2022-11-06T13:34:56.000Z</time>
      </trkpt>
      <trkpt lat="46.12016" lon="4.66579">
        <ele>260.92633</ele>
        <time>2022-11-06T13:34:57.000Z</time>
      </trkpt>
      <trkpt lat="46.12015" lon="4.66572">
        <ele>260.96466</ele>
        <time>2022-11-06T13:34:58.000Z</time>
      </trkpt>
      <trkpt lat="46.12013" lon="4.66565">
        <ele>261.01544</ele>
        <time>2022-11-06T13:34:59.000Z</time>
      </trkpt>
      <trkpt lat="46.12011" lon="4.66559">
        <ele>261.05292</ele>
        <time>2022-11-06T13:35:00.000Z</time>
      </trkpt>
      <trkpt lat="46.1201" lon="4.66551">
        <ele>261.08078</ele>
        <time>2022-11-06T13:35:01.000Z</time>
      </trkpt>
      <trkpt lat="46.12008" lon="4.66545">
        <ele>261.19931</ele>
        <time>2022-11-06T13:35:02.000Z</time>
      </trkpt>
      <trkpt lat="46.12006" lon="4.66538">
        <ele>261.34668</ele>
        <time>2022-11-06T13:35:03.000Z</time>
      </trkpt>
      <trkpt lat="46.12004" lon="4.6653">
        <ele>261.23184</ele>
        <time>2022-11-06T13:35:04.000Z</time>
      </trkpt>
      <trkpt lat="46.12002" lon="4.66522">
        <ele>261.20032</ele>
        <time>2022-11-06T13:35:05.000Z</time>
      </trkpt>
      <trkpt lat="46.12001" lon="4.66514">
        <ele>261.16171</ele>
        <time>2022-11-06T13:35:06.000Z</time>
      </trkpt>
      <trkpt lat="46.12" lon="4.66507">
        <ele>261.13925</ele>
        <time>2022-11-06T13:35:07.000Z</time>
      </trkpt>
      <trkpt lat="46.11999" lon="4.66499">
        <ele>261.1218</ele>
        <time>2022-11-06T13:35:08.000Z</time>
      </trkpt>
      <trkpt lat="46.11997" lon="4.66492">
        <ele>261.01263</ele>
        <time>2022-11-06T13:35:09.000Z</time>
      </trkpt>
      <trkpt lat="46.11996" lon="4.66484">
        <ele>260.89203</ele>
        <time>2022-11-06T13:35:10.000Z</time>
      </trkpt>
      <trkpt lat="46.11994" lon="4.66476">
        <ele>260.75879</ele>
        <time>2022-11-06T13:35:11.000Z</time>
      </trkpt>
      <trkpt lat="46.11992" lon="4.66468">
        <ele>260.68399</ele>
        <time>2022-11-06T13:35:12.000Z</time>
      </trkpt>
      <trkpt lat="46.1199" lon="4.66461">
        <ele>260.63226</ele>
        <time>2022-11-06T13:35:13.000Z</time>
      </trkpt>
      <trkpt lat="46.11988" lon="4.66453">
        <ele>260.56</ele>
        <time>2022-11-06T13:35:14.000Z</time>
      </trkpt>
      <trkpt lat="46.11986" lon="4.66445">
        <ele>260.5293</ele>
        <time>2022-11-06T13:35:15.000Z</time>
      </trkpt>
      <trkpt lat="46.11984" lon="4.66438">
        <ele>260.48309</ele>
        <time>2022-11-06T13:35:16.000Z</time>
      </trkpt>
      <trkpt lat="46.11984" lon="4.66428">
        <ele>260.27289</ele>
        <time>2022-11-06T13:35:17.000Z</time>
      </trkpt>
      <trkpt lat="46.11982" lon="4.66422">
        <ele>260.0224</ele>
        <time>2022-11-06T13:35:18.000Z</time>
      </trkpt>
      <trkpt lat="46.1198" lon="4.66417">
        <ele>260.02643</ele>
        <time>2022-11-06T13:35:19.000Z</time>
      </trkpt>
      <trkpt lat="46.11978" lon="4.66409">
        <ele>260.04935</ele>
        <time>2022-11-06T13:35:20.000Z</time>
      </trkpt>
      <trkpt lat="46.11976" lon="4.664">
        <ele>260.12515</ele>
        <time>2022-11-06T13:35:21.000Z</time>
      </trkpt>
      <trkpt lat="46.11974" lon="4.66393">
        <ele>260.17377</ele>
        <time>2022-11-06T13:35:22.000Z</time>
      </trkpt>
      <trkpt lat="46.11972" lon="4.66385">
        <ele>260.08905</ele>
        <time>2022-11-06T13:35:23.000Z</time>
      </trkpt>
      <trkpt lat="46.1197" lon="4.66377">
        <ele>260.00751</ele>
        <time>2022-11-06T13:35:24.000Z</time>
      </trkpt>
      <trkpt lat="46.11969" lon="4.66369">
        <ele>259.88934</ele>
        <time>2022-11-06T13:35:25.000Z</time>
      </trkpt>
      <trkpt lat="46.11967" lon="4.66361">
        <ele>259.77914</ele>
        <time>2022-11-06T13:35:26.000Z</time>
      </trkpt>
      <trkpt lat="46.11966" lon="4.66353">
        <ele>259.66489</ele>
        <time>2022-11-06T13:35:27.000Z</time>
      </trkpt>
      <trkpt lat="46.11964" lon="4.66346">
        <ele>259.53558</ele>
        <time>2022-11-06T13:35:28.000Z</time>
      </trkpt>
      <trkpt lat="46.11962" lon="4.66339">
        <ele>259.43292</ele>
        <time>2022-11-06T13:35:29.000Z</time>
      </trkpt>
      <trkpt lat="46.1196" lon="4.66331">
        <ele>259.33975</ele>
        <time>2022-11-06T13:35:30.000Z</time>
      </trkpt>
      <trkpt lat="46.11959" lon="4.66322">
        <ele>259.55585</ele>
        <time>2022-11-06T13:35:31.000Z</time>
      </trkpt>
      <trkpt lat="46.11957" lon="4.66314">
        <ele>259.68808</ele>
        <time>2022-11-06T13:35:32.000Z</time>
      </trkpt>
      <trkpt lat="46.11956" lon="4.66306">
        <ele>259.83136</ele>
        <time>2022-11-06T13:35:33.000Z</time>
      </trkpt>
      <trkpt lat="46.11954" lon="4.66298">
        <ele>259.991</ele>
        <time>2022-11-06T13:35:34.000Z</time>
      </trkpt>
      <trkpt lat="46.11953" lon="4.6629">
        <ele>260.11816</ele>
        <time>2022-11-06T13:35:35.000Z</time>
      </trkpt>
      <trkpt lat="46.11952" lon="4.66282">
        <ele>260.2551</ele>
        <time>2022-11-06T13:35:36.000Z</time>
      </trkpt>
      <trkpt lat="46.1195" lon="4.66275">
        <ele>260.56879</ele>
        <time>2022-11-06T13:35:37.000Z</time>
      </trkpt>
      <trkpt lat="46.11949" lon="4.66267">
        <ele>260.91669</ele>
        <time>2022-11-06T13:35:38.000Z</time>
      </trkpt>
      <trkpt lat="46.11947" lon="4.66259">
        <ele>260.99936</ele>
        <time>2022-11-06T13:35:39.000Z</time>
      </trkpt>
      <trkpt lat="46.11946" lon="4.66252">
        <ele>261.06656</ele>
        <time>2022-11-06T13:35:40.000Z</time>
      </trkpt>
      <trkpt lat="46.11945" lon="4.66244">
        <ele>261.12198</ele>
        <time>2022-11-06T13:35:41.000Z</time>
      </trkpt>
      <trkpt lat="46.11943" lon="4.66235">
        <ele>261.2189</ele>
        <time>2022-11-06T13:35:42.000Z</time>
      </trkpt>
      <trkpt lat="46.11941" lon="4.66227">
        <ele>261.43982</ele>
        <time>2022-11-06T13:35:43.000Z</time>
      </trkpt>
      <trkpt lat="46.1194" lon="4.6622">
        <ele>261.64478</ele>
        <time>2022-11-06T13:35:44.000Z</time>
      </trkpt>
      <trkpt lat="46.11938" lon="4.66211">
        <ele>261.7121</ele>
        <time>2022-11-06T13:35:45.000Z</time>
      </trkpt>
      <trkpt lat="46.11936" lon="4.66205">
        <ele>261.77582</ele>
        <time>2022-11-06T13:35:46.000Z</time>
      </trkpt>
      <trkpt lat="46.11935" lon="4.66198">
        <ele>261.8389</ele>
        <time>2022-11-06T13:35:47.000Z</time>
      </trkpt>
      <trkpt lat="46.11934" lon="4.66192">
        <ele>261.92746</ele>
        <time>2022-11-06T13:35:48.000Z</time>
      </trkpt>
      <trkpt lat="46.11932" lon="4.66185">
        <ele>261.98065</ele>
        <time>2022-11-06T13:35:49.000Z</time>
      </trkpt>
      <trkpt lat="46.11931" lon="4.66179">
        <ele>262.34531</ele>
        <time>2022-11-06T13:35:50.000Z</time>
      </trkpt>
      <trkpt lat="46.1193" lon="4.66173">
        <ele>262.38239</ele>
        <time>2022-11-06T13:35:51.000Z</time>
      </trkpt>
      <trkpt lat="46.11929" lon="4.66168">
        <ele>262.45367</ele>
        <time>2022-11-06T13:35:52.000Z</time>
      </trkpt>
      <trkpt lat="46.11929" lon="4.66163">
        <ele>262.50525</ele>
        <time>2022-11-06T13:35:53.000Z</time>
      </trkpt>
      <trkpt lat="46.11929" lon="4.6616">
        <ele>262.53787</ele>
        <time>2022-11-06T13:35:54.000Z</time>
      </trkpt>
      <trkpt lat="46.11928" lon="4.66154">
        <ele>262.62198</ele>
        <time>2022-11-06T13:35:55.000Z</time>
      </trkpt>
      <trkpt lat="46.11927" lon="4.66149">
        <ele>262.71805</ele>
        <time>2022-11-06T13:35:56.000Z</time>
      </trkpt>
      <trkpt lat="46.11927" lon="4.66144">
        <ele>262.82526</ele>
        <time>2022-11-06T13:35:57.000Z</time>
      </trkpt>
      <trkpt lat="46.11926" lon="4.6614">
        <ele>262.96011</ele>
        <time>2022-11-06T13:35:58.000Z</time>
      </trkpt>
      <trkpt lat="46.11926" lon="4.66136">
        <ele>263.10431</ele>
        <time>2022-11-06T13:35:59.000Z</time>
      </trkpt>
      <trkpt lat="46.11925" lon="4.66133">
        <ele>263.23438</ele>
        <time>2022-11-06T13:36:00.000Z</time>
      </trkpt>
      <trkpt lat="46.11925" lon="4.66128">
        <ele>263.35312</ele>
        <time>2022-11-06T13:36:01.000Z</time>
      </trkpt>
      <trkpt lat="46.11924" lon="4.66124">
        <ele>263.49323</ele>
        <time>2022-11-06T13:36:02.000Z</time>
      </trkpt>
      <trkpt lat="46.11924" lon="4.6612">
        <ele>263.62689</ele>
        <time>2022-11-06T13:36:03.000Z</time>
      </trkpt>
      <trkpt lat="46.11923" lon="4.66115">
        <ele>263.75772</ele>
        <time>2022-11-06T13:36:04.000Z</time>
      </trkpt>
      <trkpt lat="46.11922" lon="4.6611">
        <ele>264.02728</ele>
        <time>2022-11-06T13:36:05.000Z</time>
      </trkpt>
      <trkpt lat="46.11922" lon="4.66104">
        <ele>264.31195</ele>
        <time>2022-11-06T13:36:06.000Z</time>
      </trkpt>
      <trkpt lat="46.11922" lon="4.66097">
        <ele>264.57587</ele>
        <time>2022-11-06T13:36:07.000Z</time>
      </trkpt>
      <trkpt lat="46.11921" lon="4.6609">
        <ele>264.84653</ele>
        <time>2022-11-06T13:36:08.000Z</time>
      </trkpt>
      <trkpt lat="46.1192" lon="4.66083">
        <ele>265.22687</ele>
        <time>2022-11-06T13:36:09.000Z</time>
      </trkpt>
      <trkpt lat="46.1192" lon="4.66076">
        <ele>265.30112</ele>
        <time>2022-11-06T13:36:10.000Z</time>
      </trkpt>
      <trkpt lat="46.11918" lon="4.66068">
        <ele>265.42609</ele>
        <time>2022-11-06T13:36:11.000Z</time>
      </trkpt>
      <trkpt lat="46.11918" lon="4.6606">
        <ele>265.56012</ele>
        <time>2022-11-06T13:36:12.000Z</time>
      </trkpt>
      <trkpt lat="46.11918" lon="4.66052">
        <ele>265.71033</ele>
        <time>2022-11-06T13:36:13.000Z</time>
      </trkpt>
      <trkpt lat="46.11918" lon="4.66044">
        <ele>265.86493</ele>
        <time>2022-11-06T13:36:14.000Z</time>
      </trkpt>
      <trkpt lat="46.11917" lon="4.66037">
        <ele>265.98911</ele>
        <time>2022-11-06T13:36:15.000Z</time>
      </trkpt>
      <trkpt lat="46.11916" lon="4.66029">
        <ele>266.09067</ele>
        <time>2022-11-06T13:36:16.000Z</time>
      </trkpt>
      <trkpt lat="46.11916" lon="4.66021">
        <ele>266.15118</ele>
        <time>2022-11-06T13:36:17.000Z</time>
      </trkpt>
      <trkpt lat="46.11915" lon="4.66014">
        <ele>266.21823</ele>
        <time>2022-11-06T13:36:18.000Z</time>
      </trkpt>
      <trkpt lat="46.11914" lon="4.66007">
        <ele>266.14069</ele>
        <time>2022-11-06T13:36:19.000Z</time>
      </trkpt>
      <trkpt lat="46.11913" lon="4.65999">
        <ele>265.95978</ele>
        <time>2022-11-06T13:36:20.000Z</time>
      </trkpt>
      <trkpt lat="46.11913" lon="4.65991">
        <ele>265.75632</ele>
        <time>2022-11-06T13:36:21.000Z</time>
      </trkpt>
      <trkpt lat="46.11913" lon="4.65983">
        <ele>265.84338</ele>
        <time>2022-11-06T13:36:22.000Z</time>
      </trkpt>
      <trkpt lat="46.11913" lon="4.65975">
        <ele>265.87186</ele>
        <time>2022-11-06T13:36:23.000Z</time>
      </trkpt>
      <trkpt lat="46.11913" lon="4.65967">
        <ele>265.89603</ele>
        <time>2022-11-06T13:36:24.000Z</time>
      </trkpt>
      <trkpt lat="46.11913" lon="4.65959">
        <ele>265.93311</ele>
        <time>2022-11-06T13:36:25.000Z</time>
      </trkpt>
      <trkpt lat="46.11913" lon="4.65952">
        <ele>265.94443</ele>
        <time>2022-11-06T13:36:26.000Z</time>
      </trkpt>
      <trkpt lat="46.11912" lon="4.65946">
        <ele>265.93967</ele>
        <time>2022-11-06T13:36:27.000Z</time>
      </trkpt>
      <trkpt lat="46.11911" lon="4.65939">
        <ele>265.92905</ele>
        <time>2022-11-06T13:36:28.000Z</time>
      </trkpt>
      <trkpt lat="46.11911" lon="4.6593">
        <ele>265.90277</ele>
        <time>2022-11-06T13:36:29.000Z</time>
      </trkpt>
      <trkpt lat="46.11911" lon="4.65922">
        <ele>265.89615</ele>
        <time>2022-11-06T13:36:30.000Z</time>
      </trkpt>
      <trkpt lat="46.11911" lon="4.65915">
        <ele>265.8728</ele>
        <time>2022-11-06T13:36:31.000Z</time>
      </trkpt>
      <trkpt lat="46.1191" lon="4.65907">
        <ele>265.83502</ele>
        <time>2022-11-06T13:36:32.000Z</time>
      </trkpt>
      <trkpt lat="46.11909" lon="4.659">
        <ele>265.80768</ele>
        <time>2022-11-06T13:36:33.000Z</time>
      </trkpt>
      <trkpt lat="46.11909" lon="4.65892">
        <ele>265.77399</ele>
        <time>2022-11-06T13:36:34.000Z</time>
      </trkpt>
      <trkpt lat="46.11908" lon="4.65884">
        <ele>265.73618</ele>
        <time>2022-11-06T13:36:35.000Z</time>
      </trkpt>
      <trkpt lat="46.11908" lon="4.65875">
        <ele>265.71185</ele>
        <time>2022-11-06T13:36:36.000Z</time>
      </trkpt>
      <trkpt lat="46.11908" lon="4.65867">
        <ele>265.70975</ele>
        <time>2022-11-06T13:36:37.000Z</time>
      </trkpt>
      <trkpt lat="46.11907" lon="4.65858">
        <ele>265.7005</ele>
        <time>2022-11-06T13:36:38.000Z</time>
      </trkpt>
      <trkpt lat="46.11906" lon="4.6585">
        <ele>265.84061</ele>
        <time>2022-11-06T13:36:39.000Z</time>
      </trkpt>
      <trkpt lat="46.11906" lon="4.65842">
        <ele>266.11884</ele>
        <time>2022-11-06T13:36:40.000Z</time>
      </trkpt>
      <trkpt lat="46.11906" lon="4.65834">
        <ele>266.4245</ele>
        <time>2022-11-06T13:36:41.000Z</time>
      </trkpt>
      <trkpt lat="46.11905" lon="4.65825">
        <ele>266.39899</ele>
        <time>2022-11-06T13:36:42.000Z</time>
      </trkpt>
      <trkpt lat="46.11905" lon="4.65818">
        <ele>266.43054</ele>
        <time>2022-11-06T13:36:43.000Z</time>
      </trkpt>
      <trkpt lat="46.11905" lon="4.6581">
        <ele>266.46875</ele>
        <time>2022-11-06T13:36:44.000Z</time>
      </trkpt>
      <trkpt lat="46.11905" lon="4.65802">
        <ele>266.48257</ele>
        <time>2022-11-06T13:36:45.000Z</time>
      </trkpt>
      <trkpt lat="46.11904" lon="4.65795">
        <ele>266.50116</ele>
        <time>2022-11-06T13:36:46.000Z</time>
      </trkpt>
      <trkpt lat="46.11903" lon="4.65787">
        <ele>266.55215</ele>
        <time>2022-11-06T13:36:47.000Z</time>
      </trkpt>
      <trkpt lat="46.11903" lon="4.65779">
        <ele>266.60571</ele>
        <time>2022-11-06T13:36:48.000Z</time>
      </trkpt>
      <trkpt lat="46.11902" lon="4.65771">
        <ele>266.65945</ele>
        <time>2022-11-06T13:36:49.000Z</time>
      </trkpt>
      <trkpt lat="46.11902" lon="4.65763">
        <ele>266.71573</ele>
        <time>2022-11-06T13:36:50.000Z</time>
      </trkpt>
      <trkpt lat="46.11902" lon="4.65755">
        <ele>266.76685</ele>
        <time>2022-11-06T13:36:51.000Z</time>
      </trkpt>
      <trkpt lat="46.11901" lon="4.65748">
        <ele>266.83246</ele>
        <time>2022-11-06T13:36:52.000Z</time>
      </trkpt>
      <trkpt lat="46.11901" lon="4.65742">
        <ele>266.87735</ele>
        <time>2022-11-06T13:36:53.000Z</time>
      </trkpt>
      <trkpt lat="46.11901" lon="4.65734">
        <ele>266.94092</ele>
        <time>2022-11-06T13:36:54.000Z</time>
      </trkpt>
      <trkpt lat="46.11901" lon="4.65726">
        <ele>267.01007</ele>
        <time>2022-11-06T13:36:55.000Z</time>
      </trkpt>
      <trkpt lat="46.11901" lon="4.65719">
        <ele>267.05258</ele>
        <time>2022-11-06T13:36:56.000Z</time>
      </trkpt>
      <trkpt lat="46.11901" lon="4.65713">
        <ele>267.08936</ele>
        <time>2022-11-06T13:36:57.000Z</time>
      </trkpt>
      <trkpt lat="46.119" lon="4.65704">
        <ele>267.13306</ele>
        <time>2022-11-06T13:36:58.000Z</time>
      </trkpt>
      <trkpt lat="46.119" lon="4.65697">
        <ele>267.17548</ele>
        <time>2022-11-06T13:36:59.000Z</time>
      </trkpt>
      <trkpt lat="46.11899" lon="4.65689">
        <ele>267.18991</ele>
        <time>2022-11-06T13:37:00.000Z</time>
      </trkpt>
      <trkpt lat="46.11899" lon="4.65682">
        <ele>267.1918</ele>
        <time>2022-11-06T13:37:01.000Z</time>
      </trkpt>
      <trkpt lat="46.11898" lon="4.65675">
        <ele>267.18823</ele>
        <time>2022-11-06T13:37:02.000Z</time>
      </trkpt>
      <trkpt lat="46.11898" lon="4.65667">
        <ele>267.19269</ele>
        <time>2022-11-06T13:37:03.000Z</time>
      </trkpt>
      <trkpt lat="46.11898" lon="4.6566">
        <ele>267.20779</ele>
        <time>2022-11-06T13:37:04.000Z</time>
      </trkpt>
      <trkpt lat="46.11898" lon="4.65652">
        <ele>267.23935</ele>
        <time>2022-11-06T13:37:05.000Z</time>
      </trkpt>
      <trkpt lat="46.11897" lon="4.65644">
        <ele>267.28009</ele>
        <time>2022-11-06T13:37:06.000Z</time>
      </trkpt>
      <trkpt lat="46.11897" lon="4.65636">
        <ele>267.33148</ele>
        <time>2022-11-06T13:37:07.000Z</time>
      </trkpt>
      <trkpt lat="46.11897" lon="4.65628">
        <ele>267.36215</ele>
        <time>2022-11-06T13:37:08.000Z</time>
      </trkpt>
      <trkpt lat="46.11897" lon="4.6562">
        <ele>267.37726</ele>
        <time>2022-11-06T13:37:09.000Z</time>
      </trkpt>
      <trkpt lat="46.11897" lon="4.65613">
        <ele>267.38095</ele>
        <time>2022-11-06T13:37:10.000Z</time>
      </trkpt>
      <trkpt lat="46.11897" lon="4.65605">
        <ele>267.39139</ele>
        <time>2022-11-06T13:37:11.000Z</time>
      </trkpt>
      <trkpt lat="46.11896" lon="4.65598">
        <ele>267.38708</ele>
        <time>2022-11-06T13:37:12.000Z</time>
      </trkpt>
      <trkpt lat="46.11896" lon="4.65591">
        <ele>267.37195</ele>
        <time>2022-11-06T13:37:13.000Z</time>
      </trkpt>
      <trkpt lat="46.11895" lon="4.65584">
        <ele>267.34906</ele>
        <time>2022-11-06T13:37:14.000Z</time>
      </trkpt>
      <trkpt lat="46.11894" lon="4.65577">
        <ele>267.33624</ele>
        <time>2022-11-06T13:37:15.000Z</time>
      </trkpt>
      <trkpt lat="46.11894" lon="4.6557">
        <ele>267.35562</ele>
        <time>2022-11-06T13:37:16.000Z</time>
      </trkpt>
      <trkpt lat="46.11893" lon="4.65564">
        <ele>267.37836</ele>
        <time>2022-11-06T13:37:17.000Z</time>
      </trkpt>
      <trkpt lat="46.11894" lon="4.65556">
        <ele>267.39044</ele>
        <time>2022-11-06T13:37:18.000Z</time>
      </trkpt>
      <trkpt lat="46.11893" lon="4.6555">
        <ele>267.39191</ele>
        <time>2022-11-06T13:37:19.000Z</time>
      </trkpt>
      <trkpt lat="46.11893" lon="4.65544">
        <ele>267.38495</ele>
        <time>2022-11-06T13:37:20.000Z</time>
      </trkpt>
      <trkpt lat="46.11893" lon="4.65538">
        <ele>267.37286</ele>
        <time>2022-11-06T13:37:21.000Z</time>
      </trkpt>
      <trkpt lat="46.11893" lon="4.65532">
        <ele>267.38831</ele>
        <time>2022-11-06T13:37:22.000Z</time>
      </trkpt>
      <trkpt lat="46.11892" lon="4.65527">
        <ele>267.39911</ele>
        <time>2022-11-06T13:37:23.000Z</time>
      </trkpt>
      <trkpt lat="46.11892" lon="4.65521">
        <ele>267.39499</ele>
        <time>2022-11-06T13:37:24.000Z</time>
      </trkpt>
      <trkpt lat="46.11892" lon="4.65516">
        <ele>267.36868</ele>
        <time>2022-11-06T13:37:25.000Z</time>
      </trkpt>
      <trkpt lat="46.11891" lon="4.6551">
        <ele>267.34805</ele>
        <time>2022-11-06T13:37:26.000Z</time>
      </trkpt>
      <trkpt lat="46.11891" lon="4.65505">
        <ele>267.29852</ele>
        <time>2022-11-06T13:37:27.000Z</time>
      </trkpt>
      <trkpt lat="46.11891" lon="4.65499">
        <ele>267.26218</ele>
        <time>2022-11-06T13:37:28.000Z</time>
      </trkpt>
      <trkpt lat="46.11891" lon="4.65493">
        <ele>267.25717</ele>
        <time>2022-11-06T13:37:29.000Z</time>
      </trkpt>
      <trkpt lat="46.11891" lon="4.65487">
        <ele>267.24774</ele>
        <time>2022-11-06T13:37:30.000Z</time>
      </trkpt>
      <trkpt lat="46.11891" lon="4.65481">
        <ele>267.62314</ele>
        <time>2022-11-06T13:37:31.000Z</time>
      </trkpt>
      <trkpt lat="46.1189" lon="4.65475">
        <ele>267.99521</ele>
        <time>2022-11-06T13:37:32.000Z</time>
      </trkpt>
      <trkpt lat="46.1189" lon="4.65468">
        <ele>268.38541</ele>
        <time>2022-11-06T13:37:33.000Z</time>
      </trkpt>
      <trkpt lat="46.1189" lon="4.65462">
        <ele>268.7663</ele>
        <time>2022-11-06T13:37:34.000Z</time>
      </trkpt>
      <trkpt lat="46.11889" lon="4.65455">
        <ele>269.14972</ele>
        <time>2022-11-06T13:37:35.000Z</time>
      </trkpt>
      <trkpt lat="46.11889" lon="4.65449">
        <ele>269.52802</ele>
        <time>2022-11-06T13:37:36.000Z</time>
      </trkpt>
      <trkpt lat="46.11889" lon="4.65442">
        <ele>269.90259</ele>
        <time>2022-11-06T13:37:37.000Z</time>
      </trkpt>
      <trkpt lat="46.11888" lon="4.65435">
        <ele>270.27264</ele>
        <time>2022-11-06T13:37:38.000Z</time>
      </trkpt>
      <trkpt lat="46.11889" lon="4.65428">
        <ele>270.65665</ele>
        <time>2022-11-06T13:37:39.000Z</time>
      </trkpt>
      <trkpt lat="46.11888" lon="4.65421">
        <ele>271.0473</ele>
        <time>2022-11-06T13:37:40.000Z</time>
      </trkpt>
      <trkpt lat="46.11888" lon="4.65414">
        <ele>271.43866</ele>
        <time>2022-11-06T13:37:41.000Z</time>
      </trkpt>
      <trkpt lat="46.11887" lon="4.65407">
        <ele>271.81302</ele>
        <time>2022-11-06T13:37:42.000Z</time>
      </trkpt>
      <trkpt lat="46.11887" lon="4.65401">
        <ele>272.18579</ele>
        <time>2022-11-06T13:37:43.000Z</time>
      </trkpt>
      <trkpt lat="46.11887" lon="4.65394">
        <ele>272.56415</ele>
        <time>2022-11-06T13:37:44.000Z</time>
      </trkpt>
      <trkpt lat="46.11887" lon="4.65386">
        <ele>272.9458</ele>
        <time>2022-11-06T13:37:45.000Z</time>
      </trkpt>
      <trkpt lat="46.11887" lon="4.65378">
        <ele>273.33502</ele>
        <time>2022-11-06T13:37:46.000Z</time>
      </trkpt>
      <trkpt lat="46.11886" lon="4.65371">
        <ele>273.7449</ele>
        <time>2022-11-06T13:37:47.000Z</time>
      </trkpt>
      <trkpt lat="46.11886" lon="4.65364">
        <ele>274.16232</ele>
        <time>2022-11-06T13:37:48.000Z</time>
      </trkpt>
      <trkpt lat="46.11885" lon="4.65357">
        <ele>274.57745</ele>
        <time>2022-11-06T13:37:49.000Z</time>
      </trkpt>
      <trkpt lat="46.11885" lon="4.65349">
        <ele>274.99808</ele>
        <time>2022-11-06T13:37:50.000Z</time>
      </trkpt>
      <trkpt lat="46.11885" lon="4.65342">
        <ele>275.03281</ele>
        <time>2022-11-06T13:37:51.000Z</time>
      </trkpt>
      <trkpt lat="46.11885" lon="4.65336">
        <ele>275.07568</ele>
        <time>2022-11-06T13:37:52.000Z</time>
      </trkpt>
      <trkpt lat="46.11885" lon="4.65328">
        <ele>275.10565</ele>
        <time>2022-11-06T13:37:53.000Z</time>
      </trkpt>
      <trkpt lat="46.11885" lon="4.6532">
        <ele>275.14923</ele>
        <time>2022-11-06T13:37:54.000Z</time>
      </trkpt>
      <trkpt lat="46.11885" lon="4.65313">
        <ele>275.1962</ele>
        <time>2022-11-06T13:37:55.000Z</time>
      </trkpt>
      <trkpt lat="46.11884" lon="4.65305">
        <ele>275.21991</ele>
        <time>2022-11-06T13:37:56.000Z</time>
      </trkpt>
      <trkpt lat="46.11884" lon="4.65297">
        <ele>275.23553</ele>
        <time>2022-11-06T13:37:57.000Z</time>
      </trkpt>
      <trkpt lat="46.11883" lon="4.6529">
        <ele>275.26117</ele>
        <time>2022-11-06T13:37:58.000Z</time>
      </trkpt>
      <trkpt lat="46.11883" lon="4.65283">
        <ele>275.27728</ele>
        <time>2022-11-06T13:37:59.000Z</time>
      </trkpt>
      <trkpt lat="46.11882" lon="4.65274">
        <ele>275.31195</ele>
        <time>2022-11-06T13:38:00.000Z</time>
      </trkpt>
      <trkpt lat="46.11882" lon="4.65266">
        <ele>275.34155</ele>
        <time>2022-11-06T13:38:01.000Z</time>
      </trkpt>
      <trkpt lat="46.11881" lon="4.65258">
        <ele>275.37347</ele>
        <time>2022-11-06T13:38:02.000Z</time>
      </trkpt>
      <trkpt lat="46.11881" lon="4.6525">
        <ele>275.41327</ele>
        <time>2022-11-06T13:38:03.000Z</time>
      </trkpt>
      <trkpt lat="46.11881" lon="4.65242">
        <ele>275.45059</ele>
        <time>2022-11-06T13:38:04.000Z</time>
      </trkpt>
      <trkpt lat="46.11881" lon="4.65234">
        <ele>275.45105</ele>
        <time>2022-11-06T13:38:05.000Z</time>
      </trkpt>
      <trkpt lat="46.1188" lon="4.65227">
        <ele>275.46188</ele>
        <time>2022-11-06T13:38:06.000Z</time>
      </trkpt>
      <trkpt lat="46.11879" lon="4.65219">
        <ele>275.46933</ele>
        <time>2022-11-06T13:38:07.000Z</time>
      </trkpt>
      <trkpt lat="46.11878" lon="4.65213">
        <ele>275.45795</ele>
        <time>2022-11-06T13:38:08.000Z</time>
      </trkpt>
      <trkpt lat="46.11877" lon="4.65207">
        <ele>275.40137</ele>
        <time>2022-11-06T13:38:09.000Z</time>
      </trkpt>
      <trkpt lat="46.11877" lon="4.652">
        <ele>275.47479</ele>
        <time>2022-11-06T13:38:10.000Z</time>
      </trkpt>
      <trkpt lat="46.11877" lon="4.65194">
        <ele>275.51996</ele>
        <time>2022-11-06T13:38:11.000Z</time>
      </trkpt>
      <trkpt lat="46.11877" lon="4.65189">
        <ele>275.57709</ele>
        <time>2022-11-06T13:38:12.000Z</time>
      </trkpt>
      <trkpt lat="46.11877" lon="4.65184">
        <ele>275.63818</ele>
        <time>2022-11-06T13:38:13.000Z</time>
      </trkpt>
      <trkpt lat="46.11877" lon="4.65179">
        <ele>275.67648</ele>
        <time>2022-11-06T13:38:14.000Z</time>
      </trkpt>
      <trkpt lat="46.11878" lon="4.65173">
        <ele>275.68433</ele>
        <time>2022-11-06T13:38:15.000Z</time>
      </trkpt>
      <trkpt lat="46.11878" lon="4.65168">
        <ele>275.66299</ele>
        <time>2022-11-06T13:38:16.000Z</time>
      </trkpt>
      <trkpt lat="46.11879" lon="4.65162">
        <ele>275.65088</ele>
        <time>2022-11-06T13:38:17.000Z</time>
      </trkpt>
      <trkpt lat="46.11878" lon="4.65157">
        <ele>275.61172</ele>
        <time>2022-11-06T13:38:18.000Z</time>
      </trkpt>
      <trkpt lat="46.11878" lon="4.6515">
        <ele>275.5639</ele>
        <time>2022-11-06T13:38:19.000Z</time>
      </trkpt>
      <trkpt lat="46.11878" lon="4.65144">
        <ele>275.60904</ele>
        <time>2022-11-06T13:38:20.000Z</time>
      </trkpt>
      <trkpt lat="46.11878" lon="4.65137">
        <ele>275.66168</ele>
        <time>2022-11-06T13:38:21.000Z</time>
      </trkpt>
      <trkpt lat="46.11878" lon="4.6513">
        <ele>275.71091</ele>
        <time>2022-11-06T13:38:22.000Z</time>
      </trkpt>
      <trkpt lat="46.11877" lon="4.65123">
        <ele>275.76889</ele>
        <time>2022-11-06T13:38:23.000Z</time>
      </trkpt>
      <trkpt lat="46.11877" lon="4.65115">
        <ele>275.83948</ele>
        <time>2022-11-06T13:38:24.000Z</time>
      </trkpt>
      <trkpt lat="46.11877" lon="4.65108">
        <ele>275.9548</ele>
        <time>2022-11-06T13:38:25.000Z</time>
      </trkpt>
      <trkpt lat="46.11876" lon="4.651">
        <ele>276.03323</ele>
        <time>2022-11-06T13:38:26.000Z</time>
      </trkpt>
      <trkpt lat="46.11875" lon="4.65093">
        <ele>276.10849</ele>
        <time>2022-11-06T13:38:27.000Z</time>
      </trkpt>
      <trkpt lat="46.11875" lon="4.65085">
        <ele>276.1875</ele>
        <time>2022-11-06T13:38:28.000Z</time>
      </trkpt>
      <trkpt lat="46.11874" lon="4.65077">
        <ele>276.30206</ele>
        <time>2022-11-06T13:38:29.000Z</time>
      </trkpt>
      <trkpt lat="46.11874" lon="4.6507">
        <ele>276.28333</ele>
        <time>2022-11-06T13:38:30.000Z</time>
      </trkpt>
      <trkpt lat="46.11873" lon="4.65063">
        <ele>276.32202</ele>
        <time>2022-11-06T13:38:31.000Z</time>
      </trkpt>
      <trkpt lat="46.11873" lon="4.65055">
        <ele>276.36566</ele>
        <time>2022-11-06T13:38:32.000Z</time>
      </trkpt>
      <trkpt lat="46.11873" lon="4.65046">
        <ele>276.41602</ele>
        <time>2022-11-06T13:38:33.000Z</time>
      </trkpt>
      <trkpt lat="46.11873" lon="4.65038">
        <ele>276.49677</ele>
        <time>2022-11-06T13:38:34.000Z</time>
      </trkpt>
      <trkpt lat="46.11872" lon="4.65031">
        <ele>276.5506</ele>
        <time>2022-11-06T13:38:35.000Z</time>
      </trkpt>
      <trkpt lat="46.11871" lon="4.65023">
        <ele>276.64954</ele>
        <time>2022-11-06T13:38:36.000Z</time>
      </trkpt>
      <trkpt lat="46.11871" lon="4.65015">
        <ele>276.69647</ele>
        <time>2022-11-06T13:38:37.000Z</time>
      </trkpt>
      <trkpt lat="46.11871" lon="4.65007">
        <ele>276.88095</ele>
        <time>2022-11-06T13:38:38.000Z</time>
      </trkpt>
      <trkpt lat="46.11871" lon="4.64999">
        <ele>277.07004</ele>
        <time>2022-11-06T13:38:39.000Z</time>
      </trkpt>
      <trkpt lat="46.1187" lon="4.64992">
        <ele>277.13757</ele>
        <time>2022-11-06T13:38:40.000Z</time>
      </trkpt>
      <trkpt lat="46.11869" lon="4.64983">
        <ele>277.20853</ele>
        <time>2022-11-06T13:38:41.000Z</time>
      </trkpt>
      <trkpt lat="46.1187" lon="4.64975">
        <ele>277.27243</ele>
        <time>2022-11-06T13:38:42.000Z</time>
      </trkpt>
      <trkpt lat="46.11868" lon="4.64966">
        <ele>277.34134</ele>
        <time>2022-11-06T13:38:43.000Z</time>
      </trkpt>
      <trkpt lat="46.11868" lon="4.64958">
        <ele>277.39594</ele>
        <time>2022-11-06T13:38:44.000Z</time>
      </trkpt>
      <trkpt lat="46.11868" lon="4.64949">
        <ele>277.44574</ele>
        <time>2022-11-06T13:38:45.000Z</time>
      </trkpt>
      <trkpt lat="46.11868" lon="4.64941">
        <ele>277.49884</ele>
        <time>2022-11-06T13:38:46.000Z</time>
      </trkpt>
      <trkpt lat="46.1187" lon="4.64933">
        <ele>277.54883</ele>
        <time>2022-11-06T13:38:47.000Z</time>
      </trkpt>
      <trkpt lat="46.11869" lon="4.64924">
        <ele>277.62231</ele>
        <time>2022-11-06T13:38:48.000Z</time>
      </trkpt>
      <trkpt lat="46.11869" lon="4.64916">
        <ele>277.69278</ele>
        <time>2022-11-06T13:38:49.000Z</time>
      </trkpt>
      <trkpt lat="46.11869" lon="4.64908">
        <ele>277.80869</ele>
        <time>2022-11-06T13:38:50.000Z</time>
      </trkpt>
      <trkpt lat="46.11869" lon="4.64899">
        <ele>277.9017</ele>
        <time>2022-11-06T13:38:51.000Z</time>
      </trkpt>
      <trkpt lat="46.11871" lon="4.64891">
        <ele>277.96356</ele>
        <time>2022-11-06T13:38:52.000Z</time>
      </trkpt>
      <trkpt lat="46.11872" lon="4.64882">
        <ele>278.01556</ele>
        <time>2022-11-06T13:38:53.000Z</time>
      </trkpt>
      <trkpt lat="46.11872" lon="4.64874">
        <ele>278.04889</ele>
        <time>2022-11-06T13:38:54.000Z</time>
      </trkpt>
      <trkpt lat="46.11872" lon="4.64865">
        <ele>278.13641</ele>
        <time>2022-11-06T13:38:55.000Z</time>
      </trkpt>
      <trkpt lat="46.11873" lon="4.64857">
        <ele>278.23434</ele>
        <time>2022-11-06T13:38:56.000Z</time>
      </trkpt>
      <trkpt lat="46.11873" lon="4.64848">
        <ele>278.38062</ele>
        <time>2022-11-06T13:38:57.000Z</time>
      </trkpt>
      <trkpt lat="46.11874" lon="4.6484">
        <ele>278.3653</ele>
        <time>2022-11-06T13:38:58.000Z</time>
      </trkpt>
      <trkpt lat="46.11875" lon="4.64831">
        <ele>278.36963</ele>
        <time>2022-11-06T13:38:59.000Z</time>
      </trkpt>
      <trkpt lat="46.11876" lon="4.64823">
        <ele>278.39203</ele>
        <time>2022-11-06T13:39:00.000Z</time>
      </trkpt>
      <trkpt lat="46.11877" lon="4.64815">
        <ele>278.39157</ele>
        <time>2022-11-06T13:39:01.000Z</time>
      </trkpt>
      <trkpt lat="46.11876" lon="4.64807">
        <ele>278.40118</ele>
        <time>2022-11-06T13:39:02.000Z</time>
      </trkpt>
      <trkpt lat="46.11876" lon="4.64798">
        <ele>278.39362</ele>
        <time>2022-11-06T13:39:03.000Z</time>
      </trkpt>
      <trkpt lat="46.11877" lon="4.6479">
        <ele>278.38043</ele>
        <time>2022-11-06T13:39:04.000Z</time>
      </trkpt>
      <trkpt lat="46.11878" lon="4.64781">
        <ele>278.38019</ele>
        <time>2022-11-06T13:39:05.000Z</time>
      </trkpt>
      <trkpt lat="46.11879" lon="4.64772">
        <ele>278.3996</ele>
        <time>2022-11-06T13:39:06.000Z</time>
      </trkpt>
      <trkpt lat="46.1188" lon="4.64764">
        <ele>278.43515</ele>
        <time>2022-11-06T13:39:07.000Z</time>
      </trkpt>
      <trkpt lat="46.11881" lon="4.64756">
        <ele>278.44666</ele>
        <time>2022-11-06T13:39:08.000Z</time>
      </trkpt>
      <trkpt lat="46.11882" lon="4.64748">
        <ele>278.45709</ele>
        <time>2022-11-06T13:39:09.000Z</time>
      </trkpt>
      <trkpt lat="46.11883" lon="4.6474">
        <ele>278.43509</ele>
        <time>2022-11-06T13:39:10.000Z</time>
      </trkpt>
      <trkpt lat="46.11883" lon="4.64731">
        <ele>278.3927</ele>
        <time>2022-11-06T13:39:11.000Z</time>
      </trkpt>
      <trkpt lat="46.11885" lon="4.64723">
        <ele>278.3689</ele>
        <time>2022-11-06T13:39:12.000Z</time>
      </trkpt>
      <trkpt lat="46.11886" lon="4.64715">
        <ele>278.33765</ele>
        <time>2022-11-06T13:39:13.000Z</time>
      </trkpt>
      <trkpt lat="46.11887" lon="4.64707">
        <ele>278.32343</ele>
        <time>2022-11-06T13:39:14.000Z</time>
      </trkpt>
      <trkpt lat="46.11888" lon="4.647">
        <ele>278.08691</ele>
        <time>2022-11-06T13:39:15.000Z</time>
      </trkpt>
      <trkpt lat="46.11889" lon="4.64693">
        <ele>277.98468</ele>
        <time>2022-11-06T13:39:16.000Z</time>
      </trkpt>
      <trkpt lat="46.11889" lon="4.64686">
        <ele>277.91357</ele>
        <time>2022-11-06T13:39:17.000Z</time>
      </trkpt>
      <trkpt lat="46.1189" lon="4.64679">
        <ele>277.83405</ele>
        <time>2022-11-06T13:39:18.000Z</time>
      </trkpt>
      <trkpt lat="46.11892" lon="4.64672">
        <ele>277.88223</ele>
        <time>2022-11-06T13:39:19.000Z</time>
      </trkpt>
      <trkpt lat="46.11893" lon="4.64665">
        <ele>277.89966</ele>
        <time>2022-11-06T13:39:20.000Z</time>
      </trkpt>
      <trkpt lat="46.11894" lon="4.64658">
        <ele>277.94342</ele>
        <time>2022-11-06T13:39:21.000Z</time>
      </trkpt>
      <trkpt lat="46.11896" lon="4.64652">
        <ele>277.99759</ele>
        <time>2022-11-06T13:39:22.000Z</time>
      </trkpt>
      <trkpt lat="46.11898" lon="4.64645">
        <ele>278.03009</ele>
        <time>2022-11-06T13:39:23.000Z</time>
      </trkpt>
      <trkpt lat="46.11899" lon="4.64638">
        <ele>278.08783</ele>
        <time>2022-11-06T13:39:24.000Z</time>
      </trkpt>
      <trkpt lat="46.11901" lon="4.64631">
        <ele>278.11176</ele>
        <time>2022-11-06T13:39:25.000Z</time>
      </trkpt>
      <trkpt lat="46.11902" lon="4.64623">
        <ele>278.14005</ele>
        <time>2022-11-06T13:39:26.000Z</time>
      </trkpt>
      <trkpt lat="46.11904" lon="4.64616">
        <ele>278.15793</ele>
        <time>2022-11-06T13:39:27.000Z</time>
      </trkpt>
      <trkpt lat="46.11905" lon="4.6461">
        <ele>278.19153</ele>
        <time>2022-11-06T13:39:28.000Z</time>
      </trkpt>
      <trkpt lat="46.11907" lon="4.64602">
        <ele>278.23047</ele>
        <time>2022-11-06T13:39:29.000Z</time>
      </trkpt>
      <trkpt lat="46.11909" lon="4.64595">
        <ele>278.26697</ele>
        <time>2022-11-06T13:39:30.000Z</time>
      </trkpt>
      <trkpt lat="46.11911" lon="4.64589">
        <ele>278.31268</ele>
        <time>2022-11-06T13:39:31.000Z</time>
      </trkpt>
      <trkpt lat="46.11913" lon="4.64581">
        <ele>278.35645</ele>
        <time>2022-11-06T13:39:32.000Z</time>
      </trkpt>
      <trkpt lat="46.11915" lon="4.64575">
        <ele>278.40613</ele>
        <time>2022-11-06T13:39:33.000Z</time>
      </trkpt>
      <trkpt lat="46.11917" lon="4.64567">
        <ele>278.46973</ele>
        <time>2022-11-06T13:39:34.000Z</time>
      </trkpt>
      <trkpt lat="46.11919" lon="4.6456">
        <ele>278.7569</ele>
        <time>2022-11-06T13:39:35.000Z</time>
      </trkpt>
      <trkpt lat="46.1192" lon="4.64552">
        <ele>278.90088</ele>
        <time>2022-11-06T13:39:36.000Z</time>
      </trkpt>
      <trkpt lat="46.11922" lon="4.64544">
        <ele>279.02737</ele>
        <time>2022-11-06T13:39:37.000Z</time>
      </trkpt>
      <trkpt lat="46.11925" lon="4.64537">
        <ele>279.20117</ele>
        <time>2022-11-06T13:39:38.000Z</time>
      </trkpt>
      <trkpt lat="46.11926" lon="4.6453">
        <ele>279.21964</ele>
        <time>2022-11-06T13:39:39.000Z</time>
      </trkpt>
      <trkpt lat="46.11929" lon="4.64522">
        <ele>279.26935</ele>
        <time>2022-11-06T13:39:40.000Z</time>
      </trkpt>
      <trkpt lat="46.11932" lon="4.64515">
        <ele>279.30643</ele>
        <time>2022-11-06T13:39:41.000Z</time>
      </trkpt>
      <trkpt lat="46.11934" lon="4.64508">
        <ele>279.33636</ele>
        <time>2022-11-06T13:39:42.000Z</time>
      </trkpt>
      <trkpt lat="46.11936" lon="4.64501">
        <ele>279.39719</ele>
        <time>2022-11-06T13:39:43.000Z</time>
      </trkpt>
      <trkpt lat="46.11938" lon="4.64494">
        <ele>279.42691</ele>
        <time>2022-11-06T13:39:44.000Z</time>
      </trkpt>
      <trkpt lat="46.1194" lon="4.64487">
        <ele>279.50873</ele>
        <time>2022-11-06T13:39:45.000Z</time>
      </trkpt>
      <trkpt lat="46.11943" lon="4.6448">
        <ele>279.58365</ele>
        <time>2022-11-06T13:39:46.000Z</time>
      </trkpt>
      <trkpt lat="46.11945" lon="4.64473">
        <ele>279.64789</ele>
        <time>2022-11-06T13:39:47.000Z</time>
      </trkpt>
      <trkpt lat="46.11949" lon="4.64466">
        <ele>279.69556</ele>
        <time>2022-11-06T13:39:48.000Z</time>
      </trkpt>
      <trkpt lat="46.11951" lon="4.64458">
        <ele>279.76239</ele>
        <time>2022-11-06T13:39:49.000Z</time>
      </trkpt>
      <trkpt lat="46.11953" lon="4.64451">
        <ele>279.836</ele>
        <time>2022-11-06T13:39:50.000Z</time>
      </trkpt>
      <trkpt lat="46.11956" lon="4.64444">
        <ele>279.92282</ele>
        <time>2022-11-06T13:39:51.000Z</time>
      </trkpt>
      <trkpt lat="46.1196" lon="4.64438">
        <ele>279.98096</ele>
        <time>2022-11-06T13:39:52.000Z</time>
      </trkpt>
      <trkpt lat="46.11962" lon="4.6443">
        <ele>279.98227</ele>
        <time>2022-11-06T13:39:53.000Z</time>
      </trkpt>
      <trkpt lat="46.11964" lon="4.64424">
        <ele>280.0126</ele>
        <time>2022-11-06T13:39:54.000Z</time>
      </trkpt>
      <trkpt lat="46.11967" lon="4.64418">
        <ele>280.05951</ele>
        <time>2022-11-06T13:39:55.000Z</time>
      </trkpt>
      <trkpt lat="46.1197" lon="4.64413">
        <ele>280.09555</ele>
        <time>2022-11-06T13:39:56.000Z</time>
      </trkpt>
      <trkpt lat="46.11973" lon="4.64407">
        <ele>280.14136</ele>
        <time>2022-11-06T13:39:57.000Z</time>
      </trkpt>
      <trkpt lat="46.11975" lon="4.64402">
        <ele>280.17285</ele>
        <time>2022-11-06T13:39:58.000Z</time>
      </trkpt>
      <trkpt lat="46.11977" lon="4.64395">
        <ele>280.18872</ele>
        <time>2022-11-06T13:39:59.000Z</time>
      </trkpt>
      <trkpt lat="46.11979" lon="4.64388">
        <ele>280.19989</ele>
        <time>2022-11-06T13:40:00.000Z</time>
      </trkpt>
      <trkpt lat="46.11982" lon="4.64381">
        <ele>280.20209</ele>
        <time>2022-11-06T13:40:01.000Z</time>
      </trkpt>
      <trkpt lat="46.11985" lon="4.64375">
        <ele>280.14926</ele>
        <time>2022-11-06T13:40:02.000Z</time>
      </trkpt>
      <trkpt lat="46.11988" lon="4.6437">
        <ele>280.06915</ele>
        <time>2022-11-06T13:40:03.000Z</time>
      </trkpt>
      <trkpt lat="46.11992" lon="4.64363">
        <ele>279.98862</ele>
        <time>2022-11-06T13:40:04.000Z</time>
      </trkpt>
      <trkpt lat="46.11995" lon="4.64357">
        <ele>279.83206</ele>
        <time>2022-11-06T13:40:05.000Z</time>
      </trkpt>
      <trkpt lat="46.11998" lon="4.64351">
        <ele>279.65381</ele>
        <time>2022-11-06T13:40:06.000Z</time>
      </trkpt>
      <trkpt lat="46.12" lon="4.64346">
        <ele>279.46881</ele>
        <time>2022-11-06T13:40:07.000Z</time>
      </trkpt>
      <trkpt lat="46.12003" lon="4.64339">
        <ele>279.43604</ele>
        <time>2022-11-06T13:40:08.000Z</time>
      </trkpt>
      <trkpt lat="46.12006" lon="4.64334">
        <ele>279.35651</ele>
        <time>2022-11-06T13:40:09.000Z</time>
      </trkpt>
      <trkpt lat="46.12009" lon="4.64327">
        <ele>279.27435</ele>
        <time>2022-11-06T13:40:10.000Z</time>
      </trkpt>
      <trkpt lat="46.12013" lon="4.64322">
        <ele>279.19598</ele>
        <time>2022-11-06T13:40:11.000Z</time>
      </trkpt>
      <trkpt lat="46.12016" lon="4.64316">
        <ele>279.14795</ele>
        <time>2022-11-06T13:40:12.000Z</time>
      </trkpt>
      <trkpt lat="46.12019" lon="4.6431">
        <ele>279.1586</ele>
        <time>2022-11-06T13:40:13.000Z</time>
      </trkpt>
      <trkpt lat="46.12023" lon="4.64305">
        <ele>279.12445</ele>
        <time>2022-11-06T13:40:14.000Z</time>
      </trkpt>
      <trkpt lat="46.12026" lon="4.64299">
        <ele>279.08075</ele>
        <time>2022-11-06T13:40:15.000Z</time>
      </trkpt>
      <trkpt lat="46.12029" lon="4.64293">
        <ele>279.03839</ele>
        <time>2022-11-06T13:40:16.000Z</time>
      </trkpt>
      <trkpt lat="46.12032" lon="4.64286">
        <ele>278.99384</ele>
        <time>2022-11-06T13:40:17.000Z</time>
      </trkpt>
      <trkpt lat="46.12035" lon="4.64281">
        <ele>278.98688</ele>
        <time>2022-11-06T13:40:18.000Z</time>
      </trkpt>
      <trkpt lat="46.12038" lon="4.64275">
        <ele>279.01132</ele>
        <time>2022-11-06T13:40:19.000Z</time>
      </trkpt>
      <trkpt lat="46.12042" lon="4.64268">
        <ele>279.02625</ele>
        <time>2022-11-06T13:40:20.000Z</time>
      </trkpt>
      <trkpt lat="46.12045" lon="4.64262">
        <ele>279.0451</ele>
        <time>2022-11-06T13:40:21.000Z</time>
      </trkpt>
      <trkpt lat="46.12049" lon="4.64256">
        <ele>279.1058</ele>
        <time>2022-11-06T13:40:22.000Z</time>
      </trkpt>
      <trkpt lat="46.12053" lon="4.6425">
        <ele>279.1871</ele>
        <time>2022-11-06T13:40:23.000Z</time>
      </trkpt>
      <trkpt lat="46.12056" lon="4.64244">
        <ele>279.28741</ele>
        <time>2022-11-06T13:40:24.000Z</time>
      </trkpt>
      <trkpt lat="46.1206" lon="4.64238">
        <ele>279.43936</ele>
        <time>2022-11-06T13:40:25.000Z</time>
      </trkpt>
      <trkpt lat="46.12064" lon="4.64232">
        <ele>279.61044</ele>
        <time>2022-11-06T13:40:26.000Z</time>
      </trkpt>
      <trkpt lat="46.12068" lon="4.64226">
        <ele>279.79279</ele>
        <time>2022-11-06T13:40:27.000Z</time>
      </trkpt>
      <trkpt lat="46.12071" lon="4.6422">
        <ele>279.82794</ele>
        <time>2022-11-06T13:40:28.000Z</time>
      </trkpt>
      <trkpt lat="46.12074" lon="4.64214">
        <ele>279.90536</ele>
        <time>2022-11-06T13:40:29.000Z</time>
      </trkpt>
      <trkpt lat="46.12078" lon="4.64208">
        <ele>279.97772</ele>
        <time>2022-11-06T13:40:30.000Z</time>
      </trkpt>
      <trkpt lat="46.12081" lon="4.64202">
        <ele>280.03842</ele>
        <time>2022-11-06T13:40:31.000Z</time>
      </trkpt>
      <trkpt lat="46.12085" lon="4.64196">
        <ele>280.09796</ele>
        <time>2022-11-06T13:40:32.000Z</time>
      </trkpt>
      <trkpt lat="46.12088" lon="4.64192">
        <ele>280.15161</ele>
        <time>2022-11-06T13:40:33.000Z</time>
      </trkpt>
      <trkpt lat="46.12092" lon="4.64186">
        <ele>280.19196</ele>
        <time>2022-11-06T13:40:34.000Z</time>
      </trkpt>
      <trkpt lat="46.12096" lon="4.6418">
        <ele>280.22772</ele>
        <time>2022-11-06T13:40:35.000Z</time>
      </trkpt>
      <trkpt lat="46.121" lon="4.64176">
        <ele>280.27444</ele>
        <time>2022-11-06T13:40:36.000Z</time>
      </trkpt>
      <trkpt lat="46.12103" lon="4.6417">
        <ele>280.30927</ele>
        <time>2022-11-06T13:40:37.000Z</time>
      </trkpt>
      <trkpt lat="46.12107" lon="4.64165">
        <ele>280.31293</ele>
        <time>2022-11-06T13:40:38.000Z</time>
      </trkpt>
      <trkpt lat="46.1211" lon="4.64159">
        <ele>280.30853</ele>
        <time>2022-11-06T13:40:39.000Z</time>
      </trkpt>
      <trkpt lat="46.12114" lon="4.64155">
        <ele>280.29108</ele>
        <time>2022-11-06T13:40:40.000Z</time>
      </trkpt>
      <trkpt lat="46.12117" lon="4.6415">
        <ele>280.27496</ele>
        <time>2022-11-06T13:40:41.000Z</time>
      </trkpt>
      <trkpt lat="46.12121" lon="4.64144">
        <ele>280.25623</ele>
        <time>2022-11-06T13:40:42.000Z</time>
      </trkpt>
      <trkpt lat="46.12125" lon="4.64138">
        <ele>280.24518</ele>
        <time>2022-11-06T13:40:43.000Z</time>
      </trkpt>
      <trkpt lat="46.12128" lon="4.64132">
        <ele>280.22223</ele>
        <time>2022-11-06T13:40:44.000Z</time>
      </trkpt>
      <trkpt lat="46.12132" lon="4.64127">
        <ele>280.18686</ele>
        <time>2022-11-06T13:40:45.000Z</time>
      </trkpt>
      <trkpt lat="46.12135" lon="4.64121">
        <ele>280.16718</ele>
        <time>2022-11-06T13:40:46.000Z</time>
      </trkpt>
      <trkpt lat="46.12138" lon="4.64116">
        <ele>280.17267</ele>
        <time>2022-11-06T13:40:47.000Z</time>
      </trkpt>
      <trkpt lat="46.12141" lon="4.64111">
        <ele>280.18759</ele>
        <time>2022-11-06T13:40:48.000Z</time>
      </trkpt>
      <trkpt lat="46.12144" lon="4.64106">
        <ele>280.19495</ele>
        <time>2022-11-06T13:40:49.000Z</time>
      </trkpt>
      <trkpt lat="46.12147" lon="4.641">
        <ele>280.19733</ele>
        <time>2022-11-06T13:40:50.000Z</time>
      </trkpt>
      <trkpt lat="46.12151" lon="4.64094">
        <ele>280.2113</ele>
        <time>2022-11-06T13:40:51.000Z</time>
      </trkpt>
      <trkpt lat="46.12154" lon="4.64089">
        <ele>280.21225</ele>
        <time>2022-11-06T13:40:52.000Z</time>
      </trkpt>
      <trkpt lat="46.12157" lon="4.64084">
        <ele>280.24719</ele>
        <time>2022-11-06T13:40:53.000Z</time>
      </trkpt>
      <trkpt lat="46.12161" lon="4.64078">
        <ele>280.28873</ele>
        <time>2022-11-06T13:40:54.000Z</time>
      </trkpt>
      <trkpt lat="46.12165" lon="4.64074">
        <ele>280.30624</ele>
        <time>2022-11-06T13:40:55.000Z</time>
      </trkpt>
      <trkpt lat="46.12168" lon="4.64068">
        <ele>280.33679</ele>
        <time>2022-11-06T13:40:56.000Z</time>
      </trkpt>
      <trkpt lat="46.12173" lon="4.64062">
        <ele>280.40894</ele>
        <time>2022-11-06T13:40:57.000Z</time>
      </trkpt>
      <trkpt lat="46.12176" lon="4.64057">
        <ele>280.49597</ele>
        <time>2022-11-06T13:40:58.000Z</time>
      </trkpt>
      <trkpt lat="46.1218" lon="4.64051">
        <ele>280.60815</ele>
        <time>2022-11-06T13:40:59.000Z</time>
      </trkpt>
      <trkpt lat="46.12184" lon="4.64044">
        <ele>280.73941</ele>
        <time>2022-11-06T13:41:00.000Z</time>
      </trkpt>
      <trkpt lat="46.12189" lon="4.64038">
        <ele>280.92368</ele>
        <time>2022-11-06T13:41:01.000Z</time>
      </trkpt>
      <trkpt lat="46.12192" lon="4.64032">
        <ele>281.12326</ele>
        <time>2022-11-06T13:41:02.000Z</time>
      </trkpt>
      <trkpt lat="46.12196" lon="4.64026">
        <ele>281.31827</ele>
        <time>2022-11-06T13:41:03.000Z</time>
      </trkpt>
      <trkpt lat="46.122" lon="4.6402">
        <ele>281.52469</ele>
        <time>2022-11-06T13:41:04.000Z</time>
      </trkpt>
      <trkpt lat="46.12203" lon="4.64013">
        <ele>281.75769</ele>
        <time>2022-11-06T13:41:05.000Z</time>
      </trkpt>
      <trkpt lat="46.12207" lon="4.64007">
        <ele>281.86176</ele>
        <time>2022-11-06T13:41:06.000Z</time>
      </trkpt>
      <trkpt lat="46.1221" lon="4.64">
        <ele>282.0481</ele>
        <time>2022-11-06T13:41:07.000Z</time>
      </trkpt>
      <trkpt lat="46.12214" lon="4.63994">
        <ele>282.23282</ele>
        <time>2022-11-06T13:41:08.000Z</time>
      </trkpt>
      <trkpt lat="46.12218" lon="4.63988">
        <ele>282.41376</ele>
        <time>2022-11-06T13:41:09.000Z</time>
      </trkpt>
      <trkpt lat="46.12221" lon="4.63982">
        <ele>282.60834</ele>
        <time>2022-11-06T13:41:10.000Z</time>
      </trkpt>
      <trkpt lat="46.12225" lon="4.63976">
        <ele>282.80554</ele>
        <time>2022-11-06T13:41:11.000Z</time>
      </trkpt>
      <trkpt lat="46.12229" lon="4.6397">
        <ele>283.00552</ele>
        <time>2022-11-06T13:41:12.000Z</time>
      </trkpt>
      <trkpt lat="46.12233" lon="4.63964">
        <ele>283.18527</ele>
        <time>2022-11-06T13:41:13.000Z</time>
      </trkpt>
      <trkpt lat="46.12236" lon="4.63958">
        <ele>283.37054</ele>
        <time>2022-11-06T13:41:14.000Z</time>
      </trkpt>
      <trkpt lat="46.1224" lon="4.63953">
        <ele>283.57071</ele>
        <time>2022-11-06T13:41:15.000Z</time>
      </trkpt>
      <trkpt lat="46.12244" lon="4.63947">
        <ele>283.76126</ele>
        <time>2022-11-06T13:41:16.000Z</time>
      </trkpt>
      <trkpt lat="46.12248" lon="4.63941">
        <ele>283.90057</ele>
        <time>2022-11-06T13:41:17.000Z</time>
      </trkpt>
      <trkpt lat="46.12252" lon="4.63935">
        <ele>284.03427</ele>
        <time>2022-11-06T13:41:18.000Z</time>
      </trkpt>
      <trkpt lat="46.12255" lon="4.63929">
        <ele>284.13858</ele>
        <time>2022-11-06T13:41:19.000Z</time>
      </trkpt>
      <trkpt lat="46.12259" lon="4.63923">
        <ele>284.17972</ele>
        <time>2022-11-06T13:41:20.000Z</time>
      </trkpt>
      <trkpt lat="46.12263" lon="4.63917">
        <ele>284.18008</ele>
        <time>2022-11-06T13:41:21.000Z</time>
      </trkpt>
      <trkpt lat="46.12267" lon="4.63911">
        <ele>284.17874</ele>
        <time>2022-11-06T13:41:22.000Z</time>
      </trkpt>
      <trkpt lat="46.12271" lon="4.63906">
        <ele>284.1571</ele>
        <time>2022-11-06T13:41:23.000Z</time>
      </trkpt>
      <trkpt lat="46.12275" lon="4.639">
        <ele>284.13116</ele>
        <time>2022-11-06T13:41:24.000Z</time>
      </trkpt>
      <trkpt lat="46.12278" lon="4.63893">
        <ele>284.1011</ele>
        <time>2022-11-06T13:41:25.000Z</time>
      </trkpt>
      <trkpt lat="46.12281" lon="4.63888">
        <ele>284.17752</ele>
        <time>2022-11-06T13:41:26.000Z</time>
      </trkpt>
      <trkpt lat="46.12285" lon="4.63882">
        <ele>284.13104</ele>
        <time>2022-11-06T13:41:27.000Z</time>
      </trkpt>
      <trkpt lat="46.12288" lon="4.63876">
        <ele>284.07574</ele>
        <time>2022-11-06T13:41:28.000Z</time>
      </trkpt>
      <trkpt lat="46.12292" lon="4.6387">
        <ele>284.0137</ele>
        <time>2022-11-06T13:41:29.000Z</time>
      </trkpt>
      <trkpt lat="46.12295" lon="4.63865">
        <ele>283.92188</ele>
        <time>2022-11-06T13:41:30.000Z</time>
      </trkpt>
      <trkpt lat="46.12299" lon="4.63859">
        <ele>283.83316</ele>
        <time>2022-11-06T13:41:31.000Z</time>
      </trkpt>
      <trkpt lat="46.12303" lon="4.63854">
        <ele>283.73706</ele>
        <time>2022-11-06T13:41:32.000Z</time>
      </trkpt>
      <trkpt lat="46.12306" lon="4.63848">
        <ele>283.63187</ele>
        <time>2022-11-06T13:41:33.000Z</time>
      </trkpt>
      <trkpt lat="46.1231" lon="4.63843">
        <ele>283.52585</ele>
        <time>2022-11-06T13:41:34.000Z</time>
      </trkpt>
      <trkpt lat="46.12314" lon="4.63837">
        <ele>283.43863</ele>
        <time>2022-11-06T13:41:35.000Z</time>
      </trkpt>
      <trkpt lat="46.12317" lon="4.6383">
        <ele>283.33344</ele>
        <time>2022-11-06T13:41:36.000Z</time>
      </trkpt>
      <trkpt lat="46.1232" lon="4.63825">
        <ele>283.23697</ele>
        <time>2022-11-06T13:41:37.000Z</time>
      </trkpt>
      <trkpt lat="46.12324" lon="4.63819">
        <ele>283.15085</ele>
        <time>2022-11-06T13:41:38.000Z</time>
      </trkpt>
      <trkpt lat="46.12327" lon="4.63813">
        <ele>283.08276</ele>
        <time>2022-11-06T13:41:39.000Z</time>
      </trkpt>
      <trkpt lat="46.12331" lon="4.63808">
        <ele>283.07065</ele>
        <time>2022-11-06T13:41:40.000Z</time>
      </trkpt>
      <trkpt lat="46.12335" lon="4.63803">
        <ele>283.05209</ele>
        <time>2022-11-06T13:41:41.000Z</time>
      </trkpt>
      <trkpt lat="46.12338" lon="4.63797">
        <ele>283.03033</ele>
        <time>2022-11-06T13:41:42.000Z</time>
      </trkpt>
      <trkpt lat="46.12342" lon="4.63793">
        <ele>283.00989</ele>
        <time>2022-11-06T13:41:43.000Z</time>
      </trkpt>
      <trkpt lat="46.12345" lon="4.63787">
        <ele>282.99716</ele>
        <time>2022-11-06T13:41:44.000Z</time>
      </trkpt>
      <trkpt lat="46.12349" lon="4.63782">
        <ele>282.95877</ele>
        <time>2022-11-06T13:41:45.000Z</time>
      </trkpt>
      <trkpt lat="46.12352" lon="4.63776">
        <ele>282.92743</ele>
        <time>2022-11-06T13:41:46.000Z</time>
      </trkpt>
      <trkpt lat="46.12355" lon="4.6377">
        <ele>282.9136</ele>
        <time>2022-11-06T13:41:47.000Z</time>
      </trkpt>
      <trkpt lat="46.12359" lon="4.63764">
        <ele>282.91995</ele>
        <time>2022-11-06T13:41:48.000Z</time>
      </trkpt>
      <trkpt lat="46.12362" lon="4.63759">
        <ele>282.94473</ele>
        <time>2022-11-06T13:41:49.000Z</time>
      </trkpt>
      <trkpt lat="46.12365" lon="4.63754">
        <ele>282.99326</ele>
        <time>2022-11-06T13:41:50.000Z</time>
      </trkpt>
      <trkpt lat="46.12368" lon="4.63749">
        <ele>283.05057</ele>
        <time>2022-11-06T13:41:51.000Z</time>
      </trkpt>
      <trkpt lat="46.12372" lon="4.63744">
        <ele>283.09436</ele>
        <time>2022-11-06T13:41:52.000Z</time>
      </trkpt>
      <trkpt lat="46.12374" lon="4.63739">
        <ele>283.14963</ele>
        <time>2022-11-06T13:41:53.000Z</time>
      </trkpt>
      <trkpt lat="46.12377" lon="4.63735">
        <ele>283.19794</ele>
        <time>2022-11-06T13:41:54.000Z</time>
      </trkpt>
      <trkpt lat="46.12379" lon="4.6373">
        <ele>283.23904</ele>
        <time>2022-11-06T13:41:55.000Z</time>
      </trkpt>
      <trkpt lat="46.12383" lon="4.63725">
        <ele>283.28094</ele>
        <time>2022-11-06T13:41:56.000Z</time>
      </trkpt>
      <trkpt lat="46.12386" lon="4.63721">
        <ele>283.31622</ele>
        <time>2022-11-06T13:41:57.000Z</time>
      </trkpt>
      <trkpt lat="46.12389" lon="4.63716">
        <ele>283.33521</ele>
        <time>2022-11-06T13:41:58.000Z</time>
      </trkpt>
      <trkpt lat="46.12392" lon="4.63712">
        <ele>283.2475</ele>
        <time>2022-11-06T13:41:59.000Z</time>
      </trkpt>
      <trkpt lat="46.12395" lon="4.63708">
        <ele>283.1355</ele>
        <time>2022-11-06T13:42:00.000Z</time>
      </trkpt>
      <trkpt lat="46.12398" lon="4.63704">
        <ele>282.99536</ele>
        <time>2022-11-06T13:42:01.000Z</time>
      </trkpt>
      <trkpt lat="46.12401" lon="4.63699">
        <ele>283.09131</ele>
        <time>2022-11-06T13:42:02.000Z</time>
      </trkpt>
      <trkpt lat="46.12404" lon="4.63696">
        <ele>283.15491</ele>
        <time>2022-11-06T13:42:03.000Z</time>
      </trkpt>
      <trkpt lat="46.12407" lon="4.63691">
        <ele>283.22681</ele>
        <time>2022-11-06T13:42:04.000Z</time>
      </trkpt>
      <trkpt lat="46.1241" lon="4.63686">
        <ele>283.3089</ele>
        <time>2022-11-06T13:42:05.000Z</time>
      </trkpt>
      <trkpt lat="46.12412" lon="4.63682">
        <ele>283.37231</ele>
        <time>2022-11-06T13:42:06.000Z</time>
      </trkpt>
      <trkpt lat="46.12415" lon="4.63677">
        <ele>283.41827</ele>
        <time>2022-11-06T13:42:07.000Z</time>
      </trkpt>
      <trkpt lat="46.12418" lon="4.63672">
        <ele>283.48895</ele>
        <time>2022-11-06T13:42:08.000Z</time>
      </trkpt>
      <trkpt lat="46.12421" lon="4.63666">
        <ele>283.54337</ele>
        <time>2022-11-06T13:42:09.000Z</time>
      </trkpt>
      <trkpt lat="46.12423" lon="4.63662">
        <ele>283.55035</ele>
        <time>2022-11-06T13:42:10.000Z</time>
      </trkpt>
      <trkpt lat="46.12427" lon="4.63657">
        <ele>283.49573</ele>
        <time>2022-11-06T13:42:11.000Z</time>
      </trkpt>
      <trkpt lat="46.1243" lon="4.63654">
        <ele>283.44122</ele>
        <time>2022-11-06T13:42:12.000Z</time>
      </trkpt>
      <trkpt lat="46.12433" lon="4.63648">
        <ele>283.35269</ele>
        <time>2022-11-06T13:42:13.000Z</time>
      </trkpt>
      <trkpt lat="46.12436" lon="4.63641">
        <ele>283.27307</ele>
        <time>2022-11-06T13:42:14.000Z</time>
      </trkpt>
      <trkpt lat="46.12438" lon="4.63635">
        <ele>283.16791</ele>
        <time>2022-11-06T13:42:15.000Z</time>
      </trkpt>
      <trkpt lat="46.12442" lon="4.6363">
        <ele>283.09039</ele>
        <time>2022-11-06T13:42:16.000Z</time>
      </trkpt>
      <trkpt lat="46.12445" lon="4.63623">
        <ele>283.05023</ele>
        <time>2022-11-06T13:42:17.000Z</time>
      </trkpt>
      <trkpt lat="46.12447" lon="4.63619">
        <ele>283.02716</ele>
        <time>2022-11-06T13:42:18.000Z</time>
      </trkpt>
      <trkpt lat="46.1245" lon="4.63615">
        <ele>283.07706</ele>
        <time>2022-11-06T13:42:19.000Z</time>
      </trkpt>
      <trkpt lat="46.12454" lon="4.6361">
        <ele>283.22824</ele>
        <time>2022-11-06T13:42:20.000Z</time>
      </trkpt>
      <trkpt lat="46.12458" lon="4.63605">
        <ele>283.32037</ele>
        <time>2022-11-06T13:42:21.000Z</time>
      </trkpt>
      <trkpt lat="46.12462" lon="4.63601">
        <ele>283.07159</ele>
        <time>2022-11-06T13:42:22.000Z</time>
      </trkpt>
      <trkpt lat="46.12466" lon="4.63596">
        <ele>283.03305</ele>
        <time>2022-11-06T13:42:23.000Z</time>
      </trkpt>
      <trkpt lat="46.12469" lon="4.6359">
        <ele>282.97855</ele>
        <time>2022-11-06T13:42:24.000Z</time>
      </trkpt>
      <trkpt lat="46.12472" lon="4.63585">
        <ele>282.9675</ele>
        <time>2022-11-06T13:42:25.000Z</time>
      </trkpt>
      <trkpt lat="46.12475" lon="4.6358">
        <ele>282.98993</ele>
        <time>2022-11-06T13:42:26.000Z</time>
      </trkpt>
      <trkpt lat="46.12478" lon="4.63575">
        <ele>283.0141</ele>
        <time>2022-11-06T13:42:27.000Z</time>
      </trkpt>
      <trkpt lat="46.1248" lon="4.6357">
        <ele>283.02924</ele>
        <time>2022-11-06T13:42:28.000Z</time>
      </trkpt>
      <trkpt lat="46.12482" lon="4.63566">
        <ele>283.02441</ele>
        <time>2022-11-06T13:42:29.000Z</time>
      </trkpt>
      <trkpt lat="46.12485" lon="4.63561">
        <ele>282.89868</ele>
        <time>2022-11-06T13:42:30.000Z</time>
      </trkpt>
      <trkpt lat="46.12488" lon="4.63557">
        <ele>282.77353</ele>
        <time>2022-11-06T13:42:31.000Z</time>
      </trkpt>
      <trkpt lat="46.12491" lon="4.63553">
        <ele>282.66025</ele>
        <time>2022-11-06T13:42:32.000Z</time>
      </trkpt>
      <trkpt lat="46.12494" lon="4.63551">
        <ele>282.59589</ele>
        <time>2022-11-06T13:42:33.000Z</time>
      </trkpt>
      <trkpt lat="46.12497" lon="4.63548">
        <ele>282.50726</ele>
        <time>2022-11-06T13:42:34.000Z</time>
      </trkpt>
      <trkpt lat="46.12501" lon="4.63543">
        <ele>282.47479</ele>
        <time>2022-11-06T13:42:35.000Z</time>
      </trkpt>
      <trkpt lat="46.12503" lon="4.63539">
        <ele>282.45087</ele>
        <time>2022-11-06T13:42:36.000Z</time>
      </trkpt>
      <trkpt lat="46.12505" lon="4.63535">
        <ele>282.41068</ele>
        <time>2022-11-06T13:42:37.000Z</time>
      </trkpt>
      <trkpt lat="46.12507" lon="4.63532">
        <ele>282.37408</ele>
        <time>2022-11-06T13:42:38.000Z</time>
      </trkpt>
      <trkpt lat="46.12508" lon="4.63528">
        <ele>282.37262</ele>
        <time>2022-11-06T13:42:39.000Z</time>
      </trkpt>
      <trkpt lat="46.1251" lon="4.63526">
        <ele>282.29767</ele>
        <time>2022-11-06T13:42:40.000Z</time>
      </trkpt>
      <trkpt lat="46.12512" lon="4.63523">
        <ele>282.30984</ele>
        <time>2022-11-06T13:42:41.000Z</time>
      </trkpt>
      <trkpt lat="46.12514" lon="4.63521">
        <ele>282.4202</ele>
        <time>2022-11-06T13:42:42.000Z</time>
      </trkpt>
      <trkpt lat="46.12515" lon="4.63519">
        <ele>282.35123</ele>
        <time>2022-11-06T13:42:43.000Z</time>
      </trkpt>
      <trkpt lat="46.12517" lon="4.63517">
        <ele>282.28192</ele>
        <time>2022-11-06T13:42:44.000Z</time>
      </trkpt>
      <trkpt lat="46.12519" lon="4.63515">
        <ele>282.18793</ele>
        <time>2022-11-06T13:42:45.000Z</time>
      </trkpt>
      <trkpt lat="46.1252" lon="4.63513">
        <ele>282.30402</ele>
        <time>2022-11-06T13:42:46.000Z</time>
      </trkpt>
      <trkpt lat="46.12522" lon="4.63511">
        <ele>282.42047</ele>
        <time>2022-11-06T13:42:47.000Z</time>
      </trkpt>
      <trkpt lat="46.12523" lon="4.63509">
        <ele>282.50174</ele>
        <time>2022-11-06T13:42:48.000Z</time>
      </trkpt>
      <trkpt lat="46.12525" lon="4.63507">
        <ele>282.61176</ele>
        <time>2022-11-06T13:42:49.000Z</time>
      </trkpt>
      <trkpt lat="46.12527" lon="4.63505">
        <ele>282.8808</ele>
        <time>2022-11-06T13:42:51.000Z</time>
      </trkpt>
      <trkpt lat="46.12529" lon="4.63505">
        <ele>283.18402</ele>
        <time>2022-11-06T13:43:44.000Z</time>
      </trkpt>
      <trkpt lat="46.12529" lon="4.63501">
        <ele>283.5412</ele>
        <time>2022-11-06T13:44:17.000Z</time>
      </trkpt>
      <trkpt lat="46.12531" lon="4.63498">
        <ele>283.88171</ele>
        <time>2022-11-06T13:44:18.000Z</time>
      </trkpt>
      <trkpt lat="46.12533" lon="4.63494">
        <ele>284.23187</ele>
        <time>2022-11-06T13:44:19.000Z</time>
      </trkpt>
      <trkpt lat="46.12536" lon="4.6349">
        <ele>284.54095</ele>
        <time>2022-11-06T13:44:20.000Z</time>
      </trkpt>
      <trkpt lat="46.12539" lon="4.63487">
        <ele>284.83075</ele>
        <time>2022-11-06T13:44:21.000Z</time>
      </trkpt>
      <trkpt lat="46.12541" lon="4.63482">
        <ele>285.09711</ele>
        <time>2022-11-06T13:44:22.000Z</time>
      </trkpt>
      <trkpt lat="46.12544" lon="4.63478">
        <ele>285.3371</ele>
        <time>2022-11-06T13:44:23.000Z</time>
      </trkpt>
      <trkpt lat="46.12547" lon="4.63473">
        <ele>285.56982</ele>
        <time>2022-11-06T13:44:24.000Z</time>
      </trkpt>
      <trkpt lat="46.1255" lon="4.63468">
        <ele>285.79816</ele>
        <time>2022-11-06T13:44:25.000Z</time>
      </trkpt>
      <trkpt lat="46.12554" lon="4.63463">
        <ele>286.03528</ele>
        <time>2022-11-06T13:44:26.000Z</time>
      </trkpt>
      <trkpt lat="46.12557" lon="4.63458">
        <ele>286.28543</ele>
        <time>2022-11-06T13:44:27.000Z</time>
      </trkpt>
      <trkpt lat="46.12559" lon="4.63453">
        <ele>286.55798</ele>
        <time>2022-11-06T13:44:28.000Z</time>
      </trkpt>
      <trkpt lat="46.12561" lon="4.63448">
        <ele>286.65506</ele>
        <time>2022-11-06T13:44:29.000Z</time>
      </trkpt>
      <trkpt lat="46.12564" lon="4.63442">
        <ele>286.73083</ele>
        <time>2022-11-06T13:44:30.000Z</time>
      </trkpt>
      <trkpt lat="46.12567" lon="4.63437">
        <ele>286.57343</ele>
        <time>2022-11-06T13:44:31.000Z</time>
      </trkpt>
      <trkpt lat="46.1257" lon="4.63431">
        <ele>286.4306</ele>
        <time>2022-11-06T13:44:32.000Z</time>
      </trkpt>
      <trkpt lat="46.12573" lon="4.63426">
        <ele>286.30405</ele>
        <time>2022-11-06T13:44:33.000Z</time>
      </trkpt>
      <trkpt lat="46.12576" lon="4.63421">
        <ele>286.15283</ele>
        <time>2022-11-06T13:44:34.000Z</time>
      </trkpt>
      <trkpt lat="46.1258" lon="4.63416">
        <ele>286.00677</ele>
        <time>2022-11-06T13:44:35.000Z</time>
      </trkpt>
      <trkpt lat="46.12584" lon="4.63411">
        <ele>285.86792</ele>
        <time>2022-11-06T13:44:36.000Z</time>
      </trkpt>
      <trkpt lat="46.12587" lon="4.63406">
        <ele>285.6889</ele>
        <time>2022-11-06T13:44:37.000Z</time>
      </trkpt>
      <trkpt lat="46.12591" lon="4.634">
        <ele>285.49557</ele>
        <time>2022-11-06T13:44:38.000Z</time>
      </trkpt>
      <trkpt lat="46.12594" lon="4.63395">
        <ele>285.30353</ele>
        <time>2022-11-06T13:44:39.000Z</time>
      </trkpt>
      <trkpt lat="46.12597" lon="4.63389">
        <ele>285.12686</ele>
        <time>2022-11-06T13:44:40.000Z</time>
      </trkpt>
      <trkpt lat="46.12601" lon="4.63383">
        <ele>284.96701</ele>
        <time>2022-11-06T13:44:41.000Z</time>
      </trkpt>
      <trkpt lat="46.12605" lon="4.63378">
        <ele>284.82074</ele>
        <time>2022-11-06T13:44:42.000Z</time>
      </trkpt>
      <trkpt lat="46.12608" lon="4.63373">
        <ele>284.70007</ele>
        <time>2022-11-06T13:44:43.000Z</time>
      </trkpt>
      <trkpt lat="46.12611" lon="4.63367">
        <ele>284.58188</ele>
        <time>2022-11-06T13:44:44.000Z</time>
      </trkpt>
      <trkpt lat="46.12614" lon="4.63361">
        <ele>284.6756</ele>
        <time>2022-11-06T13:44:45.000Z</time>
      </trkpt>
      <trkpt lat="46.12618" lon="4.63355">
        <ele>284.75281</ele>
        <time>2022-11-06T13:44:46.000Z</time>
      </trkpt>
      <trkpt lat="46.12622" lon="4.6335">
        <ele>284.84009</ele>
        <time>2022-11-06T13:44:47.000Z</time>
      </trkpt>
      <trkpt lat="46.12625" lon="4.63344">
        <ele>284.90814</ele>
        <time>2022-11-06T13:44:48.000Z</time>
      </trkpt>
      <trkpt lat="46.12628" lon="4.63338">
        <ele>285.15851</ele>
        <time>2022-11-06T13:44:49.000Z</time>
      </trkpt>
      <trkpt lat="46.12631" lon="4.63332">
        <ele>285.40424</ele>
        <time>2022-11-06T13:44:50.000Z</time>
      </trkpt>
      <trkpt lat="46.12635" lon="4.63327">
        <ele>285.66473</ele>
        <time>2022-11-06T13:44:51.000Z</time>
      </trkpt>
      <trkpt lat="46.12639" lon="4.63322">
        <ele>285.88239</ele>
        <time>2022-11-06T13:44:52.000Z</time>
      </trkpt>
      <trkpt lat="46.12642" lon="4.63317">
        <ele>286.03339</ele>
        <time>2022-11-06T13:44:53.000Z</time>
      </trkpt>
      <trkpt lat="46.12646" lon="4.63311">
        <ele>286.21564</ele>
        <time>2022-11-06T13:44:54.000Z</time>
      </trkpt>
      <trkpt lat="46.12649" lon="4.63305">
        <ele>286.40656</ele>
        <time>2022-11-06T13:44:55.000Z</time>
      </trkpt>
      <trkpt lat="46.12653" lon="4.633">
        <ele>286.59399</ele>
        <time>2022-11-06T13:44:56.000Z</time>
      </trkpt>
      <trkpt lat="46.12657" lon="4.63295">
        <ele>286.75735</ele>
        <time>2022-11-06T13:44:57.000Z</time>
      </trkpt>
      <trkpt lat="46.1266" lon="4.63289">
        <ele>286.94757</ele>
        <time>2022-11-06T13:44:58.000Z</time>
      </trkpt>
      <trkpt lat="46.12664" lon="4.63283">
        <ele>287.13519</ele>
        <time>2022-11-06T13:44:59.000Z</time>
      </trkpt>
      <trkpt lat="46.12667" lon="4.63277">
        <ele>287.28418</ele>
        <time>2022-11-06T13:45:00.000Z</time>
      </trkpt>
      <trkpt lat="46.12671" lon="4.63273">
        <ele>287.40848</ele>
        <time>2022-11-06T13:45:01.000Z</time>
      </trkpt>
      <trkpt lat="46.12675" lon="4.63266">
        <ele>287.53546</ele>
        <time>2022-11-06T13:45:02.000Z</time>
      </trkpt>
      <trkpt lat="46.12678" lon="4.63261">
        <ele>287.64325</ele>
        <time>2022-11-06T13:45:03.000Z</time>
      </trkpt>
      <trkpt lat="46.12682" lon="4.63254">
        <ele>287.79108</ele>
        <time>2022-11-06T13:45:04.000Z</time>
      </trkpt>
      <trkpt lat="46.12685" lon="4.63248">
        <ele>287.73611</ele>
        <time>2022-11-06T13:45:05.000Z</time>
      </trkpt>
      <trkpt lat="46.12689" lon="4.63242">
        <ele>287.68756</ele>
        <time>2022-11-06T13:45:06.000Z</time>
      </trkpt>
      <trkpt lat="46.12693" lon="4.63235">
        <ele>287.65021</ele>
        <time>2022-11-06T13:45:07.000Z</time>
      </trkpt>
      <trkpt lat="46.12696" lon="4.63231">
        <ele>287.6254</ele>
        <time>2022-11-06T13:45:08.000Z</time>
      </trkpt>
      <trkpt lat="46.12701" lon="4.63228">
        <ele>287.54742</ele>
        <time>2022-11-06T13:45:09.000Z</time>
      </trkpt>
      <trkpt lat="46.12705" lon="4.63221">
        <ele>287.47696</ele>
        <time>2022-11-06T13:45:10.000Z</time>
      </trkpt>
      <trkpt lat="46.12708" lon="4.63216">
        <ele>287.37939</ele>
        <time>2022-11-06T13:45:11.000Z</time>
      </trkpt>
      <trkpt lat="46.12711" lon="4.6321">
        <ele>287.19427</ele>
        <time>2022-11-06T13:45:12.000Z</time>
      </trkpt>
      <trkpt lat="46.12715" lon="4.63204">
        <ele>287.07022</ele>
        <time>2022-11-06T13:45:13.000Z</time>
      </trkpt>
      <trkpt lat="46.12719" lon="4.63198">
        <ele>286.94586</ele>
        <time>2022-11-06T13:45:14.000Z</time>
      </trkpt>
      <trkpt lat="46.12722" lon="4.63191">
        <ele>286.83725</ele>
        <time>2022-11-06T13:45:15.000Z</time>
      </trkpt>
      <trkpt lat="46.12725" lon="4.63185">
        <ele>286.74594</ele>
        <time>2022-11-06T13:45:16.000Z</time>
      </trkpt>
      <trkpt lat="46.12729" lon="4.63178">
        <ele>286.66794</ele>
        <time>2022-11-06T13:45:17.000Z</time>
      </trkpt>
      <trkpt lat="46.12733" lon="4.63174">
        <ele>286.58444</ele>
        <time>2022-11-06T13:45:18.000Z</time>
      </trkpt>
      <trkpt lat="46.12737" lon="4.63169">
        <ele>286.54669</ele>
        <time>2022-11-06T13:45:19.000Z</time>
      </trkpt>
      <trkpt lat="46.1274" lon="4.63165">
        <ele>286.48981</ele>
        <time>2022-11-06T13:45:20.000Z</time>
      </trkpt>
      <trkpt lat="46.12742" lon="4.63159">
        <ele>286.42136</ele>
        <time>2022-11-06T13:45:21.000Z</time>
      </trkpt>
      <trkpt lat="46.12746" lon="4.63154">
        <ele>286.32941</ele>
        <time>2022-11-06T13:45:22.000Z</time>
      </trkpt>
      <trkpt lat="46.1275" lon="4.63149">
        <ele>286.23529</ele>
        <time>2022-11-06T13:45:23.000Z</time>
      </trkpt>
      <trkpt lat="46.12754" lon="4.63144">
        <ele>286.03607</ele>
        <time>2022-11-06T13:45:24.000Z</time>
      </trkpt>
      <trkpt lat="46.12757" lon="4.63137">
        <ele>286.10065</ele>
        <time>2022-11-06T13:45:25.000Z</time>
      </trkpt>
      <trkpt lat="46.12761" lon="4.63129">
        <ele>286.15869</ele>
        <time>2022-11-06T13:45:26.000Z</time>
      </trkpt>
      <trkpt lat="46.12766" lon="4.63123">
        <ele>286.18591</ele>
        <time>2022-11-06T13:45:27.000Z</time>
      </trkpt>
      <trkpt lat="46.12768" lon="4.63119">
        <ele>286.14655</ele>
        <time>2022-11-06T13:45:28.000Z</time>
      </trkpt>
      <trkpt lat="46.12773" lon="4.63112">
        <ele>286.14536</ele>
        <time>2022-11-06T13:45:29.000Z</time>
      </trkpt>
      <trkpt lat="46.12777" lon="4.63107">
        <ele>286.14862</ele>
        <time>2022-11-06T13:45:30.000Z</time>
      </trkpt>
      <trkpt lat="46.1278" lon="4.63101">
        <ele>286.18936</ele>
        <time>2022-11-06T13:45:31.000Z</time>
      </trkpt>
      <trkpt lat="46.12784" lon="4.63094">
        <ele>286.34711</ele>
        <time>2022-11-06T13:45:32.000Z</time>
      </trkpt>
      <trkpt lat="46.12787" lon="4.63088">
        <ele>286.52112</ele>
        <time>2022-11-06T13:45:33.000Z</time>
      </trkpt>
      <trkpt lat="46.12791" lon="4.63083">
        <ele>286.6673</ele>
        <time>2022-11-06T13:45:34.000Z</time>
      </trkpt>
      <trkpt lat="46.12795" lon="4.63078">
        <ele>286.74448</ele>
        <time>2022-11-06T13:45:35.000Z</time>
      </trkpt>
      <trkpt lat="46.12799" lon="4.63073">
        <ele>286.70343</ele>
        <time>2022-11-06T13:45:36.000Z</time>
      </trkpt>
      <trkpt lat="46.12803" lon="4.63068">
        <ele>286.6911</ele>
        <time>2022-11-06T13:45:37.000Z</time>
      </trkpt>
      <trkpt lat="46.12806" lon="4.63061">
        <ele>286.68686</ele>
        <time>2022-11-06T13:45:38.000Z</time>
      </trkpt>
      <trkpt lat="46.12809" lon="4.63055">
        <ele>286.69656</ele>
        <time>2022-11-06T13:45:39.000Z</time>
      </trkpt>
      <trkpt lat="46.12813" lon="4.63049">
        <ele>286.74036</ele>
        <time>2022-11-06T13:45:40.000Z</time>
      </trkpt>
      <trkpt lat="46.12816" lon="4.63044">
        <ele>286.81784</ele>
        <time>2022-11-06T13:45:41.000Z</time>
      </trkpt>
      <trkpt lat="46.1282" lon="4.63039">
        <ele>286.92148</ele>
        <time>2022-11-06T13:45:42.000Z</time>
      </trkpt>
      <trkpt lat="46.12823" lon="4.63033">
        <ele>287.0307</ele>
        <time>2022-11-06T13:45:43.000Z</time>
      </trkpt>
      <trkpt lat="46.12826" lon="4.63028">
        <ele>287.19595</ele>
        <time>2022-11-06T13:45:44.000Z</time>
      </trkpt>
      <trkpt lat="46.12829" lon="4.63022">
        <ele>287.09747</ele>
        <time>2022-11-06T13:45:45.000Z</time>
      </trkpt>
      <trkpt lat="46.12832" lon="4.63016">
        <ele>287.00134</ele>
        <time>2022-11-06T13:45:46.000Z</time>
      </trkpt>
      <trkpt lat="46.12835" lon="4.63011">
        <ele>286.89813</ele>
        <time>2022-11-06T13:45:47.000Z</time>
      </trkpt>
      <trkpt lat="46.12839" lon="4.63004">
        <ele>286.85196</ele>
        <time>2022-11-06T13:45:48.000Z</time>
      </trkpt>
      <trkpt lat="46.12843" lon="4.62999">
        <ele>286.50616</ele>
        <time>2022-11-06T13:45:49.000Z</time>
      </trkpt>
      <trkpt lat="46.12846" lon="4.62993">
        <ele>286.04175</ele>
        <time>2022-11-06T13:45:50.000Z</time>
      </trkpt>
      <trkpt lat="46.12849" lon="4.62987">
        <ele>285.94122</ele>
        <time>2022-11-06T13:45:51.000Z</time>
      </trkpt>
      <trkpt lat="46.12853" lon="4.6298">
        <ele>285.78741</ele>
        <time>2022-11-06T13:45:52.000Z</time>
      </trkpt>
      <trkpt lat="46.12857" lon="4.62974">
        <ele>285.58337</ele>
        <time>2022-11-06T13:45:53.000Z</time>
      </trkpt>
      <trkpt lat="46.12861" lon="4.62968">
        <ele>285.21921</ele>
        <time>2022-11-06T13:45:54.000Z</time>
      </trkpt>
      <trkpt lat="46.12865" lon="4.62962">
        <ele>284.91174</ele>
        <time>2022-11-06T13:45:55.000Z</time>
      </trkpt>
      <trkpt lat="46.12868" lon="4.62956">
        <ele>284.57513</ele>
        <time>2022-11-06T13:45:56.000Z</time>
      </trkpt>
      <trkpt lat="46.12871" lon="4.6295">
        <ele>284.22147</ele>
        <time>2022-11-06T13:45:57.000Z</time>
      </trkpt>
      <trkpt lat="46.12874" lon="4.62945">
        <ele>283.85156</ele>
        <time>2022-11-06T13:45:58.000Z</time>
      </trkpt>
      <trkpt lat="46.12878" lon="4.62939">
        <ele>283.86908</ele>
        <time>2022-11-06T13:45:59.000Z</time>
      </trkpt>
      <trkpt lat="46.12881" lon="4.62934">
        <ele>283.81168</ele>
        <time>2022-11-06T13:46:00.000Z</time>
      </trkpt>
      <trkpt lat="46.12885" lon="4.62928">
        <ele>283.76004</ele>
        <time>2022-11-06T13:46:01.000Z</time>
      </trkpt>
      <trkpt lat="46.1289" lon="4.62921">
        <ele>283.715</ele>
        <time>2022-11-06T13:46:02.000Z</time>
      </trkpt>
      <trkpt lat="46.12893" lon="4.62915">
        <ele>283.6684</ele>
        <time>2022-11-06T13:46:03.000Z</time>
      </trkpt>
      <trkpt lat="46.12897" lon="4.62909">
        <ele>283.4364</ele>
        <time>2022-11-06T13:46:04.000Z</time>
      </trkpt>
      <trkpt lat="46.12901" lon="4.62903">
        <ele>283.19159</ele>
        <time>2022-11-06T13:46:05.000Z</time>
      </trkpt>
      <trkpt lat="46.12905" lon="4.62897">
        <ele>282.81644</ele>
        <time>2022-11-06T13:46:06.000Z</time>
      </trkpt>
      <trkpt lat="46.12909" lon="4.62891">
        <ele>282.46616</ele>
        <time>2022-11-06T13:46:07.000Z</time>
      </trkpt>
      <trkpt lat="46.12913" lon="4.62884">
        <ele>282.11835</ele>
        <time>2022-11-06T13:46:08.000Z</time>
      </trkpt>
      <trkpt lat="46.12917" lon="4.62879">
        <ele>283.06842</ele>
        <time>2022-11-06T13:46:09.000Z</time>
      </trkpt>
      <trkpt lat="46.12921" lon="4.62873">
        <ele>284.1257</ele>
        <time>2022-11-06T13:46:10.000Z</time>
      </trkpt>
      <trkpt lat="46.12926" lon="4.62868">
        <ele>284.78024</ele>
        <time>2022-11-06T13:46:11.000Z</time>
      </trkpt>
      <trkpt lat="46.1293" lon="4.62862">
        <ele>285.48795</ele>
        <time>2022-11-06T13:46:12.000Z</time>
      </trkpt>
      <trkpt lat="46.12933" lon="4.62856">
        <ele>286.22855</ele>
        <time>2022-11-06T13:46:13.000Z</time>
      </trkpt>
      <trkpt lat="46.12937" lon="4.6285">
        <ele>287.15869</ele>
        <time>2022-11-06T13:46:14.000Z</time>
      </trkpt>
      <trkpt lat="46.12941" lon="4.62844">
        <ele>288.04477</ele>
        <time>2022-11-06T13:46:15.000Z</time>
      </trkpt>
      <trkpt lat="46.12945" lon="4.62838">
        <ele>289.08682</ele>
        <time>2022-11-06T13:46:16.000Z</time>
      </trkpt>
      <trkpt lat="46.12949" lon="4.62831">
        <ele>289.7287</ele>
        <time>2022-11-06T13:46:17.000Z</time>
      </trkpt>
      <trkpt lat="46.12952" lon="4.62825">
        <ele>290.36948</ele>
        <time>2022-11-06T13:46:18.000Z</time>
      </trkpt>
      <trkpt lat="46.12956" lon="4.62821">
        <ele>290.52826</ele>
        <time>2022-11-06T13:46:19.000Z</time>
      </trkpt>
      <trkpt lat="46.1296" lon="4.62816">
        <ele>290.76593</ele>
        <time>2022-11-06T13:46:20.000Z</time>
      </trkpt>
      <trkpt lat="46.12964" lon="4.62811">
        <ele>290.94293</ele>
        <time>2022-11-06T13:46:21.000Z</time>
      </trkpt>
      <trkpt lat="46.12967" lon="4.62804">
        <ele>291.09573</ele>
        <time>2022-11-06T13:46:22.000Z</time>
      </trkpt>
      <trkpt lat="46.12971" lon="4.628">
        <ele>291.27417</ele>
        <time>2022-11-06T13:46:23.000Z</time>
      </trkpt>
      <trkpt lat="46.12975" lon="4.62794">
        <ele>291.66351</ele>
        <time>2022-11-06T13:46:24.000Z</time>
      </trkpt>
      <trkpt lat="46.12979" lon="4.62788">
        <ele>292.0657</ele>
        <time>2022-11-06T13:46:25.000Z</time>
      </trkpt>
      <trkpt lat="46.12981" lon="4.62782">
        <ele>292.59613</ele>
        <time>2022-11-06T13:46:26.000Z</time>
      </trkpt>
      <trkpt lat="46.12985" lon="4.62779">
        <ele>293.0636</ele>
        <time>2022-11-06T13:46:27.000Z</time>
      </trkpt>
      <trkpt lat="46.1299" lon="4.62773">
        <ele>293.52155</ele>
        <time>2022-11-06T13:46:28.000Z</time>
      </trkpt>
      <trkpt lat="46.12993" lon="4.62767">
        <ele>292.97992</ele>
        <time>2022-11-06T13:46:29.000Z</time>
      </trkpt>
      <trkpt lat="46.12997" lon="4.62761">
        <ele>292.47073</ele>
        <time>2022-11-06T13:46:30.000Z</time>
      </trkpt>
      <trkpt lat="46.13" lon="4.62756">
        <ele>291.96545</ele>
        <time>2022-11-06T13:46:31.000Z</time>
      </trkpt>
      <trkpt lat="46.13003" lon="4.6275">
        <ele>291.35175</ele>
        <time>2022-11-06T13:46:32.000Z</time>
      </trkpt>
      <trkpt lat="46.13006" lon="4.62744">
        <ele>290.7515</ele>
        <time>2022-11-06T13:46:33.000Z</time>
      </trkpt>
      <trkpt lat="46.1301" lon="4.62737">
        <ele>290.12625</ele>
        <time>2022-11-06T13:46:34.000Z</time>
      </trkpt>
      <trkpt lat="46.13014" lon="4.62731">
        <ele>289.53705</ele>
        <time>2022-11-06T13:46:35.000Z</time>
      </trkpt>
      <trkpt lat="46.13017" lon="4.62725">
        <ele>288.86029</ele>
        <time>2022-11-06T13:46:36.000Z</time>
      </trkpt>
      <trkpt lat="46.13019" lon="4.62719">
        <ele>288.83594</ele>
        <time>2022-11-06T13:46:37.000Z</time>
      </trkpt>
      <trkpt lat="46.13023" lon="4.62713">
        <ele>288.75787</ele>
        <time>2022-11-06T13:46:38.000Z</time>
      </trkpt>
      <trkpt lat="46.13025" lon="4.62707">
        <ele>288.64569</ele>
        <time>2022-11-06T13:46:39.000Z</time>
      </trkpt>
      <trkpt lat="46.13028" lon="4.627">
        <ele>288.50555</ele>
        <time>2022-11-06T13:46:40.000Z</time>
      </trkpt>
      <trkpt lat="46.13032" lon="4.62695">
        <ele>288.44501</ele>
        <time>2022-11-06T13:46:41.000Z</time>
      </trkpt>
      <trkpt lat="46.13034" lon="4.62691">
        <ele>288.31262</ele>
        <time>2022-11-06T13:46:42.000Z</time>
      </trkpt>
      <trkpt lat="46.13038" lon="4.62685">
        <ele>288.18674</ele>
        <time>2022-11-06T13:46:43.000Z</time>
      </trkpt>
      <trkpt lat="46.13041" lon="4.62679">
        <ele>288.08087</ele>
        <time>2022-11-06T13:46:44.000Z</time>
      </trkpt>
      <trkpt lat="46.13045" lon="4.62673">
        <ele>288.00726</ele>
        <time>2022-11-06T13:46:45.000Z</time>
      </trkpt>
      <trkpt lat="46.13049" lon="4.62668">
        <ele>287.97134</ele>
        <time>2022-11-06T13:46:46.000Z</time>
      </trkpt>
      <trkpt lat="46.13053" lon="4.62662">
        <ele>287.9838</ele>
        <time>2022-11-06T13:46:47.000Z</time>
      </trkpt>
      <trkpt lat="46.13057" lon="4.62656">
        <ele>288.00604</ele>
        <time>2022-11-06T13:46:48.000Z</time>
      </trkpt>
      <trkpt lat="46.13061" lon="4.6265">
        <ele>288.0163</ele>
        <time>2022-11-06T13:46:49.000Z</time>
      </trkpt>
      <trkpt lat="46.13065" lon="4.62646">
        <ele>288.01248</ele>
        <time>2022-11-06T13:46:50.000Z</time>
      </trkpt>
      <trkpt lat="46.13069" lon="4.62641">
        <ele>288.03229</ele>
        <time>2022-11-06T13:46:51.000Z</time>
      </trkpt>
      <trkpt lat="46.13073" lon="4.62634">
        <ele>288.18008</ele>
        <time>2022-11-06T13:46:52.000Z</time>
      </trkpt>
      <trkpt lat="46.13075" lon="4.62628">
        <ele>288.33035</ele>
        <time>2022-11-06T13:46:53.000Z</time>
      </trkpt>
      <trkpt lat="46.13078" lon="4.62622">
        <ele>288.47144</ele>
        <time>2022-11-06T13:46:54.000Z</time>
      </trkpt>
      <trkpt lat="46.13082" lon="4.62616">
        <ele>288.58609</ele>
        <time>2022-11-06T13:46:55.000Z</time>
      </trkpt>
      <trkpt lat="46.13085" lon="4.62611">
        <ele>288.7569</ele>
        <time>2022-11-06T13:46:56.000Z</time>
      </trkpt>
      <trkpt lat="46.13088" lon="4.62606">
        <ele>288.56268</ele>
        <time>2022-11-06T13:46:57.000Z</time>
      </trkpt>
      <trkpt lat="46.13092" lon="4.626">
        <ele>288.41614</ele>
        <time>2022-11-06T13:46:58.000Z</time>
      </trkpt>
      <trkpt lat="46.13096" lon="4.62597">
        <ele>288.34985</ele>
        <time>2022-11-06T13:46:59.000Z</time>
      </trkpt>
      <trkpt lat="46.13099" lon="4.62592">
        <ele>288.31177</ele>
        <time>2022-11-06T13:47:00.000Z</time>
      </trkpt>
      <trkpt lat="46.13102" lon="4.62587">
        <ele>288.21661</ele>
        <time>2022-11-06T13:47:01.000Z</time>
      </trkpt>
      <trkpt lat="46.13106" lon="4.62581">
        <ele>288.21136</ele>
        <time>2022-11-06T13:47:02.000Z</time>
      </trkpt>
      <trkpt lat="46.13109" lon="4.62576">
        <ele>288.18018</ele>
        <time>2022-11-06T13:47:03.000Z</time>
      </trkpt>
      <trkpt lat="46.13113" lon="4.62571">
        <ele>288.0596</ele>
        <time>2022-11-06T13:47:04.000Z</time>
      </trkpt>
      <trkpt lat="46.13116" lon="4.62567">
        <ele>287.91476</ele>
        <time>2022-11-06T13:47:05.000Z</time>
      </trkpt>
      <trkpt lat="46.13119" lon="4.62562">
        <ele>287.83719</ele>
        <time>2022-11-06T13:47:06.000Z</time>
      </trkpt>
      <trkpt lat="46.13122" lon="4.62558">
        <ele>287.73541</ele>
        <time>2022-11-06T13:47:07.000Z</time>
      </trkpt>
      <trkpt lat="46.13125" lon="4.62555">
        <ele>288.24277</ele>
        <time>2022-11-06T13:47:08.000Z</time>
      </trkpt>
      <trkpt lat="46.13128" lon="4.62552">
        <ele>288.76871</ele>
        <time>2022-11-06T13:47:09.000Z</time>
      </trkpt>
      <trkpt lat="46.1313" lon="4.6255">
        <ele>289.24976</ele>
        <time>2022-11-06T13:47:10.000Z</time>
      </trkpt>
      <trkpt lat="46.13132" lon="4.62547">
        <ele>289.72327</ele>
        <time>2022-11-06T13:47:11.000Z</time>
      </trkpt>
      <trkpt lat="46.13134" lon="4.62544">
        <ele>290.17987</ele>
        <time>2022-11-06T13:47:12.000Z</time>
      </trkpt>
      <trkpt lat="46.13136" lon="4.62541">
        <ele>290.60165</ele>
        <time>2022-11-06T13:47:13.000Z</time>
      </trkpt>
      <trkpt lat="46.13138" lon="4.62538">
        <ele>291.03253</ele>
        <time>2022-11-06T13:47:14.000Z</time>
      </trkpt>
      <trkpt lat="46.13139" lon="4.62535">
        <ele>291.50668</ele>
        <time>2022-11-06T13:47:15.000Z</time>
      </trkpt>
      <trkpt lat="46.13141" lon="4.62533">
        <ele>292.00845</ele>
        <time>2022-11-06T13:47:16.000Z</time>
      </trkpt>
      <trkpt lat="46.13144" lon="4.6253">
        <ele>292.62198</ele>
        <time>2022-11-06T13:47:17.000Z</time>
      </trkpt>
      <trkpt lat="46.13146" lon="4.62527">
        <ele>293.22031</ele>
        <time>2022-11-06T13:47:18.000Z</time>
      </trkpt>
      <trkpt lat="46.13148" lon="4.62524">
        <ele>293.81104</ele>
        <time>2022-11-06T13:47:19.000Z</time>
      </trkpt>
      <trkpt lat="46.13151" lon="4.6252">
        <ele>294.40344</ele>
        <time>2022-11-06T13:47:20.000Z</time>
      </trkpt>
      <trkpt lat="46.13154" lon="4.62517">
        <ele>295.01126</ele>
        <time>2022-11-06T13:47:21.000Z</time>
      </trkpt>
      <trkpt lat="46.13157" lon="4.62513">
        <ele>295.61038</ele>
        <time>2022-11-06T13:47:22.000Z</time>
      </trkpt>
      <trkpt lat="46.13159" lon="4.62509">
        <ele>296.22275</ele>
        <time>2022-11-06T13:47:23.000Z</time>
      </trkpt>
      <trkpt lat="46.13162" lon="4.62505">
        <ele>296.89749</ele>
        <time>2022-11-06T13:47:24.000Z</time>
      </trkpt>
      <trkpt lat="46.13165" lon="4.625">
        <ele>297.58093</ele>
        <time>2022-11-06T13:47:25.000Z</time>
      </trkpt>
      <trkpt lat="46.13168" lon="4.62496">
        <ele>298.15314</ele>
        <time>2022-11-06T13:47:26.000Z</time>
      </trkpt>
      <trkpt lat="46.13171" lon="4.62492">
        <ele>298.72864</ele>
        <time>2022-11-06T13:47:27.000Z</time>
      </trkpt>
      <trkpt lat="46.13174" lon="4.62487">
        <ele>298.73996</ele>
        <time>2022-11-06T13:47:28.000Z</time>
      </trkpt>
      <trkpt lat="46.13177" lon="4.62483">
        <ele>298.75232</ele>
        <time>2022-11-06T13:47:29.000Z</time>
      </trkpt>
      <trkpt lat="46.1318" lon="4.62478">
        <ele>298.77551</ele>
        <time>2022-11-06T13:47:30.000Z</time>
      </trkpt>
      <trkpt lat="46.13183" lon="4.62473">
        <ele>298.79022</ele>
        <time>2022-11-06T13:47:31.000Z</time>
      </trkpt>
      <trkpt lat="46.13187" lon="4.62469">
        <ele>298.82275</ele>
        <time>2022-11-06T13:47:32.000Z</time>
      </trkpt>
      <trkpt lat="46.1319" lon="4.62464">
        <ele>298.86536</ele>
        <time>2022-11-06T13:47:33.000Z</time>
      </trkpt>
      <trkpt lat="46.13193" lon="4.62459">
        <ele>298.93619</ele>
        <time>2022-11-06T13:47:34.000Z</time>
      </trkpt>
      <trkpt lat="46.13196" lon="4.62455">
        <ele>298.9903</ele>
        <time>2022-11-06T13:47:35.000Z</time>
      </trkpt>
      <trkpt lat="46.13199" lon="4.6245">
        <ele>299.02991</ele>
        <time>2022-11-06T13:47:36.000Z</time>
      </trkpt>
      <trkpt lat="46.13202" lon="4.62445">
        <ele>299.06268</ele>
        <time>2022-11-06T13:47:37.000Z</time>
      </trkpt>
      <trkpt lat="46.13206" lon="4.6244">
        <ele>299.11786</ele>
        <time>2022-11-06T13:47:38.000Z</time>
      </trkpt>
      <trkpt lat="46.13209" lon="4.62434">
        <ele>298.78232</ele>
        <time>2022-11-06T13:47:39.000Z</time>
      </trkpt>
      <trkpt lat="46.13213" lon="4.62428">
        <ele>298.43802</ele>
        <time>2022-11-06T13:47:40.000Z</time>
      </trkpt>
      <trkpt lat="46.13216" lon="4.62423">
        <ele>298.08868</ele>
        <time>2022-11-06T13:47:41.000Z</time>
      </trkpt>
      <trkpt lat="46.1322" lon="4.62418">
        <ele>297.74979</ele>
        <time>2022-11-06T13:47:42.000Z</time>
      </trkpt>
      <trkpt lat="46.13223" lon="4.62413">
        <ele>297.40161</ele>
        <time>2022-11-06T13:47:43.000Z</time>
      </trkpt>
      <trkpt lat="46.13226" lon="4.62408">
        <ele>297.05173</ele>
        <time>2022-11-06T13:47:44.000Z</time>
      </trkpt>
      <trkpt lat="46.13229" lon="4.62402">
        <ele>296.68634</ele>
        <time>2022-11-06T13:47:45.000Z</time>
      </trkpt>
      <trkpt lat="46.13233" lon="4.62397">
        <ele>296.32553</ele>
        <time>2022-11-06T13:47:46.000Z</time>
      </trkpt>
      <trkpt lat="46.13236" lon="4.62392">
        <ele>295.85358</ele>
        <time>2022-11-06T13:47:47.000Z</time>
      </trkpt>
      <trkpt lat="46.13239" lon="4.62388">
        <ele>295.31281</ele>
        <time>2022-11-06T13:47:48.000Z</time>
      </trkpt>
      <trkpt lat="46.13242" lon="4.62384">
        <ele>294.80167</ele>
        <time>2022-11-06T13:47:49.000Z</time>
      </trkpt>
      <trkpt lat="46.13245" lon="4.62379">
        <ele>294.34619</ele>
        <time>2022-11-06T13:47:50.000Z</time>
      </trkpt>
      <trkpt lat="46.13249" lon="4.62374">
        <ele>293.90405</ele>
        <time>2022-11-06T13:47:51.000Z</time>
      </trkpt>
      <trkpt lat="46.13252" lon="4.62368">
        <ele>293.44186</ele>
        <time>2022-11-06T13:47:52.000Z</time>
      </trkpt>
      <trkpt lat="46.13255" lon="4.62363">
        <ele>292.99127</ele>
        <time>2022-11-06T13:47:53.000Z</time>
      </trkpt>
      <trkpt lat="46.13258" lon="4.62358">
        <ele>292.53116</ele>
        <time>2022-11-06T13:47:54.000Z</time>
      </trkpt>
      <trkpt lat="46.13262" lon="4.62352">
        <ele>292.06287</ele>
        <time>2022-11-06T13:47:55.000Z</time>
      </trkpt>
      <trkpt lat="46.13265" lon="4.62347">
        <ele>291.5975</ele>
        <time>2022-11-06T13:47:56.000Z</time>
      </trkpt>
      <trkpt lat="46.13267" lon="4.62343">
        <ele>291.01181</ele>
        <time>2022-11-06T13:47:57.000Z</time>
      </trkpt>
      <trkpt lat="46.13271" lon="4.62339">
        <ele>290.41412</ele>
        <time>2022-11-06T13:47:58.000Z</time>
      </trkpt>
      <trkpt lat="46.13275" lon="4.62333">
        <ele>290.20959</ele>
        <time>2022-11-06T13:47:59.000Z</time>
      </trkpt>
      <trkpt lat="46.13278" lon="4.62329">
        <ele>290.00461</ele>
        <time>2022-11-06T13:48:00.000Z</time>
      </trkpt>
      <trkpt lat="46.13281" lon="4.62323">
        <ele>290.16705</ele>
        <time>2022-11-06T13:48:01.000Z</time>
      </trkpt>
      <trkpt lat="46.13285" lon="4.62319">
        <ele>290.29492</ele>
        <time>2022-11-06T13:48:02.000Z</time>
      </trkpt>
      <trkpt lat="46.13289" lon="4.62313">
        <ele>290.35852</ele>
        <time>2022-11-06T13:48:03.000Z</time>
      </trkpt>
      <trkpt lat="46.13293" lon="4.62308">
        <ele>290.34015</ele>
        <time>2022-11-06T13:48:04.000Z</time>
      </trkpt>
      <trkpt lat="46.13296" lon="4.62304">
        <ele>290.32889</ele>
        <time>2022-11-06T13:48:05.000Z</time>
      </trkpt>
      <trkpt lat="46.13299" lon="4.62299">
        <ele>290.18262</ele>
        <time>2022-11-06T13:48:06.000Z</time>
      </trkpt>
      <trkpt lat="46.13302" lon="4.62293">
        <ele>290.17719</ele>
        <time>2022-11-06T13:48:07.000Z</time>
      </trkpt>
      <trkpt lat="46.13307" lon="4.62287">
        <ele>290.21362</ele>
        <time>2022-11-06T13:48:08.000Z</time>
      </trkpt>
      <trkpt lat="46.13311" lon="4.62283">
        <ele>290.21979</ele>
        <time>2022-11-06T13:48:09.000Z</time>
      </trkpt>
      <trkpt lat="46.13315" lon="4.62277">
        <ele>290.20511</ele>
        <time>2022-11-06T13:48:10.000Z</time>
      </trkpt>
      <trkpt lat="46.13318" lon="4.62271">
        <ele>290.20544</ele>
        <time>2022-11-06T13:48:11.000Z</time>
      </trkpt>
      <trkpt lat="46.13323" lon="4.62266">
        <ele>290.09906</ele>
        <time>2022-11-06T13:48:12.000Z</time>
      </trkpt>
      <trkpt lat="46.13326" lon="4.6226">
        <ele>290.29535</ele>
        <time>2022-11-06T13:48:13.000Z</time>
      </trkpt>
      <trkpt lat="46.1333" lon="4.62255">
        <ele>290.40082</ele>
        <time>2022-11-06T13:48:14.000Z</time>
      </trkpt>
      <trkpt lat="46.13334" lon="4.62248">
        <ele>290.54318</ele>
        <time>2022-11-06T13:48:15.000Z</time>
      </trkpt>
      <trkpt lat="46.13338" lon="4.62242">
        <ele>290.65643</ele>
        <time>2022-11-06T13:48:16.000Z</time>
      </trkpt>
      <trkpt lat="46.13342" lon="4.62236">
        <ele>290.90421</ele>
        <time>2022-11-06T13:48:17.000Z</time>
      </trkpt>
      <trkpt lat="46.13345" lon="4.6223">
        <ele>291.14679</ele>
        <time>2022-11-06T13:48:18.000Z</time>
      </trkpt>
      <trkpt lat="46.13348" lon="4.62224">
        <ele>291.40216</ele>
        <time>2022-11-06T13:48:19.000Z</time>
      </trkpt>
      <trkpt lat="46.13352" lon="4.62219">
        <ele>291.60858</ele>
        <time>2022-11-06T13:48:20.000Z</time>
      </trkpt>
      <trkpt lat="46.13356" lon="4.62214">
        <ele>291.39972</ele>
        <time>2022-11-06T13:48:21.000Z</time>
      </trkpt>
      <trkpt lat="46.13361" lon="4.62208">
        <ele>291.24915</ele>
        <time>2022-11-06T13:48:22.000Z</time>
      </trkpt>
      <trkpt lat="46.13365" lon="4.62202">
        <ele>291.0401</ele>
        <time>2022-11-06T13:48:23.000Z</time>
      </trkpt>
      <trkpt lat="46.13369" lon="4.62196">
        <ele>290.88623</ele>
        <time>2022-11-06T13:48:24.000Z</time>
      </trkpt>
      <trkpt lat="46.13373" lon="4.6219">
        <ele>290.78131</ele>
        <time>2022-11-06T13:48:25.000Z</time>
      </trkpt>
      <trkpt lat="46.13377" lon="4.62186">
        <ele>290.83469</ele>
        <time>2022-11-06T13:48:26.000Z</time>
      </trkpt>
      <trkpt lat="46.13381" lon="4.6218">
        <ele>290.83188</ele>
        <time>2022-11-06T13:48:27.000Z</time>
      </trkpt>
      <trkpt lat="46.13385" lon="4.62174">
        <ele>290.85339</ele>
        <time>2022-11-06T13:48:28.000Z</time>
      </trkpt>
      <trkpt lat="46.13389" lon="4.62168">
        <ele>290.8674</ele>
        <time>2022-11-06T13:48:29.000Z</time>
      </trkpt>
      <trkpt lat="46.13394" lon="4.62161">
        <ele>290.78754</ele>
        <time>2022-11-06T13:48:30.000Z</time>
      </trkpt>
      <trkpt lat="46.13397" lon="4.62156">
        <ele>291.02313</ele>
        <time>2022-11-06T13:48:31.000Z</time>
      </trkpt>
      <trkpt lat="46.13401" lon="4.6215">
        <ele>291.26947</ele>
        <time>2022-11-06T13:48:32.000Z</time>
      </trkpt>
      <trkpt lat="46.13405" lon="4.62144">
        <ele>291.2052</ele>
        <time>2022-11-06T13:48:33.000Z</time>
      </trkpt>
      <trkpt lat="46.13408" lon="4.62137">
        <ele>291.21271</ele>
        <time>2022-11-06T13:48:34.000Z</time>
      </trkpt>
      <trkpt lat="46.13412" lon="4.62131">
        <ele>291.15683</ele>
        <time>2022-11-06T13:48:35.000Z</time>
      </trkpt>
      <trkpt lat="46.13416" lon="4.62125">
        <ele>291.16241</ele>
        <time>2022-11-06T13:48:36.000Z</time>
      </trkpt>
      <trkpt lat="46.1342" lon="4.62118">
        <ele>291.1066</ele>
        <time>2022-11-06T13:48:37.000Z</time>
      </trkpt>
      <trkpt lat="46.13424" lon="4.62112">
        <ele>291.10059</ele>
        <time>2022-11-06T13:48:38.000Z</time>
      </trkpt>
      <trkpt lat="46.13429" lon="4.62105">
        <ele>291.05096</ele>
        <time>2022-11-06T13:48:39.000Z</time>
      </trkpt>
      <trkpt lat="46.13432" lon="4.62099">
        <ele>291.06134</ele>
        <time>2022-11-06T13:48:40.000Z</time>
      </trkpt>
      <trkpt lat="46.13436" lon="4.62093">
        <ele>291.19122</ele>
        <time>2022-11-06T13:48:41.000Z</time>
      </trkpt>
      <trkpt lat="46.1344" lon="4.62087">
        <ele>291.28812</ele>
        <time>2022-11-06T13:48:42.000Z</time>
      </trkpt>
      <trkpt lat="46.13444" lon="4.62082">
        <ele>291.50421</ele>
        <time>2022-11-06T13:48:43.000Z</time>
      </trkpt>
      <trkpt lat="46.13449" lon="4.62077">
        <ele>291.74652</ele>
        <time>2022-11-06T13:48:44.000Z</time>
      </trkpt>
      <trkpt lat="46.13452" lon="4.62071">
        <ele>291.94363</ele>
        <time>2022-11-06T13:48:45.000Z</time>
      </trkpt>
      <trkpt lat="46.13456" lon="4.62064">
        <ele>292.13794</ele>
        <time>2022-11-06T13:48:46.000Z</time>
      </trkpt>
      <trkpt lat="46.1346" lon="4.6206">
        <ele>292.36285</ele>
        <time>2022-11-06T13:48:47.000Z</time>
      </trkpt>
      <trkpt lat="46.13463" lon="4.62054">
        <ele>292.56793</ele>
        <time>2022-11-06T13:48:48.000Z</time>
      </trkpt>
      <trkpt lat="46.13467" lon="4.62049">
        <ele>292.81012</ele>
        <time>2022-11-06T13:48:49.000Z</time>
      </trkpt>
      <trkpt lat="46.1347" lon="4.62044">
        <ele>293.13614</ele>
        <time>2022-11-06T13:48:50.000Z</time>
      </trkpt>
      <trkpt lat="46.13474" lon="4.62039">
        <ele>293.12146</ele>
        <time>2022-11-06T13:48:51.000Z</time>
      </trkpt>
      <trkpt lat="46.13477" lon="4.62033">
        <ele>293.20587</ele>
        <time>2022-11-06T13:48:52.000Z</time>
      </trkpt>
      <trkpt lat="46.13481" lon="4.62027">
        <ele>293.29755</ele>
        <time>2022-11-06T13:48:53.000Z</time>
      </trkpt>
      <trkpt lat="46.13485" lon="4.62022">
        <ele>293.39902</ele>
        <time>2022-11-06T13:48:54.000Z</time>
      </trkpt>
      <trkpt lat="46.13489" lon="4.62017">
        <ele>293.53992</ele>
        <time>2022-11-06T13:48:55.000Z</time>
      </trkpt>
      <trkpt lat="46.13492" lon="4.62012">
        <ele>293.65527</ele>
        <time>2022-11-06T13:48:56.000Z</time>
      </trkpt>
      <trkpt lat="46.13496" lon="4.62006">
        <ele>293.83069</ele>
        <time>2022-11-06T13:48:57.000Z</time>
      </trkpt>
      <trkpt lat="46.135" lon="4.62002">
        <ele>293.95782</ele>
        <time>2022-11-06T13:48:58.000Z</time>
      </trkpt>
      <trkpt lat="46.13504" lon="4.61997">
        <ele>294.10724</ele>
        <time>2022-11-06T13:48:59.000Z</time>
      </trkpt>
      <trkpt lat="46.13508" lon="4.61992">
        <ele>294.2818</ele>
        <time>2022-11-06T13:49:00.000Z</time>
      </trkpt>
      <trkpt lat="46.13512" lon="4.61986">
        <ele>294.38568</ele>
        <time>2022-11-06T13:49:01.000Z</time>
      </trkpt>
      <trkpt lat="46.13516" lon="4.6198">
        <ele>294.4931</ele>
        <time>2022-11-06T13:49:02.000Z</time>
      </trkpt>
      <trkpt lat="46.1352" lon="4.61974">
        <ele>294.5889</ele>
        <time>2022-11-06T13:49:03.000Z</time>
      </trkpt>
      <trkpt lat="46.13524" lon="4.61968">
        <ele>294.67841</ele>
        <time>2022-11-06T13:49:04.000Z</time>
      </trkpt>
      <trkpt lat="46.13528" lon="4.61962">
        <ele>294.75922</ele>
        <time>2022-11-06T13:49:05.000Z</time>
      </trkpt>
      <trkpt lat="46.13532" lon="4.61956">
        <ele>294.82327</ele>
        <time>2022-11-06T13:49:06.000Z</time>
      </trkpt>
      <trkpt lat="46.13536" lon="4.6195">
        <ele>294.89151</ele>
        <time>2022-11-06T13:49:07.000Z</time>
      </trkpt>
      <trkpt lat="46.1354" lon="4.61945">
        <ele>294.94501</ele>
        <time>2022-11-06T13:49:08.000Z</time>
      </trkpt>
      <trkpt lat="46.13543" lon="4.61939">
        <ele>294.96545</ele>
        <time>2022-11-06T13:49:09.000Z</time>
      </trkpt>
      <trkpt lat="46.13547" lon="4.61932">
        <ele>294.98965</ele>
        <time>2022-11-06T13:49:10.000Z</time>
      </trkpt>
      <trkpt lat="46.13551" lon="4.61926">
        <ele>295.01282</ele>
        <time>2022-11-06T13:49:11.000Z</time>
      </trkpt>
      <trkpt lat="46.13555" lon="4.6192">
        <ele>295.04361</ele>
        <time>2022-11-06T13:49:12.000Z</time>
      </trkpt>
      <trkpt lat="46.13559" lon="4.61915">
        <ele>295.06747</ele>
        <time>2022-11-06T13:49:13.000Z</time>
      </trkpt>
      <trkpt lat="46.13563" lon="4.61908">
        <ele>295.08496</ele>
        <time>2022-11-06T13:49:14.000Z</time>
      </trkpt>
      <trkpt lat="46.13567" lon="4.61903">
        <ele>295.10101</ele>
        <time>2022-11-06T13:49:15.000Z</time>
      </trkpt>
      <trkpt lat="46.1357" lon="4.61898">
        <ele>295.13101</ele>
        <time>2022-11-06T13:49:16.000Z</time>
      </trkpt>
      <trkpt lat="46.13574" lon="4.61892">
        <ele>295.15472</ele>
        <time>2022-11-06T13:49:17.000Z</time>
      </trkpt>
      <trkpt lat="46.13577" lon="4.61888">
        <ele>295.20724</ele>
        <time>2022-11-06T13:49:18.000Z</time>
      </trkpt>
      <trkpt lat="46.13581" lon="4.61882">
        <ele>295.26236</ele>
        <time>2022-11-06T13:49:19.000Z</time>
      </trkpt>
      <trkpt lat="46.13583" lon="4.61876">
        <ele>295.26801</ele>
        <time>2022-11-06T13:49:20.000Z</time>
      </trkpt>
      <trkpt lat="46.13586" lon="4.61871">
        <ele>295.29706</ele>
        <time>2022-11-06T13:49:21.000Z</time>
      </trkpt>
      <trkpt lat="46.13589" lon="4.61865">
        <ele>295.33371</ele>
        <time>2022-11-06T13:49:22.000Z</time>
      </trkpt>
      <trkpt lat="46.13592" lon="4.61861">
        <ele>295.37863</ele>
        <time>2022-11-06T13:49:23.000Z</time>
      </trkpt>
      <trkpt lat="46.13596" lon="4.61855">
        <ele>295.4303</ele>
        <time>2022-11-06T13:49:24.000Z</time>
      </trkpt>
      <trkpt lat="46.136" lon="4.61849">
        <ele>295.31561</ele>
        <time>2022-11-06T13:49:25.000Z</time>
      </trkpt>
      <trkpt lat="46.13604" lon="4.61843">
        <ele>295.20499</ele>
        <time>2022-11-06T13:49:26.000Z</time>
      </trkpt>
      <trkpt lat="46.13609" lon="4.61838">
        <ele>295.1076</ele>
        <time>2022-11-06T13:49:27.000Z</time>
      </trkpt>
      <trkpt lat="46.13613" lon="4.61832">
        <ele>295.0069</ele>
        <time>2022-11-06T13:49:28.000Z</time>
      </trkpt>
      <trkpt lat="46.13617" lon="4.61826">
        <ele>295.45508</ele>
        <time>2022-11-06T13:49:29.000Z</time>
      </trkpt>
      <trkpt lat="46.13621" lon="4.6182">
        <ele>295.90677</ele>
        <time>2022-11-06T13:49:30.000Z</time>
      </trkpt>
      <trkpt lat="46.13625" lon="4.61815">
        <ele>296.36713</ele>
        <time>2022-11-06T13:49:31.000Z</time>
      </trkpt>
      <trkpt lat="46.13629" lon="4.61809">
        <ele>296.89716</ele>
        <time>2022-11-06T13:49:32.000Z</time>
      </trkpt>
      <trkpt lat="46.13633" lon="4.61804">
        <ele>297.41266</ele>
        <time>2022-11-06T13:49:33.000Z</time>
      </trkpt>
      <trkpt lat="46.13637" lon="4.61799">
        <ele>297.94855</ele>
        <time>2022-11-06T13:49:34.000Z</time>
      </trkpt>
      <trkpt lat="46.1364" lon="4.61794">
        <ele>298.46561</ele>
        <time>2022-11-06T13:49:35.000Z</time>
      </trkpt>
      <trkpt lat="46.13644" lon="4.6179">
        <ele>298.944</ele>
        <time>2022-11-06T13:49:36.000Z</time>
      </trkpt>
      <trkpt lat="46.13648" lon="4.61785">
        <ele>299.42999</ele>
        <time>2022-11-06T13:49:37.000Z</time>
      </trkpt>
      <trkpt lat="46.13651" lon="4.61779">
        <ele>299.89465</ele>
        <time>2022-11-06T13:49:38.000Z</time>
      </trkpt>
      <trkpt lat="46.13655" lon="4.61773">
        <ele>300.38626</ele>
        <time>2022-11-06T13:49:39.000Z</time>
      </trkpt>
      <trkpt lat="46.13659" lon="4.61767">
        <ele>300.89517</ele>
        <time>2022-11-06T13:49:40.000Z</time>
      </trkpt>
      <trkpt lat="46.13663" lon="4.61761">
        <ele>301.38135</ele>
        <time>2022-11-06T13:49:41.000Z</time>
      </trkpt>
      <trkpt lat="46.13666" lon="4.61756">
        <ele>301.87164</ele>
        <time>2022-11-06T13:49:42.000Z</time>
      </trkpt>
      <trkpt lat="46.1367" lon="4.61751">
        <ele>302.35345</ele>
        <time>2022-11-06T13:49:43.000Z</time>
      </trkpt>
      <trkpt lat="46.13673" lon="4.61745">
        <ele>302.84927</ele>
        <time>2022-11-06T13:49:44.000Z</time>
      </trkpt>
      <trkpt lat="46.13676" lon="4.6174">
        <ele>303.50473</ele>
        <time>2022-11-06T13:49:45.000Z</time>
      </trkpt>
      <trkpt lat="46.1368" lon="4.61735">
        <ele>304.15979</ele>
        <time>2022-11-06T13:49:46.000Z</time>
      </trkpt>
      <trkpt lat="46.13683" lon="4.6173">
        <ele>304.81909</ele>
        <time>2022-11-06T13:49:47.000Z</time>
      </trkpt>
      <trkpt lat="46.13687" lon="4.61725">
        <ele>305.47</ele>
        <time>2022-11-06T13:49:48.000Z</time>
      </trkpt>
      <trkpt lat="46.13691" lon="4.6172">
        <ele>305.58438</ele>
        <time>2022-11-06T13:49:49.000Z</time>
      </trkpt>
      <trkpt lat="46.13694" lon="4.61714">
        <ele>305.69031</ele>
        <time>2022-11-06T13:49:50.000Z</time>
      </trkpt>
      <trkpt lat="46.13697" lon="4.6171">
        <ele>305.78</ele>
        <time>2022-11-06T13:49:51.000Z</time>
      </trkpt>
      <trkpt lat="46.137" lon="4.61705">
        <ele>305.78394</ele>
        <time>2022-11-06T13:49:52.000Z</time>
      </trkpt>
      <trkpt lat="46.13704" lon="4.617">
        <ele>305.81332</ele>
        <time>2022-11-06T13:49:53.000Z</time>
      </trkpt>
      <trkpt lat="46.13708" lon="4.61695">
        <ele>305.8255</ele>
        <time>2022-11-06T13:49:54.000Z</time>
      </trkpt>
      <trkpt lat="46.13711" lon="4.6169">
        <ele>305.87646</ele>
        <time>2022-11-06T13:49:55.000Z</time>
      </trkpt>
      <trkpt lat="46.13714" lon="4.61684">
        <ele>305.94101</ele>
        <time>2022-11-06T13:49:56.000Z</time>
      </trkpt>
      <trkpt lat="46.13719" lon="4.61679">
        <ele>305.98206</ele>
        <time>2022-11-06T13:49:57.000Z</time>
      </trkpt>
      <trkpt lat="46.13724" lon="4.61673">
        <ele>306.01395</ele>
        <time>2022-11-06T13:49:58.000Z</time>
      </trkpt>
      <trkpt lat="46.13727" lon="4.61668">
        <ele>306.056</ele>
        <time>2022-11-06T13:49:59.000Z</time>
      </trkpt>
      <trkpt lat="46.13731" lon="4.61662">
        <ele>306.09055</ele>
        <time>2022-11-06T13:50:00.000Z</time>
      </trkpt>
      <trkpt lat="46.13734" lon="4.61657">
        <ele>306.13214</ele>
        <time>2022-11-06T13:50:01.000Z</time>
      </trkpt>
      <trkpt lat="46.13737" lon="4.61652">
        <ele>306.15912</ele>
        <time>2022-11-06T13:50:02.000Z</time>
      </trkpt>
      <trkpt lat="46.13741" lon="4.61646">
        <ele>306.19629</ele>
        <time>2022-11-06T13:50:03.000Z</time>
      </trkpt>
      <trkpt lat="46.13744" lon="4.61639">
        <ele>306.22498</ele>
        <time>2022-11-06T13:50:04.000Z</time>
      </trkpt>
      <trkpt lat="46.13747" lon="4.61634">
        <ele>306.26031</ele>
        <time>2022-11-06T13:50:05.000Z</time>
      </trkpt>
      <trkpt lat="46.13749" lon="4.6163">
        <ele>306.28891</ele>
        <time>2022-11-06T13:50:06.000Z</time>
      </trkpt>
      <trkpt lat="46.13754" lon="4.61624">
        <ele>306.33093</ele>
        <time>2022-11-06T13:50:07.000Z</time>
      </trkpt>
      <trkpt lat="46.13758" lon="4.61619">
        <ele>306.36569</ele>
        <time>2022-11-06T13:50:08.000Z</time>
      </trkpt>
      <trkpt lat="46.13762" lon="4.61613">
        <ele>306.35785</ele>
        <time>2022-11-06T13:50:09.000Z</time>
      </trkpt>
      <trkpt lat="46.13765" lon="4.61609">
        <ele>306.29428</ele>
        <time>2022-11-06T13:50:10.000Z</time>
      </trkpt>
      <trkpt lat="46.13768" lon="4.61603">
        <ele>306.25543</ele>
        <time>2022-11-06T13:50:11.000Z</time>
      </trkpt>
      <trkpt lat="46.13772" lon="4.61597">
        <ele>306.2558</ele>
        <time>2022-11-06T13:50:12.000Z</time>
      </trkpt>
      <trkpt lat="46.13776" lon="4.61591">
        <ele>306.25195</ele>
        <time>2022-11-06T13:50:13.000Z</time>
      </trkpt>
      <trkpt lat="46.1378" lon="4.61588">
        <ele>306.23404</ele>
        <time>2022-11-06T13:50:14.000Z</time>
      </trkpt>
      <trkpt lat="46.13784" lon="4.61582">
        <ele>306.15552</ele>
        <time>2022-11-06T13:50:15.000Z</time>
      </trkpt>
      <trkpt lat="46.13787" lon="4.61577">
        <ele>306.08365</ele>
        <time>2022-11-06T13:50:16.000Z</time>
      </trkpt>
      <trkpt lat="46.13789" lon="4.61573">
        <ele>305.99622</ele>
        <time>2022-11-06T13:50:17.000Z</time>
      </trkpt>
      <trkpt lat="46.13791" lon="4.61569">
        <ele>306.022</ele>
        <time>2022-11-06T13:50:18.000Z</time>
      </trkpt>
      <trkpt lat="46.13794" lon="4.61564">
        <ele>306.02884</ele>
        <time>2022-11-06T13:50:19.000Z</time>
      </trkpt>
      <trkpt lat="46.13797" lon="4.61561">
        <ele>306.06635</ele>
        <time>2022-11-06T13:50:20.000Z</time>
      </trkpt>
      <trkpt lat="46.13799" lon="4.61554">
        <ele>306.10995</ele>
        <time>2022-11-06T13:50:21.000Z</time>
      </trkpt>
      <trkpt lat="46.13802" lon="4.61549">
        <ele>306.22784</ele>
        <time>2022-11-06T13:50:22.000Z</time>
      </trkpt>
      <trkpt lat="46.13805" lon="4.61545">
        <ele>306.35269</ele>
        <time>2022-11-06T13:50:23.000Z</time>
      </trkpt>
      <trkpt lat="46.13808" lon="4.6154">
        <ele>306.48413</ele>
        <time>2022-11-06T13:50:24.000Z</time>
      </trkpt>
      <trkpt lat="46.13811" lon="4.61534">
        <ele>306.63467</ele>
        <time>2022-11-06T13:50:25.000Z</time>
      </trkpt>
      <trkpt lat="46.13814" lon="4.61529">
        <ele>306.78748</ele>
        <time>2022-11-06T13:50:26.000Z</time>
      </trkpt>
      <trkpt lat="46.13817" lon="4.61525">
        <ele>306.86472</ele>
        <time>2022-11-06T13:50:27.000Z</time>
      </trkpt>
      <trkpt lat="46.13819" lon="4.6152">
        <ele>306.94257</ele>
        <time>2022-11-06T13:50:28.000Z</time>
      </trkpt>
      <trkpt lat="46.13822" lon="4.61516">
        <ele>307.03613</ele>
        <time>2022-11-06T13:50:29.000Z</time>
      </trkpt>
      <trkpt lat="46.13825" lon="4.61512">
        <ele>307.16449</ele>
        <time>2022-11-06T13:50:30.000Z</time>
      </trkpt>
      <trkpt lat="46.13827" lon="4.61507">
        <ele>307.27936</ele>
        <time>2022-11-06T13:50:31.000Z</time>
      </trkpt>
      <trkpt lat="46.1383" lon="4.61503">
        <ele>307.35281</ele>
        <time>2022-11-06T13:50:32.000Z</time>
      </trkpt>
      <trkpt lat="46.13832" lon="4.61499">
        <ele>307.44614</ele>
        <time>2022-11-06T13:50:33.000Z</time>
      </trkpt>
      <trkpt lat="46.13834" lon="4.61494">
        <ele>307.55548</ele>
        <time>2022-11-06T13:50:34.000Z</time>
      </trkpt>
      <trkpt lat="46.13837" lon="4.6149">
        <ele>307.68597</ele>
        <time>2022-11-06T13:50:35.000Z</time>
      </trkpt>
      <trkpt lat="46.13839" lon="4.61486">
        <ele>307.79575</ele>
        <time>2022-11-06T13:50:36.000Z</time>
      </trkpt>
      <trkpt lat="46.13842" lon="4.61482">
        <ele>307.93823</ele>
        <time>2022-11-06T13:50:37.000Z</time>
      </trkpt>
      <trkpt lat="46.13844" lon="4.61478">
        <ele>307.97672</ele>
        <time>2022-11-06T13:50:38.000Z</time>
      </trkpt>
      <trkpt lat="46.13846" lon="4.61474">
        <ele>308.01886</ele>
        <time>2022-11-06T13:50:39.000Z</time>
      </trkpt>
      <trkpt lat="46.13849" lon="4.6147">
        <ele>308.07269</ele>
        <time>2022-11-06T13:50:40.000Z</time>
      </trkpt>
      <trkpt lat="46.13851" lon="4.61467">
        <ele>308.11237</ele>
        <time>2022-11-06T13:50:41.000Z</time>
      </trkpt>
      <trkpt lat="46.13853" lon="4.61463">
        <ele>308.07098</ele>
        <time>2022-11-06T13:50:42.000Z</time>
      </trkpt>
      <trkpt lat="46.13854" lon="4.6146">
        <ele>307.9805</ele>
        <time>2022-11-06T13:50:43.000Z</time>
      </trkpt>
      <trkpt lat="46.13856" lon="4.61456">
        <ele>307.86563</ele>
        <time>2022-11-06T13:50:44.000Z</time>
      </trkpt>
      <trkpt lat="46.13858" lon="4.61453">
        <ele>307.84485</ele>
        <time>2022-11-06T13:50:45.000Z</time>
      </trkpt>
      <trkpt lat="46.1386" lon="4.61449">
        <ele>307.81458</ele>
        <time>2022-11-06T13:50:46.000Z</time>
      </trkpt>
      <trkpt lat="46.13862" lon="4.61445">
        <ele>307.84857</ele>
        <time>2022-11-06T13:50:47.000Z</time>
      </trkpt>
      <trkpt lat="46.13864" lon="4.61442">
        <ele>307.90839</ele>
        <time>2022-11-06T13:50:48.000Z</time>
      </trkpt>
      <trkpt lat="46.13866" lon="4.61438">
        <ele>307.99649</ele>
        <time>2022-11-06T13:50:49.000Z</time>
      </trkpt>
      <trkpt lat="46.13867" lon="4.61434">
        <ele>308.1106</ele>
        <time>2022-11-06T13:50:50.000Z</time>
      </trkpt>
      <trkpt lat="46.13869" lon="4.61431">
        <ele>308.22659</ele>
        <time>2022-11-06T13:50:51.000Z</time>
      </trkpt>
      <trkpt lat="46.13871" lon="4.61427">
        <ele>308.35748</ele>
        <time>2022-11-06T13:50:52.000Z</time>
      </trkpt>
      <trkpt lat="46.13872" lon="4.61424">
        <ele>308.41205</ele>
        <time>2022-11-06T13:50:53.000Z</time>
      </trkpt>
      <trkpt lat="46.13874" lon="4.61421">
        <ele>308.4895</ele>
        <time>2022-11-06T13:50:54.000Z</time>
      </trkpt>
      <trkpt lat="46.13875" lon="4.61417">
        <ele>308.59018</ele>
        <time>2022-11-06T13:50:55.000Z</time>
      </trkpt>
      <trkpt lat="46.13876" lon="4.61414">
        <ele>308.68375</ele>
        <time>2022-11-06T13:50:56.000Z</time>
      </trkpt>
      <trkpt lat="46.13877" lon="4.61411">
        <ele>308.79233</ele>
        <time>2022-11-06T13:50:57.000Z</time>
      </trkpt>
      <trkpt lat="46.13878" lon="4.61408">
        <ele>308.89236</ele>
        <time>2022-11-06T13:50:58.000Z</time>
      </trkpt>
      <trkpt lat="46.1388" lon="4.61405">
        <ele>308.99268</ele>
        <time>2022-11-06T13:50:59.000Z</time>
      </trkpt>
      <trkpt lat="46.13881" lon="4.61403">
        <ele>308.633</ele>
        <time>2022-11-06T13:51:00.000Z</time>
      </trkpt>
      <trkpt lat="46.13883" lon="4.61401">
        <ele>308.2952</ele>
        <time>2022-11-06T13:51:01.000Z</time>
      </trkpt>
      <trkpt lat="46.13885" lon="4.61398">
        <ele>307.95935</ele>
        <time>2022-11-06T13:51:02.000Z</time>
      </trkpt>
      <trkpt lat="46.13886" lon="4.61396">
        <ele>307.67401</ele>
        <time>2022-11-06T13:51:03.000Z</time>
      </trkpt>
      <trkpt lat="46.13887" lon="4.61393">
        <ele>307.40778</ele>
        <time>2022-11-06T13:51:04.000Z</time>
      </trkpt>
      <trkpt lat="46.13888" lon="4.61391">
        <ele>307.0174</ele>
        <time>2022-11-06T13:51:05.000Z</time>
      </trkpt>
      <trkpt lat="46.13889" lon="4.61388">
        <ele>306.64273</ele>
        <time>2022-11-06T13:51:06.000Z</time>
      </trkpt>
      <trkpt lat="46.13891" lon="4.61386">
        <ele>306.2562</ele>
        <time>2022-11-06T13:51:07.000Z</time>
      </trkpt>
      <trkpt lat="46.13892" lon="4.61383">
        <ele>305.87335</ele>
        <time>2022-11-06T13:51:09.000Z</time>
      </trkpt>
      <trkpt lat="46.13893" lon="4.6138">
        <ele>305.47195</ele>
        <time>2022-11-06T13:52:06.000Z</time>
      </trkpt>
      <trkpt lat="46.13894" lon="4.61377">
        <ele>305.08215</ele>
        <time>2022-11-06T13:52:08.000Z</time>
      </trkpt>
      <trkpt lat="46.13895" lon="4.61372">
        <ele>304.66</ele>
        <time>2022-11-06T13:52:10.000Z</time>
      </trkpt>
      <trkpt lat="46.13896" lon="4.6137">
        <ele>304.25104</ele>
        <time>2022-11-06T13:52:11.000Z</time>
      </trkpt>
      <trkpt lat="46.13899" lon="4.61366">
        <ele>303.89838</ele>
        <time>2022-11-06T13:52:13.000Z</time>
      </trkpt>
      <trkpt lat="46.139" lon="4.61364">
        <ele>303.53394</ele>
        <time>2022-11-06T13:52:14.000Z</time>
      </trkpt>
      <trkpt lat="46.13901" lon="4.61361">
        <ele>303.16684</ele>
        <time>2022-11-06T13:52:15.000Z</time>
      </trkpt>
      <trkpt lat="46.13903" lon="4.61358">
        <ele>303.24985</ele>
        <time>2022-11-06T13:52:16.000Z</time>
      </trkpt>
      <trkpt lat="46.13905" lon="4.61354">
        <ele>303.29633</ele>
        <time>2022-11-06T13:52:17.000Z</time>
      </trkpt>
      <trkpt lat="46.13906" lon="4.6135">
        <ele>303.36908</ele>
        <time>2022-11-06T13:52:18.000Z</time>
      </trkpt>
      <trkpt lat="46.13907" lon="4.61346">
        <ele>303.44122</ele>
        <time>2022-11-06T13:52:19.000Z</time>
      </trkpt>
      <trkpt lat="46.13909" lon="4.61343">
        <ele>303.93964</ele>
        <time>2022-11-06T13:52:20.000Z</time>
      </trkpt>
      <trkpt lat="46.1391" lon="4.61339">
        <ele>304.40753</ele>
        <time>2022-11-06T13:52:21.000Z</time>
      </trkpt>
      <trkpt lat="46.13911" lon="4.61334">
        <ele>304.82587</ele>
        <time>2022-11-06T13:52:22.000Z</time>
      </trkpt>
      <trkpt lat="46.13913" lon="4.6133">
        <ele>305.24585</ele>
        <time>2022-11-06T13:52:23.000Z</time>
      </trkpt>
      <trkpt lat="46.13915" lon="4.61326">
        <ele>305.65753</ele>
        <time>2022-11-06T13:52:24.000Z</time>
      </trkpt>
      <trkpt lat="46.13917" lon="4.61321">
        <ele>306.11581</ele>
        <time>2022-11-06T13:52:25.000Z</time>
      </trkpt>
      <trkpt lat="46.1392" lon="4.61317">
        <ele>306.59247</ele>
        <time>2022-11-06T13:52:26.000Z</time>
      </trkpt>
      <trkpt lat="46.13922" lon="4.61312">
        <ele>307.07104</ele>
        <time>2022-11-06T13:52:27.000Z</time>
      </trkpt>
      <trkpt lat="46.13924" lon="4.61308">
        <ele>307.56177</ele>
        <time>2022-11-06T13:52:28.000Z</time>
      </trkpt>
      <trkpt lat="46.13927" lon="4.61304">
        <ele>308.08707</ele>
        <time>2022-11-06T13:52:29.000Z</time>
      </trkpt>
      <trkpt lat="46.13929" lon="4.613">
        <ele>308.59616</ele>
        <time>2022-11-06T13:52:30.000Z</time>
      </trkpt>
      <trkpt lat="46.13931" lon="4.61296">
        <ele>309.15002</ele>
        <time>2022-11-06T13:52:31.000Z</time>
      </trkpt>
      <trkpt lat="46.13933" lon="4.61292">
        <ele>309.66837</ele>
        <time>2022-11-06T13:52:32.000Z</time>
      </trkpt>
      <trkpt lat="46.13935" lon="4.61288">
        <ele>310.20013</ele>
        <time>2022-11-06T13:52:33.000Z</time>
      </trkpt>
      <trkpt lat="46.13937" lon="4.61283">
        <ele>310.70966</ele>
        <time>2022-11-06T13:52:34.000Z</time>
      </trkpt>
      <trkpt lat="46.13939" lon="4.61279">
        <ele>311.2251</ele>
        <time>2022-11-06T13:52:35.000Z</time>
      </trkpt>
      <trkpt lat="46.13941" lon="4.61274">
        <ele>311.31366</ele>
        <time>2022-11-06T13:52:36.000Z</time>
      </trkpt>
      <trkpt lat="46.13943" lon="4.61269">
        <ele>311.42291</ele>
        <time>2022-11-06T13:52:37.000Z</time>
      </trkpt>
      <trkpt lat="46.13946" lon="4.61264">
        <ele>311.5249</ele>
        <time>2022-11-06T13:52:38.000Z</time>
      </trkpt>
      <trkpt lat="46.13948" lon="4.61259">
        <ele>311.57471</ele>
        <time>2022-11-06T13:52:39.000Z</time>
      </trkpt>
      <trkpt lat="46.1395" lon="4.61254">
        <ele>311.60944</ele>
        <time>2022-11-06T13:52:40.000Z</time>
      </trkpt>
      <trkpt lat="46.13951" lon="4.61249">
        <ele>311.64075</ele>
        <time>2022-11-06T13:52:41.000Z</time>
      </trkpt>
      <trkpt lat="46.13953" lon="4.61244">
        <ele>311.70468</ele>
        <time>2022-11-06T13:52:42.000Z</time>
      </trkpt>
      <trkpt lat="46.13955" lon="4.61239">
        <ele>311.73032</ele>
        <time>2022-11-06T13:52:43.000Z</time>
      </trkpt>
      <trkpt lat="46.13957" lon="4.61234">
        <ele>311.75653</ele>
        <time>2022-11-06T13:52:44.000Z</time>
      </trkpt>
      <trkpt lat="46.13958" lon="4.61229">
        <ele>311.71878</ele>
        <time>2022-11-06T13:52:45.000Z</time>
      </trkpt>
      <trkpt lat="46.1396" lon="4.61225">
        <ele>311.65616</ele>
        <time>2022-11-06T13:52:46.000Z</time>
      </trkpt>
      <trkpt lat="46.13962" lon="4.61219">
        <ele>311.61151</ele>
        <time>2022-11-06T13:52:47.000Z</time>
      </trkpt>
      <trkpt lat="46.13965" lon="4.61214">
        <ele>311.55856</ele>
        <time>2022-11-06T13:52:48.000Z</time>
      </trkpt>
      <trkpt lat="46.13967" lon="4.61209">
        <ele>311.45737</ele>
        <time>2022-11-06T13:52:49.000Z</time>
      </trkpt>
      <trkpt lat="46.13969" lon="4.61203">
        <ele>311.35724</ele>
        <time>2022-11-06T13:52:50.000Z</time>
      </trkpt>
      <trkpt lat="46.13972" lon="4.61198">
        <ele>311.25653</ele>
        <time>2022-11-06T13:52:51.000Z</time>
      </trkpt>
      <trkpt lat="46.13975" lon="4.61192">
        <ele>311.18457</ele>
        <time>2022-11-06T13:52:52.000Z</time>
      </trkpt>
      <trkpt lat="46.13978" lon="4.61186">
        <ele>311.09668</ele>
        <time>2022-11-06T13:52:53.000Z</time>
      </trkpt>
      <trkpt lat="46.13981" lon="4.6118">
        <ele>311.05347</ele>
        <time>2022-11-06T13:52:54.000Z</time>
      </trkpt>
      <trkpt lat="46.13983" lon="4.61175">
        <ele>310.96851</ele>
        <time>2022-11-06T13:52:55.000Z</time>
      </trkpt>
      <trkpt lat="46.13986" lon="4.61169">
        <ele>310.88531</ele>
        <time>2022-11-06T13:52:56.000Z</time>
      </trkpt>
      <trkpt lat="46.13988" lon="4.61162">
        <ele>310.80768</ele>
        <time>2022-11-06T13:52:57.000Z</time>
      </trkpt>
      <trkpt lat="46.1399" lon="4.61157">
        <ele>310.70856</ele>
        <time>2022-11-06T13:52:58.000Z</time>
      </trkpt>
      <trkpt lat="46.13993" lon="4.61152">
        <ele>310.63245</ele>
        <time>2022-11-06T13:52:59.000Z</time>
      </trkpt>
      <trkpt lat="46.13995" lon="4.61146">
        <ele>310.57535</ele>
        <time>2022-11-06T13:53:00.000Z</time>
      </trkpt>
      <trkpt lat="46.13997" lon="4.61139">
        <ele>310.47101</ele>
        <time>2022-11-06T13:53:01.000Z</time>
      </trkpt>
      <trkpt lat="46.14" lon="4.61134">
        <ele>310.34488</ele>
        <time>2022-11-06T13:53:02.000Z</time>
      </trkpt>
      <trkpt lat="46.14003" lon="4.61128">
        <ele>310.26617</ele>
        <time>2022-11-06T13:53:03.000Z</time>
      </trkpt>
      <trkpt lat="46.14005" lon="4.61122">
        <ele>310.18658</ele>
        <time>2022-11-06T13:53:04.000Z</time>
      </trkpt>
      <trkpt lat="46.14008" lon="4.61117">
        <ele>310.2724</ele>
        <time>2022-11-06T13:53:05.000Z</time>
      </trkpt>
      <trkpt lat="46.14011" lon="4.6111">
        <ele>310.35663</ele>
        <time>2022-11-06T13:53:06.000Z</time>
      </trkpt>
      <trkpt lat="46.14013" lon="4.61105">
        <ele>310.42169</ele>
        <time>2022-11-06T13:53:07.000Z</time>
      </trkpt>
      <trkpt lat="46.14015" lon="4.61098">
        <ele>310.46838</ele>
        <time>2022-11-06T13:53:08.000Z</time>
      </trkpt>
      <trkpt lat="46.14017" lon="4.61092">
        <ele>310.53366</ele>
        <time>2022-11-06T13:53:09.000Z</time>
      </trkpt>
      <trkpt lat="46.14019" lon="4.61087">
        <ele>310.59433</ele>
        <time>2022-11-06T13:53:10.000Z</time>
      </trkpt>
      <trkpt lat="46.14021" lon="4.61082">
        <ele>310.66815</ele>
        <time>2022-11-06T13:53:11.000Z</time>
      </trkpt>
      <trkpt lat="46.14024" lon="4.61076">
        <ele>310.78305</ele>
        <time>2022-11-06T13:53:12.000Z</time>
      </trkpt>
      <trkpt lat="46.14026" lon="4.6107">
        <ele>310.81461</ele>
        <time>2022-11-06T13:53:13.000Z</time>
      </trkpt>
      <trkpt lat="46.14029" lon="4.61064">
        <ele>310.82147</ele>
        <time>2022-11-06T13:53:14.000Z</time>
      </trkpt>
      <trkpt lat="46.14031" lon="4.61058">
        <ele>310.85623</ele>
        <time>2022-11-06T13:53:15.000Z</time>
      </trkpt>
      <trkpt lat="46.14034" lon="4.61053">
        <ele>310.88828</ele>
        <time>2022-11-06T13:53:16.000Z</time>
      </trkpt>
      <trkpt lat="46.14036" lon="4.61047">
        <ele>310.89362</ele>
        <time>2022-11-06T13:53:17.000Z</time>
      </trkpt>
      <trkpt lat="46.14038" lon="4.61042">
        <ele>310.91193</ele>
        <time>2022-11-06T13:53:18.000Z</time>
      </trkpt>
      <trkpt lat="46.14041" lon="4.61036">
        <ele>310.93994</ele>
        <time>2022-11-06T13:53:19.000Z</time>
      </trkpt>
      <trkpt lat="46.14043" lon="4.6103">
        <ele>310.9509</ele>
        <time>2022-11-06T13:53:20.000Z</time>
      </trkpt>
      <trkpt lat="46.14046" lon="4.61023">
        <ele>311.02872</ele>
        <time>2022-11-06T13:53:21.000Z</time>
      </trkpt>
      <trkpt lat="46.14049" lon="4.61018">
        <ele>311.15787</ele>
        <time>2022-11-06T13:53:22.000Z</time>
      </trkpt>
      <trkpt lat="46.14051" lon="4.61013">
        <ele>311.29477</ele>
        <time>2022-11-06T13:53:23.000Z</time>
      </trkpt>
      <trkpt lat="46.14053" lon="4.61007">
        <ele>311.43988</ele>
        <time>2022-11-06T13:53:24.000Z</time>
      </trkpt>
      <trkpt lat="46.14055" lon="4.61001">
        <ele>311.46732</ele>
        <time>2022-11-06T13:53:25.000Z</time>
      </trkpt>
      <trkpt lat="46.14057" lon="4.60995">
        <ele>311.45044</ele>
        <time>2022-11-06T13:53:26.000Z</time>
      </trkpt>
      <trkpt lat="46.14059" lon="4.60988">
        <ele>311.4306</ele>
        <time>2022-11-06T13:53:27.000Z</time>
      </trkpt>
      <trkpt lat="46.1406" lon="4.60984">
        <ele>311.39709</ele>
        <time>2022-11-06T13:53:28.000Z</time>
      </trkpt>
      <trkpt lat="46.14062" lon="4.60978">
        <ele>311.5444</ele>
        <time>2022-11-06T13:53:29.000Z</time>
      </trkpt>
      <trkpt lat="46.14062" lon="4.60973">
        <ele>311.66055</ele>
        <time>2022-11-06T13:53:30.000Z</time>
      </trkpt>
      <trkpt lat="46.14063" lon="4.60969">
        <ele>311.7905</ele>
        <time>2022-11-06T13:53:31.000Z</time>
      </trkpt>
      <trkpt lat="46.14063" lon="4.60964">
        <ele>311.8725</ele>
        <time>2022-11-06T13:53:32.000Z</time>
      </trkpt>
      <trkpt lat="46.14064" lon="4.60959">
        <ele>312.01862</ele>
        <time>2022-11-06T13:53:33.000Z</time>
      </trkpt>
      <trkpt lat="46.14064" lon="4.60954">
        <ele>312.15311</ele>
        <time>2022-11-06T13:53:34.000Z</time>
      </trkpt>
      <trkpt lat="46.14066" lon="4.60951">
        <ele>312.27939</ele>
        <time>2022-11-06T13:53:35.000Z</time>
      </trkpt>
      <trkpt lat="46.1407" lon="4.60951">
        <ele>312.41263</ele>
        <time>2022-11-06T13:53:36.000Z</time>
      </trkpt>
      <trkpt lat="46.14072" lon="4.6095">
        <ele>312.56329</ele>
        <time>2022-11-06T13:53:37.000Z</time>
      </trkpt>
      <trkpt lat="46.14075" lon="4.60949">
        <ele>312.7254</ele>
        <time>2022-11-06T13:53:38.000Z</time>
      </trkpt>
      <trkpt lat="46.14077" lon="4.60946">
        <ele>312.89575</ele>
        <time>2022-11-06T13:53:39.000Z</time>
      </trkpt>
      <trkpt lat="46.14078" lon="4.60942">
        <ele>313.08942</ele>
        <time>2022-11-06T13:53:40.000Z</time>
      </trkpt>
      <trkpt lat="46.1408" lon="4.60938">
        <ele>313.27579</ele>
        <time>2022-11-06T13:53:41.000Z</time>
      </trkpt>
      <trkpt lat="46.14081" lon="4.60934">
        <ele>313.45258</ele>
        <time>2022-11-06T13:53:42.000Z</time>
      </trkpt>
      <trkpt lat="46.14083" lon="4.60929">
        <ele>313.59671</ele>
        <time>2022-11-06T13:53:43.000Z</time>
      </trkpt>
      <trkpt lat="46.14085" lon="4.60925">
        <ele>313.72607</ele>
        <time>2022-11-06T13:53:44.000Z</time>
      </trkpt>
      <trkpt lat="46.14087" lon="4.6092">
        <ele>313.84055</ele>
        <time>2022-11-06T13:53:45.000Z</time>
      </trkpt>
      <trkpt lat="46.14089" lon="4.60915">
        <ele>314.01517</ele>
        <time>2022-11-06T13:53:46.000Z</time>
      </trkpt>
      <trkpt lat="46.14091" lon="4.60911">
        <ele>314.19522</ele>
        <time>2022-11-06T13:53:47.000Z</time>
      </trkpt>
      <trkpt lat="46.14093" lon="4.60906">
        <ele>314.38495</ele>
        <time>2022-11-06T13:53:48.000Z</time>
      </trkpt>
      <trkpt lat="46.14095" lon="4.60901">
        <ele>314.40155</ele>
        <time>2022-11-06T13:53:49.000Z</time>
      </trkpt>
      <trkpt lat="46.14097" lon="4.60896">
        <ele>314.47037</ele>
        <time>2022-11-06T13:53:50.000Z</time>
      </trkpt>
      <trkpt lat="46.14098" lon="4.60891">
        <ele>314.4744</ele>
        <time>2022-11-06T13:53:51.000Z</time>
      </trkpt>
      <trkpt lat="46.141" lon="4.60886">
        <ele>314.47369</ele>
        <time>2022-11-06T13:53:52.000Z</time>
      </trkpt>
      <trkpt lat="46.14101" lon="4.6088">
        <ele>314.478</ele>
        <time>2022-11-06T13:53:53.000Z</time>
      </trkpt>
      <trkpt lat="46.14103" lon="4.60875">
        <ele>314.48965</ele>
        <time>2022-11-06T13:53:54.000Z</time>
      </trkpt>
      <trkpt lat="46.14105" lon="4.6087">
        <ele>314.50113</ele>
        <time>2022-11-06T13:53:55.000Z</time>
      </trkpt>
      <trkpt lat="46.14107" lon="4.60865">
        <ele>314.5054</ele>
        <time>2022-11-06T13:53:56.000Z</time>
      </trkpt>
      <trkpt lat="46.14109" lon="4.6086">
        <ele>314.49359</ele>
        <time>2022-11-06T13:53:57.000Z</time>
      </trkpt>
      <trkpt lat="46.14112" lon="4.60854">
        <ele>314.47931</ele>
        <time>2022-11-06T13:53:58.000Z</time>
      </trkpt>
      <trkpt lat="46.14114" lon="4.60848">
        <ele>314.47565</ele>
        <time>2022-11-06T13:53:59.000Z</time>
      </trkpt>
      <trkpt lat="46.14116" lon="4.60843">
        <ele>314.46689</ele>
        <time>2022-11-06T13:54:00.000Z</time>
      </trkpt>
      <trkpt lat="46.14118" lon="4.60838">
        <ele>314.44424</ele>
        <time>2022-11-06T13:54:01.000Z</time>
      </trkpt>
      <trkpt lat="46.1412" lon="4.60833">
        <ele>314.41528</ele>
        <time>2022-11-06T13:54:02.000Z</time>
      </trkpt>
      <trkpt lat="46.14122" lon="4.60828">
        <ele>314.39395</ele>
        <time>2022-11-06T13:54:03.000Z</time>
      </trkpt>
      <trkpt lat="46.14124" lon="4.60822">
        <ele>314.38004</ele>
        <time>2022-11-06T13:54:04.000Z</time>
      </trkpt>
      <trkpt lat="46.14126" lon="4.60816">
        <ele>314.34424</ele>
        <time>2022-11-06T13:54:05.000Z</time>
      </trkpt>
      <trkpt lat="46.14129" lon="4.6081">
        <ele>314.23618</ele>
        <time>2022-11-06T13:54:06.000Z</time>
      </trkpt>
      <trkpt lat="46.14132" lon="4.60804">
        <ele>314.12744</ele>
        <time>2022-11-06T13:54:07.000Z</time>
      </trkpt>
      <trkpt lat="46.14134" lon="4.60798">
        <ele>314.02142</ele>
        <time>2022-11-06T13:54:08.000Z</time>
      </trkpt>
      <trkpt lat="46.14137" lon="4.60791">
        <ele>313.914</ele>
        <time>2022-11-06T13:54:09.000Z</time>
      </trkpt>
      <trkpt lat="46.14139" lon="4.60785">
        <ele>313.78867</ele>
        <time>2022-11-06T13:54:10.000Z</time>
      </trkpt>
      <trkpt lat="46.14142" lon="4.60779">
        <ele>313.69238</ele>
        <time>2022-11-06T13:54:11.000Z</time>
      </trkpt>
      <trkpt lat="46.14144" lon="4.60774">
        <ele>313.61325</ele>
        <time>2022-11-06T13:54:12.000Z</time>
      </trkpt>
      <trkpt lat="46.14147" lon="4.60768">
        <ele>313.54144</ele>
        <time>2022-11-06T13:54:13.000Z</time>
      </trkpt>
      <trkpt lat="46.1415" lon="4.60762">
        <ele>313.46759</ele>
        <time>2022-11-06T13:54:14.000Z</time>
      </trkpt>
      <trkpt lat="46.14152" lon="4.60756">
        <ele>313.42175</ele>
        <time>2022-11-06T13:54:15.000Z</time>
      </trkpt>
      <trkpt lat="46.14154" lon="4.60751">
        <ele>313.3588</ele>
        <time>2022-11-06T13:54:16.000Z</time>
      </trkpt>
      <trkpt lat="46.14157" lon="4.60745">
        <ele>313.3139</ele>
        <time>2022-11-06T13:54:17.000Z</time>
      </trkpt>
      <trkpt lat="46.14159" lon="4.6074">
        <ele>313.19012</ele>
        <time>2022-11-06T13:54:18.000Z</time>
      </trkpt>
      <trkpt lat="46.14161" lon="4.60734">
        <ele>313.26361</ele>
        <time>2022-11-06T13:54:19.000Z</time>
      </trkpt>
      <trkpt lat="46.14164" lon="4.60728">
        <ele>313.28986</ele>
        <time>2022-11-06T13:54:20.000Z</time>
      </trkpt>
      <trkpt lat="46.14166" lon="4.60721">
        <ele>313.3602</ele>
        <time>2022-11-06T13:54:21.000Z</time>
      </trkpt>
      <trkpt lat="46.14168" lon="4.60716">
        <ele>313.42609</ele>
        <time>2022-11-06T13:54:22.000Z</time>
      </trkpt>
      <trkpt lat="46.1417" lon="4.6071">
        <ele>313.39313</ele>
        <time>2022-11-06T13:54:23.000Z</time>
      </trkpt>
      <trkpt lat="46.14173" lon="4.60704">
        <ele>313.35342</ele>
        <time>2022-11-06T13:54:24.000Z</time>
      </trkpt>
      <trkpt lat="46.14175" lon="4.60697">
        <ele>313.34073</ele>
        <time>2022-11-06T13:54:25.000Z</time>
      </trkpt>
      <trkpt lat="46.14177" lon="4.60691">
        <ele>313.38608</ele>
        <time>2022-11-06T13:54:26.000Z</time>
      </trkpt>
      <trkpt lat="46.14179" lon="4.60685">
        <ele>313.45111</ele>
        <time>2022-11-06T13:54:27.000Z</time>
      </trkpt>
      <trkpt lat="46.14182" lon="4.60679">
        <ele>313.50629</ele>
        <time>2022-11-06T13:54:28.000Z</time>
      </trkpt>
      <trkpt lat="46.14184" lon="4.60673">
        <ele>313.50391</ele>
        <time>2022-11-06T13:54:29.000Z</time>
      </trkpt>
      <trkpt lat="46.14187" lon="4.60667">
        <ele>313.496</ele>
        <time>2022-11-06T13:54:30.000Z</time>
      </trkpt>
      <trkpt lat="46.14189" lon="4.60661">
        <ele>313.66306</ele>
        <time>2022-11-06T13:54:31.000Z</time>
      </trkpt>
      <trkpt lat="46.1419" lon="4.60656">
        <ele>313.78162</ele>
        <time>2022-11-06T13:54:32.000Z</time>
      </trkpt>
      <trkpt lat="46.14193" lon="4.6065">
        <ele>313.90472</ele>
        <time>2022-11-06T13:54:33.000Z</time>
      </trkpt>
      <trkpt lat="46.14195" lon="4.60643">
        <ele>314.03043</ele>
        <time>2022-11-06T13:54:34.000Z</time>
      </trkpt>
      <trkpt lat="46.14198" lon="4.60637">
        <ele>314.15503</ele>
        <time>2022-11-06T13:54:35.000Z</time>
      </trkpt>
      <trkpt lat="46.142" lon="4.60631">
        <ele>314.29523</ele>
        <time>2022-11-06T13:54:36.000Z</time>
      </trkpt>
      <trkpt lat="46.14203" lon="4.60627">
        <ele>314.44037</ele>
        <time>2022-11-06T13:54:37.000Z</time>
      </trkpt>
      <trkpt lat="46.14205" lon="4.6062">
        <ele>314.64679</ele>
        <time>2022-11-06T13:54:38.000Z</time>
      </trkpt>
      <trkpt lat="46.14207" lon="4.60614">
        <ele>314.65149</ele>
        <time>2022-11-06T13:54:39.000Z</time>
      </trkpt>
      <trkpt lat="46.14209" lon="4.60608">
        <ele>314.70795</ele>
        <time>2022-11-06T13:54:40.000Z</time>
      </trkpt>
      <trkpt lat="46.14212" lon="4.60602">
        <ele>314.74988</ele>
        <time>2022-11-06T13:54:41.000Z</time>
      </trkpt>
      <trkpt lat="46.14214" lon="4.60596">
        <ele>314.8063</ele>
        <time>2022-11-06T13:54:42.000Z</time>
      </trkpt>
      <trkpt lat="46.14216" lon="4.60591">
        <ele>314.96539</ele>
        <time>2022-11-06T13:54:43.000Z</time>
      </trkpt>
      <trkpt lat="46.14218" lon="4.60585">
        <ele>315.11108</ele>
        <time>2022-11-06T13:54:44.000Z</time>
      </trkpt>
      <trkpt lat="46.14221" lon="4.6058">
        <ele>315.26114</ele>
        <time>2022-11-06T13:54:45.000Z</time>
      </trkpt>
      <trkpt lat="46.14224" lon="4.60575">
        <ele>315.32684</ele>
        <time>2022-11-06T13:54:46.000Z</time>
      </trkpt>
      <trkpt lat="46.14226" lon="4.6057">
        <ele>315.36914</ele>
        <time>2022-11-06T13:54:47.000Z</time>
      </trkpt>
      <trkpt lat="46.14228" lon="4.60564">
        <ele>315.43567</ele>
        <time>2022-11-06T13:54:48.000Z</time>
      </trkpt>
      <trkpt lat="46.1423" lon="4.60558">
        <ele>315.56537</ele>
        <time>2022-11-06T13:54:49.000Z</time>
      </trkpt>
      <trkpt lat="46.14232" lon="4.60552">
        <ele>315.70923</ele>
        <time>2022-11-06T13:54:50.000Z</time>
      </trkpt>
      <trkpt lat="46.14234" lon="4.60547">
        <ele>315.69629</ele>
        <time>2022-11-06T13:54:51.000Z</time>
      </trkpt>
      <trkpt lat="46.14236" lon="4.60543">
        <ele>315.72861</ele>
        <time>2022-11-06T13:54:52.000Z</time>
      </trkpt>
      <trkpt lat="46.14238" lon="4.60537">
        <ele>315.74979</ele>
        <time>2022-11-06T13:54:53.000Z</time>
      </trkpt>
      <trkpt lat="46.1424" lon="4.60532">
        <ele>315.75897</ele>
        <time>2022-11-06T13:54:54.000Z</time>
      </trkpt>
      <trkpt lat="46.14243" lon="4.60527">
        <ele>315.73975</ele>
        <time>2022-11-06T13:54:55.000Z</time>
      </trkpt>
      <trkpt lat="46.14245" lon="4.60522">
        <ele>315.71515</ele>
        <time>2022-11-06T13:54:56.000Z</time>
      </trkpt>
      <trkpt lat="46.14247" lon="4.60517">
        <ele>315.70013</ele>
        <time>2022-11-06T13:54:57.000Z</time>
      </trkpt>
      <trkpt lat="46.1425" lon="4.60511">
        <ele>315.70221</ele>
        <time>2022-11-06T13:54:58.000Z</time>
      </trkpt>
      <trkpt lat="46.14251" lon="4.60505">
        <ele>315.68466</ele>
        <time>2022-11-06T13:54:59.000Z</time>
      </trkpt>
      <trkpt lat="46.14254" lon="4.605">
        <ele>315.59457</ele>
        <time>2022-11-06T13:55:00.000Z</time>
      </trkpt>
      <trkpt lat="46.14256" lon="4.60495">
        <ele>315.72989</ele>
        <time>2022-11-06T13:55:01.000Z</time>
      </trkpt>
      <trkpt lat="46.14258" lon="4.60489">
        <ele>315.82233</ele>
        <time>2022-11-06T13:55:02.000Z</time>
      </trkpt>
      <trkpt lat="46.1426" lon="4.60484">
        <ele>315.88644</ele>
        <time>2022-11-06T13:55:03.000Z</time>
      </trkpt>
      <trkpt lat="46.14262" lon="4.60478">
        <ele>315.96814</ele>
        <time>2022-11-06T13:55:04.000Z</time>
      </trkpt>
      <trkpt lat="46.14265" lon="4.60473">
        <ele>316.04385</ele>
        <time>2022-11-06T13:55:05.000Z</time>
      </trkpt>
      <trkpt lat="46.14268" lon="4.60467">
        <ele>316.21921</ele>
        <time>2022-11-06T13:55:06.000Z</time>
      </trkpt>
      <trkpt lat="46.1427" lon="4.60462">
        <ele>316.38229</ele>
        <time>2022-11-06T13:55:07.000Z</time>
      </trkpt>
      <trkpt lat="46.14273" lon="4.60456">
        <ele>316.53363</ele>
        <time>2022-11-06T13:55:08.000Z</time>
      </trkpt>
      <trkpt lat="46.14275" lon="4.6045">
        <ele>316.69397</ele>
        <time>2022-11-06T13:55:09.000Z</time>
      </trkpt>
      <trkpt lat="46.14278" lon="4.60444">
        <ele>316.82581</ele>
        <time>2022-11-06T13:55:10.000Z</time>
      </trkpt>
      <trkpt lat="46.14281" lon="4.60438">
        <ele>316.93619</ele>
        <time>2022-11-06T13:55:11.000Z</time>
      </trkpt>
      <trkpt lat="46.14284" lon="4.60431">
        <ele>317.02576</ele>
        <time>2022-11-06T13:55:12.000Z</time>
      </trkpt>
      <trkpt lat="46.14287" lon="4.60426">
        <ele>317.12268</ele>
        <time>2022-11-06T13:55:13.000Z</time>
      </trkpt>
      <trkpt lat="46.1429" lon="4.6042">
        <ele>317.22736</ele>
        <time>2022-11-06T13:55:14.000Z</time>
      </trkpt>
      <trkpt lat="46.14294" lon="4.60413">
        <ele>317.33069</ele>
        <time>2022-11-06T13:55:15.000Z</time>
      </trkpt>
      <trkpt lat="46.14297" lon="4.60408">
        <ele>317.43698</ele>
        <time>2022-11-06T13:55:16.000Z</time>
      </trkpt>
      <trkpt lat="46.143" lon="4.60401">
        <ele>317.52823</ele>
        <time>2022-11-06T13:55:17.000Z</time>
      </trkpt>
      <trkpt lat="46.14302" lon="4.60395">
        <ele>317.64536</ele>
        <time>2022-11-06T13:55:18.000Z</time>
      </trkpt>
      <trkpt lat="46.14305" lon="4.6039">
        <ele>317.66397</ele>
        <time>2022-11-06T13:55:19.000Z</time>
      </trkpt>
      <trkpt lat="46.14309" lon="4.60384">
        <ele>317.73969</ele>
        <time>2022-11-06T13:55:20.000Z</time>
      </trkpt>
      <trkpt lat="46.14312" lon="4.60378">
        <ele>317.58646</ele>
        <time>2022-11-06T13:55:21.000Z</time>
      </trkpt>
      <trkpt lat="46.14316" lon="4.60372">
        <ele>317.47516</ele>
        <time>2022-11-06T13:55:22.000Z</time>
      </trkpt>
      <trkpt lat="46.14319" lon="4.60365">
        <ele>317.39362</ele>
        <time>2022-11-06T13:55:23.000Z</time>
      </trkpt>
      <trkpt lat="46.14322" lon="4.60359">
        <ele>317.32281</ele>
        <time>2022-11-06T13:55:24.000Z</time>
      </trkpt>
      <trkpt lat="46.14326" lon="4.60353">
        <ele>317.25464</ele>
        <time>2022-11-06T13:55:25.000Z</time>
      </trkpt>
      <trkpt lat="46.14329" lon="4.60348">
        <ele>317.17514</ele>
        <time>2022-11-06T13:55:26.000Z</time>
      </trkpt>
      <trkpt lat="46.14332" lon="4.60342">
        <ele>317.13998</ele>
        <time>2022-11-06T13:55:27.000Z</time>
      </trkpt>
      <trkpt lat="46.14336" lon="4.60335">
        <ele>317.12054</ele>
        <time>2022-11-06T13:55:28.000Z</time>
      </trkpt>
      <trkpt lat="46.14339" lon="4.60331">
        <ele>317.08047</ele>
        <time>2022-11-06T13:55:29.000Z</time>
      </trkpt>
      <trkpt lat="46.14343" lon="4.60325">
        <ele>317.07333</ele>
        <time>2022-11-06T13:55:30.000Z</time>
      </trkpt>
      <trkpt lat="46.14347" lon="4.60319">
        <ele>317.07056</ele>
        <time>2022-11-06T13:55:31.000Z</time>
      </trkpt>
      <trkpt lat="46.1435" lon="4.60315">
        <ele>317.09225</ele>
        <time>2022-11-06T13:55:32.000Z</time>
      </trkpt>
      <trkpt lat="46.14353" lon="4.60309">
        <ele>317.10095</ele>
        <time>2022-11-06T13:55:33.000Z</time>
      </trkpt>
      <trkpt lat="46.14357" lon="4.60304">
        <ele>317.10574</ele>
        <time>2022-11-06T13:55:34.000Z</time>
      </trkpt>
      <trkpt lat="46.1436" lon="4.60298">
        <ele>317.12561</ele>
        <time>2022-11-06T13:55:35.000Z</time>
      </trkpt>
      <trkpt lat="46.14364" lon="4.60293">
        <ele>317.14767</ele>
        <time>2022-11-06T13:55:36.000Z</time>
      </trkpt>
      <trkpt lat="46.14369" lon="4.60288">
        <ele>317.11948</ele>
        <time>2022-11-06T13:55:37.000Z</time>
      </trkpt>
      <trkpt lat="46.14373" lon="4.60283">
        <ele>317.27557</ele>
        <time>2022-11-06T13:55:38.000Z</time>
      </trkpt>
      <trkpt lat="46.14377" lon="4.60277">
        <ele>317.49902</ele>
        <time>2022-11-06T13:55:39.000Z</time>
      </trkpt>
      <trkpt lat="46.14381" lon="4.60271">
        <ele>317.72552</ele>
        <time>2022-11-06T13:55:40.000Z</time>
      </trkpt>
      <trkpt lat="46.14385" lon="4.60266">
        <ele>317.97101</ele>
        <time>2022-11-06T13:55:41.000Z</time>
      </trkpt>
      <trkpt lat="46.14389" lon="4.60261">
        <ele>318.22583</ele>
        <time>2022-11-06T13:55:42.000Z</time>
      </trkpt>
      <trkpt lat="46.14393" lon="4.60255">
        <ele>318.47156</ele>
        <time>2022-11-06T13:55:43.000Z</time>
      </trkpt>
      <trkpt lat="46.14397" lon="4.6025">
        <ele>318.70721</ele>
        <time>2022-11-06T13:55:44.000Z</time>
      </trkpt>
      <trkpt lat="46.144" lon="4.60245">
        <ele>318.9317</ele>
        <time>2022-11-06T13:55:45.000Z</time>
      </trkpt>
      <trkpt lat="46.14404" lon="4.60241">
        <ele>319.15298</ele>
        <time>2022-11-06T13:55:46.000Z</time>
      </trkpt>
      <trkpt lat="46.14408" lon="4.60237">
        <ele>319.32672</ele>
        <time>2022-11-06T13:55:47.000Z</time>
      </trkpt>
      <trkpt lat="46.14412" lon="4.60233">
        <ele>319.46893</ele>
        <time>2022-11-06T13:55:48.000Z</time>
      </trkpt>
      <trkpt lat="46.14416" lon="4.60229">
        <ele>319.61282</ele>
        <time>2022-11-06T13:55:49.000Z</time>
      </trkpt>
      <trkpt lat="46.14419" lon="4.60226">
        <ele>319.60962</ele>
        <time>2022-11-06T13:55:50.000Z</time>
      </trkpt>
      <trkpt lat="46.14422" lon="4.60222">
        <ele>319.59766</ele>
        <time>2022-11-06T13:55:51.000Z</time>
      </trkpt>
      <trkpt lat="46.14426" lon="4.6022">
        <ele>319.57397</ele>
        <time>2022-11-06T13:55:52.000Z</time>
      </trkpt>
      <trkpt lat="46.14429" lon="4.60217">
        <ele>319.47873</ele>
        <time>2022-11-06T13:55:53.000Z</time>
      </trkpt>
      <trkpt lat="46.14431" lon="4.60214">
        <ele>319.6424</ele>
        <time>2022-11-06T13:55:54.000Z</time>
      </trkpt>
      <trkpt lat="46.14435" lon="4.60212">
        <ele>319.76804</ele>
        <time>2022-11-06T13:55:55.000Z</time>
      </trkpt>
      <trkpt lat="46.14438" lon="4.60209">
        <ele>319.91547</ele>
        <time>2022-11-06T13:55:56.000Z</time>
      </trkpt>
      <trkpt lat="46.14441" lon="4.60206">
        <ele>320.15536</ele>
        <time>2022-11-06T13:55:57.000Z</time>
      </trkpt>
      <trkpt lat="46.14443" lon="4.60203">
        <ele>320.17856</ele>
        <time>2022-11-06T13:55:58.000Z</time>
      </trkpt>
      <trkpt lat="46.14447" lon="4.60201">
        <ele>320.2226</ele>
        <time>2022-11-06T13:55:59.000Z</time>
      </trkpt>
      <trkpt lat="46.1445" lon="4.60198">
        <ele>320.2699</ele>
        <time>2022-11-06T13:56:00.000Z</time>
      </trkpt>
      <trkpt lat="46.14453" lon="4.60195">
        <ele>320.29095</ele>
        <time>2022-11-06T13:56:01.000Z</time>
      </trkpt>
      <trkpt lat="46.14457" lon="4.60192">
        <ele>320.31494</ele>
        <time>2022-11-06T13:56:02.000Z</time>
      </trkpt>
      <trkpt lat="46.1446" lon="4.60189">
        <ele>320.34308</ele>
        <time>2022-11-06T13:56:03.000Z</time>
      </trkpt>
      <trkpt lat="46.14464" lon="4.60185">
        <ele>320.34882</ele>
        <time>2022-11-06T13:56:04.000Z</time>
      </trkpt>
      <trkpt lat="46.14467" lon="4.60182">
        <ele>320.3345</ele>
        <time>2022-11-06T13:56:05.000Z</time>
      </trkpt>
      <trkpt lat="46.14471" lon="4.60178">
        <ele>320.33163</ele>
        <time>2022-11-06T13:56:06.000Z</time>
      </trkpt>
      <trkpt lat="46.14474" lon="4.60175">
        <ele>320.36932</ele>
        <time>2022-11-06T13:56:07.000Z</time>
      </trkpt>
      <trkpt lat="46.14477" lon="4.60172">
        <ele>320.43277</ele>
        <time>2022-11-06T13:56:08.000Z</time>
      </trkpt>
      <trkpt lat="46.14481" lon="4.60168">
        <ele>320.50925</ele>
        <time>2022-11-06T13:56:09.000Z</time>
      </trkpt>
      <trkpt lat="46.14485" lon="4.60163">
        <ele>320.69806</ele>
        <time>2022-11-06T13:56:10.000Z</time>
      </trkpt>
      <trkpt lat="46.14489" lon="4.6016">
        <ele>320.91473</ele>
        <time>2022-11-06T13:56:11.000Z</time>
      </trkpt>
      <trkpt lat="46.14493" lon="4.60156">
        <ele>321.16342</ele>
        <time>2022-11-06T13:56:12.000Z</time>
      </trkpt>
      <trkpt lat="46.14496" lon="4.60153">
        <ele>321.47803</ele>
        <time>2022-11-06T13:56:13.000Z</time>
      </trkpt>
      <trkpt lat="46.14501" lon="4.60149">
        <ele>321.5481</ele>
        <time>2022-11-06T13:56:14.000Z</time>
      </trkpt>
      <trkpt lat="46.14505" lon="4.60145">
        <ele>321.64761</ele>
        <time>2022-11-06T13:56:15.000Z</time>
      </trkpt>
      <trkpt lat="46.14509" lon="4.60142">
        <ele>321.72308</ele>
        <time>2022-11-06T13:56:16.000Z</time>
      </trkpt>
      <trkpt lat="46.14514" lon="4.60139">
        <ele>321.76929</ele>
        <time>2022-11-06T13:56:17.000Z</time>
      </trkpt>
      <trkpt lat="46.14518" lon="4.60135">
        <ele>321.83206</ele>
        <time>2022-11-06T13:56:18.000Z</time>
      </trkpt>
      <trkpt lat="46.14521" lon="4.60132">
        <ele>321.8577</ele>
        <time>2022-11-06T13:56:19.000Z</time>
      </trkpt>
      <trkpt lat="46.14525" lon="4.60128">
        <ele>321.87598</ele>
        <time>2022-11-06T13:56:20.000Z</time>
      </trkpt>
      <trkpt lat="46.14528" lon="4.60125">
        <ele>321.81308</ele>
        <time>2022-11-06T13:56:21.000Z</time>
      </trkpt>
      <trkpt lat="46.14533" lon="4.60122">
        <ele>321.71991</ele>
        <time>2022-11-06T13:56:22.000Z</time>
      </trkpt>
      <trkpt lat="46.14537" lon="4.60119">
        <ele>321.61206</ele>
        <time>2022-11-06T13:56:23.000Z</time>
      </trkpt>
      <trkpt lat="46.14541" lon="4.60116">
        <ele>321.52856</ele>
        <time>2022-11-06T13:56:24.000Z</time>
      </trkpt>
      <trkpt lat="46.14546" lon="4.60115">
        <ele>321.51129</ele>
        <time>2022-11-06T13:56:25.000Z</time>
      </trkpt>
      <trkpt lat="46.14551" lon="4.60112">
        <ele>321.45465</ele>
        <time>2022-11-06T13:56:26.000Z</time>
      </trkpt>
      <trkpt lat="46.14555" lon="4.60109">
        <ele>321.34409</ele>
        <time>2022-11-06T13:56:27.000Z</time>
      </trkpt>
      <trkpt lat="46.1456" lon="4.60107">
        <ele>321.22879</ele>
        <time>2022-11-06T13:56:28.000Z</time>
      </trkpt>
      <trkpt lat="46.14564" lon="4.60103">
        <ele>321.12311</ele>
        <time>2022-11-06T13:56:29.000Z</time>
      </trkpt>
      <trkpt lat="46.14569" lon="4.601">
        <ele>321.07153</ele>
        <time>2022-11-06T13:56:30.000Z</time>
      </trkpt>
      <trkpt lat="46.14575" lon="4.60098">
        <ele>321.0401</ele>
        <time>2022-11-06T13:56:31.000Z</time>
      </trkpt>
      <trkpt lat="46.1458" lon="4.60096">
        <ele>321.02005</ele>
        <time>2022-11-06T13:56:32.000Z</time>
      </trkpt>
      <trkpt lat="46.14586" lon="4.60094">
        <ele>320.81232</ele>
        <time>2022-11-06T13:56:33.000Z</time>
      </trkpt>
      <trkpt lat="46.1459" lon="4.60091">
        <ele>320.59354</ele>
        <time>2022-11-06T13:56:34.000Z</time>
      </trkpt>
      <trkpt lat="46.14595" lon="4.60088">
        <ele>320.3688</ele>
        <time>2022-11-06T13:56:35.000Z</time>
      </trkpt>
      <trkpt lat="46.14599" lon="4.60084">
        <ele>320.14313</ele>
        <time>2022-11-06T13:56:36.000Z</time>
      </trkpt>
      <trkpt lat="46.14603" lon="4.60082">
        <ele>319.8985</ele>
        <time>2022-11-06T13:56:37.000Z</time>
      </trkpt>
      <trkpt lat="46.14607" lon="4.60079">
        <ele>319.616</ele>
        <time>2022-11-06T13:56:38.000Z</time>
      </trkpt>
      <trkpt lat="46.14613" lon="4.60077">
        <ele>319.3562</ele>
        <time>2022-11-06T13:56:39.000Z</time>
      </trkpt>
      <trkpt lat="46.14617" lon="4.60073">
        <ele>319.11917</ele>
        <time>2022-11-06T13:56:40.000Z</time>
      </trkpt>
      <trkpt lat="46.14621" lon="4.60069">
        <ele>318.96823</ele>
        <time>2022-11-06T13:56:41.000Z</time>
      </trkpt>
      <trkpt lat="46.14624" lon="4.60067">
        <ele>318.81094</ele>
        <time>2022-11-06T13:56:42.000Z</time>
      </trkpt>
      <trkpt lat="46.14629" lon="4.60065">
        <ele>318.65359</ele>
        <time>2022-11-06T13:56:43.000Z</time>
      </trkpt>
      <trkpt lat="46.14634" lon="4.6006">
        <ele>318.49628</ele>
        <time>2022-11-06T13:56:44.000Z</time>
      </trkpt>
      <trkpt lat="46.1464" lon="4.60058">
        <ele>318.3356</ele>
        <time>2022-11-06T13:56:45.000Z</time>
      </trkpt>
      <trkpt lat="46.14645" lon="4.60055">
        <ele>318.1452</ele>
        <time>2022-11-06T13:56:46.000Z</time>
      </trkpt>
      <trkpt lat="46.14651" lon="4.60053">
        <ele>318.2728</ele>
        <time>2022-11-06T13:56:47.000Z</time>
      </trkpt>
      <trkpt lat="46.14657" lon="4.6005">
        <ele>318.30008</ele>
        <time>2022-11-06T13:56:48.000Z</time>
      </trkpt>
      <trkpt lat="46.14659" lon="4.60046">
        <ele>318.30646</ele>
        <time>2022-11-06T13:56:49.000Z</time>
      </trkpt>
      <trkpt lat="46.14665" lon="4.60043">
        <ele>318.29608</ele>
        <time>2022-11-06T13:56:50.000Z</time>
      </trkpt>
      <trkpt lat="46.14671" lon="4.60041">
        <ele>318.3226</ele>
        <time>2022-11-06T13:56:51.000Z</time>
      </trkpt>
      <trkpt lat="46.14676" lon="4.60038">
        <ele>318.31567</ele>
        <time>2022-11-06T13:56:52.000Z</time>
      </trkpt>
      <trkpt lat="46.14682" lon="4.60036">
        <ele>318.57169</ele>
        <time>2022-11-06T13:56:53.000Z</time>
      </trkpt>
      <trkpt lat="46.14687" lon="4.60034">
        <ele>318.81244</ele>
        <time>2022-11-06T13:56:54.000Z</time>
      </trkpt>
      <trkpt lat="46.14691" lon="4.60031">
        <ele>319.07736</ele>
        <time>2022-11-06T13:56:55.000Z</time>
      </trkpt>
      <trkpt lat="46.14697" lon="4.6003">
        <ele>319.34695</ele>
        <time>2022-11-06T13:56:56.000Z</time>
      </trkpt>
      <trkpt lat="46.14702" lon="4.60027">
        <ele>319.6561</ele>
        <time>2022-11-06T13:56:57.000Z</time>
      </trkpt>
      <trkpt lat="46.14706" lon="4.60024">
        <ele>319.89569</ele>
        <time>2022-11-06T13:56:58.000Z</time>
      </trkpt>
      <trkpt lat="46.14711" lon="4.6002">
        <ele>320.17633</ele>
        <time>2022-11-06T13:56:59.000Z</time>
      </trkpt>
      <trkpt lat="46.14716" lon="4.60018">
        <ele>320.4455</ele>
        <time>2022-11-06T13:57:00.000Z</time>
      </trkpt>
      <trkpt lat="46.1472" lon="4.60015">
        <ele>320.7019</ele>
        <time>2022-11-06T13:57:01.000Z</time>
      </trkpt>
      <trkpt lat="46.14725" lon="4.60011">
        <ele>320.97006</ele>
        <time>2022-11-06T13:57:02.000Z</time>
      </trkpt>
      <trkpt lat="46.14729" lon="4.60008">
        <ele>321.26871</ele>
        <time>2022-11-06T13:57:03.000Z</time>
      </trkpt>
      <trkpt lat="46.14734" lon="4.60004">
        <ele>321.55804</ele>
        <time>2022-11-06T13:57:04.000Z</time>
      </trkpt>
      <trkpt lat="46.14738" lon="4.59999">
        <ele>321.80487</ele>
        <time>2022-11-06T13:57:05.000Z</time>
      </trkpt>
      <trkpt lat="46.14743" lon="4.59995">
        <ele>322.12131</ele>
        <time>2022-11-06T13:57:06.000Z</time>
      </trkpt>
      <trkpt lat="46.14747" lon="4.59991">
        <ele>322.14908</ele>
        <time>2022-11-06T13:57:07.000Z</time>
      </trkpt>
      <trkpt lat="46.14752" lon="4.59987">
        <ele>322.27698</ele>
        <time>2022-11-06T13:57:08.000Z</time>
      </trkpt>
      <trkpt lat="46.14756" lon="4.59983">
        <ele>322.41699</ele>
        <time>2022-11-06T13:57:09.000Z</time>
      </trkpt>
      <trkpt lat="46.1476" lon="4.59979">
        <ele>322.539</ele>
        <time>2022-11-06T13:57:10.000Z</time>
      </trkpt>
      <trkpt lat="46.14764" lon="4.59976">
        <ele>322.47696</ele>
        <time>2022-11-06T13:57:11.000Z</time>
      </trkpt>
      <trkpt lat="46.14768" lon="4.59972">
        <ele>322.73422</ele>
        <time>2022-11-06T13:57:12.000Z</time>
      </trkpt>
      <trkpt lat="46.14772" lon="4.59967">
        <ele>322.87125</ele>
        <time>2022-11-06T13:57:13.000Z</time>
      </trkpt>
      <trkpt lat="46.14776" lon="4.59961">
        <ele>322.98419</ele>
        <time>2022-11-06T13:57:14.000Z</time>
      </trkpt>
      <trkpt lat="46.14781" lon="4.59956">
        <ele>323.0835</ele>
        <time>2022-11-06T13:57:15.000Z</time>
      </trkpt>
      <trkpt lat="46.14785" lon="4.59951">
        <ele>323.19785</ele>
        <time>2022-11-06T13:57:16.000Z</time>
      </trkpt>
      <trkpt lat="46.1479" lon="4.59945">
        <ele>323.29895</ele>
        <time>2022-11-06T13:57:17.000Z</time>
      </trkpt>
      <trkpt lat="46.14793" lon="4.5994">
        <ele>323.47244</ele>
        <time>2022-11-06T13:57:18.000Z</time>
      </trkpt>
      <trkpt lat="46.14797" lon="4.59935">
        <ele>323.63208</ele>
        <time>2022-11-06T13:57:19.000Z</time>
      </trkpt>
      <trkpt lat="46.14801" lon="4.59928">
        <ele>323.7807</ele>
        <time>2022-11-06T13:57:20.000Z</time>
      </trkpt>
      <trkpt lat="46.14805" lon="4.59922">
        <ele>323.95111</ele>
        <time>2022-11-06T13:57:21.000Z</time>
      </trkpt>
      <trkpt lat="46.14809" lon="4.59917">
        <ele>324.14148</ele>
        <time>2022-11-06T13:57:22.000Z</time>
      </trkpt>
      <trkpt lat="46.14812" lon="4.59911">
        <ele>324.15405</ele>
        <time>2022-11-06T13:57:23.000Z</time>
      </trkpt>
      <trkpt lat="46.14815" lon="4.59904">
        <ele>324.19995</ele>
        <time>2022-11-06T13:57:24.000Z</time>
      </trkpt>
      <trkpt lat="46.14818" lon="4.59898">
        <ele>324.21594</ele>
        <time>2022-11-06T13:57:25.000Z</time>
      </trkpt>
      <trkpt lat="46.1482" lon="4.59893">
        <ele>324.19647</ele>
        <time>2022-11-06T13:57:26.000Z</time>
      </trkpt>
      <trkpt lat="46.14823" lon="4.59886">
        <ele>324.10944</ele>
        <time>2022-11-06T13:57:27.000Z</time>
      </trkpt>
      <trkpt lat="46.14826" lon="4.59882">
        <ele>323.98007</ele>
        <time>2022-11-06T13:57:28.000Z</time>
      </trkpt>
      <trkpt lat="46.14829" lon="4.59876">
        <ele>324.13947</ele>
        <time>2022-11-06T13:57:29.000Z</time>
      </trkpt>
      <trkpt lat="46.1483" lon="4.59871">
        <ele>324.19281</ele>
        <time>2022-11-06T13:57:30.000Z</time>
      </trkpt>
      <trkpt lat="46.14833" lon="4.59865">
        <ele>324.37421</ele>
        <time>2022-11-06T13:57:31.000Z</time>
      </trkpt>
      <trkpt lat="46.14835" lon="4.59859">
        <ele>324.23242</ele>
        <time>2022-11-06T13:57:32.000Z</time>
      </trkpt>
      <trkpt lat="46.14837" lon="4.59853">
        <ele>324.15027</ele>
        <time>2022-11-06T13:57:33.000Z</time>
      </trkpt>
      <trkpt lat="46.14839" lon="4.59846">
        <ele>324.12619</ele>
        <time>2022-11-06T13:57:34.000Z</time>
      </trkpt>
      <trkpt lat="46.14841" lon="4.5984">
        <ele>324.08694</ele>
        <time>2022-11-06T13:57:35.000Z</time>
      </trkpt>
      <trkpt lat="46.14843" lon="4.59833">
        <ele>324.03345</ele>
        <time>2022-11-06T13:57:36.000Z</time>
      </trkpt>
      <trkpt lat="46.14845" lon="4.59826">
        <ele>323.98715</ele>
        <time>2022-11-06T13:57:37.000Z</time>
      </trkpt>
      <trkpt lat="46.14847" lon="4.5982">
        <ele>323.96588</ele>
        <time>2022-11-06T13:57:38.000Z</time>
      </trkpt>
      <trkpt lat="46.14849" lon="4.59813">
        <ele>323.95111</ele>
        <time>2022-11-06T13:57:39.000Z</time>
      </trkpt>
      <trkpt lat="46.14851" lon="4.59806">
        <ele>323.93704</ele>
        <time>2022-11-06T13:57:40.000Z</time>
      </trkpt>
      <trkpt lat="46.14852" lon="4.59799">
        <ele>323.91202</ele>
        <time>2022-11-06T13:57:41.000Z</time>
      </trkpt>
      <trkpt lat="46.14854" lon="4.59792">
        <ele>323.73987</ele>
        <time>2022-11-06T13:57:42.000Z</time>
      </trkpt>
      <trkpt lat="46.14856" lon="4.59785">
        <ele>323.7312</ele>
        <time>2022-11-06T13:57:43.000Z</time>
      </trkpt>
      <trkpt lat="46.14858" lon="4.59779">
        <ele>323.68549</ele>
        <time>2022-11-06T13:57:44.000Z</time>
      </trkpt>
      <trkpt lat="46.14861" lon="4.59774">
        <ele>323.67694</ele>
        <time>2022-11-06T13:57:45.000Z</time>
      </trkpt>
      <trkpt lat="46.14862" lon="4.59769">
        <ele>323.69324</ele>
        <time>2022-11-06T13:57:46.000Z</time>
      </trkpt>
      <trkpt lat="46.14865" lon="4.59764">
        <ele>323.7662</ele>
        <time>2022-11-06T13:57:47.000Z</time>
      </trkpt>
      <trkpt lat="46.14868" lon="4.59757">
        <ele>323.77612</ele>
        <time>2022-11-06T13:57:48.000Z</time>
      </trkpt>
      <trkpt lat="46.1487" lon="4.5975">
        <ele>323.47617</ele>
        <time>2022-11-06T13:57:49.000Z</time>
      </trkpt>
      <trkpt lat="46.14871" lon="4.59746">
        <ele>323.14575</ele>
        <time>2022-11-06T13:57:50.000Z</time>
      </trkpt>
      <trkpt lat="46.14873" lon="4.59741">
        <ele>323.11447</ele>
        <time>2022-11-06T13:57:51.000Z</time>
      </trkpt>
      <trkpt lat="46.14876" lon="4.59735">
        <ele>323.04636</ele>
        <time>2022-11-06T13:57:52.000Z</time>
      </trkpt>
      <trkpt lat="46.14878" lon="4.59729">
        <ele>323.08014</ele>
        <time>2022-11-06T13:57:53.000Z</time>
      </trkpt>
      <trkpt lat="46.1488" lon="4.59725">
        <ele>323.14047</ele>
        <time>2022-11-06T13:57:54.000Z</time>
      </trkpt>
      <trkpt lat="46.14881" lon="4.59719">
        <ele>323.19815</ele>
        <time>2022-11-06T13:57:55.000Z</time>
      </trkpt>
      <trkpt lat="46.14883" lon="4.59716">
        <ele>323.27936</ele>
        <time>2022-11-06T13:57:56.000Z</time>
      </trkpt>
      <trkpt lat="46.14884" lon="4.59711">
        <ele>323.35507</ele>
        <time>2022-11-06T13:57:57.000Z</time>
      </trkpt>
      <trkpt lat="46.14887" lon="4.59709">
        <ele>323.42572</ele>
        <time>2022-11-06T13:57:58.000Z</time>
      </trkpt>
      <trkpt lat="46.14888" lon="4.59707">
        <ele>323.50629</ele>
        <time>2022-11-06T13:57:59.000Z</time>
      </trkpt>
      <trkpt lat="46.1489" lon="4.59704">
        <ele>323.5354</ele>
        <time>2022-11-06T13:58:00.000Z</time>
      </trkpt>
      <trkpt lat="46.14892" lon="4.59701">
        <ele>323.5451</ele>
        <time>2022-11-06T13:58:02.000Z</time>
      </trkpt>
      <trkpt lat="46.14893" lon="4.59699">
        <ele>323.72256</ele>
        <time>2022-11-06T13:58:04.000Z</time>
      </trkpt>
      <trkpt lat="46.14894" lon="4.59696">
        <ele>323.89508</ele>
        <time>2022-11-06T13:58:06.000Z</time>
      </trkpt>
      <trkpt lat="46.14894" lon="4.59693">
        <ele>324.09198</ele>
        <time>2022-11-06T13:58:08.000Z</time>
      </trkpt>
      <trkpt lat="46.14896" lon="4.59688">
        <ele>324.25983</ele>
        <time>2022-11-06T13:58:10.000Z</time>
      </trkpt>
      <trkpt lat="46.14896" lon="4.59685">
        <ele>324.4566</ele>
        <time>2022-11-06T13:58:11.000Z</time>
      </trkpt>
      <trkpt lat="46.14896" lon="4.59681">
        <ele>324.66852</ele>
        <time>2022-11-06T13:58:12.000Z</time>
      </trkpt>
      <trkpt lat="46.14897" lon="4.59678">
        <ele>324.95282</ele>
        <time>2022-11-06T13:58:13.000Z</time>
      </trkpt>
      <trkpt lat="46.14897" lon="4.59675">
        <ele>325.2691</ele>
        <time>2022-11-06T13:58:14.000Z</time>
      </trkpt>
      <trkpt lat="46.14898" lon="4.59673">
        <ele>325.72852</ele>
        <time>2022-11-06T13:58:15.000Z</time>
      </trkpt>
      <trkpt lat="46.14899" lon="4.5967">
        <ele>325.87372</ele>
        <time>2022-11-06T13:58:16.000Z</time>
      </trkpt>
      <trkpt lat="46.149" lon="4.59668">
        <ele>326.05084</ele>
        <time>2022-11-06T13:58:17.000Z</time>
      </trkpt>
      <trkpt lat="46.149" lon="4.59665">
        <ele>326.12711</ele>
        <time>2022-11-06T13:58:18.000Z</time>
      </trkpt>
      <trkpt lat="46.14901" lon="4.59663">
        <ele>326.17374</ele>
        <time>2022-11-06T13:58:19.000Z</time>
      </trkpt>
      <trkpt lat="46.14903" lon="4.5966">
        <ele>326.21249</ele>
        <time>2022-11-06T13:58:20.000Z</time>
      </trkpt>
      <trkpt lat="46.14905" lon="4.59658">
        <ele>326.24518</ele>
        <time>2022-11-06T13:58:21.000Z</time>
      </trkpt>
      <trkpt lat="46.14906" lon="4.59654">
        <ele>326.25974</ele>
        <time>2022-11-06T13:58:22.000Z</time>
      </trkpt>
      <trkpt lat="46.14908" lon="4.59651">
        <ele>326.2865</ele>
        <time>2022-11-06T13:58:23.000Z</time>
      </trkpt>
      <trkpt lat="46.1491" lon="4.59648">
        <ele>326.29672</ele>
        <time>2022-11-06T13:58:24.000Z</time>
      </trkpt>
      <trkpt lat="46.14912" lon="4.59646">
        <ele>326.36349</ele>
        <time>2022-11-06T13:58:25.000Z</time>
      </trkpt>
      <trkpt lat="46.14915" lon="4.59644">
        <ele>326.29568</ele>
        <time>2022-11-06T13:58:26.000Z</time>
      </trkpt>
      <trkpt lat="46.14918" lon="4.59643">
        <ele>326.20425</ele>
        <time>2022-11-06T13:58:27.000Z</time>
      </trkpt>
      <trkpt lat="46.1492" lon="4.59641">
        <ele>325.99634</ele>
        <time>2022-11-06T13:58:28.000Z</time>
      </trkpt>
      <trkpt lat="46.14921" lon="4.59638">
        <ele>326.09225</ele>
        <time>2022-11-06T13:58:29.000Z</time>
      </trkpt>
      <trkpt lat="46.14923" lon="4.59635">
        <ele>326.13434</ele>
        <time>2022-11-06T13:58:30.000Z</time>
      </trkpt>
      <trkpt lat="46.14925" lon="4.59633">
        <ele>326.16071</ele>
        <time>2022-11-06T13:58:31.000Z</time>
      </trkpt>
      <trkpt lat="46.14927" lon="4.59632">
        <ele>326.16928</ele>
        <time>2022-11-06T13:58:32.000Z</time>
      </trkpt>
      <trkpt lat="46.14929" lon="4.59631">
        <ele>326.21213</ele>
        <time>2022-11-06T13:58:33.000Z</time>
      </trkpt>
      <trkpt lat="46.14931" lon="4.59631">
        <ele>326.26288</ele>
        <time>2022-11-06T13:58:34.000Z</time>
      </trkpt>
      <trkpt lat="46.1493" lon="4.59627">
        <ele>326.28986</ele>
        <time>2022-11-06T14:00:57.000Z</time>
      </trkpt>
      <trkpt lat="46.14929" lon="4.59624">
        <ele>326.33575</ele>
        <time>2022-11-06T14:00:59.000Z</time>
      </trkpt>
      <trkpt lat="46.14926" lon="4.59621">
        <ele>326.36893</ele>
        <time>2022-11-06T14:01:01.000Z</time>
      </trkpt>
      <trkpt lat="46.14924" lon="4.59619">
        <ele>326.41464</ele>
        <time>2022-11-06T14:01:02.000Z</time>
      </trkpt>
      <trkpt lat="46.14921" lon="4.5962">
        <ele>326.4433</ele>
        <time>2022-11-06T14:01:03.000Z</time>
      </trkpt>
      <trkpt lat="46.1492" lon="4.59623">
        <ele>326.48608</ele>
        <time>2022-11-06T14:01:04.000Z</time>
      </trkpt>
      <trkpt lat="46.14918" lon="4.59627">
        <ele>326.49255</ele>
        <time>2022-11-06T14:01:05.000Z</time>
      </trkpt>
      <trkpt lat="46.14917" lon="4.59631">
        <ele>326.50781</ele>
        <time>2022-11-06T14:01:06.000Z</time>
      </trkpt>
      <trkpt lat="46.14915" lon="4.59635">
        <ele>326.52155</ele>
        <time>2022-11-06T14:01:07.000Z</time>
      </trkpt>
      <trkpt lat="46.14914" lon="4.59639">
        <ele>326.55536</ele>
        <time>2022-11-06T14:01:08.000Z</time>
      </trkpt>
      <trkpt lat="46.14912" lon="4.59643">
        <ele>326.61322</ele>
        <time>2022-11-06T14:01:09.000Z</time>
      </trkpt>
      <trkpt lat="46.14911" lon="4.59646">
        <ele>326.82593</ele>
        <time>2022-11-06T14:01:10.000Z</time>
      </trkpt>
      <trkpt lat="46.14909" lon="4.5965">
        <ele>327.00055</ele>
        <time>2022-11-06T14:01:11.000Z</time>
      </trkpt>
      <trkpt lat="46.14908" lon="4.59652">
        <ele>327.31409</ele>
        <time>2022-11-06T14:01:12.000Z</time>
      </trkpt>
      <trkpt lat="46.14906" lon="4.59655">
        <ele>327.30988</ele>
        <time>2022-11-06T14:01:13.000Z</time>
      </trkpt>
      <trkpt lat="46.14905" lon="4.59658">
        <ele>327.37091</ele>
        <time>2022-11-06T14:01:14.000Z</time>
      </trkpt>
      <trkpt lat="46.14903" lon="4.59661">
        <ele>327.43784</ele>
        <time>2022-11-06T14:01:15.000Z</time>
      </trkpt>
      <trkpt lat="46.14902" lon="4.59665">
        <ele>327.53375</ele>
        <time>2022-11-06T14:01:16.000Z</time>
      </trkpt>
      <trkpt lat="46.14901" lon="4.59668">
        <ele>327.62054</ele>
        <time>2022-11-06T14:01:17.000Z</time>
      </trkpt>
      <trkpt lat="46.149" lon="4.59672">
        <ele>327.68256</ele>
        <time>2022-11-06T14:01:18.000Z</time>
      </trkpt>
      <trkpt lat="46.149" lon="4.59676">
        <ele>327.75189</ele>
        <time>2022-11-06T14:01:19.000Z</time>
      </trkpt>
      <trkpt lat="46.14898" lon="4.5968">
        <ele>327.79651</ele>
        <time>2022-11-06T14:01:20.000Z</time>
      </trkpt>
      <trkpt lat="46.14897" lon="4.59684">
        <ele>327.85101</ele>
        <time>2022-11-06T14:01:21.000Z</time>
      </trkpt>
      <trkpt lat="46.14896" lon="4.59687">
        <ele>327.89395</ele>
        <time>2022-11-06T14:01:22.000Z</time>
      </trkpt>
      <trkpt lat="46.14896" lon="4.5969">
        <ele>327.92346</ele>
        <time>2022-11-06T14:01:24.000Z</time>
      </trkpt>
      <trkpt lat="46.14898" lon="4.59692">
        <ele>327.99533</ele>
        <time>2022-11-06T14:01:26.000Z</time>
      </trkpt>
      <trkpt lat="46.149" lon="4.59691">
        <ele>328.1076</ele>
        <time>2022-11-06T14:02:28.000Z</time>
      </trkpt>
      <trkpt lat="46.14898" lon="4.5969">
        <ele>328.16876</ele>
        <time>2022-11-06T14:02:31.000Z</time>
      </trkpt>
      <trkpt lat="46.14896" lon="4.59689">
        <ele>328.16241</ele>
        <time>2022-11-06T14:04:04.000Z</time>
      </trkpt>
      <trkpt lat="46.14893" lon="4.5969">
        <ele>328.16943</ele>
        <time>2022-11-06T14:04:06.000Z</time>
      </trkpt>
      <trkpt lat="46.14891" lon="4.59693">
        <ele>328.18707</ele>
        <time>2022-11-06T14:04:08.000Z</time>
      </trkpt>
      <trkpt lat="46.14889" lon="4.59697">
        <ele>328.18332</ele>
        <time>2022-11-06T14:04:10.000Z</time>
      </trkpt>
      <trkpt lat="46.14887" lon="4.597">
        <ele>328.2182</ele>
        <time>2022-11-06T14:04:11.000Z</time>
      </trkpt>
      <trkpt lat="46.14886" lon="4.59703">
        <ele>328.22275</ele>
        <time>2022-11-06T14:04:12.000Z</time>
      </trkpt>
      <trkpt lat="46.14885" lon="4.59707">
        <ele>328.23138</ele>
        <time>2022-11-06T14:04:13.000Z</time>
      </trkpt>
      <trkpt lat="46.14885" lon="4.59711">
        <ele>328.21732</ele>
        <time>2022-11-06T14:04:14.000Z</time>
      </trkpt>
      <trkpt lat="46.14884" lon="4.59715">
        <ele>328.18433</ele>
        <time>2022-11-06T14:04:15.000Z</time>
      </trkpt>
      <trkpt lat="46.14882" lon="4.59718">
        <ele>328.14334</ele>
        <time>2022-11-06T14:04:16.000Z</time>
      </trkpt>
      <trkpt lat="46.14881" lon="4.59721">
        <ele>328.08356</ele>
        <time>2022-11-06T14:04:17.000Z</time>
      </trkpt>
      <trkpt lat="46.1488" lon="4.59724">
        <ele>327.99335</ele>
        <time>2022-11-06T14:04:18.000Z</time>
      </trkpt>
      <trkpt lat="46.14879" lon="4.59727">
        <ele>327.91684</ele>
        <time>2022-11-06T14:04:19.000Z</time>
      </trkpt>
      <trkpt lat="46.14878" lon="4.59729">
        <ele>327.83585</ele>
        <time>2022-11-06T14:04:20.000Z</time>
      </trkpt>
      <trkpt lat="46.14877" lon="4.59731">
        <ele>327.76749</ele>
        <time>2022-11-06T14:04:21.000Z</time>
      </trkpt>
      <trkpt lat="46.14875" lon="4.59734">
        <ele>327.70932</ele>
        <time>2022-11-06T14:04:22.000Z</time>
      </trkpt>
      <trkpt lat="46.14874" lon="4.59736">
        <ele>327.68268</ele>
        <time>2022-11-06T14:04:23.000Z</time>
      </trkpt>
      <trkpt lat="46.14872" lon="4.59739">
        <ele>327.6347</ele>
        <time>2022-11-06T14:04:24.000Z</time>
      </trkpt>
      <trkpt lat="46.14871" lon="4.59742">
        <ele>327.56726</ele>
        <time>2022-11-06T14:04:25.000Z</time>
      </trkpt>
      <trkpt lat="46.14869" lon="4.59746">
        <ele>327.52155</ele>
        <time>2022-11-06T14:04:26.000Z</time>
      </trkpt>
      <trkpt lat="46.14867" lon="4.5975">
        <ele>327.52478</ele>
        <time>2022-11-06T14:04:27.000Z</time>
      </trkpt>
      <trkpt lat="46.14866" lon="4.59753">
        <ele>327.50266</ele>
        <time>2022-11-06T14:04:28.000Z</time>
      </trkpt>
      <trkpt lat="46.14865" lon="4.59757">
        <ele>327.42719</ele>
        <time>2022-11-06T14:04:29.000Z</time>
      </trkpt>
      <trkpt lat="46.14863" lon="4.59762">
        <ele>327.36465</ele>
        <time>2022-11-06T14:04:30.000Z</time>
      </trkpt>
      <trkpt lat="46.14862" lon="4.59766">
        <ele>327.29523</ele>
        <time>2022-11-06T14:04:31.000Z</time>
      </trkpt>
      <trkpt lat="46.14861" lon="4.59771">
        <ele>327.23404</ele>
        <time>2022-11-06T14:04:32.000Z</time>
      </trkpt>
      <trkpt lat="46.14859" lon="4.59776">
        <ele>327.14514</ele>
        <time>2022-11-06T14:04:33.000Z</time>
      </trkpt>
      <trkpt lat="46.14858" lon="4.5978">
        <ele>327.08887</ele>
        <time>2022-11-06T14:04:34.000Z</time>
      </trkpt>
      <trkpt lat="46.14857" lon="4.59783">
        <ele>327.04803</ele>
        <time>2022-11-06T14:04:35.000Z</time>
      </trkpt>
      <trkpt lat="46.14856" lon="4.59787">
        <ele>327.00107</ele>
        <time>2022-11-06T14:04:47.000Z</time>
      </trkpt>
      <trkpt lat="46.14855" lon="4.59791">
        <ele>326.94073</ele>
        <time>2022-11-06T14:04:48.000Z</time>
      </trkpt>
      <trkpt lat="46.14854" lon="4.59797">
        <ele>326.90729</ele>
        <time>2022-11-06T14:04:49.000Z</time>
      </trkpt>
      <trkpt lat="46.14853" lon="4.59802">
        <ele>326.87222</ele>
        <time>2022-11-06T14:04:50.000Z</time>
      </trkpt>
      <trkpt lat="46.14851" lon="4.59808">
        <ele>326.83517</ele>
        <time>2022-11-06T14:04:51.000Z</time>
      </trkpt>
      <trkpt lat="46.14849" lon="4.59815">
        <ele>326.79926</ele>
        <time>2022-11-06T14:04:52.000Z</time>
      </trkpt>
      <trkpt lat="46.14847" lon="4.59821">
        <ele>326.74457</ele>
        <time>2022-11-06T14:04:53.000Z</time>
      </trkpt>
      <trkpt lat="46.14845" lon="4.59827">
        <ele>326.67435</ele>
        <time>2022-11-06T14:04:54.000Z</time>
      </trkpt>
      <trkpt lat="46.14843" lon="4.59833">
        <ele>326.56711</ele>
        <time>2022-11-06T14:04:55.000Z</time>
      </trkpt>
      <trkpt lat="46.14841" lon="4.5984">
        <ele>326.44492</ele>
        <time>2022-11-06T14:04:56.000Z</time>
      </trkpt>
      <trkpt lat="46.1484" lon="4.59848">
        <ele>326.3349</ele>
        <time>2022-11-06T14:04:57.000Z</time>
      </trkpt>
      <trkpt lat="46.14837" lon="4.59855">
        <ele>326.23676</ele>
        <time>2022-11-06T14:04:58.000Z</time>
      </trkpt>
      <trkpt lat="46.14835" lon="4.59862">
        <ele>326.12982</ele>
        <time>2022-11-06T14:04:59.000Z</time>
      </trkpt>
      <trkpt lat="46.14832" lon="4.5987">
        <ele>326.02887</ele>
        <time>2022-11-06T14:05:00.000Z</time>
      </trkpt>
      <trkpt lat="46.14829" lon="4.59877">
        <ele>325.91693</ele>
        <time>2022-11-06T14:05:01.000Z</time>
      </trkpt>
      <trkpt lat="46.14826" lon="4.59884">
        <ele>325.84225</ele>
        <time>2022-11-06T14:05:02.000Z</time>
      </trkpt>
      <trkpt lat="46.14823" lon="4.59891">
        <ele>325.77374</ele>
        <time>2022-11-06T14:05:03.000Z</time>
      </trkpt>
      <trkpt lat="46.14819" lon="4.59898">
        <ele>325.7085</ele>
        <time>2022-11-06T14:05:04.000Z</time>
      </trkpt>
      <trkpt lat="46.14816" lon="4.59905">
        <ele>325.63614</ele>
        <time>2022-11-06T14:05:05.000Z</time>
      </trkpt>
      <trkpt lat="46.14813" lon="4.59913">
        <ele>325.53497</ele>
        <time>2022-11-06T14:05:06.000Z</time>
      </trkpt>
      <trkpt lat="46.14809" lon="4.59919">
        <ele>325.43961</ele>
        <time>2022-11-06T14:05:07.000Z</time>
      </trkpt>
      <trkpt lat="46.14805" lon="4.59925">
        <ele>325.37881</ele>
        <time>2022-11-06T14:05:08.000Z</time>
      </trkpt>
      <trkpt lat="46.148" lon="4.59932">
        <ele>325.2832</ele>
        <time>2022-11-06T14:05:09.000Z</time>
      </trkpt>
      <trkpt lat="46.14796" lon="4.59938">
        <ele>325.16931</ele>
        <time>2022-11-06T14:05:10.000Z</time>
      </trkpt>
      <trkpt lat="46.14792" lon="4.59944">
        <ele>325.05786</ele>
        <time>2022-11-06T14:05:11.000Z</time>
      </trkpt>
      <trkpt lat="46.14788" lon="4.59951">
        <ele>324.88321</ele>
        <time>2022-11-06T14:05:12.000Z</time>
      </trkpt>
      <trkpt lat="46.14783" lon="4.59957">
        <ele>324.72235</ele>
        <time>2022-11-06T14:05:13.000Z</time>
      </trkpt>
      <trkpt lat="46.14778" lon="4.59964">
        <ele>324.57355</ele>
        <time>2022-11-06T14:05:14.000Z</time>
      </trkpt>
      <trkpt lat="46.14774" lon="4.59968">
        <ele>324.26257</ele>
        <time>2022-11-06T14:05:15.000Z</time>
      </trkpt>
      <trkpt lat="46.14769" lon="4.59973">
        <ele>323.97528</ele>
        <time>2022-11-06T14:05:16.000Z</time>
      </trkpt>
      <trkpt lat="46.14764" lon="4.59977">
        <ele>323.59351</ele>
        <time>2022-11-06T14:05:17.000Z</time>
      </trkpt>
      <trkpt lat="46.14759" lon="4.59981">
        <ele>323.16275</ele>
        <time>2022-11-06T14:05:18.000Z</time>
      </trkpt>
      <trkpt lat="46.14754" lon="4.59986">
        <ele>323.06537</ele>
        <time>2022-11-06T14:05:19.000Z</time>
      </trkpt>
      <trkpt lat="46.14749" lon="4.5999">
        <ele>322.92349</ele>
        <time>2022-11-06T14:05:20.000Z</time>
      </trkpt>
      <trkpt lat="46.14744" lon="4.59995">
        <ele>322.8475</ele>
        <time>2022-11-06T14:05:21.000Z</time>
      </trkpt>
      <trkpt lat="46.1474" lon="4.59999">
        <ele>322.73529</ele>
        <time>2022-11-06T14:05:22.000Z</time>
      </trkpt>
      <trkpt lat="46.14735" lon="4.60004">
        <ele>322.66092</ele>
        <time>2022-11-06T14:05:23.000Z</time>
      </trkpt>
      <trkpt lat="46.1473" lon="4.60009">
        <ele>322.60468</ele>
        <time>2022-11-06T14:05:24.000Z</time>
      </trkpt>
      <trkpt lat="46.14727" lon="4.60014">
        <ele>322.5162</ele>
        <time>2022-11-06T14:05:25.000Z</time>
      </trkpt>
      <trkpt lat="46.14724" lon="4.60017">
        <ele>322.40802</ele>
        <time>2022-11-06T14:05:26.000Z</time>
      </trkpt>
      <trkpt lat="46.1472" lon="4.6002">
        <ele>322.29919</ele>
        <time>2022-11-06T14:05:27.000Z</time>
      </trkpt>
      <trkpt lat="46.14716" lon="4.60023">
        <ele>322.16891</ele>
        <time>2022-11-06T14:05:28.000Z</time>
      </trkpt>
      <trkpt lat="46.14713" lon="4.60025">
        <ele>322.06476</ele>
        <time>2022-11-06T14:05:29.000Z</time>
      </trkpt>
      <trkpt lat="46.14708" lon="4.60028">
        <ele>321.97284</ele>
        <time>2022-11-06T14:05:30.000Z</time>
      </trkpt>
      <trkpt lat="46.14704" lon="4.60032">
        <ele>321.88251</ele>
        <time>2022-11-06T14:05:31.000Z</time>
      </trkpt>
      <trkpt lat="46.14698" lon="4.60034">
        <ele>321.85425</ele>
        <time>2022-11-06T14:05:32.000Z</time>
      </trkpt>
      <trkpt lat="46.14693" lon="4.60036">
        <ele>321.82062</ele>
        <time>2022-11-06T14:05:33.000Z</time>
      </trkpt>
      <trkpt lat="46.14688" lon="4.60039">
        <ele>321.78534</ele>
        <time>2022-11-06T14:05:34.000Z</time>
      </trkpt>
      <trkpt lat="46.14683" lon="4.60042">
        <ele>321.90887</ele>
        <time>2022-11-06T14:05:35.000Z</time>
      </trkpt>
      <trkpt lat="46.14678" lon="4.60045">
        <ele>322.00323</ele>
        <time>2022-11-06T14:05:36.000Z</time>
      </trkpt>
      <trkpt lat="46.14673" lon="4.60048">
        <ele>322.18759</ele>
        <time>2022-11-06T14:05:37.000Z</time>
      </trkpt>
      <trkpt lat="46.14668" lon="4.60051">
        <ele>322.41742</ele>
        <time>2022-11-06T14:05:38.000Z</time>
      </trkpt>
      <trkpt lat="46.14662" lon="4.60053">
        <ele>322.35049</ele>
        <time>2022-11-06T14:05:39.000Z</time>
      </trkpt>
      <trkpt lat="46.14657" lon="4.60056">
        <ele>322.31305</ele>
        <time>2022-11-06T14:05:40.000Z</time>
      </trkpt>
      <trkpt lat="46.14653" lon="4.60058">
        <ele>322.13464</ele>
        <time>2022-11-06T14:05:41.000Z</time>
      </trkpt>
      <trkpt lat="46.14648" lon="4.60061">
        <ele>321.93665</ele>
        <time>2022-11-06T14:05:42.000Z</time>
      </trkpt>
      <trkpt lat="46.14644" lon="4.60064">
        <ele>321.69107</ele>
        <time>2022-11-06T14:05:43.000Z</time>
      </trkpt>
      <trkpt lat="46.14638" lon="4.60066">
        <ele>321.4422</ele>
        <time>2022-11-06T14:05:44.000Z</time>
      </trkpt>
      <trkpt lat="46.14634" lon="4.60069">
        <ele>321.21515</ele>
        <time>2022-11-06T14:05:45.000Z</time>
      </trkpt>
      <trkpt lat="46.1463" lon="4.60071">
        <ele>321.02917</ele>
        <time>2022-11-06T14:05:46.000Z</time>
      </trkpt>
      <trkpt lat="46.14624" lon="4.60073">
        <ele>320.8299</ele>
        <time>2022-11-06T14:05:47.000Z</time>
      </trkpt>
      <trkpt lat="46.14618" lon="4.60075">
        <ele>320.63431</ele>
        <time>2022-11-06T14:05:48.000Z</time>
      </trkpt>
      <trkpt lat="46.14615" lon="4.60077">
        <ele>320.37823</ele>
        <time>2022-11-06T14:05:49.000Z</time>
      </trkpt>
      <trkpt lat="46.14608" lon="4.60081">
        <ele>320.05914</ele>
        <time>2022-11-06T14:05:50.000Z</time>
      </trkpt>
      <trkpt lat="46.14602" lon="4.60083">
        <ele>319.71866</ele>
        <time>2022-11-06T14:05:51.000Z</time>
      </trkpt>
      <trkpt lat="46.14597" lon="4.60086">
        <ele>319.30707</ele>
        <time>2022-11-06T14:05:52.000Z</time>
      </trkpt>
      <trkpt lat="46.14591" lon="4.60091">
        <ele>318.88785</ele>
        <time>2022-11-06T14:05:53.000Z</time>
      </trkpt>
      <trkpt lat="46.14586" lon="4.60096">
        <ele>318.48993</ele>
        <time>2022-11-06T14:05:54.000Z</time>
      </trkpt>
      <trkpt lat="46.1458" lon="4.60099">
        <ele>318.16208</ele>
        <time>2022-11-06T14:05:55.000Z</time>
      </trkpt>
      <trkpt lat="46.14575" lon="4.60102">
        <ele>317.86929</ele>
        <time>2022-11-06T14:05:56.000Z</time>
      </trkpt>
      <trkpt lat="46.14569" lon="4.60106">
        <ele>317.62436</ele>
        <time>2022-11-06T14:05:57.000Z</time>
      </trkpt>
      <trkpt lat="46.14564" lon="4.6011">
        <ele>317.40381</ele>
        <time>2022-11-06T14:05:58.000Z</time>
      </trkpt>
      <trkpt lat="46.14558" lon="4.60112">
        <ele>317.17099</ele>
        <time>2022-11-06T14:05:59.000Z</time>
      </trkpt>
      <trkpt lat="46.14553" lon="4.60115">
        <ele>317.01904</ele>
        <time>2022-11-06T14:06:00.000Z</time>
      </trkpt>
      <trkpt lat="46.14547" lon="4.60118">
        <ele>317.03116</ele>
        <time>2022-11-06T14:06:01.000Z</time>
      </trkpt>
      <trkpt lat="46.14541" lon="4.60121">
        <ele>317.0423</ele>
        <time>2022-11-06T14:06:02.000Z</time>
      </trkpt>
      <trkpt lat="46.14536" lon="4.60123">
        <ele>317.10184</ele>
        <time>2022-11-06T14:06:03.000Z</time>
      </trkpt>
      <trkpt lat="46.1453" lon="4.60125">
        <ele>317.12985</ele>
        <time>2022-11-06T14:06:04.000Z</time>
      </trkpt>
      <trkpt lat="46.14524" lon="4.60128">
        <ele>317.16092</ele>
        <time>2022-11-06T14:06:05.000Z</time>
      </trkpt>
      <trkpt lat="46.14518" lon="4.60132">
        <ele>317.18027</ele>
        <time>2022-11-06T14:06:06.000Z</time>
      </trkpt>
      <trkpt lat="46.14513" lon="4.60137">
        <ele>317.21548</ele>
        <time>2022-11-06T14:06:07.000Z</time>
      </trkpt>
      <trkpt lat="46.14508" lon="4.60142">
        <ele>317.27249</ele>
        <time>2022-11-06T14:06:08.000Z</time>
      </trkpt>
      <trkpt lat="46.14502" lon="4.60146">
        <ele>317.41827</ele>
        <time>2022-11-06T14:06:09.000Z</time>
      </trkpt>
      <trkpt lat="46.14497" lon="4.60151">
        <ele>317.6315</ele>
        <time>2022-11-06T14:06:10.000Z</time>
      </trkpt>
      <trkpt lat="46.14492" lon="4.60156">
        <ele>317.86652</ele>
        <time>2022-11-06T14:06:11.000Z</time>
      </trkpt>
      <trkpt lat="46.14488" lon="4.60162">
        <ele>318.15604</ele>
        <time>2022-11-06T14:06:12.000Z</time>
      </trkpt>
      <trkpt lat="46.14482" lon="4.60167">
        <ele>318.44452</ele>
        <time>2022-11-06T14:06:13.000Z</time>
      </trkpt>
      <trkpt lat="46.14477" lon="4.60172">
        <ele>318.71637</ele>
        <time>2022-11-06T14:06:14.000Z</time>
      </trkpt>
      <trkpt lat="46.14472" lon="4.60177">
        <ele>318.75494</ele>
        <time>2022-11-06T14:06:15.000Z</time>
      </trkpt>
      <trkpt lat="46.14467" lon="4.60182">
        <ele>318.77881</ele>
        <time>2022-11-06T14:06:16.000Z</time>
      </trkpt>
      <trkpt lat="46.14462" lon="4.60187">
        <ele>318.77606</ele>
        <time>2022-11-06T14:06:17.000Z</time>
      </trkpt>
      <trkpt lat="46.14457" lon="4.60192">
        <ele>318.75204</ele>
        <time>2022-11-06T14:06:18.000Z</time>
      </trkpt>
      <trkpt lat="46.14452" lon="4.60197">
        <ele>318.93066</ele>
        <time>2022-11-06T14:06:19.000Z</time>
      </trkpt>
      <trkpt lat="46.14448" lon="4.60201">
        <ele>318.99539</ele>
        <time>2022-11-06T14:06:20.000Z</time>
      </trkpt>
      <trkpt lat="46.14444" lon="4.60205">
        <ele>319.0004</ele>
        <time>2022-11-06T14:06:21.000Z</time>
      </trkpt>
      <trkpt lat="46.1444" lon="4.60209">
        <ele>319.01556</ele>
        <time>2022-11-06T14:06:22.000Z</time>
      </trkpt>
      <trkpt lat="46.14435" lon="4.60213">
        <ele>318.98492</ele>
        <time>2022-11-06T14:06:23.000Z</time>
      </trkpt>
      <trkpt lat="46.14431" lon="4.60217">
        <ele>318.99188</ele>
        <time>2022-11-06T14:06:24.000Z</time>
      </trkpt>
      <trkpt lat="46.14427" lon="4.60221">
        <ele>319.01483</ele>
        <time>2022-11-06T14:06:25.000Z</time>
      </trkpt>
      <trkpt lat="46.14422" lon="4.60225">
        <ele>319.03766</ele>
        <time>2022-11-06T14:06:26.000Z</time>
      </trkpt>
      <trkpt lat="46.14418" lon="4.60229">
        <ele>318.94946</ele>
        <time>2022-11-06T14:06:27.000Z</time>
      </trkpt>
      <trkpt lat="46.14413" lon="4.60234">
        <ele>318.85803</ele>
        <time>2022-11-06T14:06:28.000Z</time>
      </trkpt>
      <trkpt lat="46.14407" lon="4.60239">
        <ele>318.75595</ele>
        <time>2022-11-06T14:06:29.000Z</time>
      </trkpt>
      <trkpt lat="46.14403" lon="4.60244">
        <ele>318.65833</ele>
        <time>2022-11-06T14:06:30.000Z</time>
      </trkpt>
      <trkpt lat="46.14398" lon="4.60249">
        <ele>318.56647</ele>
        <time>2022-11-06T14:06:31.000Z</time>
      </trkpt>
      <trkpt lat="46.14394" lon="4.60256">
        <ele>318.46234</ele>
        <time>2022-11-06T14:06:32.000Z</time>
      </trkpt>
      <trkpt lat="46.14389" lon="4.60261">
        <ele>318.37357</ele>
        <time>2022-11-06T14:06:33.000Z</time>
      </trkpt>
      <trkpt lat="46.14385" lon="4.60267">
        <ele>318.27509</ele>
        <time>2022-11-06T14:06:34.000Z</time>
      </trkpt>
      <trkpt lat="46.14381" lon="4.60273">
        <ele>318.36743</ele>
        <time>2022-11-06T14:06:35.000Z</time>
      </trkpt>
      <trkpt lat="46.14376" lon="4.60279">
        <ele>318.45636</ele>
        <time>2022-11-06T14:06:36.000Z</time>
      </trkpt>
      <trkpt lat="46.14372" lon="4.60286">
        <ele>318.52802</ele>
        <time>2022-11-06T14:06:37.000Z</time>
      </trkpt>
      <trkpt lat="46.14367" lon="4.60292">
        <ele>318.60007</ele>
        <time>2022-11-06T14:06:38.000Z</time>
      </trkpt>
      <trkpt lat="46.14363" lon="4.60298">
        <ele>318.45819</ele>
        <time>2022-11-06T14:06:39.000Z</time>
      </trkpt>
      <trkpt lat="46.14358" lon="4.60305">
        <ele>318.36777</ele>
        <time>2022-11-06T14:06:40.000Z</time>
      </trkpt>
      <trkpt lat="46.14354" lon="4.60311">
        <ele>318.26831</ele>
        <time>2022-11-06T14:06:41.000Z</time>
      </trkpt>
      <trkpt lat="46.1435" lon="4.60316">
        <ele>318.18301</ele>
        <time>2022-11-06T14:06:42.000Z</time>
      </trkpt>
      <trkpt lat="46.14345" lon="4.60323">
        <ele>318.09204</ele>
        <time>2022-11-06T14:06:43.000Z</time>
      </trkpt>
      <trkpt lat="46.14342" lon="4.60328">
        <ele>317.98096</ele>
        <time>2022-11-06T14:06:44.000Z</time>
      </trkpt>
      <trkpt lat="46.14338" lon="4.60335">
        <ele>317.85574</ele>
        <time>2022-11-06T14:06:45.000Z</time>
      </trkpt>
      <trkpt lat="46.14334" lon="4.60341">
        <ele>317.73676</ele>
        <time>2022-11-06T14:06:46.000Z</time>
      </trkpt>
      <trkpt lat="46.1433" lon="4.60348">
        <ele>317.72131</ele>
        <time>2022-11-06T14:06:47.000Z</time>
      </trkpt>
      <trkpt lat="46.14326" lon="4.60355">
        <ele>317.67551</ele>
        <time>2022-11-06T14:06:48.000Z</time>
      </trkpt>
      <trkpt lat="46.14322" lon="4.60362">
        <ele>317.62714</ele>
        <time>2022-11-06T14:06:49.000Z</time>
      </trkpt>
      <trkpt lat="46.14318" lon="4.60369">
        <ele>317.57825</ele>
        <time>2022-11-06T14:06:50.000Z</time>
      </trkpt>
      <trkpt lat="46.14314" lon="4.60376">
        <ele>317.54587</ele>
        <time>2022-11-06T14:06:51.000Z</time>
      </trkpt>
      <trkpt lat="46.14309" lon="4.60383">
        <ele>317.54379</ele>
        <time>2022-11-06T14:06:52.000Z</time>
      </trkpt>
      <trkpt lat="46.14305" lon="4.6039">
        <ele>317.53229</ele>
        <time>2022-11-06T14:06:53.000Z</time>
      </trkpt>
      <trkpt lat="46.14301" lon="4.60397">
        <ele>317.4238</ele>
        <time>2022-11-06T14:06:54.000Z</time>
      </trkpt>
      <trkpt lat="46.14297" lon="4.60404">
        <ele>317.31805</ele>
        <time>2022-11-06T14:06:55.000Z</time>
      </trkpt>
      <trkpt lat="46.14293" lon="4.60412">
        <ele>317.4523</ele>
        <time>2022-11-06T14:06:56.000Z</time>
      </trkpt>
      <trkpt lat="46.14289" lon="4.60419">
        <ele>317.54431</ele>
        <time>2022-11-06T14:06:57.000Z</time>
      </trkpt>
      <trkpt lat="46.14286" lon="4.60427">
        <ele>317.61945</ele>
        <time>2022-11-06T14:06:58.000Z</time>
      </trkpt>
      <trkpt lat="46.14282" lon="4.60435">
        <ele>317.68414</ele>
        <time>2022-11-06T14:06:59.000Z</time>
      </trkpt>
      <trkpt lat="46.14278" lon="4.60442">
        <ele>317.75888</ele>
        <time>2022-11-06T14:07:00.000Z</time>
      </trkpt>
      <trkpt lat="46.14275" lon="4.60449">
        <ele>317.80624</ele>
        <time>2022-11-06T14:07:01.000Z</time>
      </trkpt>
      <trkpt lat="46.14271" lon="4.60457">
        <ele>317.84137</ele>
        <time>2022-11-06T14:07:02.000Z</time>
      </trkpt>
      <trkpt lat="46.14268" lon="4.60464">
        <ele>317.88779</ele>
        <time>2022-11-06T14:07:03.000Z</time>
      </trkpt>
      <trkpt lat="46.14264" lon="4.60472">
        <ele>317.92001</ele>
        <time>2022-11-06T14:07:04.000Z</time>
      </trkpt>
      <trkpt lat="46.1426" lon="4.6048">
        <ele>317.96542</ele>
        <time>2022-11-06T14:07:05.000Z</time>
      </trkpt>
      <trkpt lat="46.14257" lon="4.60487">
        <ele>318.00787</ele>
        <time>2022-11-06T14:07:06.000Z</time>
      </trkpt>
      <trkpt lat="46.14254" lon="4.60496">
        <ele>318.02716</ele>
        <time>2022-11-06T14:07:07.000Z</time>
      </trkpt>
      <trkpt lat="46.14251" lon="4.60503">
        <ele>318.06717</ele>
        <time>2022-11-06T14:07:08.000Z</time>
      </trkpt>
      <trkpt lat="46.14248" lon="4.60511">
        <ele>318.07999</ele>
        <time>2022-11-06T14:07:09.000Z</time>
      </trkpt>
      <trkpt lat="46.14245" lon="4.60519">
        <ele>318.0831</ele>
        <time>2022-11-06T14:07:10.000Z</time>
      </trkpt>
      <trkpt lat="46.14242" lon="4.60528">
        <ele>318.05627</ele>
        <time>2022-11-06T14:07:11.000Z</time>
      </trkpt>
      <trkpt lat="46.14239" lon="4.60535">
        <ele>318.00323</ele>
        <time>2022-11-06T14:07:12.000Z</time>
      </trkpt>
      <trkpt lat="46.14236" lon="4.60543">
        <ele>317.95975</ele>
        <time>2022-11-06T14:07:13.000Z</time>
      </trkpt>
      <trkpt lat="46.14233" lon="4.6055">
        <ele>317.99292</ele>
        <time>2022-11-06T14:07:14.000Z</time>
      </trkpt>
      <trkpt lat="46.1423" lon="4.60557">
        <ele>318.02328</ele>
        <time>2022-11-06T14:07:15.000Z</time>
      </trkpt>
      <trkpt lat="46.14227" lon="4.60563">
        <ele>317.8147</ele>
        <time>2022-11-06T14:07:16.000Z</time>
      </trkpt>
      <trkpt lat="46.14224" lon="4.60569">
        <ele>317.65924</ele>
        <time>2022-11-06T14:07:17.000Z</time>
      </trkpt>
      <trkpt lat="46.14222" lon="4.60575">
        <ele>317.5061</ele>
        <time>2022-11-06T14:07:18.000Z</time>
      </trkpt>
      <trkpt lat="46.14219" lon="4.60581">
        <ele>317.35654</ele>
        <time>2022-11-06T14:07:19.000Z</time>
      </trkpt>
      <trkpt lat="46.14217" lon="4.60588">
        <ele>317.20599</ele>
        <time>2022-11-06T14:07:20.000Z</time>
      </trkpt>
      <trkpt lat="46.14214" lon="4.60594">
        <ele>317.0751</ele>
        <time>2022-11-06T14:07:21.000Z</time>
      </trkpt>
      <trkpt lat="46.14213" lon="4.60601">
        <ele>316.95987</ele>
        <time>2022-11-06T14:07:22.000Z</time>
      </trkpt>
      <trkpt lat="46.1421" lon="4.60607">
        <ele>316.82913</ele>
        <time>2022-11-06T14:07:23.000Z</time>
      </trkpt>
      <trkpt lat="46.14208" lon="4.60613">
        <ele>316.73413</ele>
        <time>2022-11-06T14:07:24.000Z</time>
      </trkpt>
      <trkpt lat="46.14205" lon="4.60619">
        <ele>316.62714</ele>
        <time>2022-11-06T14:07:25.000Z</time>
      </trkpt>
      <trkpt lat="46.14203" lon="4.60626">
        <ele>316.51913</ele>
        <time>2022-11-06T14:07:26.000Z</time>
      </trkpt>
      <trkpt lat="46.142" lon="4.60632">
        <ele>316.44131</ele>
        <time>2022-11-06T14:07:27.000Z</time>
      </trkpt>
      <trkpt lat="46.14197" lon="4.60639">
        <ele>316.37866</ele>
        <time>2022-11-06T14:07:28.000Z</time>
      </trkpt>
      <trkpt lat="46.14194" lon="4.60647">
        <ele>316.32678</ele>
        <time>2022-11-06T14:07:29.000Z</time>
      </trkpt>
      <trkpt lat="46.14191" lon="4.60655">
        <ele>316.27142</ele>
        <time>2022-11-06T14:07:30.000Z</time>
      </trkpt>
      <trkpt lat="46.14188" lon="4.60662">
        <ele>316.23166</ele>
        <time>2022-11-06T14:07:31.000Z</time>
      </trkpt>
      <trkpt lat="46.14185" lon="4.6067">
        <ele>316.19983</ele>
        <time>2022-11-06T14:07:32.000Z</time>
      </trkpt>
      <trkpt lat="46.14182" lon="4.60677">
        <ele>316.1593</ele>
        <time>2022-11-06T14:07:33.000Z</time>
      </trkpt>
      <trkpt lat="46.14179" lon="4.60685">
        <ele>316.11761</ele>
        <time>2022-11-06T14:07:34.000Z</time>
      </trkpt>
      <trkpt lat="46.14176" lon="4.60692">
        <ele>316.05765</ele>
        <time>2022-11-06T14:07:35.000Z</time>
      </trkpt>
      <trkpt lat="46.14172" lon="4.60701">
        <ele>316.00055</ele>
        <time>2022-11-06T14:07:36.000Z</time>
      </trkpt>
      <trkpt lat="46.1417" lon="4.60709">
        <ele>315.92242</ele>
        <time>2022-11-06T14:07:37.000Z</time>
      </trkpt>
      <trkpt lat="46.14167" lon="4.60716">
        <ele>315.76511</ele>
        <time>2022-11-06T14:07:38.000Z</time>
      </trkpt>
      <trkpt lat="46.14164" lon="4.60724">
        <ele>315.62122</ele>
        <time>2022-11-06T14:07:39.000Z</time>
      </trkpt>
      <trkpt lat="46.14161" lon="4.60731">
        <ele>315.49823</ele>
        <time>2022-11-06T14:07:40.000Z</time>
      </trkpt>
      <trkpt lat="46.14158" lon="4.60739">
        <ele>315.3916</ele>
        <time>2022-11-06T14:07:41.000Z</time>
      </trkpt>
      <trkpt lat="46.14155" lon="4.60746">
        <ele>315.26831</ele>
        <time>2022-11-06T14:07:42.000Z</time>
      </trkpt>
      <trkpt lat="46.14152" lon="4.60754">
        <ele>315.16293</ele>
        <time>2022-11-06T14:07:43.000Z</time>
      </trkpt>
      <trkpt lat="46.14148" lon="4.60762">
        <ele>315.0506</ele>
        <time>2022-11-06T14:07:44.000Z</time>
      </trkpt>
      <trkpt lat="46.14145" lon="4.60769">
        <ele>314.95026</ele>
        <time>2022-11-06T14:07:45.000Z</time>
      </trkpt>
      <trkpt lat="46.14142" lon="4.60776">
        <ele>314.85425</ele>
        <time>2022-11-06T14:07:46.000Z</time>
      </trkpt>
      <trkpt lat="46.14138" lon="4.60783">
        <ele>314.75296</ele>
        <time>2022-11-06T14:07:47.000Z</time>
      </trkpt>
      <trkpt lat="46.14135" lon="4.6079">
        <ele>314.64499</ele>
        <time>2022-11-06T14:07:48.000Z</time>
      </trkpt>
      <trkpt lat="46.14132" lon="4.60798">
        <ele>314.54776</ele>
        <time>2022-11-06T14:07:49.000Z</time>
      </trkpt>
      <trkpt lat="46.14129" lon="4.60806">
        <ele>314.43875</ele>
        <time>2022-11-06T14:07:50.000Z</time>
      </trkpt>
      <trkpt lat="46.14127" lon="4.60813">
        <ele>314.31549</ele>
        <time>2022-11-06T14:07:51.000Z</time>
      </trkpt>
      <trkpt lat="46.14125" lon="4.60818">
        <ele>314.21063</ele>
        <time>2022-11-06T14:07:52.000Z</time>
      </trkpt>
      <trkpt lat="46.14122" lon="4.60824">
        <ele>314.12863</ele>
        <time>2022-11-06T14:07:53.000Z</time>
      </trkpt>
      <trkpt lat="46.14119" lon="4.60831">
        <ele>314.03882</ele>
        <time>2022-11-06T14:07:54.000Z</time>
      </trkpt>
      <trkpt lat="46.14117" lon="4.60837">
        <ele>313.97949</ele>
        <time>2022-11-06T14:07:55.000Z</time>
      </trkpt>
      <trkpt lat="46.14114" lon="4.60844">
        <ele>313.9187</ele>
        <time>2022-11-06T14:07:56.000Z</time>
      </trkpt>
      <trkpt lat="46.14112" lon="4.60851">
        <ele>313.85504</ele>
        <time>2022-11-06T14:07:57.000Z</time>
      </trkpt>
      <trkpt lat="46.14109" lon="4.60857">
        <ele>313.81229</ele>
        <time>2022-11-06T14:07:58.000Z</time>
      </trkpt>
      <trkpt lat="46.14106" lon="4.60865">
        <ele>313.93497</ele>
        <time>2022-11-06T14:07:59.000Z</time>
      </trkpt>
      <trkpt lat="46.14103" lon="4.60873">
        <ele>314.0105</ele>
        <time>2022-11-06T14:08:00.000Z</time>
      </trkpt>
      <trkpt lat="46.141" lon="4.6088">
        <ele>314.08673</ele>
        <time>2022-11-06T14:08:01.000Z</time>
      </trkpt>
      <trkpt lat="46.14097" lon="4.60888">
        <ele>314.17776</ele>
        <time>2022-11-06T14:08:02.000Z</time>
      </trkpt>
      <trkpt lat="46.14095" lon="4.60895">
        <ele>314.27084</ele>
        <time>2022-11-06T14:08:03.000Z</time>
      </trkpt>
      <trkpt lat="46.14092" lon="4.60902">
        <ele>314.36914</ele>
        <time>2022-11-06T14:08:04.000Z</time>
      </trkpt>
      <trkpt lat="46.14089" lon="4.60909">
        <ele>314.44434</ele>
        <time>2022-11-06T14:08:05.000Z</time>
      </trkpt>
      <trkpt lat="46.14087" lon="4.60916">
        <ele>314.53149</ele>
        <time>2022-11-06T14:08:06.000Z</time>
      </trkpt>
      <trkpt lat="46.14085" lon="4.60923">
        <ele>314.61642</ele>
        <time>2022-11-06T14:08:07.000Z</time>
      </trkpt>
      <trkpt lat="46.14082" lon="4.6093">
        <ele>314.70352</ele>
        <time>2022-11-06T14:08:08.000Z</time>
      </trkpt>
      <trkpt lat="46.14079" lon="4.60936">
        <ele>314.77814</ele>
        <time>2022-11-06T14:08:09.000Z</time>
      </trkpt>
      <trkpt lat="46.14077" lon="4.60941">
        <ele>314.87555</ele>
        <time>2022-11-06T14:08:10.000Z</time>
      </trkpt>
      <trkpt lat="46.14075" lon="4.60946">
        <ele>314.97806</ele>
        <time>2022-11-06T14:08:11.000Z</time>
      </trkpt>
      <trkpt lat="46.14072" lon="4.60949">
        <ele>315.05289</ele>
        <time>2022-11-06T14:08:12.000Z</time>
      </trkpt>
      <trkpt lat="46.1407" lon="4.60951">
        <ele>315.08527</ele>
        <time>2022-11-06T14:08:13.000Z</time>
      </trkpt>
      <trkpt lat="46.14066" lon="4.60953">
        <ele>315.16351</ele>
        <time>2022-11-06T14:08:15.000Z</time>
      </trkpt>
      <trkpt lat="46.14064" lon="4.60955">
        <ele>315.24518</ele>
        <time>2022-11-06T14:08:16.000Z</time>
      </trkpt>
      <trkpt lat="46.14064" lon="4.60959">
        <ele>315.32675</ele>
        <time>2022-11-06T14:08:17.000Z</time>
      </trkpt>
      <trkpt lat="46.14064" lon="4.60964">
        <ele>315.40216</ele>
        <time>2022-11-06T14:08:18.000Z</time>
      </trkpt>
      <trkpt lat="46.14063" lon="4.60969">
        <ele>315.54562</ele>
        <time>2022-11-06T14:08:19.000Z</time>
      </trkpt>
      <trkpt lat="46.14062" lon="4.60974">
        <ele>315.49356</ele>
        <time>2022-11-06T14:08:20.000Z</time>
      </trkpt>
      <trkpt lat="46.14061" lon="4.6098">
        <ele>315.4635</ele>
        <time>2022-11-06T14:08:21.000Z</time>
      </trkpt>
      <trkpt lat="46.1406" lon="4.60986">
        <ele>315.44113</ele>
        <time>2022-11-06T14:08:22.000Z</time>
      </trkpt>
      <trkpt lat="46.14059" lon="4.60992">
        <ele>315.42383</ele>
        <time>2022-11-06T14:08:23.000Z</time>
      </trkpt>
      <trkpt lat="46.14057" lon="4.60998">
        <ele>315.39984</ele>
        <time>2022-11-06T14:08:24.000Z</time>
      </trkpt>
      <trkpt lat="46.14055" lon="4.61003">
        <ele>315.33652</ele>
        <time>2022-11-06T14:08:25.000Z</time>
      </trkpt>
      <trkpt lat="46.14052" lon="4.61009">
        <ele>315.2901</ele>
        <time>2022-11-06T14:08:26.000Z</time>
      </trkpt>
      <trkpt lat="46.14049" lon="4.61015">
        <ele>315.24295</ele>
        <time>2022-11-06T14:08:27.000Z</time>
      </trkpt>
      <trkpt lat="46.14046" lon="4.61021">
        <ele>315.20935</ele>
        <time>2022-11-06T14:08:28.000Z</time>
      </trkpt>
      <trkpt lat="46.14043" lon="4.61028">
        <ele>315.09897</ele>
        <time>2022-11-06T14:08:29.000Z</time>
      </trkpt>
      <trkpt lat="46.14041" lon="4.61034">
        <ele>315.01572</ele>
        <time>2022-11-06T14:08:30.000Z</time>
      </trkpt>
      <trkpt lat="46.14039" lon="4.6104">
        <ele>314.93729</ele>
        <time>2022-11-06T14:08:31.000Z</time>
      </trkpt>
      <trkpt lat="46.14037" lon="4.61046">
        <ele>314.84357</ele>
        <time>2022-11-06T14:08:32.000Z</time>
      </trkpt>
      <trkpt lat="46.14033" lon="4.61052">
        <ele>314.74039</ele>
        <time>2022-11-06T14:08:33.000Z</time>
      </trkpt>
      <trkpt lat="46.14031" lon="4.61058">
        <ele>314.65219</ele>
        <time>2022-11-06T14:08:34.000Z</time>
      </trkpt>
      <trkpt lat="46.14029" lon="4.61064">
        <ele>314.53857</ele>
        <time>2022-11-06T14:08:35.000Z</time>
      </trkpt>
      <trkpt lat="46.14026" lon="4.61071">
        <ele>314.40424</ele>
        <time>2022-11-06T14:08:36.000Z</time>
      </trkpt>
      <trkpt lat="46.14022" lon="4.61078">
        <ele>314.25946</ele>
        <time>2022-11-06T14:08:37.000Z</time>
      </trkpt>
      <trkpt lat="46.1402" lon="4.61084">
        <ele>314.13776</ele>
        <time>2022-11-06T14:08:38.000Z</time>
      </trkpt>
      <trkpt lat="46.14017" lon="4.61088">
        <ele>314.0195</ele>
        <time>2022-11-06T14:08:39.000Z</time>
      </trkpt>
      <trkpt lat="46.14014" lon="4.61094">
        <ele>313.90607</ele>
        <time>2022-11-06T14:08:40.000Z</time>
      </trkpt>
      <trkpt lat="46.14011" lon="4.61101">
        <ele>313.78183</ele>
        <time>2022-11-06T14:08:41.000Z</time>
      </trkpt>
      <trkpt lat="46.14008" lon="4.61108">
        <ele>313.6232</ele>
        <time>2022-11-06T14:08:42.000Z</time>
      </trkpt>
      <trkpt lat="46.14006" lon="4.61115">
        <ele>313.43686</ele>
        <time>2022-11-06T14:08:43.000Z</time>
      </trkpt>
      <trkpt lat="46.14003" lon="4.61123">
        <ele>313.26077</ele>
        <time>2022-11-06T14:08:44.000Z</time>
      </trkpt>
      <trkpt lat="46.14" lon="4.6113">
        <ele>313.09943</ele>
        <time>2022-11-06T14:08:45.000Z</time>
      </trkpt>
      <trkpt lat="46.13997" lon="4.61138">
        <ele>312.94757</ele>
        <time>2022-11-06T14:08:46.000Z</time>
      </trkpt>
      <trkpt lat="46.13994" lon="4.61146">
        <ele>312.78909</ele>
        <time>2022-11-06T14:08:47.000Z</time>
      </trkpt>
      <trkpt lat="46.13991" lon="4.61153">
        <ele>312.60327</ele>
        <time>2022-11-06T14:08:48.000Z</time>
      </trkpt>
      <trkpt lat="46.13988" lon="4.61161">
        <ele>312.51178</ele>
        <time>2022-11-06T14:08:49.000Z</time>
      </trkpt>
      <trkpt lat="46.13985" lon="4.61168">
        <ele>312.39728</ele>
        <time>2022-11-06T14:08:50.000Z</time>
      </trkpt>
      <trkpt lat="46.13981" lon="4.61176">
        <ele>312.30438</ele>
        <time>2022-11-06T14:08:51.000Z</time>
      </trkpt>
      <trkpt lat="46.13978" lon="4.61184">
        <ele>312.22595</ele>
        <time>2022-11-06T14:08:52.000Z</time>
      </trkpt>
      <trkpt lat="46.13975" lon="4.61192">
        <ele>312.18732</ele>
        <time>2022-11-06T14:08:53.000Z</time>
      </trkpt>
      <trkpt lat="46.13972" lon="4.612">
        <ele>312.15616</ele>
        <time>2022-11-06T14:08:54.000Z</time>
      </trkpt>
      <trkpt lat="46.13969" lon="4.61207">
        <ele>312.11636</ele>
        <time>2022-11-06T14:08:55.000Z</time>
      </trkpt>
      <trkpt lat="46.13966" lon="4.61213">
        <ele>312.07474</ele>
        <time>2022-11-06T14:08:56.000Z</time>
      </trkpt>
      <trkpt lat="46.13964" lon="4.61221">
        <ele>312.0368</ele>
        <time>2022-11-06T14:08:57.000Z</time>
      </trkpt>
      <trkpt lat="46.13961" lon="4.61229">
        <ele>311.97617</ele>
        <time>2022-11-06T14:08:58.000Z</time>
      </trkpt>
      <trkpt lat="46.13958" lon="4.61235">
        <ele>311.91476</ele>
        <time>2022-11-06T14:08:59.000Z</time>
      </trkpt>
      <trkpt lat="46.13956" lon="4.61242">
        <ele>311.87222</ele>
        <time>2022-11-06T14:09:00.000Z</time>
      </trkpt>
      <trkpt lat="46.13953" lon="4.6125">
        <ele>311.84503</ele>
        <time>2022-11-06T14:09:01.000Z</time>
      </trkpt>
      <trkpt lat="46.1395" lon="4.61257">
        <ele>311.83032</ele>
        <time>2022-11-06T14:09:02.000Z</time>
      </trkpt>
      <trkpt lat="46.13947" lon="4.61264">
        <ele>311.82278</ele>
        <time>2022-11-06T14:09:03.000Z</time>
      </trkpt>
      <trkpt lat="46.13943" lon="4.61272">
        <ele>311.72705</ele>
        <time>2022-11-06T14:09:04.000Z</time>
      </trkpt>
      <trkpt lat="46.13939" lon="4.6128">
        <ele>311.65314</ele>
        <time>2022-11-06T14:09:05.000Z</time>
      </trkpt>
      <trkpt lat="46.13936" lon="4.61287">
        <ele>311.5542</ele>
        <time>2022-11-06T14:09:06.000Z</time>
      </trkpt>
      <trkpt lat="46.13933" lon="4.61294">
        <ele>311.43924</ele>
        <time>2022-11-06T14:09:07.000Z</time>
      </trkpt>
      <trkpt lat="46.13929" lon="4.61301">
        <ele>311.31598</ele>
        <time>2022-11-06T14:09:08.000Z</time>
      </trkpt>
      <trkpt lat="46.13926" lon="4.61309">
        <ele>311.15494</ele>
        <time>2022-11-06T14:09:09.000Z</time>
      </trkpt>
      <trkpt lat="46.13922" lon="4.61317">
        <ele>310.98663</ele>
        <time>2022-11-06T14:09:10.000Z</time>
      </trkpt>
      <trkpt lat="46.13918" lon="4.61324">
        <ele>310.79819</ele>
        <time>2022-11-06T14:09:11.000Z</time>
      </trkpt>
      <trkpt lat="46.13915" lon="4.61332">
        <ele>310.61066</ele>
        <time>2022-11-06T14:09:12.000Z</time>
      </trkpt>
      <trkpt lat="46.13911" lon="4.6134">
        <ele>310.41849</ele>
        <time>2022-11-06T14:09:13.000Z</time>
      </trkpt>
      <trkpt lat="46.13908" lon="4.61347">
        <ele>310.24896</ele>
        <time>2022-11-06T14:09:14.000Z</time>
      </trkpt>
      <trkpt lat="46.13904" lon="4.61355">
        <ele>310.06631</ele>
        <time>2022-11-06T14:09:15.000Z</time>
      </trkpt>
      <trkpt lat="46.139" lon="4.61362">
        <ele>309.87204</ele>
        <time>2022-11-06T14:09:16.000Z</time>
      </trkpt>
      <trkpt lat="46.13897" lon="4.6137">
        <ele>309.6911</ele>
        <time>2022-11-06T14:09:17.000Z</time>
      </trkpt>
      <trkpt lat="46.13893" lon="4.61378">
        <ele>309.54089</ele>
        <time>2022-11-06T14:09:18.000Z</time>
      </trkpt>
      <trkpt lat="46.1389" lon="4.61385">
        <ele>309.41104</ele>
        <time>2022-11-06T14:09:19.000Z</time>
      </trkpt>
      <trkpt lat="46.13887" lon="4.61393">
        <ele>309.27344</ele>
        <time>2022-11-06T14:09:20.000Z</time>
      </trkpt>
      <trkpt lat="46.13883" lon="4.614">
        <ele>308.58383</ele>
        <time>2022-11-06T14:09:21.000Z</time>
      </trkpt>
      <trkpt lat="46.1388" lon="4.61407">
        <ele>307.93146</ele>
        <time>2022-11-06T14:09:22.000Z</time>
      </trkpt>
      <trkpt lat="46.13877" lon="4.61413">
        <ele>307.10703</ele>
        <time>2022-11-06T14:09:23.000Z</time>
      </trkpt>
      <trkpt lat="46.13873" lon="4.6142">
        <ele>306.35556</ele>
        <time>2022-11-06T14:09:24.000Z</time>
      </trkpt>
      <trkpt lat="46.1387" lon="4.61427">
        <ele>306.02017</ele>
        <time>2022-11-06T14:09:25.000Z</time>
      </trkpt>
      <trkpt lat="46.13866" lon="4.61435">
        <ele>305.63541</ele>
        <time>2022-11-06T14:09:26.000Z</time>
      </trkpt>
      <trkpt lat="46.13862" lon="4.61441">
        <ele>305.27936</ele>
        <time>2022-11-06T14:09:27.000Z</time>
      </trkpt>
      <trkpt lat="46.13858" lon="4.61448">
        <ele>305.00308</ele>
        <time>2022-11-06T14:09:28.000Z</time>
      </trkpt>
      <trkpt lat="46.13855" lon="4.61455">
        <ele>304.73257</ele>
        <time>2022-11-06T14:09:29.000Z</time>
      </trkpt>
      <trkpt lat="46.13852" lon="4.61462">
        <ele>304.45941</ele>
        <time>2022-11-06T14:09:30.000Z</time>
      </trkpt>
      <trkpt lat="46.13848" lon="4.61469">
        <ele>303.8316</ele>
        <time>2022-11-06T14:09:31.000Z</time>
      </trkpt>
      <trkpt lat="46.13845" lon="4.61476">
        <ele>303.97028</ele>
        <time>2022-11-06T14:09:32.000Z</time>
      </trkpt>
      <trkpt lat="46.13841" lon="4.61483">
        <ele>304.08444</ele>
        <time>2022-11-06T14:09:33.000Z</time>
      </trkpt>
      <trkpt lat="46.13837" lon="4.6149">
        <ele>304.18738</ele>
        <time>2022-11-06T14:09:34.000Z</time>
      </trkpt>
      <trkpt lat="46.13832" lon="4.61497">
        <ele>304.29602</ele>
        <time>2022-11-06T14:09:35.000Z</time>
      </trkpt>
      <trkpt lat="46.13829" lon="4.61503">
        <ele>304.42096</ele>
        <time>2022-11-06T14:09:36.000Z</time>
      </trkpt>
      <trkpt lat="46.13825" lon="4.61509">
        <ele>304.49365</ele>
        <time>2022-11-06T14:09:37.000Z</time>
      </trkpt>
      <trkpt lat="46.13822" lon="4.61514">
        <ele>304.5639</ele>
        <time>2022-11-06T14:09:38.000Z</time>
      </trkpt>
      <trkpt lat="46.13819" lon="4.61521">
        <ele>304.59198</ele>
        <time>2022-11-06T14:09:39.000Z</time>
      </trkpt>
      <trkpt lat="46.13816" lon="4.61526">
        <ele>304.57016</ele>
        <time>2022-11-06T14:09:40.000Z</time>
      </trkpt>
      <trkpt lat="46.13812" lon="4.61532">
        <ele>305.07788</ele>
        <time>2022-11-06T14:09:41.000Z</time>
      </trkpt>
      <trkpt lat="46.13808" lon="4.61538">
        <ele>305.5036</ele>
        <time>2022-11-06T14:09:42.000Z</time>
      </trkpt>
      <trkpt lat="46.13805" lon="4.61542">
        <ele>306.11298</ele>
        <time>2022-11-06T14:09:43.000Z</time>
      </trkpt>
      <trkpt lat="46.13803" lon="4.61548">
        <ele>306.71893</ele>
        <time>2022-11-06T14:09:44.000Z</time>
      </trkpt>
      <trkpt lat="46.138" lon="4.61552">
        <ele>306.91574</ele>
        <time>2022-11-06T14:09:45.000Z</time>
      </trkpt>
      <trkpt lat="46.13798" lon="4.61556">
        <ele>307.28653</ele>
        <time>2022-11-06T14:09:46.000Z</time>
      </trkpt>
      <trkpt lat="46.13795" lon="4.61558">
        <ele>307.61877</ele>
        <time>2022-11-06T14:09:47.000Z</time>
      </trkpt>
      <trkpt lat="46.13793" lon="4.61563">
        <ele>307.87103</ele>
        <time>2022-11-06T14:09:49.000Z</time>
      </trkpt>
      <trkpt lat="46.13791" lon="4.61566">
        <ele>308.13245</ele>
        <time>2022-11-06T14:09:50.000Z</time>
      </trkpt>
      <trkpt lat="46.13789" lon="4.61569">
        <ele>308.44006</ele>
        <time>2022-11-06T14:09:51.000Z</time>
      </trkpt>
      <trkpt lat="46.13785" lon="4.61573">
        <ele>309.10834</ele>
        <time>2022-11-06T14:09:52.000Z</time>
      </trkpt>
      <trkpt lat="46.13784" lon="4.61575">
        <ele>308.98325</ele>
        <time>2022-11-06T14:09:53.000Z</time>
      </trkpt>
      <trkpt lat="46.13781" lon="4.61578">
        <ele>308.86124</ele>
        <time>2022-11-06T14:09:54.000Z</time>
      </trkpt>
      <trkpt lat="46.13779" lon="4.61582">
        <ele>308.72418</ele>
        <time>2022-11-06T14:09:55.000Z</time>
      </trkpt>
      <trkpt lat="46.13777" lon="4.61585">
        <ele>308.57477</ele>
        <time>2022-11-06T14:09:56.000Z</time>
      </trkpt>
      <trkpt lat="46.13774" lon="4.61589">
        <ele>308.39053</ele>
        <time>2022-11-06T14:09:57.000Z</time>
      </trkpt>
      <trkpt lat="46.13771" lon="4.61596">
        <ele>308.23767</ele>
        <time>2022-11-06T14:09:58.000Z</time>
      </trkpt>
      <trkpt lat="46.13768" lon="4.61602">
        <ele>308.09961</ele>
        <time>2022-11-06T14:09:59.000Z</time>
      </trkpt>
      <trkpt lat="46.13764" lon="4.61606">
        <ele>307.97641</ele>
        <time>2022-11-06T14:10:00.000Z</time>
      </trkpt>
      <trkpt lat="46.13762" lon="4.61612">
        <ele>307.87857</ele>
        <time>2022-11-06T14:10:01.000Z</time>
      </trkpt>
      <trkpt lat="46.13758" lon="4.61617">
        <ele>307.80219</ele>
        <time>2022-11-06T14:10:02.000Z</time>
      </trkpt>
      <trkpt lat="46.13754" lon="4.61623">
        <ele>307.79871</ele>
        <time>2022-11-06T14:10:03.000Z</time>
      </trkpt>
      <trkpt lat="46.1375" lon="4.61629">
        <ele>307.83591</ele>
        <time>2022-11-06T14:10:04.000Z</time>
      </trkpt>
      <trkpt lat="46.13746" lon="4.61635">
        <ele>307.8963</ele>
        <time>2022-11-06T14:10:05.000Z</time>
      </trkpt>
      <trkpt lat="46.13744" lon="4.61639">
        <ele>307.94684</ele>
        <time>2022-11-06T14:10:06.000Z</time>
      </trkpt>
      <trkpt lat="46.1374" lon="4.61644">
        <ele>307.83459</ele>
        <time>2022-11-06T14:10:07.000Z</time>
      </trkpt>
      <trkpt lat="46.13737" lon="4.6165">
        <ele>307.74371</ele>
        <time>2022-11-06T14:10:08.000Z</time>
      </trkpt>
      <trkpt lat="46.13734" lon="4.61657">
        <ele>307.66904</ele>
        <time>2022-11-06T14:10:09.000Z</time>
      </trkpt>
      <trkpt lat="46.1373" lon="4.61662">
        <ele>307.6059</ele>
        <time>2022-11-06T14:10:10.000Z</time>
      </trkpt>
      <trkpt lat="46.13727" lon="4.61667">
        <ele>307.5108</ele>
        <time>2022-11-06T14:10:11.000Z</time>
      </trkpt>
      <trkpt lat="46.13723" lon="4.61673">
        <ele>307.40176</ele>
        <time>2022-11-06T14:10:12.000Z</time>
      </trkpt>
      <trkpt lat="46.13719" lon="4.61678">
        <ele>307.32928</ele>
        <time>2022-11-06T14:10:13.000Z</time>
      </trkpt>
      <trkpt lat="46.13715" lon="4.61683">
        <ele>307.27322</ele>
        <time>2022-11-06T14:10:14.000Z</time>
      </trkpt>
      <trkpt lat="46.13711" lon="4.61688">
        <ele>307.21185</ele>
        <time>2022-11-06T14:10:15.000Z</time>
      </trkpt>
      <trkpt lat="46.13708" lon="4.61694">
        <ele>307.185</ele>
        <time>2022-11-06T14:10:16.000Z</time>
      </trkpt>
      <trkpt lat="46.13704" lon="4.61699">
        <ele>307.19604</ele>
        <time>2022-11-06T14:10:17.000Z</time>
      </trkpt>
      <trkpt lat="46.13699" lon="4.61704">
        <ele>307.20502</ele>
        <time>2022-11-06T14:10:18.000Z</time>
      </trkpt>
      <trkpt lat="46.13695" lon="4.6171">
        <ele>307.19586</ele>
        <time>2022-11-06T14:10:19.000Z</time>
      </trkpt>
      <trkpt lat="46.13691" lon="4.61716">
        <ele>307.17889</ele>
        <time>2022-11-06T14:10:20.000Z</time>
      </trkpt>
      <trkpt lat="46.13687" lon="4.61721">
        <ele>307.19232</ele>
        <time>2022-11-06T14:10:21.000Z</time>
      </trkpt>
      <trkpt lat="46.13683" lon="4.61726">
        <ele>307.19778</ele>
        <time>2022-11-06T14:10:22.000Z</time>
      </trkpt>
      <trkpt lat="46.13679" lon="4.61732">
        <ele>307.15811</ele>
        <time>2022-11-06T14:10:23.000Z</time>
      </trkpt>
      <trkpt lat="46.13675" lon="4.61738">
        <ele>307.08066</ele>
        <time>2022-11-06T14:10:24.000Z</time>
      </trkpt>
      <trkpt lat="46.13671" lon="4.61745">
        <ele>306.96429</ele>
        <time>2022-11-06T14:10:25.000Z</time>
      </trkpt>
      <trkpt lat="46.13667" lon="4.61752">
        <ele>306.83868</ele>
        <time>2022-11-06T14:10:26.000Z</time>
      </trkpt>
      <trkpt lat="46.13662" lon="4.61758">
        <ele>306.77643</ele>
        <time>2022-11-06T14:10:27.000Z</time>
      </trkpt>
      <trkpt lat="46.13657" lon="4.61765">
        <ele>306.68512</ele>
        <time>2022-11-06T14:10:28.000Z</time>
      </trkpt>
      <trkpt lat="46.13653" lon="4.61772">
        <ele>306.61884</ele>
        <time>2022-11-06T14:10:29.000Z</time>
      </trkpt>
      <trkpt lat="46.13649" lon="4.61778">
        <ele>306.55756</ele>
        <time>2022-11-06T14:10:30.000Z</time>
      </trkpt>
      <trkpt lat="46.13645" lon="4.61784">
        <ele>306.50473</ele>
        <time>2022-11-06T14:10:31.000Z</time>
      </trkpt>
      <trkpt lat="46.13641" lon="4.6179">
        <ele>306.47263</ele>
        <time>2022-11-06T14:10:32.000Z</time>
      </trkpt>
      <trkpt lat="46.13637" lon="4.61796">
        <ele>306.42685</ele>
        <time>2022-11-06T14:10:33.000Z</time>
      </trkpt>
      <trkpt lat="46.13632" lon="4.61803">
        <ele>306.37338</ele>
        <time>2022-11-06T14:10:34.000Z</time>
      </trkpt>
      <trkpt lat="46.13628" lon="4.6181">
        <ele>306.32803</ele>
        <time>2022-11-06T14:10:35.000Z</time>
      </trkpt>
      <trkpt lat="46.13624" lon="4.61816">
        <ele>306.25928</ele>
        <time>2022-11-06T14:10:36.000Z</time>
      </trkpt>
      <trkpt lat="46.13619" lon="4.61822">
        <ele>306.20782</ele>
        <time>2022-11-06T14:10:37.000Z</time>
      </trkpt>
      <trkpt lat="46.13615" lon="4.61829">
        <ele>306.1308</ele>
        <time>2022-11-06T14:10:38.000Z</time>
      </trkpt>
      <trkpt lat="46.13611" lon="4.61835">
        <ele>306.1272</ele>
        <time>2022-11-06T14:10:39.000Z</time>
      </trkpt>
      <trkpt lat="46.13607" lon="4.61841">
        <ele>306.11163</ele>
        <time>2022-11-06T14:10:40.000Z</time>
      </trkpt>
      <trkpt lat="46.13602" lon="4.61847">
        <ele>306.08856</ele>
        <time>2022-11-06T14:10:41.000Z</time>
      </trkpt>
      <trkpt lat="46.13598" lon="4.61853">
        <ele>306.07855</ele>
        <time>2022-11-06T14:10:42.000Z</time>
      </trkpt>
      <trkpt lat="46.13593" lon="4.61859">
        <ele>306.09677</ele>
        <time>2022-11-06T14:10:43.000Z</time>
      </trkpt>
      <trkpt lat="46.13589" lon="4.61866">
        <ele>306.12561</ele>
        <time>2022-11-06T14:10:44.000Z</time>
      </trkpt>
      <trkpt lat="46.13584" lon="4.61872">
        <ele>306.16449</ele>
        <time>2022-11-06T14:10:45.000Z</time>
      </trkpt>
      <trkpt lat="46.13579" lon="4.61878">
        <ele>306.20444</ele>
        <time>2022-11-06T14:10:46.000Z</time>
      </trkpt>
      <trkpt lat="46.13575" lon="4.61885">
        <ele>306.22766</ele>
        <time>2022-11-06T14:10:47.000Z</time>
      </trkpt>
      <trkpt lat="46.13571" lon="4.61891">
        <ele>306.24625</ele>
        <time>2022-11-06T14:10:48.000Z</time>
      </trkpt>
      <trkpt lat="46.1357" lon="4.61893">
        <ele>306.25052</ele>
        <time>2022-11-06T14:10:49.000Z</time>
      </trkpt>
      <trkpt lat="46.13567" lon="4.61894">
        <ele>305.7702</ele>
        <time>2022-11-06T14:10:51.000Z</time>
      </trkpt>
      <trkpt lat="46.13565" lon="4.61894">
        <ele>305.30884</ele>
        <time>2022-11-06T14:10:52.000Z</time>
      </trkpt>
      <trkpt lat="46.13562" lon="4.61894">
        <ele>304.80273</ele>
        <time>2022-11-06T14:10:53.000Z</time>
      </trkpt>
      <trkpt lat="46.13559" lon="4.61893">
        <ele>304.29895</ele>
        <time>2022-11-06T14:10:55.000Z</time>
      </trkpt>
      <trkpt lat="46.13556" lon="4.61892">
        <ele>303.83066</ele>
        <time>2022-11-06T14:10:57.000Z</time>
      </trkpt>
      <trkpt lat="46.13554" lon="4.61892">
        <ele>303.37555</ele>
        <time>2022-11-06T14:10:58.000Z</time>
      </trkpt>
      <trkpt lat="46.13554" lon="4.61889">
        <ele>302.7858</ele>
        <time>2022-11-06T14:11:05.000Z</time>
      </trkpt>
      <trkpt lat="46.13552" lon="4.61887">
        <ele>301.85773</ele>
        <time>2022-11-06T14:11:11.000Z</time>
      </trkpt>
      <trkpt lat="46.13551" lon="4.61889">
        <ele>300.99701</ele>
        <time>2022-11-06T14:12:29.000Z</time>
      </trkpt>
      <trkpt lat="46.13551" lon="4.61894">
        <ele>300.19168</ele>
        <time>2022-11-06T14:12:31.000Z</time>
      </trkpt>
      <trkpt lat="46.13552" lon="4.61897">
        <ele>299.43292</ele>
        <time>2022-11-06T14:12:32.000Z</time>
      </trkpt>
      <trkpt lat="46.13555" lon="4.61898">
        <ele>298.67044</ele>
        <time>2022-11-06T14:12:33.000Z</time>
      </trkpt>
      <trkpt lat="46.13557" lon="4.61897">
        <ele>297.91089</ele>
        <time>2022-11-06T14:12:34.000Z</time>
      </trkpt>
      <trkpt lat="46.13559" lon="4.61895">
        <ele>297.14264</ele>
        <time>2022-11-06T14:12:35.000Z</time>
      </trkpt>
      <trkpt lat="46.13562" lon="4.61893">
        <ele>296.34778</ele>
        <time>2022-11-06T14:12:36.000Z</time>
      </trkpt>
      <trkpt lat="46.13564" lon="4.61892">
        <ele>295.57932</ele>
        <time>2022-11-06T14:12:37.000Z</time>
      </trkpt>
      <trkpt lat="46.13566" lon="4.61894">
        <ele>294.84399</ele>
        <time>2022-11-06T14:12:38.000Z</time>
      </trkpt>
      <trkpt lat="46.13568" lon="4.61896">
        <ele>294.12695</ele>
        <time>2022-11-06T14:12:39.000Z</time>
      </trkpt>
      <trkpt lat="46.13568" lon="4.61901">
        <ele>293.34406</ele>
        <time>2022-11-06T14:12:40.000Z</time>
      </trkpt>
      <trkpt lat="46.13566" lon="4.61906">
        <ele>292.55554</ele>
        <time>2022-11-06T14:12:41.000Z</time>
      </trkpt>
      <trkpt lat="46.13561" lon="4.6191">
        <ele>292.23145</ele>
        <time>2022-11-06T14:12:42.000Z</time>
      </trkpt>
      <trkpt lat="46.13557" lon="4.61914">
        <ele>291.90558</ele>
        <time>2022-11-06T14:12:43.000Z</time>
      </trkpt>
      <trkpt lat="46.13554" lon="4.61919">
        <ele>291.50638</ele>
        <time>2022-11-06T14:12:44.000Z</time>
      </trkpt>
      <trkpt lat="46.1355" lon="4.61925">
        <ele>291.42392</ele>
        <time>2022-11-06T14:12:45.000Z</time>
      </trkpt>
      <trkpt lat="46.13547" lon="4.6193">
        <ele>291.26257</ele>
        <time>2022-11-06T14:12:46.000Z</time>
      </trkpt>
      <trkpt lat="46.13543" lon="4.61935">
        <ele>291.05975</ele>
        <time>2022-11-06T14:12:47.000Z</time>
      </trkpt>
      <trkpt lat="46.13539" lon="4.61941">
        <ele>291.00958</ele>
        <time>2022-11-06T14:12:48.000Z</time>
      </trkpt>
      <trkpt lat="46.13535" lon="4.61947">
        <ele>291.26279</ele>
        <time>2022-11-06T14:12:49.000Z</time>
      </trkpt>
      <trkpt lat="46.13531" lon="4.61954">
        <ele>291.46655</ele>
        <time>2022-11-06T14:12:50.000Z</time>
      </trkpt>
      <trkpt lat="46.13528" lon="4.6196">
        <ele>291.5567</ele>
        <time>2022-11-06T14:12:51.000Z</time>
      </trkpt>
      <trkpt lat="46.13524" lon="4.61966">
        <ele>291.61978</ele>
        <time>2022-11-06T14:12:52.000Z</time>
      </trkpt>
      <trkpt lat="46.13519" lon="4.61973">
        <ele>291.69354</ele>
        <time>2022-11-06T14:12:53.000Z</time>
      </trkpt>
      <trkpt lat="46.13515" lon="4.61979">
        <ele>291.75793</ele>
        <time>2022-11-06T14:12:54.000Z</time>
      </trkpt>
      <trkpt lat="46.1351" lon="4.61985">
        <ele>291.81473</ele>
        <time>2022-11-06T14:12:55.000Z</time>
      </trkpt>
      <trkpt lat="46.13505" lon="4.61992">
        <ele>291.7392</ele>
        <time>2022-11-06T14:12:56.000Z</time>
      </trkpt>
      <trkpt lat="46.135" lon="4.61999">
        <ele>291.64896</ele>
        <time>2022-11-06T14:12:57.000Z</time>
      </trkpt>
      <trkpt lat="46.13496" lon="4.62005">
        <ele>291.53503</ele>
        <time>2022-11-06T14:12:58.000Z</time>
      </trkpt>
      <trkpt lat="46.13491" lon="4.62012">
        <ele>291.4184</ele>
        <time>2022-11-06T14:12:59.000Z</time>
      </trkpt>
      <trkpt lat="46.13487" lon="4.62019">
        <ele>291.4299</ele>
        <time>2022-11-06T14:13:00.000Z</time>
      </trkpt>
      <trkpt lat="46.13482" lon="4.62026">
        <ele>291.45575</ele>
        <time>2022-11-06T14:13:01.000Z</time>
      </trkpt>
      <trkpt lat="46.13478" lon="4.62032">
        <ele>291.49283</ele>
        <time>2022-11-06T14:13:02.000Z</time>
      </trkpt>
      <trkpt lat="46.13473" lon="4.62038">
        <ele>291.52252</ele>
        <time>2022-11-06T14:13:03.000Z</time>
      </trkpt>
      <trkpt lat="46.13469" lon="4.62045">
        <ele>291.65985</ele>
        <time>2022-11-06T14:13:04.000Z</time>
      </trkpt>
      <trkpt lat="46.13465" lon="4.62053">
        <ele>291.48001</ele>
        <time>2022-11-06T14:13:05.000Z</time>
      </trkpt>
      <trkpt lat="46.13461" lon="4.6206">
        <ele>291.36273</ele>
        <time>2022-11-06T14:13:06.000Z</time>
      </trkpt>
      <trkpt lat="46.13457" lon="4.62067">
        <ele>291.28271</ele>
        <time>2022-11-06T14:13:07.000Z</time>
      </trkpt>
      <trkpt lat="46.13453" lon="4.62074">
        <ele>291.23187</ele>
        <time>2022-11-06T14:13:08.000Z</time>
      </trkpt>
      <trkpt lat="46.13448" lon="4.62081">
        <ele>291.20547</ele>
        <time>2022-11-06T14:13:09.000Z</time>
      </trkpt>
      <trkpt lat="46.13444" lon="4.62087">
        <ele>291.20242</ele>
        <time>2022-11-06T14:13:10.000Z</time>
      </trkpt>
      <trkpt lat="46.1344" lon="4.62093">
        <ele>291.18198</ele>
        <time>2022-11-06T14:13:11.000Z</time>
      </trkpt>
      <trkpt lat="46.13435" lon="4.62101">
        <ele>291.1394</ele>
        <time>2022-11-06T14:13:12.000Z</time>
      </trkpt>
      <trkpt lat="46.13431" lon="4.62108">
        <ele>291.11508</ele>
        <time>2022-11-06T14:13:13.000Z</time>
      </trkpt>
      <trkpt lat="46.13427" lon="4.62116">
        <ele>291.07562</ele>
        <time>2022-11-06T14:13:14.000Z</time>
      </trkpt>
      <trkpt lat="46.13423" lon="4.62121">
        <ele>291.04633</ele>
        <time>2022-11-06T14:13:15.000Z</time>
      </trkpt>
      <trkpt lat="46.13416" lon="4.62126">
        <ele>291.04852</ele>
        <time>2022-11-06T14:13:16.000Z</time>
      </trkpt>
      <trkpt lat="46.13411" lon="4.62132">
        <ele>291.38254</ele>
        <time>2022-11-06T14:13:17.000Z</time>
      </trkpt>
      <trkpt lat="46.13407" lon="4.62138">
        <ele>291.68704</ele>
        <time>2022-11-06T14:13:18.000Z</time>
      </trkpt>
      <trkpt lat="46.13403" lon="4.62146">
        <ele>291.95572</ele>
        <time>2022-11-06T14:13:19.000Z</time>
      </trkpt>
      <trkpt lat="46.13399" lon="4.62153">
        <ele>292.18463</ele>
        <time>2022-11-06T14:13:20.000Z</time>
      </trkpt>
      <trkpt lat="46.13395" lon="4.6216">
        <ele>292.39154</ele>
        <time>2022-11-06T14:13:21.000Z</time>
      </trkpt>
      <trkpt lat="46.13391" lon="4.62167">
        <ele>292.60449</ele>
        <time>2022-11-06T14:13:22.000Z</time>
      </trkpt>
      <trkpt lat="46.13386" lon="4.62174">
        <ele>292.83536</ele>
        <time>2022-11-06T14:13:23.000Z</time>
      </trkpt>
      <trkpt lat="46.13381" lon="4.6218">
        <ele>293.06335</ele>
        <time>2022-11-06T14:13:24.000Z</time>
      </trkpt>
      <trkpt lat="46.13377" lon="4.62187">
        <ele>293.31039</ele>
        <time>2022-11-06T14:13:25.000Z</time>
      </trkpt>
      <trkpt lat="46.13373" lon="4.62194">
        <ele>293.53589</ele>
        <time>2022-11-06T14:13:26.000Z</time>
      </trkpt>
      <trkpt lat="46.13368" lon="4.622">
        <ele>293.77948</ele>
        <time>2022-11-06T14:13:27.000Z</time>
      </trkpt>
      <trkpt lat="46.13363" lon="4.62206">
        <ele>293.95779</ele>
        <time>2022-11-06T14:13:28.000Z</time>
      </trkpt>
      <trkpt lat="46.13358" lon="4.62214">
        <ele>294.09222</ele>
        <time>2022-11-06T14:13:29.000Z</time>
      </trkpt>
      <trkpt lat="46.13353" lon="4.6222">
        <ele>294.22052</ele>
        <time>2022-11-06T14:13:30.000Z</time>
      </trkpt>
      <trkpt lat="46.13348" lon="4.62227">
        <ele>294.37762</ele>
        <time>2022-11-06T14:13:31.000Z</time>
      </trkpt>
      <trkpt lat="46.13344" lon="4.62233">
        <ele>294.57257</ele>
        <time>2022-11-06T14:13:32.000Z</time>
      </trkpt>
      <trkpt lat="46.13339" lon="4.6224">
        <ele>294.75107</ele>
        <time>2022-11-06T14:13:33.000Z</time>
      </trkpt>
      <trkpt lat="46.13334" lon="4.62246">
        <ele>294.93396</ele>
        <time>2022-11-06T14:13:34.000Z</time>
      </trkpt>
      <trkpt lat="46.13331" lon="4.62252">
        <ele>295.13324</ele>
        <time>2022-11-06T14:13:35.000Z</time>
      </trkpt>
      <trkpt lat="46.13326" lon="4.62259">
        <ele>295.422</ele>
        <time>2022-11-06T14:13:36.000Z</time>
      </trkpt>
      <trkpt lat="46.13322" lon="4.62266">
        <ele>295.35764</ele>
        <time>2022-11-06T14:13:37.000Z</time>
      </trkpt>
      <trkpt lat="46.13318" lon="4.62273">
        <ele>295.3544</ele>
        <time>2022-11-06T14:13:38.000Z</time>
      </trkpt>
      <trkpt lat="46.13314" lon="4.6228">
        <ele>295.38763</ele>
        <time>2022-11-06T14:13:39.000Z</time>
      </trkpt>
      <trkpt lat="46.1331" lon="4.62287">
        <ele>295.42465</ele>
        <time>2022-11-06T14:13:40.000Z</time>
      </trkpt>
      <trkpt lat="46.13304" lon="4.62292">
        <ele>295.50146</ele>
        <time>2022-11-06T14:13:41.000Z</time>
      </trkpt>
      <trkpt lat="46.13298" lon="4.62299">
        <ele>295.59042</ele>
        <time>2022-11-06T14:13:42.000Z</time>
      </trkpt>
      <trkpt lat="46.13294" lon="4.62306">
        <ele>295.62933</ele>
        <time>2022-11-06T14:13:43.000Z</time>
      </trkpt>
      <trkpt lat="46.1329" lon="4.62313">
        <ele>295.62988</ele>
        <time>2022-11-06T14:13:44.000Z</time>
      </trkpt>
      <trkpt lat="46.13284" lon="4.6232">
        <ele>295.58701</ele>
        <time>2022-11-06T14:13:45.000Z</time>
      </trkpt>
      <trkpt lat="46.1328" lon="4.62328">
        <ele>295.53729</ele>
        <time>2022-11-06T14:13:46.000Z</time>
      </trkpt>
      <trkpt lat="46.13274" lon="4.62336">
        <ele>295.427</ele>
        <time>2022-11-06T14:13:47.000Z</time>
      </trkpt>
      <trkpt lat="46.1327" lon="4.62343">
        <ele>295.36832</ele>
        <time>2022-11-06T14:13:48.000Z</time>
      </trkpt>
      <trkpt lat="46.13265" lon="4.62352">
        <ele>295.28253</ele>
        <time>2022-11-06T14:13:49.000Z</time>
      </trkpt>
      <trkpt lat="46.1326" lon="4.62359">
        <ele>295.19751</ele>
        <time>2022-11-06T14:13:50.000Z</time>
      </trkpt>
      <trkpt lat="46.13255" lon="4.62366">
        <ele>295.10379</ele>
        <time>2022-11-06T14:13:51.000Z</time>
      </trkpt>
      <trkpt lat="46.1325" lon="4.62375">
        <ele>295.008</ele>
        <time>2022-11-06T14:13:52.000Z</time>
      </trkpt>
      <trkpt lat="46.13245" lon="4.62382">
        <ele>294.9057</ele>
        <time>2022-11-06T14:13:53.000Z</time>
      </trkpt>
      <trkpt lat="46.13239" lon="4.6239">
        <ele>294.76428</ele>
        <time>2022-11-06T14:13:54.000Z</time>
      </trkpt>
      <trkpt lat="46.13234" lon="4.62397">
        <ele>294.62207</ele>
        <time>2022-11-06T14:13:55.000Z</time>
      </trkpt>
      <trkpt lat="46.13228" lon="4.62404">
        <ele>294.50742</ele>
        <time>2022-11-06T14:13:56.000Z</time>
      </trkpt>
      <trkpt lat="46.13223" lon="4.62412">
        <ele>294.41345</ele>
        <time>2022-11-06T14:13:57.000Z</time>
      </trkpt>
      <trkpt lat="46.13218" lon="4.62419">
        <ele>294.27048</ele>
        <time>2022-11-06T14:13:58.000Z</time>
      </trkpt>
      <trkpt lat="46.13213" lon="4.62426">
        <ele>294.08475</ele>
        <time>2022-11-06T14:13:59.000Z</time>
      </trkpt>
      <trkpt lat="46.13208" lon="4.62434">
        <ele>293.90756</ele>
        <time>2022-11-06T14:14:00.000Z</time>
      </trkpt>
      <trkpt lat="46.13204" lon="4.6244">
        <ele>293.7132</ele>
        <time>2022-11-06T14:14:01.000Z</time>
      </trkpt>
      <trkpt lat="46.132" lon="4.62447">
        <ele>293.48767</ele>
        <time>2022-11-06T14:14:02.000Z</time>
      </trkpt>
      <trkpt lat="46.13196" lon="4.62454">
        <ele>293.29068</ele>
        <time>2022-11-06T14:14:03.000Z</time>
      </trkpt>
      <trkpt lat="46.13192" lon="4.6246">
        <ele>293.14368</ele>
        <time>2022-11-06T14:14:04.000Z</time>
      </trkpt>
      <trkpt lat="46.13188" lon="4.62467">
        <ele>293.01978</ele>
        <time>2022-11-06T14:14:05.000Z</time>
      </trkpt>
      <trkpt lat="46.13184" lon="4.62473">
        <ele>292.91885</ele>
        <time>2022-11-06T14:14:06.000Z</time>
      </trkpt>
      <trkpt lat="46.13179" lon="4.62479">
        <ele>292.84131</ele>
        <time>2022-11-06T14:14:07.000Z</time>
      </trkpt>
      <trkpt lat="46.13174" lon="4.62485">
        <ele>292.74887</ele>
        <time>2022-11-06T14:14:08.000Z</time>
      </trkpt>
      <trkpt lat="46.1317" lon="4.6249">
        <ele>292.7088</ele>
        <time>2022-11-06T14:14:09.000Z</time>
      </trkpt>
      <trkpt lat="46.13166" lon="4.62497">
        <ele>292.68951</ele>
        <time>2022-11-06T14:14:10.000Z</time>
      </trkpt>
      <trkpt lat="46.13162" lon="4.62502">
        <ele>292.65247</ele>
        <time>2022-11-06T14:14:11.000Z</time>
      </trkpt>
      <trkpt lat="46.13159" lon="4.62507">
        <ele>292.59702</ele>
        <time>2022-11-06T14:14:12.000Z</time>
      </trkpt>
      <trkpt lat="46.13155" lon="4.62512">
        <ele>292.55276</ele>
        <time>2022-11-06T14:14:13.000Z</time>
      </trkpt>
      <trkpt lat="46.13152" lon="4.62518">
        <ele>292.55817</ele>
        <time>2022-11-06T14:14:14.000Z</time>
      </trkpt>
      <trkpt lat="46.13149" lon="4.62524">
        <ele>292.53241</ele>
        <time>2022-11-06T14:14:15.000Z</time>
      </trkpt>
      <trkpt lat="46.13146" lon="4.62529">
        <ele>292.49033</ele>
        <time>2022-11-06T14:14:16.000Z</time>
      </trkpt>
      <trkpt lat="46.13143" lon="4.62534">
        <ele>292.4632</ele>
        <time>2022-11-06T14:14:17.000Z</time>
      </trkpt>
      <trkpt lat="46.13139" lon="4.62539">
        <ele>292.44739</ele>
        <time>2022-11-06T14:14:18.000Z</time>
      </trkpt>
      <trkpt lat="46.13136" lon="4.62545">
        <ele>292.48074</ele>
        <time>2022-11-06T14:14:19.000Z</time>
      </trkpt>
      <trkpt lat="46.13133" lon="4.6255">
        <ele>292.54633</ele>
        <time>2022-11-06T14:14:20.000Z</time>
      </trkpt>
      <trkpt lat="46.13129" lon="4.62556">
        <ele>292.43671</ele>
        <time>2022-11-06T14:14:21.000Z</time>
      </trkpt>
      <trkpt lat="46.13126" lon="4.6256">
        <ele>292.32559</ele>
        <time>2022-11-06T14:14:22.000Z</time>
      </trkpt>
      <trkpt lat="46.13122" lon="4.62566">
        <ele>292.19287</ele>
        <time>2022-11-06T14:14:23.000Z</time>
      </trkpt>
      <trkpt lat="46.13118" lon="4.62572">
        <ele>292.01514</ele>
        <time>2022-11-06T14:14:24.000Z</time>
      </trkpt>
      <trkpt lat="46.13115" lon="4.62578">
        <ele>291.86929</ele>
        <time>2022-11-06T14:14:25.000Z</time>
      </trkpt>
      <trkpt lat="46.1311" lon="4.62584">
        <ele>291.69415</ele>
        <time>2022-11-06T14:14:26.000Z</time>
      </trkpt>
      <trkpt lat="46.13106" lon="4.62589">
        <ele>291.52963</ele>
        <time>2022-11-06T14:14:27.000Z</time>
      </trkpt>
      <trkpt lat="46.13101" lon="4.62595">
        <ele>291.39117</ele>
        <time>2022-11-06T14:14:28.000Z</time>
      </trkpt>
      <trkpt lat="46.13097" lon="4.62602">
        <ele>291.26044</ele>
        <time>2022-11-06T14:14:29.000Z</time>
      </trkpt>
      <trkpt lat="46.13093" lon="4.62608">
        <ele>291.10239</ele>
        <time>2022-11-06T14:14:30.000Z</time>
      </trkpt>
      <trkpt lat="46.13089" lon="4.62616">
        <ele>290.9313</ele>
        <time>2022-11-06T14:14:31.000Z</time>
      </trkpt>
      <trkpt lat="46.13085" lon="4.62622">
        <ele>290.76187</ele>
        <time>2022-11-06T14:14:32.000Z</time>
      </trkpt>
      <trkpt lat="46.1308" lon="4.62628">
        <ele>290.61685</ele>
        <time>2022-11-06T14:14:33.000Z</time>
      </trkpt>
      <trkpt lat="46.13076" lon="4.62635">
        <ele>290.45673</ele>
        <time>2022-11-06T14:14:34.000Z</time>
      </trkpt>
      <trkpt lat="46.13071" lon="4.62642">
        <ele>290.31552</ele>
        <time>2022-11-06T14:14:35.000Z</time>
      </trkpt>
      <trkpt lat="46.13067" lon="4.62648">
        <ele>290.18011</ele>
        <time>2022-11-06T14:14:36.000Z</time>
      </trkpt>
      <trkpt lat="46.13062" lon="4.62655">
        <ele>290.01025</ele>
        <time>2022-11-06T14:14:37.000Z</time>
      </trkpt>
      <trkpt lat="46.13058" lon="4.62662">
        <ele>289.85318</ele>
        <time>2022-11-06T14:14:38.000Z</time>
      </trkpt>
      <trkpt lat="46.13054" lon="4.62668">
        <ele>289.6806</ele>
        <time>2022-11-06T14:14:39.000Z</time>
      </trkpt>
      <trkpt lat="46.13049" lon="4.62675">
        <ele>289.48358</ele>
        <time>2022-11-06T14:14:40.000Z</time>
      </trkpt>
      <trkpt lat="46.13045" lon="4.62682">
        <ele>289.4577</ele>
        <time>2022-11-06T14:14:41.000Z</time>
      </trkpt>
      <trkpt lat="46.13041" lon="4.62689">
        <ele>289.42639</ele>
        <time>2022-11-06T14:14:42.000Z</time>
      </trkpt>
      <trkpt lat="46.13036" lon="4.62696">
        <ele>289.41925</ele>
        <time>2022-11-06T14:14:43.000Z</time>
      </trkpt>
      <trkpt lat="46.13033" lon="4.62703">
        <ele>289.41006</ele>
        <time>2022-11-06T14:14:44.000Z</time>
      </trkpt>
      <trkpt lat="46.13028" lon="4.6271">
        <ele>289.35925</ele>
        <time>2022-11-06T14:14:45.000Z</time>
      </trkpt>
      <trkpt lat="46.13024" lon="4.62717">
        <ele>289.32123</ele>
        <time>2022-11-06T14:14:46.000Z</time>
      </trkpt>
      <trkpt lat="46.13019" lon="4.62724">
        <ele>289.28876</ele>
        <time>2022-11-06T14:14:47.000Z</time>
      </trkpt>
      <trkpt lat="46.13014" lon="4.6273">
        <ele>289.21722</ele>
        <time>2022-11-06T14:14:48.000Z</time>
      </trkpt>
      <trkpt lat="46.1301" lon="4.62737">
        <ele>289.17465</ele>
        <time>2022-11-06T14:14:49.000Z</time>
      </trkpt>
      <trkpt lat="46.13005" lon="4.62744">
        <ele>289.1394</ele>
        <time>2022-11-06T14:14:50.000Z</time>
      </trkpt>
      <trkpt lat="46.13001" lon="4.62751">
        <ele>289.11874</ele>
        <time>2022-11-06T14:14:51.000Z</time>
      </trkpt>
      <trkpt lat="46.12997" lon="4.62758">
        <ele>289.00751</ele>
        <time>2022-11-06T14:14:52.000Z</time>
      </trkpt>
      <trkpt lat="46.12993" lon="4.62766">
        <ele>289.16562</ele>
        <time>2022-11-06T14:14:53.000Z</time>
      </trkpt>
      <trkpt lat="46.12988" lon="4.62773">
        <ele>289.27872</ele>
        <time>2022-11-06T14:14:54.000Z</time>
      </trkpt>
      <trkpt lat="46.12983" lon="4.6278">
        <ele>289.3576</ele>
        <time>2022-11-06T14:14:55.000Z</time>
      </trkpt>
      <trkpt lat="46.12979" lon="4.62787">
        <ele>289.43817</ele>
        <time>2022-11-06T14:14:56.000Z</time>
      </trkpt>
      <trkpt lat="46.12974" lon="4.62794">
        <ele>289.52985</ele>
        <time>2022-11-06T14:14:57.000Z</time>
      </trkpt>
      <trkpt lat="46.12969" lon="4.62801">
        <ele>289.62274</ele>
        <time>2022-11-06T14:14:58.000Z</time>
      </trkpt>
      <trkpt lat="46.12965" lon="4.62809">
        <ele>289.72198</ele>
        <time>2022-11-06T14:14:59.000Z</time>
      </trkpt>
      <trkpt lat="46.12961" lon="4.62816">
        <ele>289.81039</ele>
        <time>2022-11-06T14:15:00.000Z</time>
      </trkpt>
      <trkpt lat="46.12957" lon="4.62823">
        <ele>289.90759</ele>
        <time>2022-11-06T14:15:01.000Z</time>
      </trkpt>
      <trkpt lat="46.12953" lon="4.62831">
        <ele>290.03302</ele>
        <time>2022-11-06T14:15:02.000Z</time>
      </trkpt>
      <trkpt lat="46.12949" lon="4.62836">
        <ele>290.11969</ele>
        <time>2022-11-06T14:15:03.000Z</time>
      </trkpt>
      <trkpt lat="46.12944" lon="4.62843">
        <ele>290.22888</ele>
        <time>2022-11-06T14:15:04.000Z</time>
      </trkpt>
      <trkpt lat="46.1294" lon="4.6285">
        <ele>290.35339</ele>
        <time>2022-11-06T14:15:05.000Z</time>
      </trkpt>
      <trkpt lat="46.12936" lon="4.62857">
        <ele>290.48007</ele>
        <time>2022-11-06T14:15:06.000Z</time>
      </trkpt>
      <trkpt lat="46.12931" lon="4.62864">
        <ele>290.60101</ele>
        <time>2022-11-06T14:15:07.000Z</time>
      </trkpt>
      <trkpt lat="46.12927" lon="4.6287">
        <ele>290.72784</ele>
        <time>2022-11-06T14:15:08.000Z</time>
      </trkpt>
      <trkpt lat="46.12923" lon="4.62878">
        <ele>290.81339</ele>
        <time>2022-11-06T14:15:09.000Z</time>
      </trkpt>
      <trkpt lat="46.12919" lon="4.62886">
        <ele>290.89081</ele>
        <time>2022-11-06T14:15:10.000Z</time>
      </trkpt>
      <trkpt lat="46.12914" lon="4.62894">
        <ele>290.95966</ele>
        <time>2022-11-06T14:15:11.000Z</time>
      </trkpt>
      <trkpt lat="46.1291" lon="4.62901">
        <ele>291.12903</ele>
        <time>2022-11-06T14:15:12.000Z</time>
      </trkpt>
      <trkpt lat="46.12904" lon="4.62909">
        <ele>290.96942</ele>
        <time>2022-11-06T14:15:13.000Z</time>
      </trkpt>
      <trkpt lat="46.129" lon="4.62916">
        <ele>290.88394</ele>
        <time>2022-11-06T14:15:14.000Z</time>
      </trkpt>
      <trkpt lat="46.12895" lon="4.62923">
        <ele>290.80756</ele>
        <time>2022-11-06T14:15:15.000Z</time>
      </trkpt>
      <trkpt lat="46.12891" lon="4.62929">
        <ele>290.59933</ele>
        <time>2022-11-06T14:15:16.000Z</time>
      </trkpt>
      <trkpt lat="46.12887" lon="4.62935">
        <ele>290.40546</ele>
        <time>2022-11-06T14:15:17.000Z</time>
      </trkpt>
      <trkpt lat="46.12883" lon="4.62942">
        <ele>290.21304</ele>
        <time>2022-11-06T14:15:18.000Z</time>
      </trkpt>
      <trkpt lat="46.12878" lon="4.62949">
        <ele>290.02811</ele>
        <time>2022-11-06T14:15:19.000Z</time>
      </trkpt>
      <trkpt lat="46.12874" lon="4.62955">
        <ele>289.83575</ele>
        <time>2022-11-06T14:15:20.000Z</time>
      </trkpt>
      <trkpt lat="46.1287" lon="4.62962">
        <ele>289.62567</ele>
        <time>2022-11-06T14:15:21.000Z</time>
      </trkpt>
      <trkpt lat="46.12865" lon="4.62968">
        <ele>289.3902</ele>
        <time>2022-11-06T14:15:22.000Z</time>
      </trkpt>
      <trkpt lat="46.12861" lon="4.62975">
        <ele>289.17975</ele>
        <time>2022-11-06T14:15:23.000Z</time>
      </trkpt>
      <trkpt lat="46.12857" lon="4.62982">
        <ele>288.89166</ele>
        <time>2022-11-06T14:15:24.000Z</time>
      </trkpt>
      <trkpt lat="46.12853" lon="4.62989">
        <ele>288.58679</ele>
        <time>2022-11-06T14:15:25.000Z</time>
      </trkpt>
      <trkpt lat="46.12848" lon="4.62996">
        <ele>288.27612</ele>
        <time>2022-11-06T14:15:26.000Z</time>
      </trkpt>
      <trkpt lat="46.12844" lon="4.63003">
        <ele>288.22769</ele>
        <time>2022-11-06T14:15:27.000Z</time>
      </trkpt>
      <trkpt lat="46.1284" lon="4.6301">
        <ele>288.13647</ele>
        <time>2022-11-06T14:15:28.000Z</time>
      </trkpt>
      <trkpt lat="46.12836" lon="4.63017">
        <ele>288.06006</ele>
        <time>2022-11-06T14:15:29.000Z</time>
      </trkpt>
      <trkpt lat="46.12832" lon="4.63025">
        <ele>287.97797</ele>
        <time>2022-11-06T14:15:30.000Z</time>
      </trkpt>
      <trkpt lat="46.12828" lon="4.63031">
        <ele>287.90518</ele>
        <time>2022-11-06T14:15:31.000Z</time>
      </trkpt>
      <trkpt lat="46.12823" lon="4.63037">
        <ele>287.84335</ele>
        <time>2022-11-06T14:15:32.000Z</time>
      </trkpt>
      <trkpt lat="46.12819" lon="4.63044">
        <ele>287.7981</ele>
        <time>2022-11-06T14:15:33.000Z</time>
      </trkpt>
      <trkpt lat="46.12815" lon="4.63051">
        <ele>287.73325</ele>
        <time>2022-11-06T14:15:34.000Z</time>
      </trkpt>
      <trkpt lat="46.12811" lon="4.63057">
        <ele>287.6839</ele>
        <time>2022-11-06T14:15:35.000Z</time>
      </trkpt>
      <trkpt lat="46.12807" lon="4.63063">
        <ele>287.79718</ele>
        <time>2022-11-06T14:15:36.000Z</time>
      </trkpt>
      <trkpt lat="46.12802" lon="4.63071">
        <ele>287.89935</ele>
        <time>2022-11-06T14:15:37.000Z</time>
      </trkpt>
      <trkpt lat="46.12797" lon="4.63078">
        <ele>287.98636</ele>
        <time>2022-11-06T14:15:38.000Z</time>
      </trkpt>
      <trkpt lat="46.12792" lon="4.63085">
        <ele>288.04413</ele>
        <time>2022-11-06T14:15:39.000Z</time>
      </trkpt>
      <trkpt lat="46.12788" lon="4.63093">
        <ele>288.08344</ele>
        <time>2022-11-06T14:15:40.000Z</time>
      </trkpt>
      <trkpt lat="46.12782" lon="4.63101">
        <ele>288.07471</ele>
        <time>2022-11-06T14:15:41.000Z</time>
      </trkpt>
      <trkpt lat="46.12778" lon="4.6311">
        <ele>288.08606</ele>
        <time>2022-11-06T14:15:42.000Z</time>
      </trkpt>
      <trkpt lat="46.12773" lon="4.63118">
        <ele>288.10599</ele>
        <time>2022-11-06T14:15:43.000Z</time>
      </trkpt>
      <trkpt lat="46.12767" lon="4.63126">
        <ele>288.18921</ele>
        <time>2022-11-06T14:15:44.000Z</time>
      </trkpt>
      <trkpt lat="46.12761" lon="4.63134">
        <ele>288.26865</ele>
        <time>2022-11-06T14:15:45.000Z</time>
      </trkpt>
      <trkpt lat="46.12756" lon="4.63141">
        <ele>288.36969</ele>
        <time>2022-11-06T14:15:46.000Z</time>
      </trkpt>
      <trkpt lat="46.12752" lon="4.63149">
        <ele>288.21472</ele>
        <time>2022-11-06T14:15:47.000Z</time>
      </trkpt>
      <trkpt lat="46.12747" lon="4.63157">
        <ele>288.11203</ele>
        <time>2022-11-06T14:15:48.000Z</time>
      </trkpt>
      <trkpt lat="46.12743" lon="4.63165">
        <ele>288.03241</ele>
        <time>2022-11-06T14:15:49.000Z</time>
      </trkpt>
      <trkpt lat="46.12737" lon="4.63173">
        <ele>287.93396</ele>
        <time>2022-11-06T14:15:50.000Z</time>
      </trkpt>
      <trkpt lat="46.12733" lon="4.6318">
        <ele>287.79404</ele>
        <time>2022-11-06T14:15:51.000Z</time>
      </trkpt>
      <trkpt lat="46.12728" lon="4.63187">
        <ele>287.6041</ele>
        <time>2022-11-06T14:15:52.000Z</time>
      </trkpt>
      <trkpt lat="46.12724" lon="4.63194">
        <ele>287.44202</ele>
        <time>2022-11-06T14:15:53.000Z</time>
      </trkpt>
      <trkpt lat="46.12719" lon="4.63201">
        <ele>287.26224</ele>
        <time>2022-11-06T14:15:54.000Z</time>
      </trkpt>
      <trkpt lat="46.12715" lon="4.63208">
        <ele>287.05075</ele>
        <time>2022-11-06T14:15:55.000Z</time>
      </trkpt>
      <trkpt lat="46.1271" lon="4.63215">
        <ele>286.79007</ele>
        <time>2022-11-06T14:15:56.000Z</time>
      </trkpt>
      <trkpt lat="46.12706" lon="4.63221">
        <ele>286.53806</ele>
        <time>2022-11-06T14:15:57.000Z</time>
      </trkpt>
      <trkpt lat="46.12702" lon="4.63229">
        <ele>286.33719</ele>
        <time>2022-11-06T14:15:58.000Z</time>
      </trkpt>
      <trkpt lat="46.12697" lon="4.63236">
        <ele>286.10605</ele>
        <time>2022-11-06T14:15:59.000Z</time>
      </trkpt>
      <trkpt lat="46.12692" lon="4.63243">
        <ele>285.91302</ele>
        <time>2022-11-06T14:16:00.000Z</time>
      </trkpt>
      <trkpt lat="46.12689" lon="4.6325">
        <ele>285.7496</ele>
        <time>2022-11-06T14:16:01.000Z</time>
      </trkpt>
      <trkpt lat="46.12684" lon="4.63257">
        <ele>285.57526</ele>
        <time>2022-11-06T14:16:02.000Z</time>
      </trkpt>
      <trkpt lat="46.1268" lon="4.63264">
        <ele>285.39496</ele>
        <time>2022-11-06T14:16:03.000Z</time>
      </trkpt>
      <trkpt lat="46.12676" lon="4.6327">
        <ele>285.21866</ele>
        <time>2022-11-06T14:16:04.000Z</time>
      </trkpt>
      <trkpt lat="46.12672" lon="4.63278">
        <ele>285.07816</ele>
        <time>2022-11-06T14:16:05.000Z</time>
      </trkpt>
      <trkpt lat="46.12668" lon="4.63284">
        <ele>284.93021</ele>
        <time>2022-11-06T14:16:06.000Z</time>
      </trkpt>
      <trkpt lat="46.12662" lon="4.63291">
        <ele>284.77335</ele>
        <time>2022-11-06T14:16:07.000Z</time>
      </trkpt>
      <trkpt lat="46.12658" lon="4.63298">
        <ele>284.62415</ele>
        <time>2022-11-06T14:16:08.000Z</time>
      </trkpt>
      <trkpt lat="46.12653" lon="4.63305">
        <ele>284.45245</ele>
        <time>2022-11-06T14:16:09.000Z</time>
      </trkpt>
      <trkpt lat="46.12649" lon="4.63312">
        <ele>284.30634</ele>
        <time>2022-11-06T14:16:10.000Z</time>
      </trkpt>
      <trkpt lat="46.12645" lon="4.63319">
        <ele>284.20184</ele>
        <time>2022-11-06T14:16:11.000Z</time>
      </trkpt>
      <trkpt lat="46.12641" lon="4.63327">
        <ele>284.13596</ele>
        <time>2022-11-06T14:16:12.000Z</time>
      </trkpt>
      <trkpt lat="46.12636" lon="4.63334">
        <ele>284.04193</ele>
        <time>2022-11-06T14:16:13.000Z</time>
      </trkpt>
      <trkpt lat="46.12632" lon="4.63341">
        <ele>283.8999</ele>
        <time>2022-11-06T14:16:14.000Z</time>
      </trkpt>
      <trkpt lat="46.12628" lon="4.63349">
        <ele>283.99844</ele>
        <time>2022-11-06T14:16:15.000Z</time>
      </trkpt>
      <trkpt lat="46.12623" lon="4.63356">
        <ele>284.0459</ele>
        <time>2022-11-06T14:16:16.000Z</time>
      </trkpt>
      <trkpt lat="46.12618" lon="4.63362">
        <ele>284.08295</ele>
        <time>2022-11-06T14:16:17.000Z</time>
      </trkpt>
      <trkpt lat="46.12615" lon="4.6337">
        <ele>284.08762</ele>
        <time>2022-11-06T14:16:18.000Z</time>
      </trkpt>
      <trkpt lat="46.1261" lon="4.63377">
        <ele>284.16071</ele>
        <time>2022-11-06T14:16:19.000Z</time>
      </trkpt>
      <trkpt lat="46.12606" lon="4.63384">
        <ele>284.24109</ele>
        <time>2022-11-06T14:16:20.000Z</time>
      </trkpt>
      <trkpt lat="46.126" lon="4.6339">
        <ele>284.32062</ele>
        <time>2022-11-06T14:16:21.000Z</time>
      </trkpt>
      <trkpt lat="46.12598" lon="4.63398">
        <ele>284.40265</ele>
        <time>2022-11-06T14:16:22.000Z</time>
      </trkpt>
      <trkpt lat="46.12592" lon="4.63405">
        <ele>284.42725</ele>
        <time>2022-11-06T14:16:23.000Z</time>
      </trkpt>
      <trkpt lat="46.12588" lon="4.63411">
        <ele>284.50711</ele>
        <time>2022-11-06T14:16:24.000Z</time>
      </trkpt>
      <trkpt lat="46.12583" lon="4.63418">
        <ele>284.59943</ele>
        <time>2022-11-06T14:16:25.000Z</time>
      </trkpt>
      <trkpt lat="46.12579" lon="4.63424">
        <ele>284.67715</ele>
        <time>2022-11-06T14:16:26.000Z</time>
      </trkpt>
      <trkpt lat="46.12575" lon="4.63431">
        <ele>284.75885</ele>
        <time>2022-11-06T14:16:27.000Z</time>
      </trkpt>
      <trkpt lat="46.12572" lon="4.63438">
        <ele>284.85721</ele>
        <time>2022-11-06T14:16:28.000Z</time>
      </trkpt>
      <trkpt lat="46.12568" lon="4.63443">
        <ele>284.9144</ele>
        <time>2022-11-06T14:16:29.000Z</time>
      </trkpt>
      <trkpt lat="46.12563" lon="4.63448">
        <ele>284.98956</ele>
        <time>2022-11-06T14:16:30.000Z</time>
      </trkpt>
      <trkpt lat="46.12559" lon="4.63455">
        <ele>285.03864</ele>
        <time>2022-11-06T14:16:31.000Z</time>
      </trkpt>
      <trkpt lat="46.12555" lon="4.6346">
        <ele>285.08344</ele>
        <time>2022-11-06T14:16:32.000Z</time>
      </trkpt>
      <trkpt lat="46.12551" lon="4.63466">
        <ele>285.1254</ele>
        <time>2022-11-06T14:16:33.000Z</time>
      </trkpt>
      <trkpt lat="46.12548" lon="4.63472">
        <ele>285.2392</ele>
        <time>2022-11-06T14:16:34.000Z</time>
      </trkpt>
      <trkpt lat="46.12545" lon="4.63476">
        <ele>285.15826</ele>
        <time>2022-11-06T14:16:35.000Z</time>
      </trkpt>
      <trkpt lat="46.12542" lon="4.63481">
        <ele>285.16144</ele>
        <time>2022-11-06T14:16:36.000Z</time>
      </trkpt>
      <trkpt lat="46.12538" lon="4.63486">
        <ele>285.15451</ele>
        <time>2022-11-06T14:16:37.000Z</time>
      </trkpt>
      <trkpt lat="46.12536" lon="4.6349">
        <ele>285.12048</ele>
        <time>2022-11-06T14:16:38.000Z</time>
      </trkpt>
      <trkpt lat="46.12534" lon="4.63493">
        <ele>285.07278</ele>
        <time>2022-11-06T14:16:39.000Z</time>
      </trkpt>
      <trkpt lat="46.12532" lon="4.63496">
        <ele>284.93173</ele>
        <time>2022-11-06T14:16:40.000Z</time>
      </trkpt>
      <trkpt lat="46.12529" lon="4.635">
        <ele>284.7854</ele>
        <time>2022-11-06T14:16:41.000Z</time>
      </trkpt>
      <trkpt lat="46.12528" lon="4.63503">
        <ele>284.64438</ele>
        <time>2022-11-06T14:16:42.000Z</time>
      </trkpt>
      <trkpt lat="46.12527" lon="4.63507">
        <ele>284.56378</ele>
        <time>2022-11-06T14:16:44.000Z</time>
      </trkpt>
      <trkpt lat="46.12525" lon="4.63507">
        <ele>284.45932</ele>
        <time>2022-11-06T14:16:51.000Z</time>
      </trkpt>
      <trkpt lat="46.12525" lon="4.63509">
        <ele>284.33759</ele>
        <time>2022-11-06T14:16:54.000Z</time>
      </trkpt>
      <trkpt lat="46.12523" lon="4.63509">
        <ele>284.28506</ele>
        <time>2022-11-06T14:17:16.000Z</time>
      </trkpt>
      <trkpt lat="46.12522" lon="4.63511">
        <ele>284.2558</ele>
        <time>2022-11-06T14:17:24.000Z</time>
      </trkpt>
      <trkpt lat="46.12522" lon="4.63514">
        <ele>284.2077</ele>
        <time>2022-11-06T14:17:52.000Z</time>
      </trkpt>
      <trkpt lat="46.1252" lon="4.63515">
        <ele>284.18262</ele>
        <time>2022-11-06T14:17:54.000Z</time>
      </trkpt>
      <trkpt lat="46.12517" lon="4.63517">
        <ele>284.15479</ele>
        <time>2022-11-06T14:17:56.000Z</time>
      </trkpt>
      <trkpt lat="46.12515" lon="4.63519">
        <ele>284.13876</ele>
        <time>2022-11-06T14:17:58.000Z</time>
      </trkpt>
      <trkpt lat="46.12513" lon="4.6352">
        <ele>284.13419</ele>
        <time>2022-11-06T14:18:00.000Z</time>
      </trkpt>
      <trkpt lat="46.12512" lon="4.63523">
        <ele>284.31445</ele>
        <time>2022-11-06T14:18:47.000Z</time>
      </trkpt>
      <trkpt lat="46.12511" lon="4.63526">
        <ele>284.48651</ele>
        <time>2022-11-06T14:18:49.000Z</time>
      </trkpt>
      <trkpt lat="46.1251" lon="4.63531">
        <ele>284.60529</ele>
        <time>2022-11-06T14:18:51.000Z</time>
      </trkpt>
      <trkpt lat="46.12508" lon="4.63533">
        <ele>284.70871</ele>
        <time>2022-11-06T14:18:52.000Z</time>
      </trkpt>
      <trkpt lat="46.12506" lon="4.63535">
        <ele>284.82144</ele>
        <time>2022-11-06T14:18:53.000Z</time>
      </trkpt>
      <trkpt lat="46.12504" lon="4.63537">
        <ele>284.93921</ele>
        <time>2022-11-06T14:18:54.000Z</time>
      </trkpt>
      <trkpt lat="46.12502" lon="4.6354">
        <ele>285.04584</ele>
        <time>2022-11-06T14:18:55.000Z</time>
      </trkpt>
      <trkpt lat="46.125" lon="4.63544">
        <ele>285.22592</ele>
        <time>2022-11-06T14:18:56.000Z</time>
      </trkpt>
      <trkpt lat="46.12497" lon="4.63547">
        <ele>285.43488</ele>
        <time>2022-11-06T14:18:57.000Z</time>
      </trkpt>
      <trkpt lat="46.12495" lon="4.6355">
        <ele>285.62219</ele>
        <time>2022-11-06T14:18:58.000Z</time>
      </trkpt>
      <trkpt lat="46.12492" lon="4.63553">
        <ele>285.8262</ele>
        <time>2022-11-06T14:18:59.000Z</time>
      </trkpt>
      <trkpt lat="46.12489" lon="4.63557">
        <ele>286.03412</ele>
        <time>2022-11-06T14:19:00.000Z</time>
      </trkpt>
      <trkpt lat="46.12487" lon="4.63561">
        <ele>286.23682</ele>
        <time>2022-11-06T14:19:01.000Z</time>
      </trkpt>
      <trkpt lat="46.12484" lon="4.63565">
        <ele>286.37741</ele>
        <time>2022-11-06T14:19:02.000Z</time>
      </trkpt>
      <trkpt lat="46.12482" lon="4.63569">
        <ele>286.50751</ele>
        <time>2022-11-06T14:19:03.000Z</time>
      </trkpt>
      <trkpt lat="46.12479" lon="4.63574">
        <ele>286.61328</ele>
        <time>2022-11-06T14:19:04.000Z</time>
      </trkpt>
      <trkpt lat="46.12476" lon="4.63578">
        <ele>286.7179</ele>
        <time>2022-11-06T14:19:05.000Z</time>
      </trkpt>
      <trkpt lat="46.12473" lon="4.63582">
        <ele>286.77448</ele>
        <time>2022-11-06T14:19:06.000Z</time>
      </trkpt>
      <trkpt lat="46.12471" lon="4.63587">
        <ele>286.83047</ele>
        <time>2022-11-06T14:19:07.000Z</time>
      </trkpt>
      <trkpt lat="46.12468" lon="4.63591">
        <ele>286.88016</ele>
        <time>2022-11-06T14:19:08.000Z</time>
      </trkpt>
      <trkpt lat="46.12466" lon="4.63596">
        <ele>286.77179</ele>
        <time>2022-11-06T14:19:09.000Z</time>
      </trkpt>
      <trkpt lat="46.12463" lon="4.636">
        <ele>286.66473</ele>
        <time>2022-11-06T14:19:10.000Z</time>
      </trkpt>
      <trkpt lat="46.12461" lon="4.63605">
        <ele>286.5755</ele>
        <time>2022-11-06T14:19:11.000Z</time>
      </trkpt>
      <trkpt lat="46.12458" lon="4.6361">
        <ele>286.47333</ele>
        <time>2022-11-06T14:19:12.000Z</time>
      </trkpt>
      <trkpt lat="46.12456" lon="4.63614">
        <ele>286.37704</ele>
        <time>2022-11-06T14:19:13.000Z</time>
      </trkpt>
      <trkpt lat="46.12453" lon="4.63619">
        <ele>286.29102</ele>
        <time>2022-11-06T14:19:14.000Z</time>
      </trkpt>
      <trkpt lat="46.1245" lon="4.63623">
        <ele>286.1994</ele>
        <time>2022-11-06T14:19:15.000Z</time>
      </trkpt>
      <trkpt lat="46.12447" lon="4.63628">
        <ele>286.11362</ele>
        <time>2022-11-06T14:19:16.000Z</time>
      </trkpt>
      <trkpt lat="46.12444" lon="4.63633">
        <ele>285.9996</ele>
        <time>2022-11-06T14:19:17.000Z</time>
      </trkpt>
      <trkpt lat="46.12441" lon="4.63637">
        <ele>285.90927</ele>
        <time>2022-11-06T14:19:18.000Z</time>
      </trkpt>
      <trkpt lat="46.12438" lon="4.63641">
        <ele>285.7901</ele>
        <time>2022-11-06T14:19:19.000Z</time>
      </trkpt>
      <trkpt lat="46.12435" lon="4.63646">
        <ele>285.60962</ele>
        <time>2022-11-06T14:19:20.000Z</time>
      </trkpt>
      <trkpt lat="46.12432" lon="4.63652">
        <ele>285.41046</ele>
        <time>2022-11-06T14:19:21.000Z</time>
      </trkpt>
      <trkpt lat="46.1243" lon="4.63657">
        <ele>285.19891</ele>
        <time>2022-11-06T14:19:22.000Z</time>
      </trkpt>
      <trkpt lat="46.12427" lon="4.63661">
        <ele>284.97116</ele>
        <time>2022-11-06T14:19:23.000Z</time>
      </trkpt>
      <trkpt lat="46.12423" lon="4.63666">
        <ele>284.76019</ele>
        <time>2022-11-06T14:19:24.000Z</time>
      </trkpt>
      <trkpt lat="46.12419" lon="4.63671">
        <ele>284.51215</ele>
        <time>2022-11-06T14:19:25.000Z</time>
      </trkpt>
      <trkpt lat="46.12415" lon="4.63676">
        <ele>284.34027</ele>
        <time>2022-11-06T14:19:26.000Z</time>
      </trkpt>
      <trkpt lat="46.12411" lon="4.6368">
        <ele>284.11127</ele>
        <time>2022-11-06T14:19:27.000Z</time>
      </trkpt>
      <trkpt lat="46.12408" lon="4.63685">
        <ele>283.90302</ele>
        <time>2022-11-06T14:19:28.000Z</time>
      </trkpt>
      <trkpt lat="46.12406" lon="4.63689">
        <ele>283.61237</ele>
        <time>2022-11-06T14:19:29.000Z</time>
      </trkpt>
      <trkpt lat="46.12401" lon="4.63695">
        <ele>283.32306</ele>
        <time>2022-11-06T14:19:30.000Z</time>
      </trkpt>
      <trkpt lat="46.12399" lon="4.63699">
        <ele>283.23587</ele>
        <time>2022-11-06T14:19:31.000Z</time>
      </trkpt>
      <trkpt lat="46.12396" lon="4.63703">
        <ele>283.11743</ele>
        <time>2022-11-06T14:19:32.000Z</time>
      </trkpt>
      <trkpt lat="46.12394" lon="4.63707">
        <ele>283.0047</ele>
        <time>2022-11-06T14:19:33.000Z</time>
      </trkpt>
      <trkpt lat="46.12391" lon="4.63712">
        <ele>282.909</ele>
        <time>2022-11-06T14:19:34.000Z</time>
      </trkpt>
      <trkpt lat="46.12388" lon="4.63718">
        <ele>282.81534</ele>
        <time>2022-11-06T14:19:35.000Z</time>
      </trkpt>
      <trkpt lat="46.12385" lon="4.63723">
        <ele>282.72986</ele>
        <time>2022-11-06T14:19:36.000Z</time>
      </trkpt>
      <trkpt lat="46.12381" lon="4.63727">
        <ele>282.6376</ele>
        <time>2022-11-06T14:19:37.000Z</time>
      </trkpt>
      <trkpt lat="46.12378" lon="4.63732">
        <ele>282.56326</ele>
        <time>2022-11-06T14:19:38.000Z</time>
      </trkpt>
      <trkpt lat="46.12374" lon="4.63738">
        <ele>282.49341</ele>
        <time>2022-11-06T14:19:39.000Z</time>
      </trkpt>
      <trkpt lat="46.1237" lon="4.63741">
        <ele>282.45764</ele>
        <time>2022-11-06T14:19:40.000Z</time>
      </trkpt>
      <trkpt lat="46.12368" lon="4.63747">
        <ele>282.42868</ele>
        <time>2022-11-06T14:19:41.000Z</time>
      </trkpt>
      <trkpt lat="46.12364" lon="4.63753">
        <ele>282.3382</ele>
        <time>2022-11-06T14:19:42.000Z</time>
      </trkpt>
      <trkpt lat="46.12361" lon="4.63759">
        <ele>282.25317</ele>
        <time>2022-11-06T14:19:43.000Z</time>
      </trkpt>
      <trkpt lat="46.12358" lon="4.63766">
        <ele>282.21356</ele>
        <time>2022-11-06T14:19:44.000Z</time>
      </trkpt>
      <trkpt lat="46.12354" lon="4.63771">
        <ele>282.24948</ele>
        <time>2022-11-06T14:19:45.000Z</time>
      </trkpt>
      <trkpt lat="46.1235" lon="4.63776">
        <ele>282.22946</ele>
        <time>2022-11-06T14:19:46.000Z</time>
      </trkpt>
      <trkpt lat="46.12347" lon="4.63782">
        <ele>282.27911</ele>
        <time>2022-11-06T14:19:47.000Z</time>
      </trkpt>
      <trkpt lat="46.12343" lon="4.63788">
        <ele>282.27692</ele>
        <time>2022-11-06T14:19:48.000Z</time>
      </trkpt>
      <trkpt lat="46.12339" lon="4.63794">
        <ele>282.34174</ele>
        <time>2022-11-06T14:19:49.000Z</time>
      </trkpt>
      <trkpt lat="46.12335" lon="4.63799">
        <ele>282.40704</ele>
        <time>2022-11-06T14:19:50.000Z</time>
      </trkpt>
      <trkpt lat="46.12331" lon="4.63805">
        <ele>282.25912</ele>
        <time>2022-11-06T14:19:51.000Z</time>
      </trkpt>
      <trkpt lat="46.12328" lon="4.63811">
        <ele>282.14691</ele>
        <time>2022-11-06T14:19:52.000Z</time>
      </trkpt>
      <trkpt lat="46.12323" lon="4.63817">
        <ele>282.01285</ele>
        <time>2022-11-06T14:19:53.000Z</time>
      </trkpt>
      <trkpt lat="46.1232" lon="4.63824">
        <ele>281.87982</ele>
        <time>2022-11-06T14:19:54.000Z</time>
      </trkpt>
      <trkpt lat="46.12316" lon="4.63831">
        <ele>281.73471</ele>
        <time>2022-11-06T14:19:55.000Z</time>
      </trkpt>
      <trkpt lat="46.12312" lon="4.63837">
        <ele>281.59311</ele>
        <time>2022-11-06T14:19:56.000Z</time>
      </trkpt>
      <trkpt lat="46.12309" lon="4.63843">
        <ele>281.46979</ele>
        <time>2022-11-06T14:19:57.000Z</time>
      </trkpt>
      <trkpt lat="46.12305" lon="4.6385">
        <ele>281.32867</ele>
        <time>2022-11-06T14:19:58.000Z</time>
      </trkpt>
      <trkpt lat="46.12302" lon="4.63856">
        <ele>281.18417</ele>
        <time>2022-11-06T14:19:59.000Z</time>
      </trkpt>
      <trkpt lat="46.12297" lon="4.63862">
        <ele>281.02679</ele>
        <time>2022-11-06T14:20:00.000Z</time>
      </trkpt>
      <trkpt lat="46.12293" lon="4.63868">
        <ele>280.8822</ele>
        <time>2022-11-06T14:20:01.000Z</time>
      </trkpt>
      <trkpt lat="46.12289" lon="4.63875">
        <ele>280.80188</ele>
        <time>2022-11-06T14:20:02.000Z</time>
      </trkpt>
      <trkpt lat="46.12286" lon="4.63881">
        <ele>280.71106</ele>
        <time>2022-11-06T14:20:03.000Z</time>
      </trkpt>
      <trkpt lat="46.12282" lon="4.63887">
        <ele>280.56747</ele>
        <time>2022-11-06T14:20:04.000Z</time>
      </trkpt>
      <trkpt lat="46.12278" lon="4.63893">
        <ele>280.42642</ele>
        <time>2022-11-06T14:20:05.000Z</time>
      </trkpt>
      <trkpt lat="46.12275" lon="4.63899">
        <ele>280.30774</ele>
        <time>2022-11-06T14:20:06.000Z</time>
      </trkpt>
      <trkpt lat="46.1227" lon="4.63906">
        <ele>280.16077</ele>
        <time>2022-11-06T14:20:07.000Z</time>
      </trkpt>
      <trkpt lat="46.12266" lon="4.63912">
        <ele>280.03467</ele>
        <time>2022-11-06T14:20:08.000Z</time>
      </trkpt>
      <trkpt lat="46.12262" lon="4.63918">
        <ele>279.8959</ele>
        <time>2022-11-06T14:20:09.000Z</time>
      </trkpt>
      <trkpt lat="46.12257" lon="4.63925">
        <ele>279.74081</ele>
        <time>2022-11-06T14:20:10.000Z</time>
      </trkpt>
      <trkpt lat="46.12254" lon="4.63931">
        <ele>279.64081</ele>
        <time>2022-11-06T14:20:11.000Z</time>
      </trkpt>
      <trkpt lat="46.12249" lon="4.63937">
        <ele>279.4957</ele>
        <time>2022-11-06T14:20:12.000Z</time>
      </trkpt>
      <trkpt lat="46.12246" lon="4.63943">
        <ele>279.52444</ele>
        <time>2022-11-06T14:20:13.000Z</time>
      </trkpt>
      <trkpt lat="46.12242" lon="4.63949">
        <ele>279.49948</ele>
        <time>2022-11-06T14:20:14.000Z</time>
      </trkpt>
      <trkpt lat="46.12238" lon="4.63956">
        <ele>279.49039</ele>
        <time>2022-11-06T14:20:15.000Z</time>
      </trkpt>
      <trkpt lat="46.12234" lon="4.63962">
        <ele>279.46088</ele>
        <time>2022-11-06T14:20:16.000Z</time>
      </trkpt>
      <trkpt lat="46.1223" lon="4.63968">
        <ele>279.47589</ele>
        <time>2022-11-06T14:20:17.000Z</time>
      </trkpt>
      <trkpt lat="46.12227" lon="4.63975">
        <ele>279.50302</ele>
        <time>2022-11-06T14:20:18.000Z</time>
      </trkpt>
      <trkpt lat="46.12223" lon="4.63981">
        <ele>279.55975</ele>
        <time>2022-11-06T14:20:19.000Z</time>
      </trkpt>
      <trkpt lat="46.12218" lon="4.63988">
        <ele>279.60767</ele>
        <time>2022-11-06T14:20:20.000Z</time>
      </trkpt>
      <trkpt lat="46.12213" lon="4.63994">
        <ele>279.64227</ele>
        <time>2022-11-06T14:20:21.000Z</time>
      </trkpt>
      <trkpt lat="46.12209" lon="4.64">
        <ele>279.69781</ele>
        <time>2022-11-06T14:20:22.000Z</time>
      </trkpt>
      <trkpt lat="46.12204" lon="4.64008">
        <ele>279.75067</ele>
        <time>2022-11-06T14:20:23.000Z</time>
      </trkpt>
      <trkpt lat="46.12198" lon="4.64015">
        <ele>279.77271</ele>
        <time>2022-11-06T14:20:24.000Z</time>
      </trkpt>
      <trkpt lat="46.12194" lon="4.64022">
        <ele>279.77548</ele>
        <time>2022-11-06T14:20:25.000Z</time>
      </trkpt>
      <trkpt lat="46.12189" lon="4.64028">
        <ele>279.76935</ele>
        <time>2022-11-06T14:20:26.000Z</time>
      </trkpt>
      <trkpt lat="46.12186" lon="4.64035">
        <ele>279.78973</ele>
        <time>2022-11-06T14:20:27.000Z</time>
      </trkpt>
      <trkpt lat="46.12182" lon="4.64042">
        <ele>279.83908</ele>
        <time>2022-11-06T14:20:28.000Z</time>
      </trkpt>
      <trkpt lat="46.12177" lon="4.64048">
        <ele>279.89056</ele>
        <time>2022-11-06T14:20:29.000Z</time>
      </trkpt>
      <trkpt lat="46.12172" lon="4.64055">
        <ele>279.95074</ele>
        <time>2022-11-06T14:20:30.000Z</time>
      </trkpt>
      <trkpt lat="46.12168" lon="4.64062">
        <ele>279.98444</ele>
        <time>2022-11-06T14:20:31.000Z</time>
      </trkpt>
      <trkpt lat="46.12165" lon="4.64068">
        <ele>280.08276</ele>
        <time>2022-11-06T14:20:32.000Z</time>
      </trkpt>
      <trkpt lat="46.1216" lon="4.64074">
        <ele>280.03583</ele>
        <time>2022-11-06T14:20:33.000Z</time>
      </trkpt>
      <trkpt lat="46.12157" lon="4.6408">
        <ele>280.02942</ele>
        <time>2022-11-06T14:20:34.000Z</time>
      </trkpt>
      <trkpt lat="46.12154" lon="4.64086">
        <ele>280.01944</ele>
        <time>2022-11-06T14:20:35.000Z</time>
      </trkpt>
      <trkpt lat="46.1215" lon="4.64091">
        <ele>280.00482</ele>
        <time>2022-11-06T14:20:36.000Z</time>
      </trkpt>
      <trkpt lat="46.12147" lon="4.64097">
        <ele>279.96182</ele>
        <time>2022-11-06T14:20:37.000Z</time>
      </trkpt>
      <trkpt lat="46.12144" lon="4.64102">
        <ele>279.89175</ele>
        <time>2022-11-06T14:20:38.000Z</time>
      </trkpt>
      <trkpt lat="46.12141" lon="4.64108">
        <ele>279.78558</ele>
        <time>2022-11-06T14:20:39.000Z</time>
      </trkpt>
      <trkpt lat="46.12138" lon="4.64113">
        <ele>279.72546</ele>
        <time>2022-11-06T14:20:40.000Z</time>
      </trkpt>
      <trkpt lat="46.12135" lon="4.64119">
        <ele>279.69019</ele>
        <time>2022-11-06T14:20:41.000Z</time>
      </trkpt>
      <trkpt lat="46.12131" lon="4.64124">
        <ele>279.62952</ele>
        <time>2022-11-06T14:20:42.000Z</time>
      </trkpt>
      <trkpt lat="46.12128" lon="4.6413">
        <ele>279.58292</ele>
        <time>2022-11-06T14:20:43.000Z</time>
      </trkpt>
      <trkpt lat="46.12125" lon="4.64135">
        <ele>279.60052</ele>
        <time>2022-11-06T14:20:44.000Z</time>
      </trkpt>
      <trkpt lat="46.12121" lon="4.64141">
        <ele>279.62302</ele>
        <time>2022-11-06T14:20:45.000Z</time>
      </trkpt>
      <trkpt lat="46.12118" lon="4.64147">
        <ele>279.67291</ele>
        <time>2022-11-06T14:20:46.000Z</time>
      </trkpt>
      <trkpt lat="46.12114" lon="4.64154">
        <ele>279.63635</ele>
        <time>2022-11-06T14:20:47.000Z</time>
      </trkpt>
      <trkpt lat="46.12109" lon="4.64159">
        <ele>279.59113</ele>
        <time>2022-11-06T14:20:48.000Z</time>
      </trkpt>
      <trkpt lat="46.12106" lon="4.64164">
        <ele>279.57291</ele>
        <time>2022-11-06T14:20:49.000Z</time>
      </trkpt>
      <trkpt lat="46.12102" lon="4.6417">
        <ele>279.50653</ele>
        <time>2022-11-06T14:20:50.000Z</time>
      </trkpt>
      <trkpt lat="46.12098" lon="4.64175">
        <ele>279.60138</ele>
        <time>2022-11-06T14:20:51.000Z</time>
      </trkpt>
      <trkpt lat="46.12095" lon="4.64181">
        <ele>279.66241</ele>
        <time>2022-11-06T14:20:52.000Z</time>
      </trkpt>
      <trkpt lat="46.12091" lon="4.64188">
        <ele>279.69412</ele>
        <time>2022-11-06T14:20:53.000Z</time>
      </trkpt>
      <trkpt lat="46.12088" lon="4.64194">
        <ele>279.73874</ele>
        <time>2022-11-06T14:20:54.000Z</time>
      </trkpt>
      <trkpt lat="46.12084" lon="4.64199">
        <ele>279.77597</ele>
        <time>2022-11-06T14:20:55.000Z</time>
      </trkpt>
      <trkpt lat="46.12078" lon="4.64205">
        <ele>279.78867</ele>
        <time>2022-11-06T14:20:56.000Z</time>
      </trkpt>
      <trkpt lat="46.12074" lon="4.64212">
        <ele>279.80145</ele>
        <time>2022-11-06T14:20:57.000Z</time>
      </trkpt>
      <trkpt lat="46.12069" lon="4.64218">
        <ele>279.76062</ele>
        <time>2022-11-06T14:20:58.000Z</time>
      </trkpt>
      <trkpt lat="46.12065" lon="4.64225">
        <ele>279.73236</ele>
        <time>2022-11-06T14:20:59.000Z</time>
      </trkpt>
      <trkpt lat="46.12061" lon="4.6423">
        <ele>279.68573</ele>
        <time>2022-11-06T14:21:00.000Z</time>
      </trkpt>
      <trkpt lat="46.12057" lon="4.64236">
        <ele>279.61621</ele>
        <time>2022-11-06T14:21:01.000Z</time>
      </trkpt>
      <trkpt lat="46.12054" lon="4.64243">
        <ele>279.56741</ele>
        <time>2022-11-06T14:21:02.000Z</time>
      </trkpt>
      <trkpt lat="46.1205" lon="4.6425">
        <ele>279.50983</ele>
        <time>2022-11-06T14:21:03.000Z</time>
      </trkpt>
      <trkpt lat="46.12046" lon="4.64258">
        <ele>279.41495</ele>
        <time>2022-11-06T14:21:04.000Z</time>
      </trkpt>
      <trkpt lat="46.12043" lon="4.64263">
        <ele>279.32306</ele>
        <time>2022-11-06T14:21:05.000Z</time>
      </trkpt>
      <trkpt lat="46.12039" lon="4.64269">
        <ele>279.203</ele>
        <time>2022-11-06T14:21:06.000Z</time>
      </trkpt>
      <trkpt lat="46.12036" lon="4.64276">
        <ele>279.17914</ele>
        <time>2022-11-06T14:21:07.000Z</time>
      </trkpt>
      <trkpt lat="46.12032" lon="4.64283">
        <ele>279.1405</ele>
        <time>2022-11-06T14:21:08.000Z</time>
      </trkpt>
      <trkpt lat="46.12028" lon="4.6429">
        <ele>279.06543</ele>
        <time>2022-11-06T14:21:09.000Z</time>
      </trkpt>
      <trkpt lat="46.12025" lon="4.64297">
        <ele>279.03403</ele>
        <time>2022-11-06T14:21:10.000Z</time>
      </trkpt>
      <trkpt lat="46.12021" lon="4.64303">
        <ele>278.86536</ele>
        <time>2022-11-06T14:21:11.000Z</time>
      </trkpt>
      <trkpt lat="46.12017" lon="4.6431">
        <ele>278.73694</ele>
        <time>2022-11-06T14:21:12.000Z</time>
      </trkpt>
      <trkpt lat="46.12014" lon="4.64316">
        <ele>278.64581</ele>
        <time>2022-11-06T14:21:13.000Z</time>
      </trkpt>
      <trkpt lat="46.1201" lon="4.64323">
        <ele>278.53326</ele>
        <time>2022-11-06T14:21:14.000Z</time>
      </trkpt>
      <trkpt lat="46.12006" lon="4.64331">
        <ele>278.43079</ele>
        <time>2022-11-06T14:21:15.000Z</time>
      </trkpt>
      <trkpt lat="46.12002" lon="4.64337">
        <ele>278.38391</ele>
        <time>2022-11-06T14:21:16.000Z</time>
      </trkpt>
      <trkpt lat="46.11997" lon="4.64343">
        <ele>278.35107</ele>
        <time>2022-11-06T14:21:17.000Z</time>
      </trkpt>
      <trkpt lat="46.11994" lon="4.6435">
        <ele>278.38257</ele>
        <time>2022-11-06T14:21:18.000Z</time>
      </trkpt>
      <trkpt lat="46.1199" lon="4.64356">
        <ele>278.41089</ele>
        <time>2022-11-06T14:21:19.000Z</time>
      </trkpt>
      <trkpt lat="46.11987" lon="4.64363">
        <ele>278.44992</ele>
        <time>2022-11-06T14:21:20.000Z</time>
      </trkpt>
      <trkpt lat="46.11983" lon="4.6437">
        <ele>278.4639</ele>
        <time>2022-11-06T14:21:21.000Z</time>
      </trkpt>
      <trkpt lat="46.1198" lon="4.64376">
        <ele>278.522</ele>
        <time>2022-11-06T14:21:22.000Z</time>
      </trkpt>
      <trkpt lat="46.11978" lon="4.64383">
        <ele>278.57318</ele>
        <time>2022-11-06T14:21:23.000Z</time>
      </trkpt>
      <trkpt lat="46.11975" lon="4.64391">
        <ele>278.64392</ele>
        <time>2022-11-06T14:21:24.000Z</time>
      </trkpt>
      <trkpt lat="46.11971" lon="4.64398">
        <ele>278.69183</ele>
        <time>2022-11-06T14:21:25.000Z</time>
      </trkpt>
      <trkpt lat="46.11969" lon="4.64404">
        <ele>278.75491</ele>
        <time>2022-11-06T14:21:26.000Z</time>
      </trkpt>
      <trkpt lat="46.11967" lon="4.64409">
        <ele>278.70496</ele>
        <time>2022-11-06T14:21:27.000Z</time>
      </trkpt>
      <trkpt lat="46.11964" lon="4.64415">
        <ele>278.66449</ele>
        <time>2022-11-06T14:21:28.000Z</time>
      </trkpt>
      <trkpt lat="46.11964" lon="4.64422">
        <ele>278.69485</ele>
        <time>2022-11-06T14:21:29.000Z</time>
      </trkpt>
      <trkpt lat="46.11962" lon="4.6443">
        <ele>278.76407</ele>
        <time>2022-11-06T14:21:30.000Z</time>
      </trkpt>
      <trkpt lat="46.11958" lon="4.64437">
        <ele>278.8638</ele>
        <time>2022-11-06T14:21:31.000Z</time>
      </trkpt>
      <trkpt lat="46.11955" lon="4.64445">
        <ele>278.9238</ele>
        <time>2022-11-06T14:21:32.000Z</time>
      </trkpt>
      <trkpt lat="46.11952" lon="4.64453">
        <ele>279.0162</ele>
        <time>2022-11-06T14:21:33.000Z</time>
      </trkpt>
      <trkpt lat="46.11949" lon="4.6446">
        <ele>279.1358</ele>
        <time>2022-11-06T14:21:34.000Z</time>
      </trkpt>
      <trkpt lat="46.11945" lon="4.64467">
        <ele>279.22455</ele>
        <time>2022-11-06T14:21:35.000Z</time>
      </trkpt>
      <trkpt lat="46.11944" lon="4.64473">
        <ele>279.30383</ele>
        <time>2022-11-06T14:21:36.000Z</time>
      </trkpt>
      <trkpt lat="46.11942" lon="4.64481">
        <ele>279.37506</ele>
        <time>2022-11-06T14:21:37.000Z</time>
      </trkpt>
      <trkpt lat="46.11939" lon="4.64488">
        <ele>279.40939</ele>
        <time>2022-11-06T14:21:38.000Z</time>
      </trkpt>
      <trkpt lat="46.11936" lon="4.64495">
        <ele>279.42172</ele>
        <time>2022-11-06T14:21:39.000Z</time>
      </trkpt>
      <trkpt lat="46.11934" lon="4.64501">
        <ele>279.42218</ele>
        <time>2022-11-06T14:21:40.000Z</time>
      </trkpt>
      <trkpt lat="46.11932" lon="4.64508">
        <ele>279.44662</ele>
        <time>2022-11-06T14:21:41.000Z</time>
      </trkpt>
      <trkpt lat="46.1193" lon="4.64515">
        <ele>279.49112</ele>
        <time>2022-11-06T14:21:42.000Z</time>
      </trkpt>
      <trkpt lat="46.11928" lon="4.64522">
        <ele>279.4975</ele>
        <time>2022-11-06T14:21:43.000Z</time>
      </trkpt>
      <trkpt lat="46.11927" lon="4.6453">
        <ele>279.49103</ele>
        <time>2022-11-06T14:21:44.000Z</time>
      </trkpt>
      <trkpt lat="46.11924" lon="4.64538">
        <ele>279.48874</ele>
        <time>2022-11-06T14:21:45.000Z</time>
      </trkpt>
      <trkpt lat="46.11922" lon="4.64546">
        <ele>279.48087</ele>
        <time>2022-11-06T14:21:46.000Z</time>
      </trkpt>
      <trkpt lat="46.11919" lon="4.64554">
        <ele>279.56882</ele>
        <time>2022-11-06T14:21:47.000Z</time>
      </trkpt>
      <trkpt lat="46.11918" lon="4.64563">
        <ele>279.67035</ele>
        <time>2022-11-06T14:21:48.000Z</time>
      </trkpt>
      <trkpt lat="46.11915" lon="4.64571">
        <ele>279.72342</ele>
        <time>2022-11-06T14:21:49.000Z</time>
      </trkpt>
      <trkpt lat="46.11912" lon="4.64579">
        <ele>279.75226</ele>
        <time>2022-11-06T14:21:50.000Z</time>
      </trkpt>
      <trkpt lat="46.11911" lon="4.64587">
        <ele>279.71704</ele>
        <time>2022-11-06T14:21:51.000Z</time>
      </trkpt>
      <trkpt lat="46.11908" lon="4.64596">
        <ele>279.69418</ele>
        <time>2022-11-06T14:21:52.000Z</time>
      </trkpt>
      <trkpt lat="46.11906" lon="4.64604">
        <ele>279.60333</ele>
        <time>2022-11-06T14:21:53.000Z</time>
      </trkpt>
      <trkpt lat="46.11904" lon="4.64612">
        <ele>279.61493</ele>
        <time>2022-11-06T14:21:54.000Z</time>
      </trkpt>
      <trkpt lat="46.11902" lon="4.6462">
        <ele>279.65695</ele>
        <time>2022-11-06T14:21:55.000Z</time>
      </trkpt>
      <trkpt lat="46.11901" lon="4.64628">
        <ele>279.68616</ele>
        <time>2022-11-06T14:21:56.000Z</time>
      </trkpt>
      <trkpt lat="46.11899" lon="4.64637">
        <ele>279.70322</ele>
        <time>2022-11-06T14:21:57.000Z</time>
      </trkpt>
      <trkpt lat="46.11897" lon="4.64645">
        <ele>279.5882</ele>
        <time>2022-11-06T14:21:58.000Z</time>
      </trkpt>
      <trkpt lat="46.11896" lon="4.64653">
        <ele>279.48911</ele>
        <time>2022-11-06T14:21:59.000Z</time>
      </trkpt>
      <trkpt lat="46.11894" lon="4.64662">
        <ele>279.3761</ele>
        <time>2022-11-06T14:22:00.000Z</time>
      </trkpt>
      <trkpt lat="46.11892" lon="4.64669">
        <ele>279.28094</ele>
        <time>2022-11-06T14:22:01.000Z</time>
      </trkpt>
      <trkpt lat="46.1189" lon="4.64678">
        <ele>279.10999</ele>
        <time>2022-11-06T14:22:02.000Z</time>
      </trkpt>
      <trkpt lat="46.11888" lon="4.64686">
        <ele>278.85632</ele>
        <time>2022-11-06T14:22:03.000Z</time>
      </trkpt>
      <trkpt lat="46.11887" lon="4.64695">
        <ele>278.59857</ele>
        <time>2022-11-06T14:22:04.000Z</time>
      </trkpt>
      <trkpt lat="46.11886" lon="4.64703">
        <ele>278.34109</ele>
        <time>2022-11-06T14:22:05.000Z</time>
      </trkpt>
      <trkpt lat="46.11884" lon="4.64712">
        <ele>278.08093</ele>
        <time>2022-11-06T14:22:06.000Z</time>
      </trkpt>
      <trkpt lat="46.11883" lon="4.64721">
        <ele>277.82724</ele>
        <time>2022-11-06T14:22:07.000Z</time>
      </trkpt>
      <trkpt lat="46.11882" lon="4.64729">
        <ele>277.59036</ele>
        <time>2022-11-06T14:22:08.000Z</time>
      </trkpt>
      <trkpt lat="46.11881" lon="4.64738">
        <ele>277.46674</ele>
        <time>2022-11-06T14:22:09.000Z</time>
      </trkpt>
      <trkpt lat="46.1188" lon="4.64747">
        <ele>277.34387</ele>
        <time>2022-11-06T14:22:10.000Z</time>
      </trkpt>
      <trkpt lat="46.11878" lon="4.64756">
        <ele>277.22531</ele>
        <time>2022-11-06T14:22:11.000Z</time>
      </trkpt>
      <trkpt lat="46.11877" lon="4.64765">
        <ele>277.10309</ele>
        <time>2022-11-06T14:22:12.000Z</time>
      </trkpt>
      <trkpt lat="46.11876" lon="4.64775">
        <ele>277.01993</ele>
        <time>2022-11-06T14:22:13.000Z</time>
      </trkpt>
      <trkpt lat="46.11875" lon="4.64784">
        <ele>276.98788</ele>
        <time>2022-11-06T14:22:14.000Z</time>
      </trkpt>
      <trkpt lat="46.11873" lon="4.64793">
        <ele>276.93954</ele>
        <time>2022-11-06T14:22:15.000Z</time>
      </trkpt>
      <trkpt lat="46.11872" lon="4.64802">
        <ele>276.88977</ele>
        <time>2022-11-06T14:22:16.000Z</time>
      </trkpt>
      <trkpt lat="46.11872" lon="4.64812">
        <ele>276.83398</ele>
        <time>2022-11-06T14:22:17.000Z</time>
      </trkpt>
      <trkpt lat="46.11871" lon="4.64821">
        <ele>276.93872</ele>
        <time>2022-11-06T14:22:18.000Z</time>
      </trkpt>
      <trkpt lat="46.1187" lon="4.6483">
        <ele>277.06439</ele>
        <time>2022-11-06T14:22:19.000Z</time>
      </trkpt>
      <trkpt lat="46.11869" lon="4.6484">
        <ele>277.1926</ele>
        <time>2022-11-06T14:22:20.000Z</time>
      </trkpt>
      <trkpt lat="46.11868" lon="4.6485">
        <ele>277.29196</ele>
        <time>2022-11-06T14:22:21.000Z</time>
      </trkpt>
      <trkpt lat="46.11868" lon="4.64859">
        <ele>277.4108</ele>
        <time>2022-11-06T14:22:22.000Z</time>
      </trkpt>
      <trkpt lat="46.11867" lon="4.64869">
        <ele>277.66827</ele>
        <time>2022-11-06T14:22:23.000Z</time>
      </trkpt>
      <trkpt lat="46.11866" lon="4.64879">
        <ele>277.9313</ele>
        <time>2022-11-06T14:22:24.000Z</time>
      </trkpt>
      <trkpt lat="46.11866" lon="4.6489">
        <ele>278.19055</ele>
        <time>2022-11-06T14:22:25.000Z</time>
      </trkpt>
      <trkpt lat="46.11866" lon="4.649">
        <ele>278.45428</ele>
        <time>2022-11-06T14:22:26.000Z</time>
      </trkpt>
      <trkpt lat="46.11866" lon="4.6491">
        <ele>278.71274</ele>
        <time>2022-11-06T14:22:27.000Z</time>
      </trkpt>
      <trkpt lat="46.11865" lon="4.64919">
        <ele>278.93256</ele>
        <time>2022-11-06T14:22:28.000Z</time>
      </trkpt>
      <trkpt lat="46.11865" lon="4.64929">
        <ele>279.06592</ele>
        <time>2022-11-06T14:22:29.000Z</time>
      </trkpt>
      <trkpt lat="46.11866" lon="4.64938">
        <ele>279.17032</ele>
        <time>2022-11-06T14:22:30.000Z</time>
      </trkpt>
      <trkpt lat="46.11866" lon="4.64948">
        <ele>279.30005</ele>
        <time>2022-11-06T14:22:31.000Z</time>
      </trkpt>
      <trkpt lat="46.11866" lon="4.64957">
        <ele>279.44708</ele>
        <time>2022-11-06T14:22:32.000Z</time>
      </trkpt>
      <trkpt lat="46.11865" lon="4.64966">
        <ele>279.55362</ele>
        <time>2022-11-06T14:22:33.000Z</time>
      </trkpt>
      <trkpt lat="46.11865" lon="4.64976">
        <ele>279.47064</ele>
        <time>2022-11-06T14:22:34.000Z</time>
      </trkpt>
      <trkpt lat="46.11866" lon="4.64985">
        <ele>279.40991</ele>
        <time>2022-11-06T14:22:35.000Z</time>
      </trkpt>
      <trkpt lat="46.11866" lon="4.64994">
        <ele>279.37177</ele>
        <time>2022-11-06T14:22:36.000Z</time>
      </trkpt>
      <trkpt lat="46.11866" lon="4.65004">
        <ele>279.33923</ele>
        <time>2022-11-06T14:22:37.000Z</time>
      </trkpt>
      <trkpt lat="46.11867" lon="4.65012">
        <ele>279.29669</ele>
        <time>2022-11-06T14:22:38.000Z</time>
      </trkpt>
      <trkpt lat="46.11868" lon="4.65021">
        <ele>279.23651</ele>
        <time>2022-11-06T14:22:39.000Z</time>
      </trkpt>
      <trkpt lat="46.11868" lon="4.6503">
        <ele>279.19073</ele>
        <time>2022-11-06T14:22:40.000Z</time>
      </trkpt>
      <trkpt lat="46.11868" lon="4.65038">
        <ele>279.16876</ele>
        <time>2022-11-06T14:22:41.000Z</time>
      </trkpt>
      <trkpt lat="46.11868" lon="4.65047">
        <ele>279.13983</ele>
        <time>2022-11-06T14:22:42.000Z</time>
      </trkpt>
      <trkpt lat="46.11869" lon="4.65056">
        <ele>279.07849</ele>
        <time>2022-11-06T14:22:43.000Z</time>
      </trkpt>
      <trkpt lat="46.11869" lon="4.65065">
        <ele>279.01465</ele>
        <time>2022-11-06T14:22:44.000Z</time>
      </trkpt>
      <trkpt lat="46.11869" lon="4.65073">
        <ele>278.89862</ele>
        <time>2022-11-06T14:22:45.000Z</time>
      </trkpt>
      <trkpt lat="46.1187" lon="4.65082">
        <ele>278.74066</ele>
        <time>2022-11-06T14:22:46.000Z</time>
      </trkpt>
      <trkpt lat="46.11871" lon="4.65092">
        <ele>278.56671</ele>
        <time>2022-11-06T14:22:47.000Z</time>
      </trkpt>
      <trkpt lat="46.11871" lon="4.65099">
        <ele>278.40167</ele>
        <time>2022-11-06T14:22:48.000Z</time>
      </trkpt>
      <trkpt lat="46.11872" lon="4.65107">
        <ele>278.22061</ele>
        <time>2022-11-06T14:22:49.000Z</time>
      </trkpt>
      <trkpt lat="46.11873" lon="4.65114">
        <ele>278.07452</ele>
        <time>2022-11-06T14:22:50.000Z</time>
      </trkpt>
      <trkpt lat="46.11874" lon="4.65121">
        <ele>277.9165</ele>
        <time>2022-11-06T14:22:51.000Z</time>
      </trkpt>
      <trkpt lat="46.11874" lon="4.65126">
        <ele>277.69879</ele>
        <time>2022-11-06T14:22:52.000Z</time>
      </trkpt>
      <trkpt lat="46.11874" lon="4.65131">
        <ele>277.63782</ele>
        <time>2022-11-06T14:22:53.000Z</time>
      </trkpt>
      <trkpt lat="46.11874" lon="4.65135">
        <ele>277.59229</ele>
        <time>2022-11-06T14:22:54.000Z</time>
      </trkpt>
      <trkpt lat="46.11874" lon="4.65138">
        <ele>277.55548</ele>
        <time>2022-11-06T14:22:55.000Z</time>
      </trkpt>
      <trkpt lat="46.11875" lon="4.65141">
        <ele>277.50226</ele>
        <time>2022-11-06T14:22:56.000Z</time>
      </trkpt>
      <trkpt lat="46.11876" lon="4.65144">
        <ele>277.42859</ele>
        <time>2022-11-06T14:22:57.000Z</time>
      </trkpt>
      <trkpt lat="46.11878" lon="4.65147">
        <ele>277.32965</ele>
        <time>2022-11-06T14:22:59.000Z</time>
      </trkpt>
      <trkpt lat="46.11879" lon="4.6515">
        <ele>277.24286</ele>
        <time>2022-11-06T14:23:01.000Z</time>
      </trkpt>
      <trkpt lat="46.11878" lon="4.65153">
        <ele>277.18344</ele>
        <time>2022-11-06T14:23:03.000Z</time>
      </trkpt>
      <trkpt lat="46.11877" lon="4.65156">
        <ele>277.04974</ele>
        <time>2022-11-06T14:23:05.000Z</time>
      </trkpt>
      <trkpt lat="46.11874" lon="4.65157">
        <ele>276.9397</ele>
        <time>2022-11-06T14:23:07.000Z</time>
      </trkpt>
      <trkpt lat="46.11873" lon="4.65154">
        <ele>276.87115</ele>
        <time>2022-11-06T14:23:09.000Z</time>
      </trkpt>
      <trkpt lat="46.11873" lon="4.6515">
        <ele>276.80392</ele>
        <time>2022-11-06T14:23:11.000Z</time>
      </trkpt>
      <trkpt lat="46.11876" lon="4.65146">
        <ele>276.93527</ele>
        <time>2022-11-06T14:23:13.000Z</time>
      </trkpt>
      <trkpt lat="46.11878" lon="4.65146">
        <ele>277.06696</ele>
        <time>2022-11-06T14:23:14.000Z</time>
      </trkpt>
      <trkpt lat="46.1188" lon="4.65147">
        <ele>277.2233</ele>
        <time>2022-11-06T14:23:15.000Z</time>
      </trkpt>
      <trkpt lat="46.1188" lon="4.6515">
        <ele>277.36353</ele>
        <time>2022-11-06T14:23:16.000Z</time>
      </trkpt>
      <trkpt lat="46.11879" lon="4.65153">
        <ele>277.49854</ele>
        <time>2022-11-06T14:23:17.000Z</time>
      </trkpt>
      <trkpt lat="46.11878" lon="4.65156">
        <ele>277.61002</ele>
        <time>2022-11-06T14:23:18.000Z</time>
      </trkpt>
      <trkpt lat="46.11877" lon="4.65159">
        <ele>277.72552</ele>
        <time>2022-11-06T14:23:19.000Z</time>
      </trkpt>
      <trkpt lat="46.11876" lon="4.65162">
        <ele>277.89111</ele>
        <time>2022-11-06T14:23:20.000Z</time>
      </trkpt>
      <trkpt lat="46.11875" lon="4.65166">
        <ele>277.91425</ele>
        <time>2022-11-06T14:23:21.000Z</time>
      </trkpt>
      <trkpt lat="46.11875" lon="4.6517">
        <ele>277.94879</ele>
        <time>2022-11-06T14:23:22.000Z</time>
      </trkpt>
      <trkpt lat="46.11875" lon="4.65174">
        <ele>277.97797</ele>
        <time>2022-11-06T14:23:23.000Z</time>
      </trkpt>
      <trkpt lat="46.11876" lon="4.65178">
        <ele>278.00446</ele>
        <time>2022-11-06T14:23:24.000Z</time>
      </trkpt>
      <trkpt lat="46.11876" lon="4.65182">
        <ele>278.05377</ele>
        <time>2022-11-06T14:23:25.000Z</time>
      </trkpt>
      <trkpt lat="46.11876" lon="4.65187">
        <ele>278.13153</ele>
        <time>2022-11-06T14:23:26.000Z</time>
      </trkpt>
      <trkpt lat="46.11876" lon="4.65192">
        <ele>278.20511</ele>
        <time>2022-11-06T14:23:27.000Z</time>
      </trkpt>
      <trkpt lat="46.11877" lon="4.65197">
        <ele>278.259</ele>
        <time>2022-11-06T14:23:28.000Z</time>
      </trkpt>
      <trkpt lat="46.11877" lon="4.65202">
        <ele>278.37619</ele>
        <time>2022-11-06T14:23:29.000Z</time>
      </trkpt>
      <trkpt lat="46.11878" lon="4.65207">
        <ele>278.47382</ele>
        <time>2022-11-06T14:23:30.000Z</time>
      </trkpt>
      <trkpt lat="46.11878" lon="4.65212">
        <ele>278.55411</ele>
        <time>2022-11-06T14:23:31.000Z</time>
      </trkpt>
      <trkpt lat="46.11879" lon="4.65218">
        <ele>278.63083</ele>
        <time>2022-11-06T14:23:32.000Z</time>
      </trkpt>
      <trkpt lat="46.11879" lon="4.65224">
        <ele>278.57932</ele>
        <time>2022-11-06T14:23:33.000Z</time>
      </trkpt>
      <trkpt lat="46.11879" lon="4.6523">
        <ele>278.53168</ele>
        <time>2022-11-06T14:23:34.000Z</time>
      </trkpt>
      <trkpt lat="46.1188" lon="4.65237">
        <ele>278.49356</ele>
        <time>2022-11-06T14:23:35.000Z</time>
      </trkpt>
      <trkpt lat="46.1188" lon="4.65244">
        <ele>278.47205</ele>
        <time>2022-11-06T14:23:36.000Z</time>
      </trkpt>
      <trkpt lat="46.11881" lon="4.65252">
        <ele>278.46259</ele>
        <time>2022-11-06T14:23:37.000Z</time>
      </trkpt>
      <trkpt lat="46.11881" lon="4.65259">
        <ele>278.46066</ele>
        <time>2022-11-06T14:23:38.000Z</time>
      </trkpt>
      <trkpt lat="46.11882" lon="4.65267">
        <ele>278.44632</ele>
        <time>2022-11-06T14:23:39.000Z</time>
      </trkpt>
      <trkpt lat="46.11882" lon="4.65274">
        <ele>278.45013</ele>
        <time>2022-11-06T14:23:40.000Z</time>
      </trkpt>
      <trkpt lat="46.11882" lon="4.65282">
        <ele>278.45404</ele>
        <time>2022-11-06T14:23:41.000Z</time>
      </trkpt>
      <trkpt lat="46.11882" lon="4.65289">
        <ele>278.46667</ele>
        <time>2022-11-06T14:23:42.000Z</time>
      </trkpt>
      <trkpt lat="46.11881" lon="4.65297">
        <ele>278.45917</ele>
        <time>2022-11-06T14:23:43.000Z</time>
      </trkpt>
      <trkpt lat="46.11882" lon="4.65305">
        <ele>278.46982</ele>
        <time>2022-11-06T14:23:44.000Z</time>
      </trkpt>
      <trkpt lat="46.11882" lon="4.65313">
        <ele>278.48465</ele>
        <time>2022-11-06T14:23:45.000Z</time>
      </trkpt>
      <trkpt lat="46.11882" lon="4.65321">
        <ele>278.53281</ele>
        <time>2022-11-06T14:23:46.000Z</time>
      </trkpt>
      <trkpt lat="46.11882" lon="4.65329">
        <ele>278.59274</ele>
        <time>2022-11-06T14:23:47.000Z</time>
      </trkpt>
      <trkpt lat="46.11883" lon="4.65337">
        <ele>278.63602</ele>
        <time>2022-11-06T14:23:48.000Z</time>
      </trkpt>
      <trkpt lat="46.11884" lon="4.65345">
        <ele>278.68338</ele>
        <time>2022-11-06T14:23:49.000Z</time>
      </trkpt>
      <trkpt lat="46.11885" lon="4.65354">
        <ele>278.70526</ele>
        <time>2022-11-06T14:23:50.000Z</time>
      </trkpt>
      <trkpt lat="46.11885" lon="4.65362">
        <ele>278.73248</ele>
        <time>2022-11-06T14:23:51.000Z</time>
      </trkpt>
      <trkpt lat="46.11886" lon="4.65371">
        <ele>278.73868</ele>
        <time>2022-11-06T14:23:52.000Z</time>
      </trkpt>
      <trkpt lat="46.11887" lon="4.6538">
        <ele>278.74725</ele>
        <time>2022-11-06T14:23:53.000Z</time>
      </trkpt>
      <trkpt lat="46.11886" lon="4.65389">
        <ele>278.73602</ele>
        <time>2022-11-06T14:23:54.000Z</time>
      </trkpt>
      <trkpt lat="46.11886" lon="4.65398">
        <ele>278.68597</ele>
        <time>2022-11-06T14:23:55.000Z</time>
      </trkpt>
      <trkpt lat="46.11887" lon="4.65405">
        <ele>278.62909</ele>
        <time>2022-11-06T14:23:56.000Z</time>
      </trkpt>
      <trkpt lat="46.11887" lon="4.65414">
        <ele>278.54401</ele>
        <time>2022-11-06T14:23:57.000Z</time>
      </trkpt>
      <trkpt lat="46.11888" lon="4.65422">
        <ele>278.46249</ele>
        <time>2022-11-06T14:23:58.000Z</time>
      </trkpt>
      <trkpt lat="46.11887" lon="4.65432">
        <ele>278.34293</ele>
        <time>2022-11-06T14:23:59.000Z</time>
      </trkpt>
      <trkpt lat="46.11887" lon="4.65441">
        <ele>278.20551</ele>
        <time>2022-11-06T14:24:00.000Z</time>
      </trkpt>
      <trkpt lat="46.11887" lon="4.6545">
        <ele>278.05817</ele>
        <time>2022-11-06T14:24:01.000Z</time>
      </trkpt>
      <trkpt lat="46.11887" lon="4.65458">
        <ele>277.88739</ele>
        <time>2022-11-06T14:24:02.000Z</time>
      </trkpt>
      <trkpt lat="46.11887" lon="4.65467">
        <ele>277.71317</ele>
        <time>2022-11-06T14:24:03.000Z</time>
      </trkpt>
      <trkpt lat="46.11887" lon="4.65476">
        <ele>277.52444</ele>
        <time>2022-11-06T14:24:04.000Z</time>
      </trkpt>
      <trkpt lat="46.11888" lon="4.65484">
        <ele>277.3324</ele>
        <time>2022-11-06T14:24:05.000Z</time>
      </trkpt>
      <trkpt lat="46.11889" lon="4.65493">
        <ele>277.10898</ele>
        <time>2022-11-06T14:24:06.000Z</time>
      </trkpt>
      <trkpt lat="46.11889" lon="4.65501">
        <ele>276.88095</ele>
        <time>2022-11-06T14:24:07.000Z</time>
      </trkpt>
      <trkpt lat="46.1189" lon="4.6551">
        <ele>276.67374</ele>
        <time>2022-11-06T14:24:08.000Z</time>
      </trkpt>
      <trkpt lat="46.11891" lon="4.65518">
        <ele>276.47641</ele>
        <time>2022-11-06T14:24:09.000Z</time>
      </trkpt>
      <trkpt lat="46.11891" lon="4.65527">
        <ele>276.28302</ele>
        <time>2022-11-06T14:24:10.000Z</time>
      </trkpt>
      <trkpt lat="46.1189" lon="4.65535">
        <ele>275.85458</ele>
        <time>2022-11-06T14:24:11.000Z</time>
      </trkpt>
      <trkpt lat="46.11891" lon="4.65544">
        <ele>275.43317</ele>
        <time>2022-11-06T14:24:12.000Z</time>
      </trkpt>
      <trkpt lat="46.11891" lon="4.65552">
        <ele>274.97119</ele>
        <time>2022-11-06T14:24:13.000Z</time>
      </trkpt>
      <trkpt lat="46.11891" lon="4.65562">
        <ele>274.51288</ele>
        <time>2022-11-06T14:24:14.000Z</time>
      </trkpt>
      <trkpt lat="46.11891" lon="4.6557">
        <ele>274.11893</ele>
        <time>2022-11-06T14:24:15.000Z</time>
      </trkpt>
      <trkpt lat="46.11891" lon="4.65579">
        <ele>273.5755</ele>
        <time>2022-11-06T14:24:16.000Z</time>
      </trkpt>
      <trkpt lat="46.11892" lon="4.65588">
        <ele>272.88632</ele>
        <time>2022-11-06T14:24:17.000Z</time>
      </trkpt>
      <trkpt lat="46.11892" lon="4.65596">
        <ele>272.07129</ele>
        <time>2022-11-06T14:24:18.000Z</time>
      </trkpt>
      <trkpt lat="46.11892" lon="4.65605">
        <ele>271.28647</ele>
        <time>2022-11-06T14:24:19.000Z</time>
      </trkpt>
      <trkpt lat="46.11893" lon="4.65614">
        <ele>270.81958</ele>
        <time>2022-11-06T14:24:20.000Z</time>
      </trkpt>
      <trkpt lat="46.11893" lon="4.65623">
        <ele>270.28839</ele>
        <time>2022-11-06T14:24:21.000Z</time>
      </trkpt>
      <trkpt lat="46.11893" lon="4.65632">
        <ele>269.74542</ele>
        <time>2022-11-06T14:24:22.000Z</time>
      </trkpt>
      <trkpt lat="46.11893" lon="4.6564">
        <ele>269.21063</ele>
        <time>2022-11-06T14:24:23.000Z</time>
      </trkpt>
      <trkpt lat="46.11894" lon="4.65649">
        <ele>268.68634</ele>
        <time>2022-11-06T14:24:24.000Z</time>
      </trkpt>
      <trkpt lat="46.11894" lon="4.65657">
        <ele>268.1557</ele>
        <time>2022-11-06T14:24:25.000Z</time>
      </trkpt>
      <trkpt lat="46.11895" lon="4.65665">
        <ele>267.60449</ele>
        <time>2022-11-06T14:24:26.000Z</time>
      </trkpt>
      <trkpt lat="46.11895" lon="4.65674">
        <ele>267.06247</ele>
        <time>2022-11-06T14:24:27.000Z</time>
      </trkpt>
      <trkpt lat="46.11895" lon="4.65682">
        <ele>266.52521</ele>
        <time>2022-11-06T14:24:28.000Z</time>
      </trkpt>
      <trkpt lat="46.11895" lon="4.65691">
        <ele>265.95728</ele>
        <time>2022-11-06T14:24:29.000Z</time>
      </trkpt>
      <trkpt lat="46.11895" lon="4.65699">
        <ele>265.39307</ele>
        <time>2022-11-06T14:24:30.000Z</time>
      </trkpt>
      <trkpt lat="46.11895" lon="4.65708">
        <ele>265.05869</ele>
        <time>2022-11-06T14:24:31.000Z</time>
      </trkpt>
      <trkpt lat="46.11896" lon="4.65716">
        <ele>264.73077</ele>
        <time>2022-11-06T14:24:32.000Z</time>
      </trkpt>
      <trkpt lat="46.11897" lon="4.65726">
        <ele>264.39786</ele>
        <time>2022-11-06T14:24:33.000Z</time>
      </trkpt>
      <trkpt lat="46.11897" lon="4.65735">
        <ele>264.11823</ele>
        <time>2022-11-06T14:24:34.000Z</time>
      </trkpt>
      <trkpt lat="46.11898" lon="4.65743">
        <ele>263.83087</ele>
        <time>2022-11-06T14:24:35.000Z</time>
      </trkpt>
      <trkpt lat="46.11898" lon="4.65751">
        <ele>263.70749</ele>
        <time>2022-11-06T14:24:36.000Z</time>
      </trkpt>
      <trkpt lat="46.11898" lon="4.6576">
        <ele>263.70773</ele>
        <time>2022-11-06T14:24:37.000Z</time>
      </trkpt>
      <trkpt lat="46.119" lon="4.6577">
        <ele>263.86115</ele>
        <time>2022-11-06T14:24:38.000Z</time>
      </trkpt>
      <trkpt lat="46.119" lon="4.65778">
        <ele>264.00836</ele>
        <time>2022-11-06T14:24:39.000Z</time>
      </trkpt>
      <trkpt lat="46.11901" lon="4.65788">
        <ele>263.83807</ele>
        <time>2022-11-06T14:24:40.000Z</time>
      </trkpt>
      <trkpt lat="46.11901" lon="4.65796">
        <ele>263.74664</ele>
        <time>2022-11-06T14:24:41.000Z</time>
      </trkpt>
      <trkpt lat="46.11901" lon="4.65805">
        <ele>263.62845</ele>
        <time>2022-11-06T14:24:42.000Z</time>
      </trkpt>
      <trkpt lat="46.11902" lon="4.65814">
        <ele>263.5253</ele>
        <time>2022-11-06T14:24:43.000Z</time>
      </trkpt>
      <trkpt lat="46.11902" lon="4.65823">
        <ele>263.37292</ele>
        <time>2022-11-06T14:24:44.000Z</time>
      </trkpt>
      <trkpt lat="46.11902" lon="4.65832">
        <ele>263.23563</ele>
        <time>2022-11-06T14:24:45.000Z</time>
      </trkpt>
      <trkpt lat="46.11902" lon="4.6584">
        <ele>263.15781</ele>
        <time>2022-11-06T14:24:46.000Z</time>
      </trkpt>
      <trkpt lat="46.11903" lon="4.65849">
        <ele>263.07147</ele>
        <time>2022-11-06T14:24:47.000Z</time>
      </trkpt>
      <trkpt lat="46.11903" lon="4.65858">
        <ele>262.98267</ele>
        <time>2022-11-06T14:24:48.000Z</time>
      </trkpt>
      <trkpt lat="46.11904" lon="4.65866">
        <ele>262.92978</ele>
        <time>2022-11-06T14:24:49.000Z</time>
      </trkpt>
      <trkpt lat="46.11905" lon="4.65875">
        <ele>262.91165</ele>
        <time>2022-11-06T14:24:50.000Z</time>
      </trkpt>
      <trkpt lat="46.11907" lon="4.65884">
        <ele>262.88321</ele>
        <time>2022-11-06T14:24:51.000Z</time>
      </trkpt>
      <trkpt lat="46.11907" lon="4.65893">
        <ele>262.90976</ele>
        <time>2022-11-06T14:24:52.000Z</time>
      </trkpt>
      <trkpt lat="46.11907" lon="4.65904">
        <ele>262.92764</ele>
        <time>2022-11-06T14:24:53.000Z</time>
      </trkpt>
      <trkpt lat="46.11907" lon="4.65914">
        <ele>262.94589</ele>
        <time>2022-11-06T14:24:54.000Z</time>
      </trkpt>
      <trkpt lat="46.11907" lon="4.65924">
        <ele>262.93719</ele>
        <time>2022-11-06T14:24:55.000Z</time>
      </trkpt>
      <trkpt lat="46.11907" lon="4.65933">
        <ele>262.93839</ele>
        <time>2022-11-06T14:24:56.000Z</time>
      </trkpt>
      <trkpt lat="46.11908" lon="4.65942">
        <ele>262.96844</ele>
        <time>2022-11-06T14:24:57.000Z</time>
      </trkpt>
      <trkpt lat="46.11907" lon="4.65952">
        <ele>262.97589</ele>
        <time>2022-11-06T14:24:58.000Z</time>
      </trkpt>
      <trkpt lat="46.11908" lon="4.6596">
        <ele>263.00494</ele>
        <time>2022-11-06T14:24:59.000Z</time>
      </trkpt>
      <trkpt lat="46.11908" lon="4.6597">
        <ele>263.04559</ele>
        <time>2022-11-06T14:25:00.000Z</time>
      </trkpt>
      <trkpt lat="46.1191" lon="4.6598">
        <ele>263.10699</ele>
        <time>2022-11-06T14:25:01.000Z</time>
      </trkpt>
      <trkpt lat="46.1191" lon="4.65989">
        <ele>263.21304</ele>
        <time>2022-11-06T14:25:02.000Z</time>
      </trkpt>
      <trkpt lat="46.1191" lon="4.65998">
        <ele>263.29434</ele>
        <time>2022-11-06T14:25:03.000Z</time>
      </trkpt>
      <trkpt lat="46.1191" lon="4.66007">
        <ele>263.42587</ele>
        <time>2022-11-06T14:25:04.000Z</time>
      </trkpt>
      <trkpt lat="46.11911" lon="4.66016">
        <ele>263.54733</ele>
        <time>2022-11-06T14:25:05.000Z</time>
      </trkpt>
      <trkpt lat="46.11912" lon="4.66025">
        <ele>263.65219</ele>
        <time>2022-11-06T14:25:06.000Z</time>
      </trkpt>
      <trkpt lat="46.11912" lon="4.66034">
        <ele>263.73297</ele>
        <time>2022-11-06T14:25:07.000Z</time>
      </trkpt>
      <trkpt lat="46.11913" lon="4.66042">
        <ele>263.80786</ele>
        <time>2022-11-06T14:25:08.000Z</time>
      </trkpt>
      <trkpt lat="46.11913" lon="4.6605">
        <ele>263.85782</ele>
        <time>2022-11-06T14:25:09.000Z</time>
      </trkpt>
      <trkpt lat="46.11913" lon="4.66059">
        <ele>263.86841</ele>
        <time>2022-11-06T14:25:10.000Z</time>
      </trkpt>
      <trkpt lat="46.11915" lon="4.66067">
        <ele>263.9061</ele>
        <time>2022-11-06T14:25:11.000Z</time>
      </trkpt>
      <trkpt lat="46.11915" lon="4.66076">
        <ele>263.90811</ele>
        <time>2022-11-06T14:25:12.000Z</time>
      </trkpt>
      <trkpt lat="46.11917" lon="4.66084">
        <ele>263.94794</ele>
        <time>2022-11-06T14:25:13.000Z</time>
      </trkpt>
      <trkpt lat="46.11918" lon="4.66093">
        <ele>263.99973</ele>
        <time>2022-11-06T14:25:14.000Z</time>
      </trkpt>
      <trkpt lat="46.11918" lon="4.661">
        <ele>264.05048</ele>
        <time>2022-11-06T14:25:15.000Z</time>
      </trkpt>
      <trkpt lat="46.11919" lon="4.66105">
        <ele>264.06033</ele>
        <time>2022-11-06T14:25:16.000Z</time>
      </trkpt>
      <trkpt lat="46.11919" lon="4.66108">
        <ele>264.06854</ele>
        <time>2022-11-06T14:25:17.000Z</time>
      </trkpt>
      <trkpt lat="46.11919" lon="4.66111">
        <ele>264.0733</ele>
        <time>2022-11-06T14:25:18.000Z</time>
      </trkpt>
      <trkpt lat="46.11919" lon="4.66114">
        <ele>264.04419</ele>
        <time>2022-11-06T14:25:19.000Z</time>
      </trkpt>
      <trkpt lat="46.1192" lon="4.66118">
        <ele>264.01404</ele>
        <time>2022-11-06T14:25:21.000Z</time>
      </trkpt>
      <trkpt lat="46.11921" lon="4.66123">
        <ele>263.98508</ele>
        <time>2022-11-06T14:25:23.000Z</time>
      </trkpt>
      <trkpt lat="46.11922" lon="4.66127">
        <ele>263.97241</ele>
        <time>2022-11-06T14:25:24.000Z</time>
      </trkpt>
      <trkpt lat="46.11922" lon="4.66131">
        <ele>263.97055</ele>
        <time>2022-11-06T14:25:25.000Z</time>
      </trkpt>
      <trkpt lat="46.11923" lon="4.66135">
        <ele>263.96436</ele>
        <time>2022-11-06T14:25:26.000Z</time>
      </trkpt>
      <trkpt lat="46.11923" lon="4.6614">
        <ele>263.93347</ele>
        <time>2022-11-06T14:25:27.000Z</time>
      </trkpt>
      <trkpt lat="46.11923" lon="4.66146">
        <ele>263.88919</ele>
        <time>2022-11-06T14:25:28.000Z</time>
      </trkpt>
      <trkpt lat="46.11924" lon="4.66151">
        <ele>263.86639</ele>
        <time>2022-11-06T14:25:29.000Z</time>
      </trkpt>
      <trkpt lat="46.11924" lon="4.66157">
        <ele>263.85727</ele>
        <time>2022-11-06T14:25:30.000Z</time>
      </trkpt>
      <trkpt lat="46.11926" lon="4.66163">
        <ele>263.86115</ele>
        <time>2022-11-06T14:25:31.000Z</time>
      </trkpt>
      <trkpt lat="46.11926" lon="4.66169">
        <ele>263.88544</ele>
        <time>2022-11-06T14:25:32.000Z</time>
      </trkpt>
      <trkpt lat="46.11927" lon="4.66176">
        <ele>263.89105</ele>
        <time>2022-11-06T14:25:33.000Z</time>
      </trkpt>
      <trkpt lat="46.11928" lon="4.66183">
        <ele>263.89764</ele>
        <time>2022-11-06T14:25:34.000Z</time>
      </trkpt>
      <trkpt lat="46.11929" lon="4.6619">
        <ele>263.90256</ele>
        <time>2022-11-06T14:25:35.000Z</time>
      </trkpt>
      <trkpt lat="46.1193" lon="4.66197">
        <ele>263.89932</ele>
        <time>2022-11-06T14:25:36.000Z</time>
      </trkpt>
      <trkpt lat="46.11931" lon="4.66204">
        <ele>263.89932</ele>
        <time>2022-11-06T14:25:37.000Z</time>
      </trkpt>
      <trkpt lat="46.11932" lon="4.66211">
        <ele>263.89978</ele>
        <time>2022-11-06T14:25:38.000Z</time>
      </trkpt>
      <trkpt lat="46.11933" lon="4.66219">
        <ele>263.90714</ele>
        <time>2022-11-06T14:25:39.000Z</time>
      </trkpt>
      <trkpt lat="46.11935" lon="4.66226">
        <ele>263.91809</ele>
        <time>2022-11-06T14:25:40.000Z</time>
      </trkpt>
      <trkpt lat="46.11936" lon="4.66233">
        <ele>263.9632</ele>
        <time>2022-11-06T14:25:41.000Z</time>
      </trkpt>
      <trkpt lat="46.11937" lon="4.66241">
        <ele>263.97205</ele>
        <time>2022-11-06T14:25:42.000Z</time>
      </trkpt>
      <trkpt lat="46.11937" lon="4.66247">
        <ele>263.97012</ele>
        <time>2022-11-06T14:25:43.000Z</time>
      </trkpt>
      <trkpt lat="46.11939" lon="4.66253">
        <ele>263.93951</ele>
        <time>2022-11-06T14:25:44.000Z</time>
      </trkpt>
      <trkpt lat="46.11941" lon="4.6626">
        <ele>263.94235</ele>
        <time>2022-11-06T14:25:45.000Z</time>
      </trkpt>
      <trkpt lat="46.11943" lon="4.66267">
        <ele>263.93085</ele>
        <time>2022-11-06T14:25:46.000Z</time>
      </trkpt>
      <trkpt lat="46.11945" lon="4.66272">
        <ele>263.97073</ele>
        <time>2022-11-06T14:25:47.000Z</time>
      </trkpt>
      <trkpt lat="46.11947" lon="4.6628">
        <ele>264.01169</ele>
        <time>2022-11-06T14:25:48.000Z</time>
      </trkpt>
      <trkpt lat="46.11948" lon="4.66288">
        <ele>264.05811</ele>
        <time>2022-11-06T14:25:49.000Z</time>
      </trkpt>
      <trkpt lat="46.11949" lon="4.66297">
        <ele>264.07611</ele>
        <time>2022-11-06T14:25:50.000Z</time>
      </trkpt>
      <trkpt lat="46.11951" lon="4.66305">
        <ele>264.10437</ele>
        <time>2022-11-06T14:25:51.000Z</time>
      </trkpt>
      <trkpt lat="46.11953" lon="4.66314">
        <ele>264.09073</ele>
        <time>2022-11-06T14:25:52.000Z</time>
      </trkpt>
      <trkpt lat="46.11955" lon="4.66321">
        <ele>264.09595</ele>
        <time>2022-11-06T14:25:53.000Z</time>
      </trkpt>
      <trkpt lat="46.11958" lon="4.66327">
        <ele>264.14859</ele>
        <time>2022-11-06T14:25:54.000Z</time>
      </trkpt>
      <trkpt lat="46.1196" lon="4.66335">
        <ele>264.2305</ele>
        <time>2022-11-06T14:25:55.000Z</time>
      </trkpt>
      <trkpt lat="46.11961" lon="4.66342">
        <ele>264.1774</ele>
        <time>2022-11-06T14:25:56.000Z</time>
      </trkpt>
      <trkpt lat="46.11961" lon="4.66349">
        <ele>264.10757</ele>
        <time>2022-11-06T14:25:57.000Z</time>
      </trkpt>
      <trkpt lat="46.11963" lon="4.66356">
        <ele>263.82758</ele>
        <time>2022-11-06T14:25:58.000Z</time>
      </trkpt>
      <trkpt lat="46.11964" lon="4.6636">
        <ele>263.87433</ele>
        <time>2022-11-06T14:25:59.000Z</time>
      </trkpt>
      <trkpt lat="46.11965" lon="4.66364">
        <ele>263.87866</ele>
        <time>2022-11-06T14:26:00.000Z</time>
      </trkpt>
      <trkpt lat="46.11965" lon="4.66367">
        <ele>263.85596</ele>
        <time>2022-11-06T14:26:01.000Z</time>
      </trkpt>
      <trkpt lat="46.11967" lon="4.66372">
        <ele>263.88104</ele>
        <time>2022-11-06T14:26:02.000Z</time>
      </trkpt>
      <trkpt lat="46.11967" lon="4.66375">
        <ele>263.89258</ele>
        <time>2022-11-06T14:26:03.000Z</time>
      </trkpt>
      <trkpt lat="46.11968" lon="4.66379">
        <ele>263.92691</ele>
        <time>2022-11-06T14:26:04.000Z</time>
      </trkpt>
      <trkpt lat="46.11969" lon="4.66384">
        <ele>263.9458</ele>
        <time>2022-11-06T14:26:05.000Z</time>
      </trkpt>
      <trkpt lat="46.1197" lon="4.6639">
        <ele>263.97272</ele>
        <time>2022-11-06T14:26:06.000Z</time>
      </trkpt>
      <trkpt lat="46.11972" lon="4.66396">
        <ele>263.9696</ele>
        <time>2022-11-06T14:26:07.000Z</time>
      </trkpt>
      <trkpt lat="46.11973" lon="4.66401">
        <ele>263.96368</ele>
        <time>2022-11-06T14:26:08.000Z</time>
      </trkpt>
      <trkpt lat="46.11976" lon="4.66407">
        <ele>263.96295</ele>
        <time>2022-11-06T14:26:09.000Z</time>
      </trkpt>
      <trkpt lat="46.11977" lon="4.66413">
        <ele>263.96817</ele>
        <time>2022-11-06T14:26:10.000Z</time>
      </trkpt>
      <trkpt lat="46.11979" lon="4.66421">
        <ele>263.96567</ele>
        <time>2022-11-06T14:26:11.000Z</time>
      </trkpt>
      <trkpt lat="46.1198" lon="4.66427">
        <ele>264.01938</ele>
        <time>2022-11-06T14:26:12.000Z</time>
      </trkpt>
      <trkpt lat="46.11981" lon="4.66433">
        <ele>264.21527</ele>
        <time>2022-11-06T14:26:13.000Z</time>
      </trkpt>
      <trkpt lat="46.11983" lon="4.66441">
        <ele>264.33624</ele>
        <time>2022-11-06T14:26:14.000Z</time>
      </trkpt>
      <trkpt lat="46.11986" lon="4.66448">
        <ele>264.43427</ele>
        <time>2022-11-06T14:26:15.000Z</time>
      </trkpt>
      <trkpt lat="46.11988" lon="4.66456">
        <ele>264.4693</ele>
        <time>2022-11-06T14:26:16.000Z</time>
      </trkpt>
      <trkpt lat="46.11989" lon="4.66464">
        <ele>264.41083</ele>
        <time>2022-11-06T14:26:17.000Z</time>
      </trkpt>
      <trkpt lat="46.11991" lon="4.66471">
        <ele>264.6395</ele>
        <time>2022-11-06T14:26:18.000Z</time>
      </trkpt>
      <trkpt lat="46.11992" lon="4.66481">
        <ele>264.40549</ele>
        <time>2022-11-06T14:26:19.000Z</time>
      </trkpt>
      <trkpt lat="46.11994" lon="4.66488">
        <ele>264.19598</ele>
        <time>2022-11-06T14:26:20.000Z</time>
      </trkpt>
      <trkpt lat="46.11996" lon="4.66498">
        <ele>264.30609</ele>
        <time>2022-11-06T14:26:21.000Z</time>
      </trkpt>
      <trkpt lat="46.11999" lon="4.66506">
        <ele>264.35294</ele>
        <time>2022-11-06T14:26:22.000Z</time>
      </trkpt>
      <trkpt lat="46.12001" lon="4.66514">
        <ele>264.38434</ele>
        <time>2022-11-06T14:26:23.000Z</time>
      </trkpt>
      <trkpt lat="46.12003" lon="4.66523">
        <ele>264.37726</ele>
        <time>2022-11-06T14:26:24.000Z</time>
      </trkpt>
      <trkpt lat="46.12005" lon="4.66531">
        <ele>264.35397</ele>
        <time>2022-11-06T14:26:25.000Z</time>
      </trkpt>
      <trkpt lat="46.12007" lon="4.66539">
        <ele>264.33884</ele>
        <time>2022-11-06T14:26:26.000Z</time>
      </trkpt>
      <trkpt lat="46.12008" lon="4.66549">
        <ele>264.34961</ele>
        <time>2022-11-06T14:26:27.000Z</time>
      </trkpt>
      <trkpt lat="46.12009" lon="4.66558">
        <ele>264.36584</ele>
        <time>2022-11-06T14:26:28.000Z</time>
      </trkpt>
      <trkpt lat="46.12011" lon="4.66565">
        <ele>264.40277</ele>
        <time>2022-11-06T14:26:29.000Z</time>
      </trkpt>
      <trkpt lat="46.12012" lon="4.66574">
        <ele>264.43384</ele>
        <time>2022-11-06T14:26:30.000Z</time>
      </trkpt>
      <trkpt lat="46.12014" lon="4.66582">
        <ele>264.43921</ele>
        <time>2022-11-06T14:26:31.000Z</time>
      </trkpt>
      <trkpt lat="46.12016" lon="4.6659">
        <ele>264.42245</ele>
        <time>2022-11-06T14:26:32.000Z</time>
      </trkpt>
      <trkpt lat="46.12018" lon="4.66599">
        <ele>264.25311</ele>
        <time>2022-11-06T14:26:33.000Z</time>
      </trkpt>
      <trkpt lat="46.1202" lon="4.66609">
        <ele>264.04742</ele>
        <time>2022-11-06T14:26:34.000Z</time>
      </trkpt>
      <trkpt lat="46.12023" lon="4.66617">
        <ele>263.85614</ele>
        <time>2022-11-06T14:26:35.000Z</time>
      </trkpt>
      <trkpt lat="46.12025" lon="4.66626">
        <ele>263.84589</ele>
        <time>2022-11-06T14:26:36.000Z</time>
      </trkpt>
      <trkpt lat="46.12027" lon="4.66634">
        <ele>263.94492</ele>
        <time>2022-11-06T14:26:37.000Z</time>
      </trkpt>
      <trkpt lat="46.12029" lon="4.66643">
        <ele>264.00555</ele>
        <time>2022-11-06T14:26:38.000Z</time>
      </trkpt>
      <trkpt lat="46.1203" lon="4.66651">
        <ele>264.18951</ele>
        <time>2022-11-06T14:26:39.000Z</time>
      </trkpt>
      <trkpt lat="46.12032" lon="4.6666">
        <ele>264.35333</ele>
        <time>2022-11-06T14:26:40.000Z</time>
      </trkpt>
      <trkpt lat="46.12034" lon="4.6667">
        <ele>264.19916</ele>
        <time>2022-11-06T14:26:41.000Z</time>
      </trkpt>
      <trkpt lat="46.12037" lon="4.6668">
        <ele>264.04532</ele>
        <time>2022-11-06T14:26:42.000Z</time>
      </trkpt>
      <trkpt lat="46.12039" lon="4.66688">
        <ele>263.90659</ele>
        <time>2022-11-06T14:26:43.000Z</time>
      </trkpt>
      <trkpt lat="46.12042" lon="4.66695">
        <ele>263.79245</ele>
        <time>2022-11-06T14:26:44.000Z</time>
      </trkpt>
      <trkpt lat="46.12044" lon="4.66704">
        <ele>263.71124</ele>
        <time>2022-11-06T14:26:45.000Z</time>
      </trkpt>
      <trkpt lat="46.12045" lon="4.66712">
        <ele>263.62006</ele>
        <time>2022-11-06T14:26:46.000Z</time>
      </trkpt>
      <trkpt lat="46.12048" lon="4.66721">
        <ele>263.50436</ele>
        <time>2022-11-06T14:26:47.000Z</time>
      </trkpt>
      <trkpt lat="46.1205" lon="4.6673">
        <ele>263.38867</ele>
        <time>2022-11-06T14:26:48.000Z</time>
      </trkpt>
      <trkpt lat="46.12051" lon="4.66738">
        <ele>263.2421</ele>
        <time>2022-11-06T14:26:49.000Z</time>
      </trkpt>
      <trkpt lat="46.12053" lon="4.66746">
        <ele>263.10797</ele>
        <time>2022-11-06T14:26:50.000Z</time>
      </trkpt>
      <trkpt lat="46.12055" lon="4.66754">
        <ele>263.01904</ele>
        <time>2022-11-06T14:26:51.000Z</time>
      </trkpt>
      <trkpt lat="46.12056" lon="4.66762">
        <ele>262.94379</ele>
        <time>2022-11-06T14:26:52.000Z</time>
      </trkpt>
      <trkpt lat="46.12059" lon="4.66769">
        <ele>262.88721</ele>
        <time>2022-11-06T14:26:53.000Z</time>
      </trkpt>
      <trkpt lat="46.12061" lon="4.66777">
        <ele>262.87741</ele>
        <time>2022-11-06T14:26:54.000Z</time>
      </trkpt>
      <trkpt lat="46.12062" lon="4.66785">
        <ele>262.85144</ele>
        <time>2022-11-06T14:26:55.000Z</time>
      </trkpt>
      <trkpt lat="46.12063" lon="4.66794">
        <ele>262.86389</ele>
        <time>2022-11-06T14:26:56.000Z</time>
      </trkpt>
      <trkpt lat="46.12065" lon="4.66802">
        <ele>262.90283</ele>
        <time>2022-11-06T14:26:57.000Z</time>
      </trkpt>
      <trkpt lat="46.12066" lon="4.6681">
        <ele>262.92499</ele>
        <time>2022-11-06T14:26:58.000Z</time>
      </trkpt>
      <trkpt lat="46.12068" lon="4.66817">
        <ele>262.94043</ele>
        <time>2022-11-06T14:26:59.000Z</time>
      </trkpt>
      <trkpt lat="46.12069" lon="4.66825">
        <ele>263.00739</ele>
        <time>2022-11-06T14:27:00.000Z</time>
      </trkpt>
      <trkpt lat="46.12071" lon="4.66833">
        <ele>263.12125</ele>
        <time>2022-11-06T14:27:01.000Z</time>
      </trkpt>
      <trkpt lat="46.12072" lon="4.66841">
        <ele>263.26276</ele>
        <time>2022-11-06T14:27:02.000Z</time>
      </trkpt>
      <trkpt lat="46.12073" lon="4.66849">
        <ele>263.41553</ele>
        <time>2022-11-06T14:27:03.000Z</time>
      </trkpt>
      <trkpt lat="46.12075" lon="4.66857">
        <ele>263.58356</ele>
        <time>2022-11-06T14:27:04.000Z</time>
      </trkpt>
      <trkpt lat="46.12077" lon="4.66864">
        <ele>263.7565</ele>
        <time>2022-11-06T14:27:05.000Z</time>
      </trkpt>
      <trkpt lat="46.12079" lon="4.66872">
        <ele>263.94614</ele>
        <time>2022-11-06T14:27:06.000Z</time>
      </trkpt>
      <trkpt lat="46.1208" lon="4.66878">
        <ele>264.15982</ele>
        <time>2022-11-06T14:27:07.000Z</time>
      </trkpt>
      <trkpt lat="46.12079" lon="4.66887">
        <ele>264.23956</ele>
        <time>2022-11-06T14:27:08.000Z</time>
      </trkpt>
      <trkpt lat="46.12081" lon="4.66893">
        <ele>264.33966</ele>
        <time>2022-11-06T14:27:09.000Z</time>
      </trkpt>
      <trkpt lat="46.12083" lon="4.66899">
        <ele>264.43304</ele>
        <time>2022-11-06T14:27:10.000Z</time>
      </trkpt>
      <trkpt lat="46.12085" lon="4.66906">
        <ele>264.4967</ele>
        <time>2022-11-06T14:27:11.000Z</time>
      </trkpt>
      <trkpt lat="46.12087" lon="4.66914">
        <ele>264.54013</ele>
        <time>2022-11-06T14:27:12.000Z</time>
      </trkpt>
      <trkpt lat="46.12088" lon="4.66921">
        <ele>264.55807</ele>
        <time>2022-11-06T14:27:13.000Z</time>
      </trkpt>
      <trkpt lat="46.1209" lon="4.6693">
        <ele>264.56961</ele>
        <time>2022-11-06T14:27:14.000Z</time>
      </trkpt>
      <trkpt lat="46.12091" lon="4.66938">
        <ele>264.56882</ele>
        <time>2022-11-06T14:27:15.000Z</time>
      </trkpt>
      <trkpt lat="46.12094" lon="4.66947">
        <ele>264.53525</ele>
        <time>2022-11-06T14:27:16.000Z</time>
      </trkpt>
      <trkpt lat="46.12095" lon="4.66955">
        <ele>264.47287</ele>
        <time>2022-11-06T14:27:17.000Z</time>
      </trkpt>
      <trkpt lat="46.12097" lon="4.66963">
        <ele>264.39877</ele>
        <time>2022-11-06T14:27:18.000Z</time>
      </trkpt>
      <trkpt lat="46.12098" lon="4.66972">
        <ele>264.31836</ele>
        <time>2022-11-06T14:27:19.000Z</time>
      </trkpt>
      <trkpt lat="46.121" lon="4.66981">
        <ele>264.10577</ele>
        <time>2022-11-06T14:27:20.000Z</time>
      </trkpt>
      <trkpt lat="46.12102" lon="4.66989">
        <ele>263.86993</ele>
        <time>2022-11-06T14:27:21.000Z</time>
      </trkpt>
      <trkpt lat="46.12103" lon="4.66998">
        <ele>263.65201</ele>
        <time>2022-11-06T14:27:22.000Z</time>
      </trkpt>
      <trkpt lat="46.12106" lon="4.67007">
        <ele>263.35269</ele>
        <time>2022-11-06T14:27:23.000Z</time>
      </trkpt>
      <trkpt lat="46.12108" lon="4.67016">
        <ele>263.04865</ele>
        <time>2022-11-06T14:27:24.000Z</time>
      </trkpt>
      <trkpt lat="46.1211" lon="4.67025">
        <ele>262.70929</ele>
        <time>2022-11-06T14:27:25.000Z</time>
      </trkpt>
      <trkpt lat="46.12112" lon="4.67035">
        <ele>262.64117</ele>
        <time>2022-11-06T14:27:26.000Z</time>
      </trkpt>
      <trkpt lat="46.12114" lon="4.67044">
        <ele>262.50015</ele>
        <time>2022-11-06T14:27:27.000Z</time>
      </trkpt>
      <trkpt lat="46.12116" lon="4.67053">
        <ele>262.49396</ele>
        <time>2022-11-06T14:27:28.000Z</time>
      </trkpt>
      <trkpt lat="46.12118" lon="4.67063">
        <ele>262.44995</ele>
        <time>2022-11-06T14:27:29.000Z</time>
      </trkpt>
      <trkpt lat="46.12121" lon="4.67072">
        <ele>262.36984</ele>
        <time>2022-11-06T14:27:30.000Z</time>
      </trkpt>
      <trkpt lat="46.12123" lon="4.67082">
        <ele>262.27997</ele>
        <time>2022-11-06T14:27:31.000Z</time>
      </trkpt>
      <trkpt lat="46.12126" lon="4.67091">
        <ele>262.24979</ele>
        <time>2022-11-06T14:27:32.000Z</time>
      </trkpt>
      <trkpt lat="46.12128" lon="4.67101">
        <ele>262.21289</ele>
        <time>2022-11-06T14:27:33.000Z</time>
      </trkpt>
      <trkpt lat="46.1213" lon="4.67111">
        <ele>262.17242</ele>
        <time>2022-11-06T14:27:34.000Z</time>
      </trkpt>
      <trkpt lat="46.12132" lon="4.67121">
        <ele>262.11755</ele>
        <time>2022-11-06T14:27:35.000Z</time>
      </trkpt>
      <trkpt lat="46.12134" lon="4.67131">
        <ele>262.02533</ele>
        <time>2022-11-06T14:27:36.000Z</time>
      </trkpt>
      <trkpt lat="46.12136" lon="4.6714">
        <ele>261.93137</ele>
        <time>2022-11-06T14:27:37.000Z</time>
      </trkpt>
      <trkpt lat="46.12137" lon="4.67151">
        <ele>261.78497</ele>
        <time>2022-11-06T14:27:38.000Z</time>
      </trkpt>
      <trkpt lat="46.12139" lon="4.6716">
        <ele>261.64236</ele>
        <time>2022-11-06T14:27:39.000Z</time>
      </trkpt>
      <trkpt lat="46.12142" lon="4.6717">
        <ele>261.61151</ele>
        <time>2022-11-06T14:27:40.000Z</time>
      </trkpt>
      <trkpt lat="46.12144" lon="4.67179">
        <ele>261.56116</ele>
        <time>2022-11-06T14:27:41.000Z</time>
      </trkpt>
      <trkpt lat="46.12147" lon="4.67188">
        <ele>261.44781</ele>
        <time>2022-11-06T14:27:42.000Z</time>
      </trkpt>
      <trkpt lat="46.12148" lon="4.67197">
        <ele>261.41571</ele>
        <time>2022-11-06T14:27:43.000Z</time>
      </trkpt>
      <trkpt lat="46.12151" lon="4.67207">
        <ele>261.35199</ele>
        <time>2022-11-06T14:27:44.000Z</time>
      </trkpt>
      <trkpt lat="46.12152" lon="4.67217">
        <ele>261.26761</ele>
        <time>2022-11-06T14:27:45.000Z</time>
      </trkpt>
      <trkpt lat="46.12155" lon="4.67226">
        <ele>260.85321</ele>
        <time>2022-11-06T14:27:46.000Z</time>
      </trkpt>
      <trkpt lat="46.12156" lon="4.67236">
        <ele>260.45663</ele>
        <time>2022-11-06T14:27:47.000Z</time>
      </trkpt>
      <trkpt lat="46.12159" lon="4.67246">
        <ele>260.03729</ele>
        <time>2022-11-06T14:27:48.000Z</time>
      </trkpt>
      <trkpt lat="46.1216" lon="4.67255">
        <ele>259.66986</ele>
        <time>2022-11-06T14:27:49.000Z</time>
      </trkpt>
      <trkpt lat="46.12162" lon="4.67266">
        <ele>259.37595</ele>
        <time>2022-11-06T14:27:50.000Z</time>
      </trkpt>
      <trkpt lat="46.12163" lon="4.67275">
        <ele>259.14349</ele>
        <time>2022-11-06T14:27:51.000Z</time>
      </trkpt>
      <trkpt lat="46.12165" lon="4.67285">
        <ele>258.85828</ele>
        <time>2022-11-06T14:27:52.000Z</time>
      </trkpt>
      <trkpt lat="46.12168" lon="4.67295">
        <ele>258.62671</ele>
        <time>2022-11-06T14:27:53.000Z</time>
      </trkpt>
      <trkpt lat="46.12171" lon="4.67304">
        <ele>258.341</ele>
        <time>2022-11-06T14:27:54.000Z</time>
      </trkpt>
      <trkpt lat="46.12173" lon="4.67314">
        <ele>258.14709</ele>
        <time>2022-11-06T14:27:55.000Z</time>
      </trkpt>
      <trkpt lat="46.12173" lon="4.67322">
        <ele>257.97662</ele>
        <time>2022-11-06T14:27:56.000Z</time>
      </trkpt>
      <trkpt lat="46.12175" lon="4.67329">
        <ele>257.83435</ele>
        <time>2022-11-06T14:27:57.000Z</time>
      </trkpt>
      <trkpt lat="46.12177" lon="4.67337">
        <ele>257.7829</ele>
        <time>2022-11-06T14:27:58.000Z</time>
      </trkpt>
      <trkpt lat="46.12178" lon="4.67345">
        <ele>257.8381</ele>
        <time>2022-11-06T14:27:59.000Z</time>
      </trkpt>
      <trkpt lat="46.1218" lon="4.67353">
        <ele>257.89511</ele>
        <time>2022-11-06T14:28:00.000Z</time>
      </trkpt>
      <trkpt lat="46.1218" lon="4.6736">
        <ele>258.02786</ele>
        <time>2022-11-06T14:28:01.000Z</time>
      </trkpt>
      <trkpt lat="46.12181" lon="4.67366">
        <ele>258.25293</ele>
        <time>2022-11-06T14:28:02.000Z</time>
      </trkpt>
      <trkpt lat="46.12181" lon="4.67371">
        <ele>258.42096</ele>
        <time>2022-11-06T14:28:03.000Z</time>
      </trkpt>
      <trkpt lat="46.12181" lon="4.67377">
        <ele>258.55502</ele>
        <time>2022-11-06T14:28:04.000Z</time>
      </trkpt>
      <trkpt lat="46.12182" lon="4.67382">
        <ele>258.71744</ele>
        <time>2022-11-06T14:28:05.000Z</time>
      </trkpt>
      <trkpt lat="46.12182" lon="4.67387">
        <ele>258.909</ele>
        <time>2022-11-06T14:28:06.000Z</time>
      </trkpt>
      <trkpt lat="46.12183" lon="4.67393">
        <ele>259.16064</ele>
        <time>2022-11-06T14:28:07.000Z</time>
      </trkpt>
      <trkpt lat="46.12183" lon="4.67399">
        <ele>259.41534</ele>
        <time>2022-11-06T14:28:08.000Z</time>
      </trkpt>
      <trkpt lat="46.12184" lon="4.67406">
        <ele>259.60406</ele>
        <time>2022-11-06T14:28:09.000Z</time>
      </trkpt>
      <trkpt lat="46.12185" lon="4.67414">
        <ele>259.77982</ele>
        <time>2022-11-06T14:28:10.000Z</time>
      </trkpt>
      <trkpt lat="46.12186" lon="4.6742">
        <ele>259.90948</ele>
        <time>2022-11-06T14:28:11.000Z</time>
      </trkpt>
      <trkpt lat="46.12187" lon="4.67428">
        <ele>260.03705</ele>
        <time>2022-11-06T14:28:12.000Z</time>
      </trkpt>
      <trkpt lat="46.12188" lon="4.67435">
        <ele>260.12314</ele>
        <time>2022-11-06T14:28:13.000Z</time>
      </trkpt>
      <trkpt lat="46.12189" lon="4.67444">
        <ele>260.30112</ele>
        <time>2022-11-06T14:28:14.000Z</time>
      </trkpt>
      <trkpt lat="46.1219" lon="4.67452">
        <ele>260.41229</ele>
        <time>2022-11-06T14:28:15.000Z</time>
      </trkpt>
      <trkpt lat="46.12192" lon="4.6746">
        <ele>260.54813</ele>
        <time>2022-11-06T14:28:16.000Z</time>
      </trkpt>
      <trkpt lat="46.12194" lon="4.67468">
        <ele>260.67209</ele>
        <time>2022-11-06T14:28:17.000Z</time>
      </trkpt>
      <trkpt lat="46.12195" lon="4.67476">
        <ele>260.75937</ele>
        <time>2022-11-06T14:28:18.000Z</time>
      </trkpt>
      <trkpt lat="46.12197" lon="4.67484">
        <ele>260.76782</ele>
        <time>2022-11-06T14:28:19.000Z</time>
      </trkpt>
      <trkpt lat="46.12198" lon="4.67493">
        <ele>260.76361</ele>
        <time>2022-11-06T14:28:20.000Z</time>
      </trkpt>
      <trkpt lat="46.12199" lon="4.67502">
        <ele>260.72134</ele>
        <time>2022-11-06T14:28:21.000Z</time>
      </trkpt>
      <trkpt lat="46.12201" lon="4.6751">
        <ele>260.6442</ele>
        <time>2022-11-06T14:28:22.000Z</time>
      </trkpt>
      <trkpt lat="46.12203" lon="4.6752">
        <ele>260.62094</ele>
        <time>2022-11-06T14:28:23.000Z</time>
      </trkpt>
      <trkpt lat="46.12203" lon="4.67528">
        <ele>260.65787</ele>
        <time>2022-11-06T14:28:24.000Z</time>
      </trkpt>
      <trkpt lat="46.12205" lon="4.67537">
        <ele>260.69867</ele>
        <time>2022-11-06T14:28:25.000Z</time>
      </trkpt>
      <trkpt lat="46.12205" lon="4.67546">
        <ele>260.70273</ele>
        <time>2022-11-06T14:28:26.000Z</time>
      </trkpt>
      <trkpt lat="46.12206" lon="4.67555">
        <ele>260.664</ele>
        <time>2022-11-06T14:28:27.000Z</time>
      </trkpt>
      <trkpt lat="46.12208" lon="4.67565">
        <ele>260.64697</ele>
        <time>2022-11-06T14:28:28.000Z</time>
      </trkpt>
      <trkpt lat="46.12209" lon="4.67573">
        <ele>260.61621</ele>
        <time>2022-11-06T14:28:29.000Z</time>
      </trkpt>
      <trkpt lat="46.1221" lon="4.67581">
        <ele>260.5441</ele>
        <time>2022-11-06T14:28:30.000Z</time>
      </trkpt>
      <trkpt lat="46.12212" lon="4.6759">
        <ele>260.49689</ele>
        <time>2022-11-06T14:28:31.000Z</time>
      </trkpt>
      <trkpt lat="46.12213" lon="4.67598">
        <ele>260.45255</ele>
        <time>2022-11-06T14:28:32.000Z</time>
      </trkpt>
      <trkpt lat="46.12215" lon="4.67607">
        <ele>260.39624</ele>
        <time>2022-11-06T14:28:33.000Z</time>
      </trkpt>
      <trkpt lat="46.12216" lon="4.67617">
        <ele>260.1937</ele>
        <time>2022-11-06T14:28:34.000Z</time>
      </trkpt>
      <trkpt lat="46.12218" lon="4.67624">
        <ele>259.98492</ele>
        <time>2022-11-06T14:28:35.000Z</time>
      </trkpt>
      <trkpt lat="46.12218" lon="4.67633">
        <ele>259.75089</ele>
        <time>2022-11-06T14:28:36.000Z</time>
      </trkpt>
      <trkpt lat="46.1222" lon="4.67641">
        <ele>259.52631</ele>
        <time>2022-11-06T14:28:37.000Z</time>
      </trkpt>
      <trkpt lat="46.12222" lon="4.6765">
        <ele>259.30225</ele>
        <time>2022-11-06T14:28:38.000Z</time>
      </trkpt>
      <trkpt lat="46.12223" lon="4.67659">
        <ele>259.07483</ele>
        <time>2022-11-06T14:28:39.000Z</time>
      </trkpt>
      <trkpt lat="46.12224" lon="4.67668">
        <ele>258.84406</ele>
        <time>2022-11-06T14:28:40.000Z</time>
      </trkpt>
      <trkpt lat="46.12225" lon="4.67678">
        <ele>258.55746</ele>
        <time>2022-11-06T14:28:41.000Z</time>
      </trkpt>
      <trkpt lat="46.12226" lon="4.67687">
        <ele>258.24368</ele>
        <time>2022-11-06T14:28:42.000Z</time>
      </trkpt>
      <trkpt lat="46.12226" lon="4.67695">
        <ele>257.87546</ele>
        <time>2022-11-06T14:28:43.000Z</time>
      </trkpt>
      <trkpt lat="46.12228" lon="4.67704">
        <ele>257.49332</ele>
        <time>2022-11-06T14:28:44.000Z</time>
      </trkpt>
      <trkpt lat="46.1223" lon="4.67712">
        <ele>257.34024</ele>
        <time>2022-11-06T14:28:45.000Z</time>
      </trkpt>
      <trkpt lat="46.12231" lon="4.67721">
        <ele>257.20676</ele>
        <time>2022-11-06T14:28:46.000Z</time>
      </trkpt>
      <trkpt lat="46.12233" lon="4.6773">
        <ele>257.09335</ele>
        <time>2022-11-06T14:28:47.000Z</time>
      </trkpt>
      <trkpt lat="46.12235" lon="4.67739">
        <ele>256.99545</ele>
        <time>2022-11-06T14:28:48.000Z</time>
      </trkpt>
      <trkpt lat="46.12236" lon="4.67748">
        <ele>256.92169</ele>
        <time>2022-11-06T14:28:49.000Z</time>
      </trkpt>
      <trkpt lat="46.12237" lon="4.67757">
        <ele>256.88104</ele>
        <time>2022-11-06T14:28:50.000Z</time>
      </trkpt>
      <trkpt lat="46.1224" lon="4.67763">
        <ele>256.8252</ele>
        <time>2022-11-06T14:28:51.000Z</time>
      </trkpt>
      <trkpt lat="46.12241" lon="4.67772">
        <ele>256.76797</ele>
        <time>2022-11-06T14:28:52.000Z</time>
      </trkpt>
      <trkpt lat="46.12243" lon="4.6778">
        <ele>256.71783</ele>
        <time>2022-11-06T14:28:53.000Z</time>
      </trkpt>
      <trkpt lat="46.12244" lon="4.67789">
        <ele>256.79526</ele>
        <time>2022-11-06T14:28:54.000Z</time>
      </trkpt>
      <trkpt lat="46.12245" lon="4.67798">
        <ele>256.87961</ele>
        <time>2022-11-06T14:28:55.000Z</time>
      </trkpt>
      <trkpt lat="46.12247" lon="4.67805">
        <ele>256.98477</ele>
        <time>2022-11-06T14:28:56.000Z</time>
      </trkpt>
      <trkpt lat="46.12249" lon="4.67811">
        <ele>257.03644</ele>
        <time>2022-11-06T14:28:57.000Z</time>
      </trkpt>
      <trkpt lat="46.12252" lon="4.67818">
        <ele>257.01532</ele>
        <time>2022-11-06T14:28:58.000Z</time>
      </trkpt>
      <trkpt lat="46.12254" lon="4.67825">
        <ele>256.96149</ele>
        <time>2022-11-06T14:28:59.000Z</time>
      </trkpt>
      <trkpt lat="46.12255" lon="4.67834">
        <ele>256.94226</ele>
        <time>2022-11-06T14:29:00.000Z</time>
      </trkpt>
      <trkpt lat="46.12255" lon="4.67844">
        <ele>256.95352</ele>
        <time>2022-11-06T14:29:01.000Z</time>
      </trkpt>
      <trkpt lat="46.12256" lon="4.67853">
        <ele>257.01126</ele>
        <time>2022-11-06T14:29:02.000Z</time>
      </trkpt>
      <trkpt lat="46.12258" lon="4.67862">
        <ele>257.13226</ele>
        <time>2022-11-06T14:29:03.000Z</time>
      </trkpt>
      <trkpt lat="46.12259" lon="4.67871">
        <ele>257.24744</ele>
        <time>2022-11-06T14:29:04.000Z</time>
      </trkpt>
      <trkpt lat="46.1226" lon="4.67879">
        <ele>257.12393</ele>
        <time>2022-11-06T14:29:05.000Z</time>
      </trkpt>
      <trkpt lat="46.12262" lon="4.67887">
        <ele>257.03192</ele>
        <time>2022-11-06T14:29:06.000Z</time>
      </trkpt>
      <trkpt lat="46.12262" lon="4.67895">
        <ele>256.85333</ele>
        <time>2022-11-06T14:29:07.000Z</time>
      </trkpt>
      <trkpt lat="46.12263" lon="4.67902">
        <ele>256.68976</ele>
        <time>2022-11-06T14:29:08.000Z</time>
      </trkpt>
      <trkpt lat="46.12264" lon="4.67911">
        <ele>256.48303</ele>
        <time>2022-11-06T14:29:09.000Z</time>
      </trkpt>
      <trkpt lat="46.12266" lon="4.67919">
        <ele>256.29144</ele>
        <time>2022-11-06T14:29:10.000Z</time>
      </trkpt>
      <trkpt lat="46.12267" lon="4.67926">
        <ele>256.11261</ele>
        <time>2022-11-06T14:29:11.000Z</time>
      </trkpt>
      <trkpt lat="46.12268" lon="4.67933">
        <ele>255.94099</ele>
        <time>2022-11-06T14:29:12.000Z</time>
      </trkpt>
      <trkpt lat="46.1227" lon="4.6794">
        <ele>255.76057</ele>
        <time>2022-11-06T14:29:13.000Z</time>
      </trkpt>
      <trkpt lat="46.12271" lon="4.67947">
        <ele>255.58444</ele>
        <time>2022-11-06T14:29:14.000Z</time>
      </trkpt>
      <trkpt lat="46.12271" lon="4.67954">
        <ele>255.40002</ele>
        <time>2022-11-06T14:29:15.000Z</time>
      </trkpt>
      <trkpt lat="46.12272" lon="4.6796">
        <ele>255.15446</ele>
        <time>2022-11-06T14:29:16.000Z</time>
      </trkpt>
      <trkpt lat="46.12272" lon="4.67967">
        <ele>254.93384</ele>
        <time>2022-11-06T14:29:17.000Z</time>
      </trkpt>
      <trkpt lat="46.12272" lon="4.67973">
        <ele>254.95015</ele>
        <time>2022-11-06T14:29:18.000Z</time>
      </trkpt>
      <trkpt lat="46.12273" lon="4.67977">
        <ele>254.98726</ele>
        <time>2022-11-06T14:29:19.000Z</time>
      </trkpt>
      <trkpt lat="46.12274" lon="4.67981">
        <ele>255.05278</ele>
        <time>2022-11-06T14:29:20.000Z</time>
      </trkpt>
      <trkpt lat="46.12275" lon="4.67987">
        <ele>255.07883</ele>
        <time>2022-11-06T14:29:21.000Z</time>
      </trkpt>
      <trkpt lat="46.12276" lon="4.67991">
        <ele>255.11584</ele>
        <time>2022-11-06T14:29:22.000Z</time>
      </trkpt>
      <trkpt lat="46.12277" lon="4.67996">
        <ele>255.15796</ele>
        <time>2022-11-06T14:29:23.000Z</time>
      </trkpt>
      <trkpt lat="46.12278" lon="4.68002">
        <ele>255.21936</ele>
        <time>2022-11-06T14:29:24.000Z</time>
      </trkpt>
      <trkpt lat="46.12279" lon="4.68008">
        <ele>255.27888</ele>
        <time>2022-11-06T14:29:25.000Z</time>
      </trkpt>
      <trkpt lat="46.12279" lon="4.68015">
        <ele>255.33008</ele>
        <time>2022-11-06T14:29:26.000Z</time>
      </trkpt>
      <trkpt lat="46.1228" lon="4.68021">
        <ele>255.47339</ele>
        <time>2022-11-06T14:29:27.000Z</time>
      </trkpt>
      <trkpt lat="46.12281" lon="4.68028">
        <ele>255.59415</ele>
        <time>2022-11-06T14:29:28.000Z</time>
      </trkpt>
      <trkpt lat="46.12282" lon="4.68036">
        <ele>255.75931</ele>
        <time>2022-11-06T14:29:29.000Z</time>
      </trkpt>
      <trkpt lat="46.12283" lon="4.68043">
        <ele>255.93237</ele>
        <time>2022-11-06T14:29:30.000Z</time>
      </trkpt>
      <trkpt lat="46.12284" lon="4.68051">
        <ele>256.05341</ele>
        <time>2022-11-06T14:29:31.000Z</time>
      </trkpt>
      <trkpt lat="46.12285" lon="4.68058">
        <ele>256.18359</ele>
        <time>2022-11-06T14:29:32.000Z</time>
      </trkpt>
      <trkpt lat="46.12288" lon="4.68066">
        <ele>256.33856</ele>
        <time>2022-11-06T14:29:33.000Z</time>
      </trkpt>
      <trkpt lat="46.1229" lon="4.68073">
        <ele>256.48737</ele>
        <time>2022-11-06T14:29:34.000Z</time>
      </trkpt>
      <trkpt lat="46.12291" lon="4.68081">
        <ele>256.63272</ele>
        <time>2022-11-06T14:29:35.000Z</time>
      </trkpt>
      <trkpt lat="46.12292" lon="4.68089">
        <ele>256.85025</ele>
        <time>2022-11-06T14:29:36.000Z</time>
      </trkpt>
      <trkpt lat="46.12294" lon="4.68097">
        <ele>257.07285</ele>
        <time>2022-11-06T14:29:37.000Z</time>
      </trkpt>
      <trkpt lat="46.12295" lon="4.68106">
        <ele>257.1312</ele>
        <time>2022-11-06T14:29:38.000Z</time>
      </trkpt>
      <trkpt lat="46.12296" lon="4.68114">
        <ele>257.21466</ele>
        <time>2022-11-06T14:29:39.000Z</time>
      </trkpt>
      <trkpt lat="46.12298" lon="4.68123">
        <ele>257.2767</ele>
        <time>2022-11-06T14:29:40.000Z</time>
      </trkpt>
      <trkpt lat="46.12299" lon="4.68132">
        <ele>257.36786</ele>
        <time>2022-11-06T14:29:41.000Z</time>
      </trkpt>
      <trkpt lat="46.123" lon="4.68141">
        <ele>257.41205</ele>
        <time>2022-11-06T14:29:42.000Z</time>
      </trkpt>
      <trkpt lat="46.12302" lon="4.6815">
        <ele>257.39407</ele>
        <time>2022-11-06T14:29:43.000Z</time>
      </trkpt>
      <trkpt lat="46.12303" lon="4.68159">
        <ele>257.36713</ele>
        <time>2022-11-06T14:29:44.000Z</time>
      </trkpt>
      <trkpt lat="46.12304" lon="4.68168">
        <ele>257.34131</ele>
        <time>2022-11-06T14:29:45.000Z</time>
      </trkpt>
      <trkpt lat="46.12306" lon="4.68176">
        <ele>257.29053</ele>
        <time>2022-11-06T14:29:46.000Z</time>
      </trkpt>
      <trkpt lat="46.12307" lon="4.68185">
        <ele>257.21799</ele>
        <time>2022-11-06T14:29:47.000Z</time>
      </trkpt>
      <trkpt lat="46.12308" lon="4.68194">
        <ele>257.14145</ele>
        <time>2022-11-06T14:29:48.000Z</time>
      </trkpt>
      <trkpt lat="46.12309" lon="4.68203">
        <ele>257.06064</ele>
        <time>2022-11-06T14:29:49.000Z</time>
      </trkpt>
      <trkpt lat="46.1231" lon="4.68212">
        <ele>256.92026</ele>
        <time>2022-11-06T14:29:50.000Z</time>
      </trkpt>
      <trkpt lat="46.12312" lon="4.68221">
        <ele>256.8306</ele>
        <time>2022-11-06T14:29:51.000Z</time>
      </trkpt>
      <trkpt lat="46.12313" lon="4.68231">
        <ele>256.72287</ele>
        <time>2022-11-06T14:29:52.000Z</time>
      </trkpt>
      <trkpt lat="46.12314" lon="4.6824">
        <ele>256.56219</ele>
        <time>2022-11-06T14:29:53.000Z</time>
      </trkpt>
      <trkpt lat="46.12314" lon="4.68248">
        <ele>256.4111</ele>
        <time>2022-11-06T14:29:54.000Z</time>
      </trkpt>
      <trkpt lat="46.12317" lon="4.68256">
        <ele>256.29938</ele>
        <time>2022-11-06T14:29:55.000Z</time>
      </trkpt>
      <trkpt lat="46.12318" lon="4.68266">
        <ele>256.1694</ele>
        <time>2022-11-06T14:29:56.000Z</time>
      </trkpt>
      <trkpt lat="46.12319" lon="4.68274">
        <ele>256.01129</ele>
        <time>2022-11-06T14:29:57.000Z</time>
      </trkpt>
      <trkpt lat="46.12321" lon="4.68283">
        <ele>255.85161</ele>
        <time>2022-11-06T14:29:58.000Z</time>
      </trkpt>
      <trkpt lat="46.12323" lon="4.68292">
        <ele>255.67264</ele>
        <time>2022-11-06T14:29:59.000Z</time>
      </trkpt>
      <trkpt lat="46.12324" lon="4.683">
        <ele>255.51077</ele>
        <time>2022-11-06T14:30:00.000Z</time>
      </trkpt>
      <trkpt lat="46.12327" lon="4.68307">
        <ele>255.34981</ele>
        <time>2022-11-06T14:30:01.000Z</time>
      </trkpt>
      <trkpt lat="46.12328" lon="4.68316">
        <ele>255.19418</ele>
        <time>2022-11-06T14:30:02.000Z</time>
      </trkpt>
      <trkpt lat="46.12329" lon="4.68324">
        <ele>255.13553</ele>
        <time>2022-11-06T14:30:03.000Z</time>
      </trkpt>
      <trkpt lat="46.1233" lon="4.68333">
        <ele>255.07022</ele>
        <time>2022-11-06T14:30:04.000Z</time>
      </trkpt>
      <trkpt lat="46.12333" lon="4.68342">
        <ele>254.98523</ele>
        <time>2022-11-06T14:30:05.000Z</time>
      </trkpt>
      <trkpt lat="46.12333" lon="4.68349">
        <ele>254.88089</ele>
        <time>2022-11-06T14:30:06.000Z</time>
      </trkpt>
      <trkpt lat="46.12334" lon="4.68357">
        <ele>254.72299</ele>
        <time>2022-11-06T14:30:07.000Z</time>
      </trkpt>
      <trkpt lat="46.12336" lon="4.68364">
        <ele>254.46957</ele>
        <time>2022-11-06T14:30:08.000Z</time>
      </trkpt>
      <trkpt lat="46.12339" lon="4.68373">
        <ele>254.20345</ele>
        <time>2022-11-06T14:30:09.000Z</time>
      </trkpt>
      <trkpt lat="46.12342" lon="4.68381">
        <ele>253.92986</ele>
        <time>2022-11-06T14:30:10.000Z</time>
      </trkpt>
      <trkpt lat="46.12343" lon="4.68393">
        <ele>253.67294</ele>
        <time>2022-11-06T14:30:11.000Z</time>
      </trkpt>
      <trkpt lat="46.12344" lon="4.68404">
        <ele>253.42998</ele>
        <time>2022-11-06T14:30:12.000Z</time>
      </trkpt>
      <trkpt lat="46.12343" lon="4.68413">
        <ele>253.23901</ele>
        <time>2022-11-06T14:30:13.000Z</time>
      </trkpt>
      <trkpt lat="46.12346" lon="4.68421">
        <ele>253.00537</ele>
        <time>2022-11-06T14:30:14.000Z</time>
      </trkpt>
      <trkpt lat="46.12347" lon="4.6843">
        <ele>252.79956</ele>
        <time>2022-11-06T14:30:15.000Z</time>
      </trkpt>
      <trkpt lat="46.12348" lon="4.68439">
        <ele>252.54903</ele>
        <time>2022-11-06T14:30:16.000Z</time>
      </trkpt>
      <trkpt lat="46.12351" lon="4.68448">
        <ele>252.35434</ele>
        <time>2022-11-06T14:30:17.000Z</time>
      </trkpt>
      <trkpt lat="46.12354" lon="4.68456">
        <ele>252.13811</ele>
        <time>2022-11-06T14:30:18.000Z</time>
      </trkpt>
      <trkpt lat="46.12356" lon="4.68465">
        <ele>251.91147</ele>
        <time>2022-11-06T14:30:19.000Z</time>
      </trkpt>
      <trkpt lat="46.12358" lon="4.68473">
        <ele>251.60782</ele>
        <time>2022-11-06T14:30:20.000Z</time>
      </trkpt>
      <trkpt lat="46.12358" lon="4.68483">
        <ele>251.27426</ele>
        <time>2022-11-06T14:30:21.000Z</time>
      </trkpt>
      <trkpt lat="46.12359" lon="4.68492">
        <ele>250.8757</ele>
        <time>2022-11-06T14:30:22.000Z</time>
      </trkpt>
      <trkpt lat="46.12358" lon="4.68501">
        <ele>250.43465</ele>
        <time>2022-11-06T14:30:23.000Z</time>
      </trkpt>
      <trkpt lat="46.12359" lon="4.68511">
        <ele>249.96843</ele>
        <time>2022-11-06T14:30:24.000Z</time>
      </trkpt>
      <trkpt lat="46.1236" lon="4.68521">
        <ele>249.51241</ele>
        <time>2022-11-06T14:30:25.000Z</time>
      </trkpt>
      <trkpt lat="46.12363" lon="4.6853">
        <ele>249.08179</ele>
        <time>2022-11-06T14:30:26.000Z</time>
      </trkpt>
      <trkpt lat="46.12365" lon="4.6854">
        <ele>248.78255</ele>
        <time>2022-11-06T14:30:27.000Z</time>
      </trkpt>
      <trkpt lat="46.12369" lon="4.68548">
        <ele>248.59647</ele>
        <time>2022-11-06T14:30:28.000Z</time>
      </trkpt>
      <trkpt lat="46.12371" lon="4.68557">
        <ele>248.43291</ele>
        <time>2022-11-06T14:30:29.000Z</time>
      </trkpt>
      <trkpt lat="46.12372" lon="4.68567">
        <ele>248.35294</ele>
        <time>2022-11-06T14:30:30.000Z</time>
      </trkpt>
      <trkpt lat="46.12371" lon="4.68576">
        <ele>248.25122</ele>
        <time>2022-11-06T14:30:31.000Z</time>
      </trkpt>
      <trkpt lat="46.12371" lon="4.68585">
        <ele>248.09433</ele>
        <time>2022-11-06T14:30:32.000Z</time>
      </trkpt>
      <trkpt lat="46.12373" lon="4.68596">
        <ele>247.95988</ele>
        <time>2022-11-06T14:30:33.000Z</time>
      </trkpt>
      <trkpt lat="46.12374" lon="4.68603">
        <ele>247.81624</ele>
        <time>2022-11-06T14:30:34.000Z</time>
      </trkpt>
      <trkpt lat="46.12375" lon="4.68614">
        <ele>247.60095</ele>
        <time>2022-11-06T14:30:35.000Z</time>
      </trkpt>
      <trkpt lat="46.12377" lon="4.68623">
        <ele>247.48726</ele>
        <time>2022-11-06T14:30:36.000Z</time>
      </trkpt>
      <trkpt lat="46.1238" lon="4.68631">
        <ele>247.35957</ele>
        <time>2022-11-06T14:30:37.000Z</time>
      </trkpt>
      <trkpt lat="46.1238" lon="4.68641">
        <ele>247.19907</ele>
        <time>2022-11-06T14:30:38.000Z</time>
      </trkpt>
      <trkpt lat="46.12382" lon="4.68652">
        <ele>247.08203</ele>
        <time>2022-11-06T14:30:39.000Z</time>
      </trkpt>
      <trkpt lat="46.12383" lon="4.6866">
        <ele>247.00578</ele>
        <time>2022-11-06T14:30:40.000Z</time>
      </trkpt>
      <trkpt lat="46.12385" lon="4.68671">
        <ele>246.97531</ele>
        <time>2022-11-06T14:30:41.000Z</time>
      </trkpt>
      <trkpt lat="46.12386" lon="4.68679">
        <ele>247.05559</ele>
        <time>2022-11-06T14:30:42.000Z</time>
      </trkpt>
      <trkpt lat="46.12388" lon="4.68689">
        <ele>247.116</ele>
        <time>2022-11-06T14:30:43.000Z</time>
      </trkpt>
      <trkpt lat="46.12386" lon="4.68699">
        <ele>247.26196</ele>
        <time>2022-11-06T14:30:44.000Z</time>
      </trkpt>
      <trkpt lat="46.12388" lon="4.68709">
        <ele>247.47476</ele>
        <time>2022-11-06T14:30:45.000Z</time>
      </trkpt>
      <trkpt lat="46.12389" lon="4.68717">
        <ele>247.66914</ele>
        <time>2022-11-06T14:30:46.000Z</time>
      </trkpt>
      <trkpt lat="46.1239" lon="4.68728">
        <ele>247.73438</ele>
        <time>2022-11-06T14:30:47.000Z</time>
      </trkpt>
      <trkpt lat="46.12388" lon="4.68737">
        <ele>247.77266</ele>
        <time>2022-11-06T14:30:48.000Z</time>
      </trkpt>
      <trkpt lat="46.1239" lon="4.68747">
        <ele>247.80367</ele>
        <time>2022-11-06T14:30:49.000Z</time>
      </trkpt>
      <trkpt lat="46.12388" lon="4.68755">
        <ele>248.00009</ele>
        <time>2022-11-06T14:30:50.000Z</time>
      </trkpt>
      <trkpt lat="46.12386" lon="4.68765">
        <ele>248.07755</ele>
        <time>2022-11-06T14:30:51.000Z</time>
      </trkpt>
      <trkpt lat="46.12387" lon="4.68774">
        <ele>248.50427</ele>
        <time>2022-11-06T14:30:52.000Z</time>
      </trkpt>
      <trkpt lat="46.12386" lon="4.68785">
        <ele>248.92227</ele>
        <time>2022-11-06T14:30:53.000Z</time>
      </trkpt>
      <trkpt lat="46.12386" lon="4.68796">
        <ele>249.37212</ele>
        <time>2022-11-06T14:30:54.000Z</time>
      </trkpt>
      <trkpt lat="46.12387" lon="4.68805">
        <ele>249.84799</ele>
        <time>2022-11-06T14:30:55.000Z</time>
      </trkpt>
      <trkpt lat="46.12388" lon="4.68813">
        <ele>250.30972</ele>
        <time>2022-11-06T14:30:56.000Z</time>
      </trkpt>
      <trkpt lat="46.12389" lon="4.68824">
        <ele>250.7749</ele>
        <time>2022-11-06T14:30:57.000Z</time>
      </trkpt>
      <trkpt lat="46.12389" lon="4.68834">
        <ele>251.28061</ele>
        <time>2022-11-06T14:30:58.000Z</time>
      </trkpt>
      <trkpt lat="46.12389" lon="4.68844">
        <ele>251.73759</ele>
        <time>2022-11-06T14:30:59.000Z</time>
      </trkpt>
      <trkpt lat="46.12387" lon="4.68855">
        <ele>252.17065</ele>
        <time>2022-11-06T14:31:00.000Z</time>
      </trkpt>
      <trkpt lat="46.12389" lon="4.68865">
        <ele>252.69199</ele>
        <time>2022-11-06T14:31:01.000Z</time>
      </trkpt>
      <trkpt lat="46.12388" lon="4.68877">
        <ele>253.28337</ele>
        <time>2022-11-06T14:31:02.000Z</time>
      </trkpt>
      <trkpt lat="46.12386" lon="4.68887">
        <ele>253.87231</ele>
        <time>2022-11-06T14:31:03.000Z</time>
      </trkpt>
      <trkpt lat="46.12385" lon="4.68897">
        <ele>254.43779</ele>
        <time>2022-11-06T14:31:04.000Z</time>
      </trkpt>
      <trkpt lat="46.12383" lon="4.68907">
        <ele>254.97195</ele>
        <time>2022-11-06T14:31:05.000Z</time>
      </trkpt>
      <trkpt lat="46.12384" lon="4.68917">
        <ele>255.63492</ele>
        <time>2022-11-06T14:31:06.000Z</time>
      </trkpt>
      <trkpt lat="46.12383" lon="4.68927">
        <ele>256.36798</ele>
        <time>2022-11-06T14:31:07.000Z</time>
      </trkpt>
      <trkpt lat="46.12382" lon="4.68935">
        <ele>257.12122</ele>
        <time>2022-11-06T14:31:08.000Z</time>
      </trkpt>
      <trkpt lat="46.12381" lon="4.68945">
        <ele>257.90231</ele>
        <time>2022-11-06T14:31:09.000Z</time>
      </trkpt>
      <trkpt lat="46.1238" lon="4.68954">
        <ele>258.45715</ele>
        <time>2022-11-06T14:31:10.000Z</time>
      </trkpt>
      <trkpt lat="46.1238" lon="4.68962">
        <ele>259.11359</ele>
        <time>2022-11-06T14:31:11.000Z</time>
      </trkpt>
      <trkpt lat="46.12379" lon="4.68972">
        <ele>259.4697</ele>
        <time>2022-11-06T14:31:12.000Z</time>
      </trkpt>
      <trkpt lat="46.12379" lon="4.68981">
        <ele>259.78439</ele>
        <time>2022-11-06T14:31:13.000Z</time>
      </trkpt>
      <trkpt lat="46.1238" lon="4.68991">
        <ele>260.13199</ele>
        <time>2022-11-06T14:31:14.000Z</time>
      </trkpt>
      <trkpt lat="46.1238" lon="4.69001">
        <ele>260.47504</ele>
        <time>2022-11-06T14:31:15.000Z</time>
      </trkpt>
      <trkpt lat="46.12379" lon="4.69011">
        <ele>260.76675</ele>
        <time>2022-11-06T14:31:16.000Z</time>
      </trkpt>
      <trkpt lat="46.1238" lon="4.69021">
        <ele>261.06845</ele>
        <time>2022-11-06T14:31:17.000Z</time>
      </trkpt>
      <trkpt lat="46.12379" lon="4.69031">
        <ele>261.3855</ele>
        <time>2022-11-06T14:31:18.000Z</time>
      </trkpt>
      <trkpt lat="46.12378" lon="4.6904">
        <ele>261.67111</ele>
        <time>2022-11-06T14:31:19.000Z</time>
      </trkpt>
      <trkpt lat="46.12378" lon="4.69049">
        <ele>261.98584</ele>
        <time>2022-11-06T14:31:20.000Z</time>
      </trkpt>
      <trkpt lat="46.12376" lon="4.69057">
        <ele>262.19052</ele>
        <time>2022-11-06T14:31:21.000Z</time>
      </trkpt>
      <trkpt lat="46.12378" lon="4.69067">
        <ele>262.32889</ele>
        <time>2022-11-06T14:31:22.000Z</time>
      </trkpt>
      <trkpt lat="46.12377" lon="4.69078">
        <ele>262.47662</ele>
        <time>2022-11-06T14:31:23.000Z</time>
      </trkpt>
      <trkpt lat="46.12378" lon="4.69088">
        <ele>262.59738</ele>
        <time>2022-11-06T14:31:24.000Z</time>
      </trkpt>
      <trkpt lat="46.12375" lon="4.69097">
        <ele>262.61957</ele>
        <time>2022-11-06T14:31:25.000Z</time>
      </trkpt>
      <trkpt lat="46.12376" lon="4.69106">
        <ele>262.55991</ele>
        <time>2022-11-06T14:31:26.000Z</time>
      </trkpt>
      <trkpt lat="46.12375" lon="4.69116">
        <ele>262.39178</ele>
        <time>2022-11-06T14:31:27.000Z</time>
      </trkpt>
      <trkpt lat="46.12375" lon="4.69126">
        <ele>262.19138</ele>
        <time>2022-11-06T14:31:28.000Z</time>
      </trkpt>
      <trkpt lat="46.12376" lon="4.69134">
        <ele>261.93045</ele>
        <time>2022-11-06T14:31:29.000Z</time>
      </trkpt>
      <trkpt lat="46.12378" lon="4.69144">
        <ele>261.84464</ele>
        <time>2022-11-06T14:31:30.000Z</time>
      </trkpt>
      <trkpt lat="46.12377" lon="4.69154">
        <ele>261.70551</ele>
        <time>2022-11-06T14:31:31.000Z</time>
      </trkpt>
      <trkpt lat="46.12377" lon="4.69164">
        <ele>261.54483</ele>
        <time>2022-11-06T14:31:32.000Z</time>
      </trkpt>
      <trkpt lat="46.12376" lon="4.69174">
        <ele>261.36313</ele>
        <time>2022-11-06T14:31:33.000Z</time>
      </trkpt>
      <trkpt lat="46.12378" lon="4.69184">
        <ele>261.1662</ele>
        <time>2022-11-06T14:31:34.000Z</time>
      </trkpt>
      <trkpt lat="46.12378" lon="4.69193">
        <ele>260.95114</ele>
        <time>2022-11-06T14:31:35.000Z</time>
      </trkpt>
      <trkpt lat="46.1238" lon="4.69203">
        <ele>260.77289</ele>
        <time>2022-11-06T14:31:36.000Z</time>
      </trkpt>
      <trkpt lat="46.12382" lon="4.69212">
        <ele>260.60153</ele>
        <time>2022-11-06T14:31:37.000Z</time>
      </trkpt>
      <trkpt lat="46.12384" lon="4.69222">
        <ele>260.47028</ele>
        <time>2022-11-06T14:31:38.000Z</time>
      </trkpt>
      <trkpt lat="46.12385" lon="4.69231">
        <ele>260.38287</ele>
        <time>2022-11-06T14:31:39.000Z</time>
      </trkpt>
      <trkpt lat="46.12384" lon="4.6924">
        <ele>260.27216</ele>
        <time>2022-11-06T14:31:40.000Z</time>
      </trkpt>
      <trkpt lat="46.12385" lon="4.6925">
        <ele>260.16821</ele>
        <time>2022-11-06T14:31:41.000Z</time>
      </trkpt>
      <trkpt lat="46.12386" lon="4.69259">
        <ele>260.02826</ele>
        <time>2022-11-06T14:31:42.000Z</time>
      </trkpt>
      <trkpt lat="46.12387" lon="4.69268">
        <ele>259.85342</ele>
        <time>2022-11-06T14:31:43.000Z</time>
      </trkpt>
      <trkpt lat="46.12389" lon="4.69278">
        <ele>259.68732</ele>
        <time>2022-11-06T14:31:44.000Z</time>
      </trkpt>
      <trkpt lat="46.12391" lon="4.69286">
        <ele>259.61487</ele>
        <time>2022-11-06T14:31:45.000Z</time>
      </trkpt>
      <trkpt lat="46.12392" lon="4.69296">
        <ele>259.52707</ele>
        <time>2022-11-06T14:31:46.000Z</time>
      </trkpt>
      <trkpt lat="46.12393" lon="4.69305">
        <ele>259.5658</ele>
        <time>2022-11-06T14:31:47.000Z</time>
      </trkpt>
      <trkpt lat="46.12396" lon="4.69314">
        <ele>259.56226</ele>
        <time>2022-11-06T14:31:48.000Z</time>
      </trkpt>
      <trkpt lat="46.12398" lon="4.69323">
        <ele>259.61557</ele>
        <time>2022-11-06T14:31:49.000Z</time>
      </trkpt>
      <trkpt lat="46.124" lon="4.69332">
        <ele>259.51471</ele>
        <time>2022-11-06T14:31:50.000Z</time>
      </trkpt>
      <trkpt lat="46.12403" lon="4.6934">
        <ele>259.49664</ele>
        <time>2022-11-06T14:31:51.000Z</time>
      </trkpt>
      <trkpt lat="46.12405" lon="4.69348">
        <ele>259.51666</ele>
        <time>2022-11-06T14:31:52.000Z</time>
      </trkpt>
      <trkpt lat="46.12408" lon="4.69357">
        <ele>259.52701</ele>
        <time>2022-11-06T14:31:53.000Z</time>
      </trkpt>
      <trkpt lat="46.1241" lon="4.69366">
        <ele>259.55106</ele>
        <time>2022-11-06T14:31:54.000Z</time>
      </trkpt>
      <trkpt lat="46.12413" lon="4.69375">
        <ele>259.72806</ele>
        <time>2022-11-06T14:31:55.000Z</time>
      </trkpt>
      <trkpt lat="46.12415" lon="4.69384">
        <ele>259.82269</ele>
        <time>2022-11-06T14:31:56.000Z</time>
      </trkpt>
      <trkpt lat="46.12418" lon="4.69393">
        <ele>259.87323</ele>
        <time>2022-11-06T14:31:57.000Z</time>
      </trkpt>
      <trkpt lat="46.1242" lon="4.69402">
        <ele>259.85443</ele>
        <time>2022-11-06T14:31:58.000Z</time>
      </trkpt>
      <trkpt lat="46.12423" lon="4.69411">
        <ele>259.81482</ele>
        <time>2022-11-06T14:31:59.000Z</time>
      </trkpt>
      <trkpt lat="46.12426" lon="4.6942">
        <ele>259.78571</ele>
        <time>2022-11-06T14:32:00.000Z</time>
      </trkpt>
      <trkpt lat="46.12429" lon="4.69429">
        <ele>259.75677</ele>
        <time>2022-11-06T14:32:01.000Z</time>
      </trkpt>
      <trkpt lat="46.12432" lon="4.69438">
        <ele>259.729</ele>
        <time>2022-11-06T14:32:02.000Z</time>
      </trkpt>
      <trkpt lat="46.12436" lon="4.69448">
        <ele>259.73544</ele>
        <time>2022-11-06T14:32:03.000Z</time>
      </trkpt>
      <trkpt lat="46.1244" lon="4.69456">
        <ele>259.73712</ele>
        <time>2022-11-06T14:32:04.000Z</time>
      </trkpt>
      <trkpt lat="46.12442" lon="4.69463">
        <ele>259.75781</ele>
        <time>2022-11-06T14:32:05.000Z</time>
      </trkpt>
      <trkpt lat="46.12445" lon="4.69471">
        <ele>259.78256</ele>
        <time>2022-11-06T14:32:06.000Z</time>
      </trkpt>
      <trkpt lat="46.12449" lon="4.6948">
        <ele>259.8154</ele>
        <time>2022-11-06T14:32:07.000Z</time>
      </trkpt>
      <trkpt lat="46.12451" lon="4.69489">
        <ele>259.8913</ele>
        <time>2022-11-06T14:32:08.000Z</time>
      </trkpt>
      <trkpt lat="46.12454" lon="4.69498">
        <ele>259.96393</ele>
        <time>2022-11-06T14:32:09.000Z</time>
      </trkpt>
      <trkpt lat="46.12458" lon="4.69505">
        <ele>260.01929</ele>
        <time>2022-11-06T14:32:10.000Z</time>
      </trkpt>
      <trkpt lat="46.12461" lon="4.69515">
        <ele>260.02533</ele>
        <time>2022-11-06T14:32:11.000Z</time>
      </trkpt>
      <trkpt lat="46.12463" lon="4.69522">
        <ele>260.00757</ele>
        <time>2022-11-06T14:32:12.000Z</time>
      </trkpt>
      <trkpt lat="46.12464" lon="4.69531">
        <ele>259.99405</ele>
        <time>2022-11-06T14:32:13.000Z</time>
      </trkpt>
      <trkpt lat="46.12467" lon="4.69539">
        <ele>259.98615</ele>
        <time>2022-11-06T14:32:14.000Z</time>
      </trkpt>
      <trkpt lat="46.12469" lon="4.69548">
        <ele>259.79504</ele>
        <time>2022-11-06T14:32:15.000Z</time>
      </trkpt>
      <trkpt lat="46.12471" lon="4.69556">
        <ele>259.65277</ele>
        <time>2022-11-06T14:32:16.000Z</time>
      </trkpt>
      <trkpt lat="46.12474" lon="4.69564">
        <ele>259.52139</ele>
        <time>2022-11-06T14:32:17.000Z</time>
      </trkpt>
      <trkpt lat="46.12478" lon="4.69572">
        <ele>259.4469</ele>
        <time>2022-11-06T14:32:18.000Z</time>
      </trkpt>
      <trkpt lat="46.1248" lon="4.69579">
        <ele>259.39383</ele>
        <time>2022-11-06T14:32:19.000Z</time>
      </trkpt>
      <trkpt lat="46.12483" lon="4.69587">
        <ele>259.3425</ele>
        <time>2022-11-06T14:32:20.000Z</time>
      </trkpt>
      <trkpt lat="46.12486" lon="4.69594">
        <ele>259.30771</ele>
        <time>2022-11-06T14:32:21.000Z</time>
      </trkpt>
      <trkpt lat="46.12487" lon="4.696">
        <ele>259.26416</ele>
        <time>2022-11-06T14:32:22.000Z</time>
      </trkpt>
      <trkpt lat="46.1249" lon="4.69606">
        <ele>259.2092</ele>
        <time>2022-11-06T14:32:23.000Z</time>
      </trkpt>
      <trkpt lat="46.12492" lon="4.69612">
        <ele>259.15982</ele>
        <time>2022-11-06T14:32:24.000Z</time>
      </trkpt>
      <trkpt lat="46.12495" lon="4.69618">
        <ele>259.0798</ele>
        <time>2022-11-06T14:32:25.000Z</time>
      </trkpt>
      <trkpt lat="46.12497" lon="4.69625">
        <ele>259.01984</ele>
        <time>2022-11-06T14:32:26.000Z</time>
      </trkpt>
      <trkpt lat="46.12499" lon="4.69631">
        <ele>258.9328</ele>
        <time>2022-11-06T14:32:27.000Z</time>
      </trkpt>
      <trkpt lat="46.125" lon="4.69637">
        <ele>258.84186</ele>
        <time>2022-11-06T14:32:28.000Z</time>
      </trkpt>
      <trkpt lat="46.12503" lon="4.69643">
        <ele>258.76324</ele>
        <time>2022-11-06T14:32:29.000Z</time>
      </trkpt>
      <trkpt lat="46.12504" lon="4.69649">
        <ele>258.67419</ele>
        <time>2022-11-06T14:32:30.000Z</time>
      </trkpt>
      <trkpt lat="46.12506" lon="4.69656">
        <ele>258.60431</ele>
        <time>2022-11-06T14:32:31.000Z</time>
      </trkpt>
      <trkpt lat="46.12507" lon="4.69663">
        <ele>258.54083</ele>
        <time>2022-11-06T14:32:32.000Z</time>
      </trkpt>
      <trkpt lat="46.1251" lon="4.6967">
        <ele>258.52838</ele>
        <time>2022-11-06T14:32:33.000Z</time>
      </trkpt>
      <trkpt lat="46.12512" lon="4.69678">
        <ele>258.50067</ele>
        <time>2022-11-06T14:32:34.000Z</time>
      </trkpt>
      <trkpt lat="46.12514" lon="4.69685">
        <ele>258.50705</ele>
        <time>2022-11-06T14:32:35.000Z</time>
      </trkpt>
      <trkpt lat="46.12516" lon="4.69693">
        <ele>258.53915</ele>
        <time>2022-11-06T14:32:36.000Z</time>
      </trkpt>
      <trkpt lat="46.12519" lon="4.69702">
        <ele>258.54996</ele>
        <time>2022-11-06T14:32:37.000Z</time>
      </trkpt>
      <trkpt lat="46.12521" lon="4.69711">
        <ele>258.52176</ele>
        <time>2022-11-06T14:32:38.000Z</time>
      </trkpt>
      <trkpt lat="46.12523" lon="4.69718">
        <ele>258.50589</ele>
        <time>2022-11-06T14:32:39.000Z</time>
      </trkpt>
      <trkpt lat="46.12525" lon="4.69727">
        <ele>258.50452</ele>
        <time>2022-11-06T14:32:40.000Z</time>
      </trkpt>
      <trkpt lat="46.12526" lon="4.69736">
        <ele>258.4816</ele>
        <time>2022-11-06T14:32:41.000Z</time>
      </trkpt>
      <trkpt lat="46.12529" lon="4.69745">
        <ele>258.43234</ele>
        <time>2022-11-06T14:32:42.000Z</time>
      </trkpt>
      <trkpt lat="46.12531" lon="4.69753">
        <ele>258.40613</ele>
        <time>2022-11-06T14:32:43.000Z</time>
      </trkpt>
      <trkpt lat="46.12534" lon="4.69761">
        <ele>258.36908</ele>
        <time>2022-11-06T14:32:44.000Z</time>
      </trkpt>
      <trkpt lat="46.12536" lon="4.6977">
        <ele>258.30615</ele>
        <time>2022-11-06T14:32:45.000Z</time>
      </trkpt>
      <trkpt lat="46.12538" lon="4.69779">
        <ele>258.23566</ele>
        <time>2022-11-06T14:32:46.000Z</time>
      </trkpt>
      <trkpt lat="46.1254" lon="4.69787">
        <ele>258.18073</ele>
        <time>2022-11-06T14:32:47.000Z</time>
      </trkpt>
      <trkpt lat="46.12542" lon="4.69797">
        <ele>258.1423</ele>
        <time>2022-11-06T14:32:48.000Z</time>
      </trkpt>
      <trkpt lat="46.12543" lon="4.69807">
        <ele>258.05902</ele>
        <time>2022-11-06T14:32:49.000Z</time>
      </trkpt>
      <trkpt lat="46.12543" lon="4.69816">
        <ele>257.98267</ele>
        <time>2022-11-06T14:32:50.000Z</time>
      </trkpt>
      <trkpt lat="46.12544" lon="4.69826">
        <ele>257.88239</ele>
        <time>2022-11-06T14:32:51.000Z</time>
      </trkpt>
      <trkpt lat="46.12545" lon="4.69836">
        <ele>257.776</ele>
        <time>2022-11-06T14:32:52.000Z</time>
      </trkpt>
      <trkpt lat="46.12543" lon="4.69845">
        <ele>257.64395</ele>
        <time>2022-11-06T14:32:53.000Z</time>
      </trkpt>
      <trkpt lat="46.12544" lon="4.69856">
        <ele>257.49579</ele>
        <time>2022-11-06T14:32:54.000Z</time>
      </trkpt>
      <trkpt lat="46.12543" lon="4.69867">
        <ele>257.3371</ele>
        <time>2022-11-06T14:32:55.000Z</time>
      </trkpt>
      <trkpt lat="46.12544" lon="4.69877">
        <ele>257.1723</ele>
        <time>2022-11-06T14:32:56.000Z</time>
      </trkpt>
      <trkpt lat="46.12544" lon="4.69889">
        <ele>256.99509</ele>
        <time>2022-11-06T14:32:57.000Z</time>
      </trkpt>
      <trkpt lat="46.12545" lon="4.699">
        <ele>256.83951</ele>
        <time>2022-11-06T14:32:58.000Z</time>
      </trkpt>
      <trkpt lat="46.12545" lon="4.69912">
        <ele>256.67618</ele>
        <time>2022-11-06T14:32:59.000Z</time>
      </trkpt>
      <trkpt lat="46.12545" lon="4.69922">
        <ele>256.22128</ele>
        <time>2022-11-06T14:33:00.000Z</time>
      </trkpt>
      <trkpt lat="46.12543" lon="4.69931">
        <ele>255.80293</ele>
        <time>2022-11-06T14:33:01.000Z</time>
      </trkpt>
      <trkpt lat="46.12543" lon="4.69941">
        <ele>255.34419</ele>
        <time>2022-11-06T14:33:02.000Z</time>
      </trkpt>
      <trkpt lat="46.12542" lon="4.69953">
        <ele>254.85892</ele>
        <time>2022-11-06T14:33:03.000Z</time>
      </trkpt>
      <trkpt lat="46.12541" lon="4.69963">
        <ele>254.3898</ele>
        <time>2022-11-06T14:33:04.000Z</time>
      </trkpt>
      <trkpt lat="46.12542" lon="4.69976">
        <ele>253.91418</ele>
        <time>2022-11-06T14:33:05.000Z</time>
      </trkpt>
      <trkpt lat="46.12541" lon="4.69988">
        <ele>253.41882</ele>
        <time>2022-11-06T14:33:06.000Z</time>
      </trkpt>
      <trkpt lat="46.1254" lon="4.69999">
        <ele>252.88583</ele>
        <time>2022-11-06T14:33:07.000Z</time>
      </trkpt>
      <trkpt lat="46.12539" lon="4.70009">
        <ele>252.36462</ele>
        <time>2022-11-06T14:33:08.000Z</time>
      </trkpt>
      <trkpt lat="46.12538" lon="4.70021">
        <ele>251.83818</ele>
        <time>2022-11-06T14:33:09.000Z</time>
      </trkpt>
      <trkpt lat="46.12535" lon="4.70033">
        <ele>251.30771</ele>
        <time>2022-11-06T14:33:10.000Z</time>
      </trkpt>
      <trkpt lat="46.12534" lon="4.70045">
        <ele>250.83247</ele>
        <time>2022-11-06T14:33:11.000Z</time>
      </trkpt>
      <trkpt lat="46.12533" lon="4.70057">
        <ele>250.34695</ele>
        <time>2022-11-06T14:33:12.000Z</time>
      </trkpt>
      <trkpt lat="46.12531" lon="4.70068">
        <ele>249.90215</ele>
        <time>2022-11-06T14:33:13.000Z</time>
      </trkpt>
      <trkpt lat="46.12529" lon="4.70079">
        <ele>249.43494</ele>
        <time>2022-11-06T14:33:14.000Z</time>
      </trkpt>
      <trkpt lat="46.12527" lon="4.70089">
        <ele>248.98938</ele>
        <time>2022-11-06T14:33:15.000Z</time>
      </trkpt>
      <trkpt lat="46.12526" lon="4.70101">
        <ele>248.55386</ele>
        <time>2022-11-06T14:33:16.000Z</time>
      </trkpt>
      <trkpt lat="46.12524" lon="4.70111">
        <ele>248.15666</ele>
        <time>2022-11-06T14:33:17.000Z</time>
      </trkpt>
      <trkpt lat="46.12522" lon="4.70121">
        <ele>247.78958</ele>
        <time>2022-11-06T14:33:18.000Z</time>
      </trkpt>
      <trkpt lat="46.1252" lon="4.7013">
        <ele>247.45029</ele>
        <time>2022-11-06T14:33:19.000Z</time>
      </trkpt>
      <trkpt lat="46.12517" lon="4.7014">
        <ele>247.35593</ele>
        <time>2022-11-06T14:33:20.000Z</time>
      </trkpt>
      <trkpt lat="46.12515" lon="4.70149">
        <ele>247.2668</ele>
        <time>2022-11-06T14:33:21.000Z</time>
      </trkpt>
      <trkpt lat="46.12511" lon="4.70159">
        <ele>247.24112</ele>
        <time>2022-11-06T14:33:22.000Z</time>
      </trkpt>
      <trkpt lat="46.12509" lon="4.70168">
        <ele>247.27109</ele>
        <time>2022-11-06T14:33:23.000Z</time>
      </trkpt>
      <trkpt lat="46.12507" lon="4.70177">
        <ele>247.2876</ele>
        <time>2022-11-06T14:33:24.000Z</time>
      </trkpt>
      <trkpt lat="46.12504" lon="4.70186">
        <ele>247.29166</ele>
        <time>2022-11-06T14:33:25.000Z</time>
      </trkpt>
      <trkpt lat="46.12501" lon="4.70195">
        <ele>247.32138</ele>
        <time>2022-11-06T14:33:26.000Z</time>
      </trkpt>
      <trkpt lat="46.12499" lon="4.70204">
        <ele>247.33826</ele>
        <time>2022-11-06T14:33:27.000Z</time>
      </trkpt>
      <trkpt lat="46.12496" lon="4.70212">
        <ele>247.32133</ele>
        <time>2022-11-06T14:33:28.000Z</time>
      </trkpt>
      <trkpt lat="46.12494" lon="4.70221">
        <ele>247.32864</ele>
        <time>2022-11-06T14:33:29.000Z</time>
      </trkpt>
      <trkpt lat="46.12491" lon="4.7023">
        <ele>247.33403</ele>
        <time>2022-11-06T14:33:30.000Z</time>
      </trkpt>
      <trkpt lat="46.12489" lon="4.70239">
        <ele>247.29904</ele>
        <time>2022-11-06T14:33:31.000Z</time>
      </trkpt>
      <trkpt lat="46.12487" lon="4.70248">
        <ele>247.27324</ele>
        <time>2022-11-06T14:33:32.000Z</time>
      </trkpt>
      <trkpt lat="46.12485" lon="4.70257">
        <ele>247.19429</ele>
        <time>2022-11-06T14:33:33.000Z</time>
      </trkpt>
      <trkpt lat="46.12483" lon="4.70265">
        <ele>247.30811</ele>
        <time>2022-11-06T14:33:34.000Z</time>
      </trkpt>
      <trkpt lat="46.12481" lon="4.70274">
        <ele>247.41434</ele>
        <time>2022-11-06T14:33:35.000Z</time>
      </trkpt>
      <trkpt lat="46.12479" lon="4.70282">
        <ele>247.49545</ele>
        <time>2022-11-06T14:33:36.000Z</time>
      </trkpt>
      <trkpt lat="46.12476" lon="4.7029">
        <ele>247.55745</ele>
        <time>2022-11-06T14:33:37.000Z</time>
      </trkpt>
      <trkpt lat="46.12475" lon="4.70299">
        <ele>247.79536</ele>
        <time>2022-11-06T14:33:38.000Z</time>
      </trkpt>
      <trkpt lat="46.12473" lon="4.70308">
        <ele>248.04489</ele>
        <time>2022-11-06T14:33:39.000Z</time>
      </trkpt>
      <trkpt lat="46.12471" lon="4.70316">
        <ele>248.36548</ele>
        <time>2022-11-06T14:33:40.000Z</time>
      </trkpt>
      <trkpt lat="46.12469" lon="4.70324">
        <ele>248.66797</ele>
        <time>2022-11-06T14:33:41.000Z</time>
      </trkpt>
      <trkpt lat="46.12467" lon="4.70332">
        <ele>248.9921</ele>
        <time>2022-11-06T14:33:42.000Z</time>
      </trkpt>
      <trkpt lat="46.12465" lon="4.7034">
        <ele>249.27542</ele>
        <time>2022-11-06T14:33:43.000Z</time>
      </trkpt>
      <trkpt lat="46.12463" lon="4.70347">
        <ele>249.55009</ele>
        <time>2022-11-06T14:33:44.000Z</time>
      </trkpt>
      <trkpt lat="46.12461" lon="4.70355">
        <ele>249.84439</ele>
        <time>2022-11-06T14:33:45.000Z</time>
      </trkpt>
      <trkpt lat="46.1246" lon="4.70361">
        <ele>250.13821</ele>
        <time>2022-11-06T14:33:46.000Z</time>
      </trkpt>
      <trkpt lat="46.12458" lon="4.70368">
        <ele>250.45053</ele>
        <time>2022-11-06T14:33:47.000Z</time>
      </trkpt>
      <trkpt lat="46.12457" lon="4.70373">
        <ele>250.7972</ele>
        <time>2022-11-06T14:33:48.000Z</time>
      </trkpt>
      <trkpt lat="46.12455" lon="4.70379">
        <ele>251.14087</ele>
        <time>2022-11-06T14:33:49.000Z</time>
      </trkpt>
      <trkpt lat="46.12453" lon="4.70383">
        <ele>251.52469</ele>
        <time>2022-11-06T14:33:50.000Z</time>
      </trkpt>
      <trkpt lat="46.12452" lon="4.70389">
        <ele>251.89859</ele>
        <time>2022-11-06T14:33:51.000Z</time>
      </trkpt>
      <trkpt lat="46.12451" lon="4.70394">
        <ele>252.27661</ele>
        <time>2022-11-06T14:33:52.000Z</time>
      </trkpt>
      <trkpt lat="46.1245" lon="4.70399">
        <ele>252.66452</ele>
        <time>2022-11-06T14:33:53.000Z</time>
      </trkpt>
      <trkpt lat="46.12449" lon="4.70405">
        <ele>252.9124</ele>
        <time>2022-11-06T14:33:54.000Z</time>
      </trkpt>
      <trkpt lat="46.12446" lon="4.7041">
        <ele>253.12029</ele>
        <time>2022-11-06T14:33:55.000Z</time>
      </trkpt>
      <trkpt lat="46.12445" lon="4.70418">
        <ele>253.32657</ele>
        <time>2022-11-06T14:33:56.000Z</time>
      </trkpt>
      <trkpt lat="46.12444" lon="4.70426">
        <ele>253.53922</ele>
        <time>2022-11-06T14:33:57.000Z</time>
      </trkpt>
      <trkpt lat="46.12442" lon="4.70433">
        <ele>253.54207</ele>
        <time>2022-11-06T14:33:58.000Z</time>
      </trkpt>
      <trkpt lat="46.12441" lon="4.7044">
        <ele>253.52798</ele>
        <time>2022-11-06T14:33:59.000Z</time>
      </trkpt>
      <trkpt lat="46.12438" lon="4.70446">
        <ele>253.46956</ele>
        <time>2022-11-06T14:34:00.000Z</time>
      </trkpt>
      <trkpt lat="46.12437" lon="4.70454">
        <ele>253.41792</ele>
        <time>2022-11-06T14:34:01.000Z</time>
      </trkpt>
      <trkpt lat="46.12436" lon="4.70461">
        <ele>253.37077</ele>
        <time>2022-11-06T14:34:02.000Z</time>
      </trkpt>
      <trkpt lat="46.12434" lon="4.70468">
        <ele>253.35995</ele>
        <time>2022-11-06T14:34:03.000Z</time>
      </trkpt>
      <trkpt lat="46.12431" lon="4.70476">
        <ele>253.34268</ele>
        <time>2022-11-06T14:34:04.000Z</time>
      </trkpt>
      <trkpt lat="46.12429" lon="4.70483">
        <ele>253.34265</ele>
        <time>2022-11-06T14:34:05.000Z</time>
      </trkpt>
      <trkpt lat="46.12426" lon="4.70491">
        <ele>253.27368</ele>
        <time>2022-11-06T14:34:06.000Z</time>
      </trkpt>
      <trkpt lat="46.12424" lon="4.70499">
        <ele>253.18967</ele>
        <time>2022-11-06T14:34:07.000Z</time>
      </trkpt>
      <trkpt lat="46.12422" lon="4.70507">
        <ele>253.07889</ele>
        <time>2022-11-06T14:34:08.000Z</time>
      </trkpt>
      <trkpt lat="46.12421" lon="4.70515">
        <ele>252.9989</ele>
        <time>2022-11-06T14:34:09.000Z</time>
      </trkpt>
      <trkpt lat="46.1242" lon="4.70523">
        <ele>252.87907</ele>
        <time>2022-11-06T14:34:10.000Z</time>
      </trkpt>
      <trkpt lat="46.12416" lon="4.70531">
        <ele>252.77937</ele>
        <time>2022-11-06T14:34:11.000Z</time>
      </trkpt>
      <trkpt lat="46.12415" lon="4.70539">
        <ele>252.68591</ele>
        <time>2022-11-06T14:34:12.000Z</time>
      </trkpt>
      <trkpt lat="46.12413" lon="4.70548">
        <ele>252.58179</ele>
        <time>2022-11-06T14:34:13.000Z</time>
      </trkpt>
      <trkpt lat="46.1241" lon="4.70557">
        <ele>252.43123</ele>
        <time>2022-11-06T14:34:14.000Z</time>
      </trkpt>
      <trkpt lat="46.12408" lon="4.70565">
        <ele>252.32614</ele>
        <time>2022-11-06T14:34:15.000Z</time>
      </trkpt>
      <trkpt lat="46.12405" lon="4.70574">
        <ele>252.24268</ele>
        <time>2022-11-06T14:34:16.000Z</time>
      </trkpt>
      <trkpt lat="46.12403" lon="4.70581">
        <ele>252.16472</ele>
        <time>2022-11-06T14:34:17.000Z</time>
      </trkpt>
      <trkpt lat="46.124" lon="4.70589">
        <ele>252.08167</ele>
        <time>2022-11-06T14:34:18.000Z</time>
      </trkpt>
      <trkpt lat="46.12398" lon="4.70597">
        <ele>251.95792</ele>
        <time>2022-11-06T14:34:19.000Z</time>
      </trkpt>
      <trkpt lat="46.12395" lon="4.70605">
        <ele>251.85544</ele>
        <time>2022-11-06T14:34:20.000Z</time>
      </trkpt>
      <trkpt lat="46.12393" lon="4.70613">
        <ele>251.71072</ele>
        <time>2022-11-06T14:34:21.000Z</time>
      </trkpt>
      <trkpt lat="46.12391" lon="4.7062">
        <ele>251.56137</ele>
        <time>2022-11-06T14:34:22.000Z</time>
      </trkpt>
      <trkpt lat="46.12389" lon="4.70628">
        <ele>251.37601</ele>
        <time>2022-11-06T14:34:23.000Z</time>
      </trkpt>
      <trkpt lat="46.12388" lon="4.70636">
        <ele>251.19878</ele>
        <time>2022-11-06T14:34:24.000Z</time>
      </trkpt>
      <trkpt lat="46.12386" lon="4.70642">
        <ele>251.00854</ele>
        <time>2022-11-06T14:34:25.000Z</time>
      </trkpt>
      <trkpt lat="46.12385" lon="4.7065">
        <ele>250.87906</ele>
        <time>2022-11-06T14:34:26.000Z</time>
      </trkpt>
      <trkpt lat="46.12384" lon="4.70658">
        <ele>250.77982</ele>
        <time>2022-11-06T14:34:27.000Z</time>
      </trkpt>
      <trkpt lat="46.12382" lon="4.70664">
        <ele>250.5249</ele>
        <time>2022-11-06T14:34:28.000Z</time>
      </trkpt>
      <trkpt lat="46.12381" lon="4.70669">
        <ele>250.25082</ele>
        <time>2022-11-06T14:34:29.000Z</time>
      </trkpt>
      <trkpt lat="46.12379" lon="4.70675">
        <ele>249.99429</ele>
        <time>2022-11-06T14:34:30.000Z</time>
      </trkpt>
      <trkpt lat="46.12377" lon="4.7068">
        <ele>249.77165</ele>
        <time>2022-11-06T14:34:31.000Z</time>
      </trkpt>
      <trkpt lat="46.12377" lon="4.70686">
        <ele>249.54182</ele>
        <time>2022-11-06T14:34:32.000Z</time>
      </trkpt>
      <trkpt lat="46.12376" lon="4.70692">
        <ele>249.38213</ele>
        <time>2022-11-06T14:34:33.000Z</time>
      </trkpt>
      <trkpt lat="46.12374" lon="4.70698">
        <ele>249.25432</ele>
        <time>2022-11-06T14:34:34.000Z</time>
      </trkpt>
      <trkpt lat="46.12372" lon="4.70704">
        <ele>249.11856</ele>
        <time>2022-11-06T14:34:35.000Z</time>
      </trkpt>
      <trkpt lat="46.1237" lon="4.7071">
        <ele>248.95149</ele>
        <time>2022-11-06T14:34:36.000Z</time>
      </trkpt>
      <trkpt lat="46.12368" lon="4.70716">
        <ele>248.79721</ele>
        <time>2022-11-06T14:34:37.000Z</time>
      </trkpt>
      <trkpt lat="46.12366" lon="4.70723">
        <ele>248.64844</ele>
        <time>2022-11-06T14:34:38.000Z</time>
      </trkpt>
      <trkpt lat="46.12364" lon="4.70729">
        <ele>248.46985</ele>
        <time>2022-11-06T14:34:39.000Z</time>
      </trkpt>
      <trkpt lat="46.12362" lon="4.70737">
        <ele>248.28618</ele>
        <time>2022-11-06T14:34:40.000Z</time>
      </trkpt>
      <trkpt lat="46.1236" lon="4.70744">
        <ele>248.1165</ele>
        <time>2022-11-06T14:34:41.000Z</time>
      </trkpt>
      <trkpt lat="46.12358" lon="4.70753">
        <ele>247.94046</ele>
        <time>2022-11-06T14:34:42.000Z</time>
      </trkpt>
      <trkpt lat="46.12355" lon="4.70761">
        <ele>247.72343</ele>
        <time>2022-11-06T14:34:43.000Z</time>
      </trkpt>
      <trkpt lat="46.12353" lon="4.70769">
        <ele>247.59929</ele>
        <time>2022-11-06T14:34:44.000Z</time>
      </trkpt>
      <trkpt lat="46.12352" lon="4.70777">
        <ele>247.44026</ele>
        <time>2022-11-06T14:34:45.000Z</time>
      </trkpt>
      <trkpt lat="46.12348" lon="4.70785">
        <ele>247.25928</ele>
        <time>2022-11-06T14:34:46.000Z</time>
      </trkpt>
      <trkpt lat="46.12346" lon="4.70794">
        <ele>247.10776</ele>
        <time>2022-11-06T14:34:47.000Z</time>
      </trkpt>
      <trkpt lat="46.12343" lon="4.70802">
        <ele>247.12778</ele>
        <time>2022-11-06T14:34:48.000Z</time>
      </trkpt>
      <trkpt lat="46.12342" lon="4.7081">
        <ele>247.1268</ele>
        <time>2022-11-06T14:34:49.000Z</time>
      </trkpt>
      <trkpt lat="46.12341" lon="4.70819">
        <ele>247.13937</ele>
        <time>2022-11-06T14:34:50.000Z</time>
      </trkpt>
      <trkpt lat="46.12338" lon="4.70828">
        <ele>247.10269</ele>
        <time>2022-11-06T14:34:51.000Z</time>
      </trkpt>
      <trkpt lat="46.12335" lon="4.70836">
        <ele>247.07602</ele>
        <time>2022-11-06T14:34:52.000Z</time>
      </trkpt>
      <trkpt lat="46.12334" lon="4.70845">
        <ele>247.00122</ele>
        <time>2022-11-06T14:34:53.000Z</time>
      </trkpt>
      <trkpt lat="46.12332" lon="4.70855">
        <ele>246.9281</ele>
        <time>2022-11-06T14:34:54.000Z</time>
      </trkpt>
      <trkpt lat="46.12329" lon="4.70864">
        <ele>246.88228</ele>
        <time>2022-11-06T14:34:55.000Z</time>
      </trkpt>
      <trkpt lat="46.12327" lon="4.70873">
        <ele>246.87857</ele>
        <time>2022-11-06T14:34:56.000Z</time>
      </trkpt>
      <trkpt lat="46.12324" lon="4.70882">
        <ele>246.86479</ele>
        <time>2022-11-06T14:34:57.000Z</time>
      </trkpt>
      <trkpt lat="46.12322" lon="4.70891">
        <ele>246.83183</ele>
        <time>2022-11-06T14:34:58.000Z</time>
      </trkpt>
      <trkpt lat="46.12319" lon="4.70899">
        <ele>246.85918</ele>
        <time>2022-11-06T14:34:59.000Z</time>
      </trkpt>
      <trkpt lat="46.12317" lon="4.70908">
        <ele>246.89421</ele>
        <time>2022-11-06T14:35:00.000Z</time>
      </trkpt>
      <trkpt lat="46.12315" lon="4.70917">
        <ele>246.94223</ele>
        <time>2022-11-06T14:35:01.000Z</time>
      </trkpt>
      <trkpt lat="46.12313" lon="4.70926">
        <ele>247.01953</ele>
        <time>2022-11-06T14:35:02.000Z</time>
      </trkpt>
      <trkpt lat="46.1231" lon="4.70934">
        <ele>247.15652</ele>
        <time>2022-11-06T14:35:03.000Z</time>
      </trkpt>
      <trkpt lat="46.12308" lon="4.70943">
        <ele>247.2148</ele>
        <time>2022-11-06T14:35:04.000Z</time>
      </trkpt>
      <trkpt lat="46.12305" lon="4.70951">
        <ele>247.29044</ele>
        <time>2022-11-06T14:35:05.000Z</time>
      </trkpt>
      <trkpt lat="46.12301" lon="4.70959">
        <ele>247.40366</ele>
        <time>2022-11-06T14:35:06.000Z</time>
      </trkpt>
      <trkpt lat="46.12299" lon="4.70968">
        <ele>247.4845</ele>
        <time>2022-11-06T14:35:07.000Z</time>
      </trkpt>
      <trkpt lat="46.12297" lon="4.70977">
        <ele>247.54922</ele>
        <time>2022-11-06T14:35:08.000Z</time>
      </trkpt>
      <trkpt lat="46.12295" lon="4.70986">
        <ele>247.61182</ele>
        <time>2022-11-06T14:35:09.000Z</time>
      </trkpt>
      <trkpt lat="46.12293" lon="4.70995">
        <ele>247.67288</ele>
        <time>2022-11-06T14:35:10.000Z</time>
      </trkpt>
      <trkpt lat="46.12291" lon="4.71003">
        <ele>247.75253</ele>
        <time>2022-11-06T14:35:11.000Z</time>
      </trkpt>
      <trkpt lat="46.12289" lon="4.71012">
        <ele>247.79239</ele>
        <time>2022-11-06T14:35:12.000Z</time>
      </trkpt>
      <trkpt lat="46.12287" lon="4.71021">
        <ele>247.86966</ele>
        <time>2022-11-06T14:35:13.000Z</time>
      </trkpt>
      <trkpt lat="46.12285" lon="4.7103">
        <ele>247.95183</ele>
        <time>2022-11-06T14:35:14.000Z</time>
      </trkpt>
      <trkpt lat="46.12283" lon="4.71039">
        <ele>248.01526</ele>
        <time>2022-11-06T14:35:15.000Z</time>
      </trkpt>
      <trkpt lat="46.12281" lon="4.71048">
        <ele>248.05396</ele>
        <time>2022-11-06T14:35:16.000Z</time>
      </trkpt>
      <trkpt lat="46.12279" lon="4.71058">
        <ele>248.07483</ele>
        <time>2022-11-06T14:35:17.000Z</time>
      </trkpt>
      <trkpt lat="46.12276" lon="4.71067">
        <ele>248.10779</ele>
        <time>2022-11-06T14:35:18.000Z</time>
      </trkpt>
      <trkpt lat="46.12274" lon="4.71075">
        <ele>248.11856</ele>
        <time>2022-11-06T14:35:19.000Z</time>
      </trkpt>
      <trkpt lat="46.12271" lon="4.71084">
        <ele>248.11807</ele>
        <time>2022-11-06T14:35:20.000Z</time>
      </trkpt>
      <trkpt lat="46.12268" lon="4.71094">
        <ele>248.12277</ele>
        <time>2022-11-06T14:35:21.000Z</time>
      </trkpt>
      <trkpt lat="46.12266" lon="4.71103">
        <ele>248.07129</ele>
        <time>2022-11-06T14:35:22.000Z</time>
      </trkpt>
      <trkpt lat="46.12264" lon="4.71113">
        <ele>248.00424</ele>
        <time>2022-11-06T14:35:23.000Z</time>
      </trkpt>
      <trkpt lat="46.12262" lon="4.71121">
        <ele>247.89001</ele>
        <time>2022-11-06T14:35:24.000Z</time>
      </trkpt>
      <trkpt lat="46.12259" lon="4.7113">
        <ele>247.81754</ele>
        <time>2022-11-06T14:35:25.000Z</time>
      </trkpt>
      <trkpt lat="46.12257" lon="4.7114">
        <ele>247.73042</ele>
        <time>2022-11-06T14:35:26.000Z</time>
      </trkpt>
      <trkpt lat="46.12256" lon="4.7115">
        <ele>247.6635</ele>
        <time>2022-11-06T14:35:27.000Z</time>
      </trkpt>
      <trkpt lat="46.12256" lon="4.7116">
        <ele>247.6123</ele>
        <time>2022-11-06T14:35:28.000Z</time>
      </trkpt>
      <trkpt lat="46.12255" lon="4.7117">
        <ele>247.57259</ele>
        <time>2022-11-06T14:35:29.000Z</time>
      </trkpt>
      <trkpt lat="46.12253" lon="4.7118">
        <ele>247.5336</ele>
        <time>2022-11-06T14:35:30.000Z</time>
      </trkpt>
      <trkpt lat="46.1225" lon="4.71189">
        <ele>247.51181</ele>
        <time>2022-11-06T14:35:31.000Z</time>
      </trkpt>
      <trkpt lat="46.12248" lon="4.71199">
        <ele>247.51933</ele>
        <time>2022-11-06T14:35:32.000Z</time>
      </trkpt>
      <trkpt lat="46.12246" lon="4.71209">
        <ele>247.48657</ele>
        <time>2022-11-06T14:35:33.000Z</time>
      </trkpt>
      <trkpt lat="46.12244" lon="4.71218">
        <ele>247.46538</ele>
        <time>2022-11-06T14:35:34.000Z</time>
      </trkpt>
      <trkpt lat="46.12241" lon="4.71228">
        <ele>247.4498</ele>
        <time>2022-11-06T14:35:35.000Z</time>
      </trkpt>
      <trkpt lat="46.1224" lon="4.71238">
        <ele>247.43437</ele>
        <time>2022-11-06T14:35:36.000Z</time>
      </trkpt>
      <trkpt lat="46.12237" lon="4.71247">
        <ele>247.4241</ele>
        <time>2022-11-06T14:35:37.000Z</time>
      </trkpt>
      <trkpt lat="46.12235" lon="4.71256">
        <ele>247.42097</ele>
        <time>2022-11-06T14:35:38.000Z</time>
      </trkpt>
      <trkpt lat="46.12232" lon="4.71266">
        <ele>247.43315</ele>
        <time>2022-11-06T14:35:39.000Z</time>
      </trkpt>
      <trkpt lat="46.1223" lon="4.71275">
        <ele>247.43253</ele>
        <time>2022-11-06T14:35:40.000Z</time>
      </trkpt>
      <trkpt lat="46.12227" lon="4.71284">
        <ele>247.418</ele>
        <time>2022-11-06T14:35:41.000Z</time>
      </trkpt>
      <trkpt lat="46.12224" lon="4.71293">
        <ele>247.42073</ele>
        <time>2022-11-06T14:35:42.000Z</time>
      </trkpt>
      <trkpt lat="46.12221" lon="4.71301">
        <ele>247.42569</ele>
        <time>2022-11-06T14:35:43.000Z</time>
      </trkpt>
      <trkpt lat="46.12218" lon="4.7131">
        <ele>247.45219</ele>
        <time>2022-11-06T14:35:44.000Z</time>
      </trkpt>
      <trkpt lat="46.12216" lon="4.71319">
        <ele>247.45886</ele>
        <time>2022-11-06T14:35:45.000Z</time>
      </trkpt>
      <trkpt lat="46.12213" lon="4.71328">
        <ele>247.47641</ele>
        <time>2022-11-06T14:35:46.000Z</time>
      </trkpt>
      <trkpt lat="46.12211" lon="4.71337">
        <ele>247.48148</ele>
        <time>2022-11-06T14:35:47.000Z</time>
      </trkpt>
      <trkpt lat="46.12209" lon="4.71346">
        <ele>247.4928</ele>
        <time>2022-11-06T14:35:48.000Z</time>
      </trkpt>
      <trkpt lat="46.12207" lon="4.71355">
        <ele>247.51079</ele>
        <time>2022-11-06T14:35:49.000Z</time>
      </trkpt>
      <trkpt lat="46.12205" lon="4.71365">
        <ele>247.49893</ele>
        <time>2022-11-06T14:35:50.000Z</time>
      </trkpt>
      <trkpt lat="46.12202" lon="4.71374">
        <ele>247.45967</ele>
        <time>2022-11-06T14:35:51.000Z</time>
      </trkpt>
      <trkpt lat="46.12201" lon="4.71383">
        <ele>247.43588</ele>
        <time>2022-11-06T14:35:52.000Z</time>
      </trkpt>
      <trkpt lat="46.12198" lon="4.7139">
        <ele>247.4169</ele>
        <time>2022-11-06T14:35:53.000Z</time>
      </trkpt>
      <trkpt lat="46.12197" lon="4.71398">
        <ele>247.33224</ele>
        <time>2022-11-06T14:35:54.000Z</time>
      </trkpt>
      <trkpt lat="46.12195" lon="4.71406">
        <ele>247.23833</ele>
        <time>2022-11-06T14:35:55.000Z</time>
      </trkpt>
      <trkpt lat="46.12193" lon="4.71415">
        <ele>247.14572</ele>
        <time>2022-11-06T14:35:56.000Z</time>
      </trkpt>
      <trkpt lat="46.12192" lon="4.71422">
        <ele>247.06245</ele>
        <time>2022-11-06T14:35:57.000Z</time>
      </trkpt>
      <trkpt lat="46.12189" lon="4.7143">
        <ele>246.95444</ele>
        <time>2022-11-06T14:35:58.000Z</time>
      </trkpt>
      <trkpt lat="46.12186" lon="4.71436">
        <ele>246.8342</ele>
        <time>2022-11-06T14:35:59.000Z</time>
      </trkpt>
      <trkpt lat="46.12182" lon="4.71439">
        <ele>246.72929</ele>
        <time>2022-11-06T14:36:00.000Z</time>
      </trkpt>
      <trkpt lat="46.12178" lon="4.71443">
        <ele>246.65884</ele>
        <time>2022-11-06T14:36:01.000Z</time>
      </trkpt>
      <trkpt lat="46.12176" lon="4.71449">
        <ele>246.59177</ele>
        <time>2022-11-06T14:36:02.000Z</time>
      </trkpt>
      <trkpt lat="46.12174" lon="4.71455">
        <ele>246.5321</ele>
        <time>2022-11-06T14:36:03.000Z</time>
      </trkpt>
      <trkpt lat="46.12172" lon="4.71462">
        <ele>246.48335</ele>
        <time>2022-11-06T14:36:04.000Z</time>
      </trkpt>
      <trkpt lat="46.1217" lon="4.71469">
        <ele>246.44785</ele>
        <time>2022-11-06T14:36:05.000Z</time>
      </trkpt>
      <trkpt lat="46.12168" lon="4.71477">
        <ele>246.39746</ele>
        <time>2022-11-06T14:36:06.000Z</time>
      </trkpt>
      <trkpt lat="46.12167" lon="4.71485">
        <ele>246.35323</ele>
        <time>2022-11-06T14:36:07.000Z</time>
      </trkpt>
      <trkpt lat="46.12164" lon="4.71494">
        <ele>246.27283</ele>
        <time>2022-11-06T14:36:08.000Z</time>
      </trkpt>
      <trkpt lat="46.12162" lon="4.71501">
        <ele>246.18791</ele>
        <time>2022-11-06T14:36:09.000Z</time>
      </trkpt>
      <trkpt lat="46.1216" lon="4.71509">
        <ele>246.10281</ele>
        <time>2022-11-06T14:36:10.000Z</time>
      </trkpt>
      <trkpt lat="46.12158" lon="4.71517">
        <ele>246.02988</ele>
        <time>2022-11-06T14:36:11.000Z</time>
      </trkpt>
      <trkpt lat="46.12157" lon="4.71525">
        <ele>245.90115</ele>
        <time>2022-11-06T14:36:12.000Z</time>
      </trkpt>
      <trkpt lat="46.12155" lon="4.71533">
        <ele>245.84636</ele>
        <time>2022-11-06T14:36:13.000Z</time>
      </trkpt>
      <trkpt lat="46.12154" lon="4.71542">
        <ele>245.82083</ele>
        <time>2022-11-06T14:36:14.000Z</time>
      </trkpt>
      <trkpt lat="46.12152" lon="4.71549">
        <ele>245.80498</ele>
        <time>2022-11-06T14:36:15.000Z</time>
      </trkpt>
      <trkpt lat="46.12149" lon="4.71556">
        <ele>245.7688</ele>
        <time>2022-11-06T14:36:16.000Z</time>
      </trkpt>
      <trkpt lat="46.12147" lon="4.71564">
        <ele>245.82524</ele>
        <time>2022-11-06T14:36:17.000Z</time>
      </trkpt>
      <trkpt lat="46.12146" lon="4.71571">
        <ele>245.91272</ele>
        <time>2022-11-06T14:36:18.000Z</time>
      </trkpt>
      <trkpt lat="46.12145" lon="4.71577">
        <ele>246.00842</ele>
        <time>2022-11-06T14:36:19.000Z</time>
      </trkpt>
      <trkpt lat="46.12143" lon="4.71583">
        <ele>246.08633</ele>
        <time>2022-11-06T14:36:20.000Z</time>
      </trkpt>
      <trkpt lat="46.12141" lon="4.71589">
        <ele>246.14334</ele>
        <time>2022-11-06T14:36:21.000Z</time>
      </trkpt>
      <trkpt lat="46.12139" lon="4.71595">
        <ele>246.21933</ele>
        <time>2022-11-06T14:36:22.000Z</time>
      </trkpt>
      <trkpt lat="46.12138" lon="4.71602">
        <ele>246.27702</ele>
        <time>2022-11-06T14:36:23.000Z</time>
      </trkpt>
      <trkpt lat="46.12136" lon="4.71609">
        <ele>246.31274</ele>
        <time>2022-11-06T14:36:24.000Z</time>
      </trkpt>
      <trkpt lat="46.12133" lon="4.71617">
        <ele>246.25955</ele>
        <time>2022-11-06T14:36:25.000Z</time>
      </trkpt>
      <trkpt lat="46.12131" lon="4.71626">
        <ele>246.20747</ele>
        <time>2022-11-06T14:36:26.000Z</time>
      </trkpt>
      <trkpt lat="46.12129" lon="4.71634">
        <ele>246.11043</ele>
        <time>2022-11-06T14:36:27.000Z</time>
      </trkpt>
      <trkpt lat="46.12126" lon="4.71642">
        <ele>246.02017</ele>
        <time>2022-11-06T14:36:28.000Z</time>
      </trkpt>
      <trkpt lat="46.12123" lon="4.7165">
        <ele>245.99698</ele>
        <time>2022-11-06T14:36:29.000Z</time>
      </trkpt>
      <trkpt lat="46.12121" lon="4.71659">
        <ele>245.96695</ele>
        <time>2022-11-06T14:36:30.000Z</time>
      </trkpt>
      <trkpt lat="46.1212" lon="4.71668">
        <ele>245.91971</ele>
        <time>2022-11-06T14:36:31.000Z</time>
      </trkpt>
      <trkpt lat="46.12118" lon="4.71677">
        <ele>245.92842</ele>
        <time>2022-11-06T14:36:32.000Z</time>
      </trkpt>
      <trkpt lat="46.12115" lon="4.71686">
        <ele>245.88017</ele>
        <time>2022-11-06T14:36:33.000Z</time>
      </trkpt>
      <trkpt lat="46.12113" lon="4.71696">
        <ele>245.8219</ele>
        <time>2022-11-06T14:36:34.000Z</time>
      </trkpt>
      <trkpt lat="46.1211" lon="4.71704">
        <ele>245.76804</ele>
        <time>2022-11-06T14:36:35.000Z</time>
      </trkpt>
      <trkpt lat="46.12107" lon="4.71712">
        <ele>245.76318</ele>
        <time>2022-11-06T14:36:36.000Z</time>
      </trkpt>
      <trkpt lat="46.12103" lon="4.71721">
        <ele>245.66199</ele>
        <time>2022-11-06T14:36:37.000Z</time>
      </trkpt>
      <trkpt lat="46.121" lon="4.7173">
        <ele>245.55058</ele>
        <time>2022-11-06T14:36:38.000Z</time>
      </trkpt>
      <trkpt lat="46.12097" lon="4.71739">
        <ele>245.45837</ele>
        <time>2022-11-06T14:36:39.000Z</time>
      </trkpt>
      <trkpt lat="46.12094" lon="4.71748">
        <ele>245.35608</ele>
        <time>2022-11-06T14:36:40.000Z</time>
      </trkpt>
      <trkpt lat="46.12092" lon="4.71759">
        <ele>245.25415</ele>
        <time>2022-11-06T14:36:41.000Z</time>
      </trkpt>
      <trkpt lat="46.1209" lon="4.71767">
        <ele>245.13789</ele>
        <time>2022-11-06T14:36:42.000Z</time>
      </trkpt>
      <trkpt lat="46.12087" lon="4.71777">
        <ele>245.02078</ele>
        <time>2022-11-06T14:36:43.000Z</time>
      </trkpt>
      <trkpt lat="46.12086" lon="4.71787">
        <ele>244.93552</ele>
        <time>2022-11-06T14:36:44.000Z</time>
      </trkpt>
      <trkpt lat="46.12085" lon="4.71797">
        <ele>244.94046</ele>
        <time>2022-11-06T14:36:45.000Z</time>
      </trkpt>
      <trkpt lat="46.12086" lon="4.71806">
        <ele>244.93765</ele>
        <time>2022-11-06T14:36:46.000Z</time>
      </trkpt>
      <trkpt lat="46.12084" lon="4.71817">
        <ele>244.9664</ele>
        <time>2022-11-06T14:36:47.000Z</time>
      </trkpt>
      <trkpt lat="46.12086" lon="4.71827">
        <ele>245.0195</ele>
        <time>2022-11-06T14:36:48.000Z</time>
      </trkpt>
      <trkpt lat="46.12087" lon="4.71835">
        <ele>244.9928</ele>
        <time>2022-11-06T14:36:49.000Z</time>
      </trkpt>
      <trkpt lat="46.12089" lon="4.71843">
        <ele>244.93661</ele>
        <time>2022-11-06T14:36:50.000Z</time>
      </trkpt>
      <trkpt lat="46.12093" lon="4.71848">
        <ele>244.91687</ele>
        <time>2022-11-06T14:36:51.000Z</time>
      </trkpt>
      <trkpt lat="46.12099" lon="4.71853">
        <ele>244.8826</ele>
        <time>2022-11-06T14:36:52.000Z</time>
      </trkpt>
      <trkpt lat="46.12104" lon="4.71855">
        <ele>244.8331</ele>
        <time>2022-11-06T14:36:53.000Z</time>
      </trkpt>
      <trkpt lat="46.12109" lon="4.71855">
        <ele>244.79573</ele>
        <time>2022-11-06T14:36:54.000Z</time>
      </trkpt>
      <trkpt lat="46.12114" lon="4.71854">
        <ele>244.7446</ele>
        <time>2022-11-06T14:36:55.000Z</time>
      </trkpt>
      <trkpt lat="46.12119" lon="4.71852">
        <ele>244.6713</ele>
        <time>2022-11-06T14:36:56.000Z</time>
      </trkpt>
      <trkpt lat="46.12123" lon="4.71851">
        <ele>244.62415</ele>
        <time>2022-11-06T14:36:57.000Z</time>
      </trkpt>
      <trkpt lat="46.12127" lon="4.71849">
        <ele>244.57365</ele>
        <time>2022-11-06T14:36:58.000Z</time>
      </trkpt>
      <trkpt lat="46.12131" lon="4.71849">
        <ele>244.50516</ele>
        <time>2022-11-06T14:36:59.000Z</time>
      </trkpt>
      <trkpt lat="46.12135" lon="4.71849">
        <ele>244.47488</ele>
        <time>2022-11-06T14:37:00.000Z</time>
      </trkpt>
      <trkpt lat="46.12138" lon="4.7185">
        <ele>244.43513</ele>
        <time>2022-11-06T14:37:01.000Z</time>
      </trkpt>
      <trkpt lat="46.12142" lon="4.71851">
        <ele>244.38655</ele>
        <time>2022-11-06T14:37:02.000Z</time>
      </trkpt>
    </trkseg>
  </trk>
</gpx>